<?xml version='1.0' encoding='UTF-8'?><gpx version="1.1" creator="JPX - https://github.com/jenetics/jpx" xmlns="http://www.topografix.com/GPX/1/1"><trk><trkseg><trkpt lat="44.1508034" lon="10.4124427"><ele>546.0</ele><time>2026-04-22T09:58:28Z</time></trkpt><trkpt lat="44.1508203" lon="10.4123222"><ele>546.0</ele><time>2026-04-22T09:58:30Z</time></trkpt><trkpt lat="44.1508344" lon="10.4122081"><ele>546.0</ele><time>2026-04-22T09:58:32Z</time></trkpt><trkpt lat="44.1508522" lon="10.4121111"><ele>546.0</ele><time>2026-04-22T09:58:35Z</time></trkpt><trkpt lat="44.150929" lon="10.412099"><ele>546.0</ele><time>2026-04-22T09:58:40Z</time></trkpt><trkpt lat="44.1509958" lon="10.4120998"><ele>546.0</ele><time>2026-04-22T09:58:43Z</time></trkpt><trkpt lat="44.1510595" lon="10.4120591"><ele>543.5</ele><time>2026-04-22T09:58:46Z</time></trkpt><trkpt lat="44.1510382" lon="10.4119396"><ele>541.0</ele><time>2026-04-22T09:58:49Z</time></trkpt><trkpt lat="44.1509687" lon="10.4118879"><ele>538.5</ele><time>2026-04-22T09:58:51Z</time></trkpt><trkpt lat="44.1509116" lon="10.4118229"><ele>536.0</ele><time>2026-04-22T09:58:54Z</time></trkpt><trkpt lat="44.1509824" lon="10.4117581"><ele>533.5</ele><time>2026-04-22T09:58:58Z</time></trkpt><trkpt lat="44.1510715" lon="10.4117517"><ele>531.0</ele><time>2026-04-22T09:59:01Z</time></trkpt><trkpt lat="44.1511617" lon="10.411742"><ele>531.0</ele><time>2026-04-22T09:59:04Z</time></trkpt><trkpt lat="44.1512479" lon="10.4117241"><ele>531.0</ele><time>2026-04-22T09:59:07Z</time></trkpt><trkpt lat="44.151343" lon="10.4117083"><ele>531.0</ele><time>2026-04-22T09:59:10Z</time></trkpt><trkpt lat="44.1514075" lon="10.4117026"><ele>531.0</ele><time>2026-04-22T09:59:12Z</time></trkpt><trkpt lat="44.151471" lon="10.4116868"><ele>531.0</ele><time>2026-04-22T09:59:14Z</time></trkpt><trkpt lat="44.1515638" lon="10.4116728"><ele>531.0</ele><time>2026-04-22T09:59:17Z</time></trkpt><trkpt lat="44.1516586" lon="10.4116652"><ele>532.5</ele><time>2026-04-22T09:59:20Z</time></trkpt><trkpt lat="44.1517481" lon="10.411648"><ele>534.0</ele><time>2026-04-22T09:59:23Z</time></trkpt><trkpt lat="44.1518348" lon="10.4116074"><ele>535.5</ele><time>2026-04-22T09:59:26Z</time></trkpt><trkpt lat="44.1519175" lon="10.4115602"><ele>537.0</ele><time>2026-04-22T09:59:29Z</time></trkpt><trkpt lat="44.1519894" lon="10.4114892"><ele>538.5</ele><time>2026-04-22T09:59:32Z</time></trkpt><trkpt lat="44.152057" lon="10.4114173"><ele>540.0</ele><time>2026-04-22T09:59:35Z</time></trkpt><trkpt lat="44.1521372" lon="10.4113754"><ele>540.2</ele><time>2026-04-22T09:59:38Z</time></trkpt><trkpt lat="44.1522132" lon="10.4113161"><ele>540.4</ele><time>2026-04-22T09:59:41Z</time></trkpt><trkpt lat="44.1523084" lon="10.4112602"><ele>540.6</ele><time>2026-04-22T09:59:44.022Z</time></trkpt><trkpt lat="44.1523883" lon="10.4112204"><ele>540.8</ele><time>2026-04-22T09:59:47Z</time></trkpt><trkpt lat="44.152471" lon="10.411161"><ele>541.0</ele><time>2026-04-22T09:59:50.017Z</time></trkpt><trkpt lat="44.152549" lon="10.4111039"><ele>541.0</ele><time>2026-04-22T09:59:53Z</time></trkpt><trkpt lat="44.1526332" lon="10.4110636"><ele>541.0</ele><time>2026-04-22T09:59:56.012Z</time></trkpt><trkpt lat="44.1527137" lon="10.4110348"><ele>541.0</ele><time>2026-04-22T09:59:59Z</time></trkpt><trkpt lat="44.1528015" lon="10.4110327"><ele>541.0</ele><time>2026-04-22T10:00:02.106Z</time></trkpt><trkpt lat="44.1528849" lon="10.4110596"><ele>541.0</ele><time>2026-04-22T10:00:05Z</time></trkpt><trkpt lat="44.1529657" lon="10.4111099"><ele>541.0</ele><time>2026-04-22T10:00:08.002Z</time></trkpt><trkpt lat="44.1530434" lon="10.4111618"><ele>541.0</ele><time>2026-04-22T10:00:11.056Z</time></trkpt><trkpt lat="44.1531257" lon="10.4111916"><ele>541.0</ele><time>2026-04-22T10:00:14Z</time></trkpt><trkpt lat="44.1532051" lon="10.4112239"><ele>541.0</ele><time>2026-04-22T10:00:17Z</time></trkpt><trkpt lat="44.1532846" lon="10.4112523"><ele>541.0</ele><time>2026-04-22T10:00:20Z</time></trkpt><trkpt lat="44.1533712" lon="10.411278"><ele>541.0</ele><time>2026-04-22T10:00:23.046Z</time></trkpt><trkpt lat="44.1534523" lon="10.4112986"><ele>541.0</ele><time>2026-04-22T10:00:25.913Z</time></trkpt><trkpt lat="44.1535409" lon="10.411326"><ele>542.3333333333334</ele><time>2026-04-22T10:00:29.041Z</time></trkpt><trkpt lat="44.1536255" lon="10.4113397"><ele>543.6666666666667</ele><time>2026-04-22T10:00:32.074Z</time></trkpt><trkpt lat="44.1537147" lon="10.4113304"><ele>545.0</ele><time>2026-04-22T10:00:35.049Z</time></trkpt><trkpt lat="44.1537981" lon="10.4113043"><ele>546.3333333333334</ele><time>2026-04-22T10:00:38Z</time></trkpt><trkpt lat="44.153883" lon="10.4112776"><ele>547.6666666666666</ele><time>2026-04-22T10:00:41.03Z</time></trkpt><trkpt lat="44.1539631" lon="10.4112613"><ele>549.0</ele><time>2026-04-22T10:00:44Z</time></trkpt><trkpt lat="44.1540487" lon="10.4112488"><ele>551.1666666666666</ele><time>2026-04-22T10:00:47.025Z</time></trkpt><trkpt lat="44.1541297" lon="10.4112292"><ele>553.3333333333334</ele><time>2026-04-22T10:00:50Z</time></trkpt><trkpt lat="44.1542184" lon="10.4112184"><ele>555.5</ele><time>2026-04-22T10:00:53.02Z</time></trkpt><trkpt lat="44.1543019" lon="10.4112085"><ele>557.6666666666667</ele><time>2026-04-22T10:00:56Z</time></trkpt><trkpt lat="44.1543878" lon="10.4111931"><ele>559.8333333333334</ele><time>2026-04-22T10:00:59.015Z</time></trkpt><trkpt lat="44.1544683" lon="10.4111749"><ele>562.0</ele><time>2026-04-22T10:01:02Z</time></trkpt><trkpt lat="44.1545322" lon="10.4111677"><ele>562.0</ele><time>2026-04-22T10:01:04.064Z</time></trkpt><trkpt lat="44.15462" lon="10.4111632"><ele>562.0</ele><time>2026-04-22T10:01:07.046Z</time></trkpt><trkpt lat="44.1546951" lon="10.4111638"><ele>562.0</ele><time>2026-04-22T10:01:10Z</time></trkpt><trkpt lat="44.1547824" lon="10.4111577"><ele>562.0</ele><time>2026-04-22T10:01:13Z</time></trkpt><trkpt lat="44.1548694" lon="10.4111528"><ele>562.0</ele><time>2026-04-22T10:01:16Z</time></trkpt><trkpt lat="44.1549585" lon="10.4111456"><ele>562.0</ele><time>2026-04-22T10:01:19Z</time></trkpt><trkpt lat="44.1550491" lon="10.4111332"><ele>562.8333333333334</ele><time>2026-04-22T10:01:22Z</time></trkpt><trkpt lat="44.1551361" lon="10.4111299"><ele>563.6666666666667</ele><time>2026-04-22T10:01:25Z</time></trkpt><trkpt lat="44.1552228" lon="10.4111249"><ele>564.5</ele><time>2026-04-22T10:01:28Z</time></trkpt><trkpt lat="44.1553134" lon="10.4111138"><ele>565.3333333333334</ele><time>2026-04-22T10:01:31Z</time></trkpt><trkpt lat="44.1554014" lon="10.4110967"><ele>566.1666666666666</ele><time>2026-04-22T10:01:34Z</time></trkpt><trkpt lat="44.1554898" lon="10.4110739"><ele>567.0</ele><time>2026-04-22T10:01:37Z</time></trkpt><trkpt lat="44.1555752" lon="10.4110552"><ele>567.0</ele><time>2026-04-22T10:01:40Z</time></trkpt><trkpt lat="44.1556632" lon="10.4110289"><ele>567.0</ele><time>2026-04-22T10:01:43Z</time></trkpt><trkpt lat="44.1557503" lon="10.4110054"><ele>567.0</ele><time>2026-04-22T10:01:46Z</time></trkpt><trkpt lat="44.1558354" lon="10.4109847"><ele>567.0</ele><time>2026-04-22T10:01:49Z</time></trkpt><trkpt lat="44.1559228" lon="10.4109567"><ele>567.0</ele><time>2026-04-22T10:01:52Z</time></trkpt><trkpt lat="44.1560088" lon="10.4109253"><ele>567.0</ele><time>2026-04-22T10:01:55Z</time></trkpt><trkpt lat="44.1560977" lon="10.4109067"><ele>568.4</ele><time>2026-04-22T10:01:58Z</time></trkpt><trkpt lat="44.1561848" lon="10.4108725"><ele>569.8000000000001</ele><time>2026-04-22T10:02:01Z</time></trkpt><trkpt lat="44.1562755" lon="10.4108404"><ele>571.2</ele><time>2026-04-22T10:02:04Z</time></trkpt><trkpt lat="44.1563626" lon="10.4108098"><ele>572.6</ele><time>2026-04-22T10:02:07Z</time></trkpt><trkpt lat="44.1564449" lon="10.4107625"><ele>574.0</ele><time>2026-04-22T10:02:10Z</time></trkpt><trkpt lat="44.1565281" lon="10.4107265"><ele>575.8333333333334</ele><time>2026-04-22T10:02:12.999Z</time></trkpt><trkpt lat="44.1566173" lon="10.4106891"><ele>577.6666666666667</ele><time>2026-04-22T10:02:16Z</time></trkpt><trkpt lat="44.1567068" lon="10.410656"><ele>579.5</ele><time>2026-04-22T10:02:19Z</time></trkpt><trkpt lat="44.1567941" lon="10.4106363"><ele>581.3333333333334</ele><time>2026-04-22T10:02:22Z</time></trkpt><trkpt lat="44.1568824" lon="10.410643"><ele>583.1666666666666</ele><time>2026-04-22T10:02:25Z</time></trkpt><trkpt lat="44.1569557" lon="10.4105935"><ele>585.0</ele><time>2026-04-22T10:02:28Z</time></trkpt><trkpt lat="44.1570299" lon="10.4105053"><ele>582.8333333333334</ele><time>2026-04-22T10:02:31Z</time></trkpt><trkpt lat="44.15709" lon="10.4104251"><ele>580.6666666666666</ele><time>2026-04-22T10:02:33Z</time></trkpt><trkpt lat="44.1571464" lon="10.4103115"><ele>578.5</ele><time>2026-04-22T10:02:35Z</time></trkpt><trkpt lat="44.1571862" lon="10.4101606"><ele>576.3333333333333</ele><time>2026-04-22T10:02:37Z</time></trkpt><trkpt lat="44.1572021" lon="10.4100738"><ele>574.1666666666666</ele><time>2026-04-22T10:02:38Z</time></trkpt><trkpt lat="44.1572223" lon="10.4099838"><ele>572.0</ele><time>2026-04-22T10:02:39Z</time></trkpt><trkpt lat="44.1572445" lon="10.4098842"><ele>572.0</ele><time>2026-04-22T10:02:40Z</time></trkpt><trkpt lat="44.1572703" lon="10.4097836"><ele>572.0</ele><time>2026-04-22T10:02:41Z</time></trkpt><trkpt lat="44.1572989" lon="10.4096786"><ele>572.0</ele><time>2026-04-22T10:02:42Z</time></trkpt><trkpt lat="44.157324" lon="10.4095716"><ele>572.0</ele><time>2026-04-22T10:02:43Z</time></trkpt><trkpt lat="44.1573465" lon="10.4094601"><ele>572.0</ele><time>2026-04-22T10:02:44Z</time></trkpt><trkpt lat="44.1573718" lon="10.4093445"><ele>572.0</ele><time>2026-04-22T10:02:45Z</time></trkpt><trkpt lat="44.1574002" lon="10.4092259"><ele>573.0</ele><time>2026-04-22T10:02:46Z</time></trkpt><trkpt lat="44.1574309" lon="10.4091051"><ele>574.0</ele><time>2026-04-22T10:02:47Z</time></trkpt><trkpt lat="44.1574595" lon="10.4089793"><ele>575.0</ele><time>2026-04-22T10:02:48Z</time></trkpt><trkpt lat="44.1574966" lon="10.4088518"><ele>576.0</ele><time>2026-04-22T10:02:49Z</time></trkpt><trkpt lat="44.1575501" lon="10.4087338"><ele>577.0</ele><time>2026-04-22T10:02:50Z</time></trkpt><trkpt lat="44.1576198" lon="10.4086257"><ele>573.4</ele><time>2026-04-22T10:02:51Z</time></trkpt><trkpt lat="44.1577063" lon="10.4085313"><ele>569.8000000000001</ele><time>2026-04-22T10:02:52Z</time></trkpt><trkpt lat="44.1578017" lon="10.4084679"><ele>566.2</ele><time>2026-04-22T10:02:53Z</time></trkpt><trkpt lat="44.1579054" lon="10.4084262"><ele>562.6</ele><time>2026-04-22T10:02:54Z</time></trkpt><trkpt lat="44.1580169" lon="10.4084191"><ele>559.0</ele><time>2026-04-22T10:02:55Z</time></trkpt><trkpt lat="44.1581257" lon="10.4084445"><ele>561.25</ele><time>2026-04-22T10:02:56Z</time></trkpt><trkpt lat="44.1582317" lon="10.4084783"><ele>563.5</ele><time>2026-04-22T10:02:57Z</time></trkpt><trkpt lat="44.1583379" lon="10.4085329"><ele>565.75</ele><time>2026-04-22T10:02:58Z</time></trkpt><trkpt lat="44.1584476" lon="10.408591"><ele>568.0</ele><time>2026-04-22T10:02:59Z</time></trkpt><trkpt lat="44.158557" lon="10.4086503"><ele>568.0</ele><time>2026-04-22T10:03:00Z</time></trkpt><trkpt lat="44.1586681" lon="10.4086948"><ele>568.0</ele><time>2026-04-22T10:03:01Z</time></trkpt><trkpt lat="44.1587815" lon="10.4087353"><ele>568.0</ele><time>2026-04-22T10:03:02Z</time></trkpt><trkpt lat="44.1589017" lon="10.4087557"><ele>568.0</ele><time>2026-04-22T10:03:03Z</time></trkpt><trkpt lat="44.1590138" lon="10.4087626"><ele>568.0</ele><time>2026-04-22T10:03:04Z</time></trkpt><trkpt lat="44.1591261" lon="10.4087633"><ele>568.0</ele><time>2026-04-22T10:03:05Z</time></trkpt><trkpt lat="44.1592326" lon="10.4087566"><ele>568.0</ele><time>2026-04-22T10:03:06Z</time></trkpt><trkpt lat="44.1593207" lon="10.4087175"><ele>568.0</ele><time>2026-04-22T10:03:07Z</time></trkpt><trkpt lat="44.1593883" lon="10.408653"><ele>568.0</ele><time>2026-04-22T10:03:08Z</time></trkpt><trkpt lat="44.1594343" lon="10.4085615"><ele>568.0</ele><time>2026-04-22T10:03:09Z</time></trkpt><trkpt lat="44.1594449" lon="10.4084556"><ele>568.0</ele><time>2026-04-22T10:03:10Z</time></trkpt><trkpt lat="44.1594307" lon="10.4083565"><ele>568.0</ele><time>2026-04-22T10:03:11Z</time></trkpt><trkpt lat="44.1593961" lon="10.4082565"><ele>568.0</ele><time>2026-04-22T10:03:12Z</time></trkpt><trkpt lat="44.159354" lon="10.4081745"><ele>568.0</ele><time>2026-04-22T10:03:13Z</time></trkpt><trkpt lat="44.1593095" lon="10.4080898"><ele>568.0</ele><time>2026-04-22T10:03:14Z</time></trkpt><trkpt lat="44.1592642" lon="10.4080011"><ele>569.4285714285714</ele><time>2026-04-22T10:03:15Z</time></trkpt><trkpt lat="44.1592154" lon="10.4079366"><ele>570.8571428571428</ele><time>2026-04-22T10:03:16Z</time></trkpt><trkpt lat="44.1591609" lon="10.407874"><ele>572.2857142857142</ele><time>2026-04-22T10:03:17Z</time></trkpt><trkpt lat="44.1591102" lon="10.4078104"><ele>573.7142857142857</ele><time>2026-04-22T10:03:18Z</time></trkpt><trkpt lat="44.1590613" lon="10.4077399"><ele>575.1428571428571</ele><time>2026-04-22T10:03:19Z</time></trkpt><trkpt lat="44.1590145" lon="10.4076637"><ele>576.5714285714286</ele><time>2026-04-22T10:03:20Z</time></trkpt><trkpt lat="44.1589717" lon="10.4075854"><ele>578.0</ele><time>2026-04-22T10:03:21Z</time></trkpt><trkpt lat="44.1589318" lon="10.4075112"><ele>574.7142857142858</ele><time>2026-04-22T10:03:22Z</time></trkpt><trkpt lat="44.1588902" lon="10.4074325"><ele>571.4285714285714</ele><time>2026-04-22T10:03:23Z</time></trkpt><trkpt lat="44.1588563" lon="10.4073577"><ele>568.1428571428571</ele><time>2026-04-22T10:03:24Z</time></trkpt><trkpt lat="44.1588242" lon="10.4072754"><ele>564.8571428571429</ele><time>2026-04-22T10:03:25Z</time></trkpt><trkpt lat="44.1587913" lon="10.4071942"><ele>561.5714285714286</ele><time>2026-04-22T10:03:26Z</time></trkpt><trkpt lat="44.1587593" lon="10.4071157"><ele>558.2857142857143</ele><time>2026-04-22T10:03:27Z</time></trkpt><trkpt lat="44.1587256" lon="10.4070362"><ele>555.0</ele><time>2026-04-22T10:03:28Z</time></trkpt><trkpt lat="44.1586629" lon="10.4068783"><ele>555.0000000000001</ele><time>2026-04-22T10:03:30Z</time></trkpt><trkpt lat="44.1586266" lon="10.4068006"><ele>555.0</ele><time>2026-04-22T10:03:31Z</time></trkpt><trkpt lat="44.1585948" lon="10.4067163"><ele>555.0</ele><time>2026-04-22T10:03:32Z</time></trkpt><trkpt lat="44.1585638" lon="10.4066352"><ele>555.0</ele><time>2026-04-22T10:03:33Z</time></trkpt><trkpt lat="44.1585355" lon="10.4065561"><ele>555.0</ele><time>2026-04-22T10:03:34Z</time></trkpt><trkpt lat="44.158506" lon="10.4064766"><ele>555.0000000000001</ele><time>2026-04-22T10:03:35Z</time></trkpt><trkpt lat="44.1584684" lon="10.4063912"><ele>555.0</ele><time>2026-04-22T10:03:36Z</time></trkpt><trkpt lat="44.1584355" lon="10.406308"><ele>556.1428571428572</ele><time>2026-04-22T10:03:37Z</time></trkpt><trkpt lat="44.1584081" lon="10.4062218"><ele>557.2857142857143</ele><time>2026-04-22T10:03:38Z</time></trkpt><trkpt lat="44.1583819" lon="10.406121"><ele>558.4285714285714</ele><time>2026-04-22T10:03:39Z</time></trkpt><trkpt lat="44.1583584" lon="10.4060324"><ele>559.5714285714287</ele><time>2026-04-22T10:03:40Z</time></trkpt><trkpt lat="44.1583423" lon="10.4059352"><ele>560.7142857142858</ele><time>2026-04-22T10:03:41Z</time></trkpt><trkpt lat="44.1583475" lon="10.4058411"><ele>561.8571428571429</ele><time>2026-04-22T10:03:42Z</time></trkpt><trkpt lat="44.1583518" lon="10.4057427"><ele>563.0</ele><time>2026-04-22T10:03:43Z</time></trkpt><trkpt lat="44.1583652" lon="10.4056443"><ele>563.0</ele><time>2026-04-22T10:03:44Z</time></trkpt><trkpt lat="44.158392" lon="10.4055489"><ele>563.0</ele><time>2026-04-22T10:03:45Z</time></trkpt><trkpt lat="44.1584193" lon="10.405456"><ele>563.0</ele><time>2026-04-22T10:03:46Z</time></trkpt><trkpt lat="44.1584566" lon="10.4053758"><ele>563.0</ele><time>2026-04-22T10:03:47Z</time></trkpt><trkpt lat="44.1585002" lon="10.4053009"><ele>563.0</ele><time>2026-04-22T10:03:48Z</time></trkpt><trkpt lat="44.158547" lon="10.4052254"><ele>563.0</ele><time>2026-04-22T10:03:49Z</time></trkpt><trkpt lat="44.1585978" lon="10.4051479"><ele>563.0</ele><time>2026-04-22T10:03:50Z</time></trkpt><trkpt lat="44.1586395" lon="10.4050689"><ele>561.5714285714286</ele><time>2026-04-22T10:03:51Z</time></trkpt><trkpt lat="44.1586882" lon="10.4049874"><ele>560.1428571428571</ele><time>2026-04-22T10:03:52Z</time></trkpt><trkpt lat="44.1587335" lon="10.4049088"><ele>558.7142857142858</ele><time>2026-04-22T10:03:53Z</time></trkpt><trkpt lat="44.1587784" lon="10.4048239"><ele>557.2857142857142</ele><time>2026-04-22T10:03:54Z</time></trkpt><trkpt lat="44.1588206" lon="10.404742"><ele>555.8571428571429</ele><time>2026-04-22T10:03:55Z</time></trkpt><trkpt lat="44.1588638" lon="10.4046643"><ele>554.4285714285714</ele><time>2026-04-22T10:03:56Z</time></trkpt><trkpt lat="44.1589106" lon="10.4045865"><ele>553.0</ele><time>2026-04-22T10:03:57Z</time></trkpt><trkpt lat="44.1589528" lon="10.4045075"><ele>552.5714285714286</ele><time>2026-04-22T10:03:58Z</time></trkpt><trkpt lat="44.1589917" lon="10.4044286"><ele>552.1428571428571</ele><time>2026-04-22T10:03:59Z</time></trkpt><trkpt lat="44.159032" lon="10.4043514"><ele>551.7142857142858</ele><time>2026-04-22T10:04:00Z</time></trkpt><trkpt lat="44.1590722" lon="10.4042738"><ele>551.2857142857142</ele><time>2026-04-22T10:04:01Z</time></trkpt><trkpt lat="44.159115" lon="10.404201"><ele>550.8571428571429</ele><time>2026-04-22T10:04:02Z</time></trkpt><trkpt lat="44.1591554" lon="10.404128"><ele>550.4285714285714</ele><time>2026-04-22T10:04:03Z</time></trkpt><trkpt lat="44.159196" lon="10.4040551"><ele>550.0</ele><time>2026-04-22T10:04:04Z</time></trkpt><trkpt lat="44.1592331" lon="10.4039839"><ele>550.0</ele><time>2026-04-22T10:04:05Z</time></trkpt><trkpt lat="44.1592716" lon="10.4039123"><ele>550.0</ele><time>2026-04-22T10:04:06Z</time></trkpt><trkpt lat="44.1593094" lon="10.4038397"><ele>550.0</ele><time>2026-04-22T10:04:07Z</time></trkpt><trkpt lat="44.1594021" lon="10.4037325"><ele>550.0</ele><time>2026-04-22T10:04:09Z</time></trkpt><trkpt lat="44.1595052" lon="10.4036352"><ele>550.0</ele><time>2026-04-22T10:04:11Z</time></trkpt><trkpt lat="44.1595639" lon="10.4035995"><ele>550.0</ele><time>2026-04-22T10:04:12Z</time></trkpt><trkpt lat="44.1596849" lon="10.4035488"><ele>550.0</ele><time>2026-04-22T10:04:14Z</time></trkpt><trkpt lat="44.1598053" lon="10.4035107"><ele>550.0</ele><time>2026-04-22T10:04:16Z</time></trkpt><trkpt lat="44.1599213" lon="10.4034888"><ele>550.0</ele><time>2026-04-22T10:04:18Z</time></trkpt><trkpt lat="44.1600357" lon="10.4034694"><ele>550.0</ele><time>2026-04-22T10:04:20Z</time></trkpt><trkpt lat="44.1601561" lon="10.403443"><ele>552.5</ele><time>2026-04-22T10:04:22Z</time></trkpt><trkpt lat="44.1602782" lon="10.4034062"><ele>555.0</ele><time>2026-04-22T10:04:24Z</time></trkpt><trkpt lat="44.1603377" lon="10.4033726"><ele>557.5</ele><time>2026-04-22T10:04:25Z</time></trkpt><trkpt lat="44.1603941" lon="10.4033308"><ele>560.0</ele><time>2026-04-22T10:04:26Z</time></trkpt><trkpt lat="44.160448" lon="10.4032703"><ele>562.5</ele><time>2026-04-22T10:04:27Z</time></trkpt><trkpt lat="44.1605307" lon="10.4031457"><ele>565.0</ele><time>2026-04-22T10:04:29Z</time></trkpt><trkpt lat="44.1606058" lon="10.4030116"><ele>565.2</ele><time>2026-04-22T10:04:31Z</time></trkpt><trkpt lat="44.1606485" lon="10.4029442"><ele>565.4</ele><time>2026-04-22T10:04:32Z</time></trkpt><trkpt lat="44.160732" lon="10.402811"><ele>565.6</ele><time>2026-04-22T10:04:34Z</time></trkpt><trkpt lat="44.1608236" lon="10.4026947"><ele>565.8</ele><time>2026-04-22T10:04:36Z</time></trkpt><trkpt lat="44.1609185" lon="10.40258"><ele>566.0</ele><time>2026-04-22T10:04:38Z</time></trkpt><trkpt lat="44.1610152" lon="10.4024696"><ele>566.0</ele><time>2026-04-22T10:04:40Z</time></trkpt><trkpt lat="44.1611129" lon="10.4023614"><ele>566.0</ele><time>2026-04-22T10:04:42Z</time></trkpt><trkpt lat="44.1612057" lon="10.4022529"><ele>566.0</ele><time>2026-04-22T10:04:44Z</time></trkpt><trkpt lat="44.1612995" lon="10.4021394"><ele>566.0</ele><time>2026-04-22T10:04:46Z</time></trkpt><trkpt lat="44.1613464" lon="10.4020745"><ele>566.0</ele><time>2026-04-22T10:04:47Z</time></trkpt><trkpt lat="44.1613927" lon="10.4020045"><ele>566.7142857142858</ele><time>2026-04-22T10:04:48Z</time></trkpt><trkpt lat="44.1614358" lon="10.4019318"><ele>567.4285714285714</ele><time>2026-04-22T10:04:49Z</time></trkpt><trkpt lat="44.1614748" lon="10.4018502"><ele>568.1428571428571</ele><time>2026-04-22T10:04:50Z</time></trkpt><trkpt lat="44.161511" lon="10.4017674"><ele>568.8571428571429</ele><time>2026-04-22T10:04:51Z</time></trkpt><trkpt lat="44.1615456" lon="10.4016794"><ele>569.5714285714286</ele><time>2026-04-22T10:04:52Z</time></trkpt><trkpt lat="44.161579" lon="10.4015857"><ele>570.2857142857143</ele><time>2026-04-22T10:04:53Z</time></trkpt><trkpt lat="44.1616125" lon="10.4014865"><ele>571.0</ele><time>2026-04-22T10:04:54Z</time></trkpt><trkpt lat="44.1616434" lon="10.4013873"><ele>568.3333333333334</ele><time>2026-04-22T10:04:55Z</time></trkpt><trkpt lat="44.1616759" lon="10.4012918"><ele>565.6666666666667</ele><time>2026-04-22T10:04:56Z</time></trkpt><trkpt lat="44.1617153" lon="10.4012001"><ele>563.0</ele><time>2026-04-22T10:04:57Z</time></trkpt><trkpt lat="44.1617653" lon="10.4011159"><ele>560.3333333333334</ele><time>2026-04-22T10:04:58Z</time></trkpt><trkpt lat="44.1618232" lon="10.4010404"><ele>557.6666666666666</ele><time>2026-04-22T10:04:59Z</time></trkpt><trkpt lat="44.1618928" lon="10.4009831"><ele>555.0</ele><time>2026-04-22T10:05:00Z</time></trkpt><trkpt lat="44.1619624" lon="10.4009439"><ele>555.0000000000001</ele><time>2026-04-22T10:05:01Z</time></trkpt><trkpt lat="44.1620285" lon="10.4009106"><ele>555.0</ele><time>2026-04-22T10:05:02Z</time></trkpt><trkpt lat="44.1620958" lon="10.4008765"><ele>555.0</ele><time>2026-04-22T10:05:03Z</time></trkpt><trkpt lat="44.1621668" lon="10.4008428"><ele>555.0</ele><time>2026-04-22T10:05:04Z</time></trkpt><trkpt lat="44.1622329" lon="10.4008146"><ele>555.0</ele><time>2026-04-22T10:05:05Z</time></trkpt><trkpt lat="44.1622948" lon="10.4007718"><ele>555.0000000000001</ele><time>2026-04-22T10:05:06Z</time></trkpt><trkpt lat="44.1623493" lon="10.4007119"><ele>555.0</ele><time>2026-04-22T10:05:07Z</time></trkpt><trkpt lat="44.1623893" lon="10.4006324"><ele>554.2857142857143</ele><time>2026-04-22T10:05:08Z</time></trkpt><trkpt lat="44.1624157" lon="10.4005412"><ele>553.5714285714286</ele><time>2026-04-22T10:05:09Z</time></trkpt><trkpt lat="44.1624301" lon="10.4004415"><ele>552.8571428571429</ele><time>2026-04-22T10:05:10Z</time></trkpt><trkpt lat="44.1624212" lon="10.4003504"><ele>552.1428571428571</ele><time>2026-04-22T10:05:11Z</time></trkpt><trkpt lat="44.1623951" lon="10.4002637"><ele>551.4285714285714</ele><time>2026-04-22T10:05:12Z</time></trkpt><trkpt lat="44.162357" lon="10.4001892"><ele>550.7142857142858</ele><time>2026-04-22T10:05:13Z</time></trkpt><trkpt lat="44.1623121" lon="10.4001168"><ele>550.0</ele><time>2026-04-22T10:05:14Z</time></trkpt><trkpt lat="44.1622653" lon="10.4000458"><ele>550.0</ele><time>2026-04-22T10:05:15Z</time></trkpt><trkpt lat="44.1622136" lon="10.3999734"><ele>550.0</ele><time>2026-04-22T10:05:16Z</time></trkpt><trkpt lat="44.1621688" lon="10.3999008"><ele>550.0</ele><time>2026-04-22T10:05:17Z</time></trkpt><trkpt lat="44.162121" lon="10.3998304"><ele>550.0</ele><time>2026-04-22T10:05:18Z</time></trkpt><trkpt lat="44.1620751" lon="10.3997579"><ele>550.0</ele><time>2026-04-22T10:05:19Z</time></trkpt><trkpt lat="44.1620272" lon="10.3996905"><ele>550.0</ele><time>2026-04-22T10:05:20Z</time></trkpt><trkpt lat="44.1619757" lon="10.3996288"><ele>550.0</ele><time>2026-04-22T10:05:21Z</time></trkpt><trkpt lat="44.1619255" lon="10.3995693"><ele>551.3333333333334</ele><time>2026-04-22T10:05:22Z</time></trkpt><trkpt lat="44.161816" lon="10.3994827"><ele>552.6666666666667</ele><time>2026-04-22T10:05:24Z</time></trkpt><trkpt lat="44.1617539" lon="10.399466"><ele>554.0</ele><time>2026-04-22T10:05:25Z</time></trkpt><trkpt lat="44.1616894" lon="10.3994633"><ele>555.3333333333334</ele><time>2026-04-22T10:05:26Z</time></trkpt><trkpt lat="44.1615658" lon="10.3994831"><ele>556.6666666666666</ele><time>2026-04-22T10:05:28Z</time></trkpt><trkpt lat="44.1615018" lon="10.3995021"><ele>558.0</ele><time>2026-04-22T10:05:29Z</time></trkpt><trkpt lat="44.16138" lon="10.3995354"><ele>557.9999999999999</ele><time>2026-04-22T10:05:31Z</time></trkpt><trkpt lat="44.1613161" lon="10.3995535"><ele>558.0</ele><time>2026-04-22T10:05:32Z</time></trkpt><trkpt lat="44.1612537" lon="10.3995673"><ele>558.0</ele><time>2026-04-22T10:05:33Z</time></trkpt><trkpt lat="44.161187" lon="10.3995863"><ele>558.0</ele><time>2026-04-22T10:05:34Z</time></trkpt><trkpt lat="44.1611255" lon="10.3996054"><ele>558.0</ele><time>2026-04-22T10:05:35Z</time></trkpt><trkpt lat="44.1610601" lon="10.3996247"><ele>557.9999999999999</ele><time>2026-04-22T10:05:36Z</time></trkpt><trkpt lat="44.1609926" lon="10.3996431"><ele>558.0</ele><time>2026-04-22T10:05:37Z</time></trkpt><trkpt lat="44.1609249" lon="10.3996627"><ele>556.5714285714286</ele><time>2026-04-22T10:05:38Z</time></trkpt><trkpt lat="44.1608585" lon="10.3996728"><ele>555.1428571428571</ele><time>2026-04-22T10:05:39Z</time></trkpt><trkpt lat="44.1607946" lon="10.3996758"><ele>553.7142857142858</ele><time>2026-04-22T10:05:40Z</time></trkpt><trkpt lat="44.1607268" lon="10.3996743"><ele>552.2857142857142</ele><time>2026-04-22T10:05:41Z</time></trkpt><trkpt lat="44.1606618" lon="10.3996623"><ele>550.8571428571429</ele><time>2026-04-22T10:05:42Z</time></trkpt><trkpt lat="44.1605949" lon="10.3996437"><ele>549.4285714285714</ele><time>2026-04-22T10:05:43Z</time></trkpt><trkpt lat="44.1605317" lon="10.3996167"><ele>548.0</ele><time>2026-04-22T10:05:44Z</time></trkpt><trkpt lat="44.1604677" lon="10.3995941"><ele>547.7142857142858</ele><time>2026-04-22T10:05:45Z</time></trkpt><trkpt lat="44.1604006" lon="10.3995683"><ele>547.4285714285714</ele><time>2026-04-22T10:05:46Z</time></trkpt><trkpt lat="44.1603335" lon="10.3995456"><ele>547.1428571428571</ele><time>2026-04-22T10:05:47Z</time></trkpt><trkpt lat="44.1602692" lon="10.3995139"><ele>546.8571428571429</ele><time>2026-04-22T10:05:48Z</time></trkpt><trkpt lat="44.160205" lon="10.3994756"><ele>546.5714285714286</ele><time>2026-04-22T10:05:49Z</time></trkpt><trkpt lat="44.1601437" lon="10.3994182"><ele>546.2857142857143</ele><time>2026-04-22T10:05:50Z</time></trkpt><trkpt lat="44.1600912" lon="10.3993512"><ele>546.0</ele><time>2026-04-22T10:05:51Z</time></trkpt><trkpt lat="44.1600428" lon="10.3992738"><ele>546.0</ele><time>2026-04-22T10:05:52Z</time></trkpt><trkpt lat="44.1600012" lon="10.3991879"><ele>546.0</ele><time>2026-04-22T10:05:53Z</time></trkpt><trkpt lat="44.1599585" lon="10.3991013"><ele>546.0</ele><time>2026-04-22T10:05:54Z</time></trkpt><trkpt lat="44.159916" lon="10.399014"><ele>546.0</ele><time>2026-04-22T10:05:55Z</time></trkpt><trkpt lat="44.1598729" lon="10.3989291"><ele>546.0</ele><time>2026-04-22T10:05:56Z</time></trkpt><trkpt lat="44.1598309" lon="10.3988421"><ele>546.0</ele><time>2026-04-22T10:05:57Z</time></trkpt><trkpt lat="44.1597898" lon="10.3987536"><ele>546.0</ele><time>2026-04-22T10:05:58Z</time></trkpt><trkpt lat="44.1597495" lon="10.3986698"><ele>546.0</ele><time>2026-04-22T10:05:59Z</time></trkpt><trkpt lat="44.1597101" lon="10.3985833"><ele>546.0</ele><time>2026-04-22T10:06:00Z</time></trkpt><trkpt lat="44.1596726" lon="10.398498"><ele>546.0</ele><time>2026-04-22T10:06:01Z</time></trkpt><trkpt lat="44.159637" lon="10.3984119"><ele>546.0</ele><time>2026-04-22T10:06:02Z</time></trkpt><trkpt lat="44.1596176" lon="10.398313"><ele>546.0</ele><time>2026-04-22T10:06:03Z</time></trkpt><trkpt lat="44.1596102" lon="10.3982071"><ele>546.0</ele><time>2026-04-22T10:06:04Z</time></trkpt><trkpt lat="44.1595967" lon="10.3981162"><ele>546.0</ele><time>2026-04-22T10:06:05Z</time></trkpt><trkpt lat="44.1595861" lon="10.3980193"><ele>546.0</ele><time>2026-04-22T10:06:06Z</time></trkpt><trkpt lat="44.1595814" lon="10.3979168"><ele>546.0</ele><time>2026-04-22T10:06:06.999Z</time></trkpt><trkpt lat="44.1595774" lon="10.3978126"><ele>546.0</ele><time>2026-04-22T10:06:08Z</time></trkpt><trkpt lat="44.1595722" lon="10.3976846"><ele>546.0</ele><time>2026-04-22T10:06:09Z</time></trkpt><trkpt lat="44.1595804" lon="10.3975668"><ele>546.0</ele><time>2026-04-22T10:06:10Z</time></trkpt><trkpt lat="44.1596138" lon="10.3974515"><ele>545.8</ele><time>2026-04-22T10:06:11Z</time></trkpt><trkpt lat="44.1596533" lon="10.3973404"><ele>545.6</ele><time>2026-04-22T10:06:12Z</time></trkpt><trkpt lat="44.1596906" lon="10.3972198"><ele>545.4</ele><time>2026-04-22T10:06:13Z</time></trkpt><trkpt lat="44.1597307" lon="10.3971056"><ele>545.2</ele><time>2026-04-22T10:06:14Z</time></trkpt><trkpt lat="44.1597725" lon="10.3969983"><ele>545.0</ele><time>2026-04-22T10:06:15Z</time></trkpt><trkpt lat="44.1598103" lon="10.3968832"><ele>544.5</ele><time>2026-04-22T10:06:16Z</time></trkpt><trkpt lat="44.1598466" lon="10.3967654"><ele>544.0</ele><time>2026-04-22T10:06:17Z</time></trkpt><trkpt lat="44.1598889" lon="10.3966571"><ele>543.5</ele><time>2026-04-22T10:06:18Z</time></trkpt><trkpt lat="44.1599292" lon="10.3965438"><ele>543.0</ele><time>2026-04-22T10:06:19Z</time></trkpt><trkpt lat="44.1599656" lon="10.3964357"><ele>542.5</ele><time>2026-04-22T10:06:20Z</time></trkpt><trkpt lat="44.1600046" lon="10.3963247"><ele>542.0</ele><time>2026-04-22T10:06:21Z</time></trkpt><trkpt lat="44.1600452" lon="10.3962141"><ele>541.2</ele><time>2026-04-22T10:06:22Z</time></trkpt><trkpt lat="44.1600858" lon="10.3961047"><ele>540.4000000000001</ele><time>2026-04-22T10:06:23Z</time></trkpt><trkpt lat="44.1601278" lon="10.3959903"><ele>539.5999999999999</ele><time>2026-04-22T10:06:24Z</time></trkpt><trkpt lat="44.160173" lon="10.3958769"><ele>538.8</ele><time>2026-04-22T10:06:25Z</time></trkpt><trkpt lat="44.1602239" lon="10.395762"><ele>538.0</ele><time>2026-04-22T10:06:26Z</time></trkpt><trkpt lat="44.1602702" lon="10.3956516"><ele>538.0</ele><time>2026-04-22T10:06:27Z</time></trkpt><trkpt lat="44.1603396" lon="10.3955591"><ele>538.0</ele><time>2026-04-22T10:06:28Z</time></trkpt><trkpt lat="44.1604218" lon="10.395496"><ele>538.0</ele><time>2026-04-22T10:06:29Z</time></trkpt><trkpt lat="44.1605173" lon="10.3954649"><ele>538.0</ele><time>2026-04-22T10:06:30Z</time></trkpt><trkpt lat="44.1606163" lon="10.395461"><ele>538.0</ele><time>2026-04-22T10:06:31Z</time></trkpt><trkpt lat="44.1607135" lon="10.3954946"><ele>538.0</ele><time>2026-04-22T10:06:32Z</time></trkpt><trkpt lat="44.1608063" lon="10.3955465"><ele>538.0</ele><time>2026-04-22T10:06:33Z</time></trkpt><trkpt lat="44.160902" lon="10.3956002"><ele>538.0</ele><time>2026-04-22T10:06:34Z</time></trkpt><trkpt lat="44.1609956" lon="10.3956571"><ele>538.0</ele><time>2026-04-22T10:06:35Z</time></trkpt><trkpt lat="44.1610899" lon="10.3957142"><ele>538.0</ele><time>2026-04-22T10:06:36Z</time></trkpt><trkpt lat="44.1611859" lon="10.3957677"><ele>538.0</ele><time>2026-04-22T10:06:37Z</time></trkpt><trkpt lat="44.1612848" lon="10.3958183"><ele>538.0</ele><time>2026-04-22T10:06:38Z</time></trkpt><trkpt lat="44.1613854" lon="10.3958671"><ele>538.0</ele><time>2026-04-22T10:06:39Z</time></trkpt><trkpt lat="44.1614891" lon="10.395887"><ele>538.0</ele><time>2026-04-22T10:06:40Z</time></trkpt><trkpt lat="44.1615964" lon="10.3958729"><ele>538.0</ele><time>2026-04-22T10:06:41Z</time></trkpt><trkpt lat="44.1616964" lon="10.3958229"><ele>537.4</ele><time>2026-04-22T10:06:42Z</time></trkpt><trkpt lat="44.1617786" lon="10.395763"><ele>536.8</ele><time>2026-04-22T10:06:43Z</time></trkpt><trkpt lat="44.1618588" lon="10.3956764"><ele>536.2</ele><time>2026-04-22T10:06:44Z</time></trkpt><trkpt lat="44.1619137" lon="10.3955684"><ele>535.6</ele><time>2026-04-22T10:06:45Z</time></trkpt><trkpt lat="44.1619435" lon="10.3954494"><ele>535.0</ele><time>2026-04-22T10:06:46Z</time></trkpt><trkpt lat="44.1619395" lon="10.3953275"><ele>535.0</ele><time>2026-04-22T10:06:47Z</time></trkpt><trkpt lat="44.1619155" lon="10.3952189"><ele>535.0</ele><time>2026-04-22T10:06:48Z</time></trkpt><trkpt lat="44.1618885" lon="10.3951124"><ele>535.0</ele><time>2026-04-22T10:06:49Z</time></trkpt><trkpt lat="44.1618602" lon="10.3950118"><ele>535.0</ele><time>2026-04-22T10:06:50Z</time></trkpt><trkpt lat="44.1618374" lon="10.3949084"><ele>535.0</ele><time>2026-04-22T10:06:51Z</time></trkpt><trkpt lat="44.1618148" lon="10.3948094"><ele>535.0</ele><time>2026-04-22T10:06:52Z</time></trkpt><trkpt lat="44.1617931" lon="10.3947141"><ele>535.1428571428571</ele><time>2026-04-22T10:06:53Z</time></trkpt><trkpt lat="44.1617659" lon="10.3946208"><ele>535.2857142857143</ele><time>2026-04-22T10:06:54Z</time></trkpt><trkpt lat="44.1617436" lon="10.3945267"><ele>535.4285714285714</ele><time>2026-04-22T10:06:55Z</time></trkpt><trkpt lat="44.1617217" lon="10.394434"><ele>535.5714285714286</ele><time>2026-04-22T10:06:56Z</time></trkpt><trkpt lat="44.1617002" lon="10.3943457"><ele>535.7142857142857</ele><time>2026-04-22T10:06:57Z</time></trkpt><trkpt lat="44.161679" lon="10.3942575"><ele>535.8571428571429</ele><time>2026-04-22T10:06:58Z</time></trkpt><trkpt lat="44.1616566" lon="10.3941682"><ele>536.0</ele><time>2026-04-22T10:06:59Z</time></trkpt><trkpt lat="44.161628" lon="10.3940803"><ele>536.0</ele><time>2026-04-22T10:07:00Z</time></trkpt><trkpt lat="44.1616019" lon="10.3939983"><ele>536.0</ele><time>2026-04-22T10:07:01Z</time></trkpt><trkpt lat="44.1615803" lon="10.3939115"><ele>536.0</ele><time>2026-04-22T10:07:02Z</time></trkpt><trkpt lat="44.1615566" lon="10.3938251"><ele>536.0</ele><time>2026-04-22T10:07:03Z</time></trkpt><trkpt lat="44.1615385" lon="10.3937389"><ele>536.0</ele><time>2026-04-22T10:07:04Z</time></trkpt><trkpt lat="44.1615189" lon="10.3936518"><ele>536.0</ele><time>2026-04-22T10:07:05Z</time></trkpt><trkpt lat="44.1614991" lon="10.3935657"><ele>536.0</ele><time>2026-04-22T10:07:06Z</time></trkpt><trkpt lat="44.1614626" lon="10.3933992"><ele>534.6</ele><time>2026-04-22T10:07:08Z</time></trkpt><trkpt lat="44.1614397" lon="10.3933154"><ele>533.2</ele><time>2026-04-22T10:07:09Z</time></trkpt><trkpt lat="44.1613976" lon="10.3931525"><ele>531.8</ele><time>2026-04-22T10:07:11Z</time></trkpt><trkpt lat="44.1613547" lon="10.3929891"><ele>530.4</ele><time>2026-04-22T10:07:13Z</time></trkpt><trkpt lat="44.161318" lon="10.3928275"><ele>529.0</ele><time>2026-04-22T10:07:15Z</time></trkpt><trkpt lat="44.1612921" lon="10.392658"><ele>529.0</ele><time>2026-04-22T10:07:17Z</time></trkpt><trkpt lat="44.1612599" lon="10.392483"><ele>529.0</ele><time>2026-04-22T10:07:19Z</time></trkpt><trkpt lat="44.1612513" lon="10.3923143"><ele>529.0</ele><time>2026-04-22T10:07:21Z</time></trkpt><trkpt lat="44.16125" lon="10.392226"><ele>529.0</ele><time>2026-04-22T10:07:22Z</time></trkpt><trkpt lat="44.1612486" lon="10.3920646"><ele>529.0</ele><time>2026-04-22T10:07:24Z</time></trkpt><trkpt lat="44.1612459" lon="10.3919195"><ele>528.8333333333334</ele><time>2026-04-22T10:07:26Z</time></trkpt><trkpt lat="44.1612461" lon="10.3918027"><ele>528.6666666666667</ele><time>2026-04-22T10:07:28Z</time></trkpt><trkpt lat="44.1612482" lon="10.3916917"><ele>528.5</ele><time>2026-04-22T10:07:30Z</time></trkpt><trkpt lat="44.161248" lon="10.3915853"><ele>528.3333333333334</ele><time>2026-04-22T10:07:32Z</time></trkpt><trkpt lat="44.1612528" lon="10.3914917"><ele>528.1666666666666</ele><time>2026-04-22T10:07:34Z</time></trkpt><trkpt lat="44.1612539" lon="10.3913987"><ele>528.0</ele><time>2026-04-22T10:07:36Z</time></trkpt><trkpt lat="44.1612526" lon="10.391271"><ele>528.3333333333334</ele><time>2026-04-22T10:07:39Z</time></trkpt><trkpt lat="44.1612567" lon="10.391145"><ele>528.6666666666666</ele><time>2026-04-22T10:07:42Z</time></trkpt><trkpt lat="44.1612583" lon="10.3910183"><ele>529.0</ele><time>2026-04-22T10:07:45Z</time></trkpt><trkpt lat="44.161265" lon="10.3909302"><ele>529.3333333333333</ele><time>2026-04-22T10:07:47Z</time></trkpt><trkpt lat="44.1612771" lon="10.3908434"><ele>529.6666666666666</ele><time>2026-04-22T10:07:49Z</time></trkpt><trkpt lat="44.1613044" lon="10.3907238"><ele>530.0</ele><time>2026-04-22T10:07:52Z</time></trkpt><trkpt lat="44.16135" lon="10.3906136"><ele>529.9999999999999</ele><time>2026-04-22T10:07:55Z</time></trkpt><trkpt lat="44.161408" lon="10.3905097"><ele>530.0</ele><time>2026-04-22T10:07:58Z</time></trkpt><trkpt lat="44.1614506" lon="10.3904416"><ele>530.0</ele><time>2026-04-22T10:08:00Z</time></trkpt><trkpt lat="44.1614953" lon="10.3903798"><ele>530.0</ele><time>2026-04-22T10:08:02Z</time></trkpt><trkpt lat="44.1615439" lon="10.3903211"><ele>530.0</ele><time>2026-04-22T10:08:04Z</time></trkpt><trkpt lat="44.1615936" lon="10.3902655"><ele>529.9999999999999</ele><time>2026-04-22T10:08:06Z</time></trkpt><trkpt lat="44.1616425" lon="10.3902087"><ele>530.0</ele><time>2026-04-22T10:08:07.999Z</time></trkpt><trkpt lat="44.1616916" lon="10.3901537"><ele>531.4285714285713</ele><time>2026-04-22T10:08:10Z</time></trkpt><trkpt lat="44.1617399" lon="10.3900973"><ele>532.8571428571429</ele><time>2026-04-22T10:08:12Z</time></trkpt><trkpt lat="44.1617892" lon="10.3900406"><ele>534.2857142857142</ele><time>2026-04-22T10:08:14Z</time></trkpt><trkpt lat="44.1618355" lon="10.3899805"><ele>535.7142857142857</ele><time>2026-04-22T10:08:16Z</time></trkpt><trkpt lat="44.1619085" lon="10.3899005"><ele>537.1428571428571</ele><time>2026-04-22T10:08:19Z</time></trkpt><trkpt lat="44.1619842" lon="10.3898245"><ele>538.5714285714286</ele><time>2026-04-22T10:08:22Z</time></trkpt><trkpt lat="44.1620453" lon="10.3897967"><ele>540.0</ele><time>2026-04-22T10:08:24Z</time></trkpt><trkpt lat="44.1621115" lon="10.3897905"><ele>540.0</ele><time>2026-04-22T10:08:26Z</time></trkpt><trkpt lat="44.1621743" lon="10.3898005"><ele>540.0</ele><time>2026-04-22T10:08:28Z</time></trkpt><trkpt lat="44.1622355" lon="10.3898263"><ele>540.0</ele><time>2026-04-22T10:08:30Z</time></trkpt><trkpt lat="44.1622935" lon="10.3898696"><ele>540.0</ele><time>2026-04-22T10:08:32Z</time></trkpt><trkpt lat="44.1623456" lon="10.3899263"><ele>540.0</ele><time>2026-04-22T10:08:34Z</time></trkpt><trkpt lat="44.1623935" lon="10.3899847"><ele>540.0</ele><time>2026-04-22T10:08:36Z</time></trkpt><trkpt lat="44.1624557" lon="10.3900776"><ele>540.0</ele><time>2026-04-22T10:08:39Z</time></trkpt><trkpt lat="44.1625174" lon="10.3901733"><ele>541.0</ele><time>2026-04-22T10:08:42Z</time></trkpt><trkpt lat="44.1625804" lon="10.3902736"><ele>542.0</ele><time>2026-04-22T10:08:45Z</time></trkpt><trkpt lat="44.1626363" lon="10.3903797"><ele>543.0</ele><time>2026-04-22T10:08:48Z</time></trkpt><trkpt lat="44.162685" lon="10.3904499"><ele>544.0</ele><time>2026-04-22T10:08:50Z</time></trkpt><trkpt lat="44.1627313" lon="10.3905328"><ele>545.0</ele><time>2026-04-22T10:08:52Z</time></trkpt><trkpt lat="44.1627731" lon="10.3906125"><ele>546.0</ele><time>2026-04-22T10:08:54Z</time></trkpt><trkpt lat="44.1628136" lon="10.3906888"><ele>546.5714285714286</ele><time>2026-04-22T10:08:55.999Z</time></trkpt><trkpt lat="44.1628588" lon="10.3907596"><ele>547.1428571428571</ele><time>2026-04-22T10:08:58Z</time></trkpt><trkpt lat="44.1629021" lon="10.3908302"><ele>547.7142857142858</ele><time>2026-04-22T10:09:00Z</time></trkpt><trkpt lat="44.1629467" lon="10.3909033"><ele>548.2857142857142</ele><time>2026-04-22T10:09:02Z</time></trkpt><trkpt lat="44.1629868" lon="10.3909845"><ele>548.8571428571429</ele><time>2026-04-22T10:09:04Z</time></trkpt><trkpt lat="44.1630359" lon="10.3910515"><ele>549.4285714285714</ele><time>2026-04-22T10:09:06Z</time></trkpt><trkpt lat="44.1630895" lon="10.391104"><ele>550.0</ele><time>2026-04-22T10:09:08Z</time></trkpt><trkpt lat="44.1631448" lon="10.3911502"><ele>549.1666666666667</ele><time>2026-04-22T10:09:10Z</time></trkpt><trkpt lat="44.163201" lon="10.3911943"><ele>548.3333333333334</ele><time>2026-04-22T10:09:12Z</time></trkpt><trkpt lat="44.1632595" lon="10.3912323"><ele>547.5</ele><time>2026-04-22T10:09:14Z</time></trkpt><trkpt lat="44.1633179" lon="10.3912732"><ele>546.6666666666666</ele><time>2026-04-22T10:09:16Z</time></trkpt><trkpt lat="44.163403" lon="10.3913214"><ele>545.8333333333333</ele><time>2026-04-22T10:09:19Z</time></trkpt><trkpt lat="44.1634882" lon="10.3913687"><ele>545.0</ele><time>2026-04-22T10:09:22Z</time></trkpt><trkpt lat="44.1635735" lon="10.3914236"><ele>546.5714285714286</ele><time>2026-04-22T10:09:25Z</time></trkpt><trkpt lat="44.1636311" lon="10.391467"><ele>548.1428571428572</ele><time>2026-04-22T10:09:27Z</time></trkpt><trkpt lat="44.1637017" lon="10.3915466"><ele>549.7142857142858</ele><time>2026-04-22T10:09:30Z</time></trkpt><trkpt lat="44.1637574" lon="10.391649"><ele>551.2857142857143</ele><time>2026-04-22T10:09:33Z</time></trkpt><trkpt lat="44.1637942" lon="10.3917206"><ele>552.8571428571429</ele><time>2026-04-22T10:09:35Z</time></trkpt><trkpt lat="44.1638306" lon="10.3917968"><ele>554.4285714285714</ele><time>2026-04-22T10:09:37Z</time></trkpt><trkpt lat="44.1638615" lon="10.3918749"><ele>556.0</ele><time>2026-04-22T10:09:39Z</time></trkpt><trkpt lat="44.1638956" lon="10.3919507"><ele>556.0</ele><time>2026-04-22T10:09:41Z</time></trkpt><trkpt lat="44.1639299" lon="10.3920278"><ele>556.0</ele><time>2026-04-22T10:09:43Z</time></trkpt><trkpt lat="44.1639648" lon="10.392103"><ele>556.0</ele><time>2026-04-22T10:09:44.999Z</time></trkpt><trkpt lat="44.16401" lon="10.3921694"><ele>556.0</ele><time>2026-04-22T10:09:47Z</time></trkpt><trkpt lat="44.164066" lon="10.3922202"><ele>556.0</ele><time>2026-04-22T10:09:49Z</time></trkpt><trkpt lat="44.1641266" lon="10.3922577"><ele>556.0</ele><time>2026-04-22T10:09:51Z</time></trkpt><trkpt lat="44.1641909" lon="10.3922782"><ele>556.0</ele><time>2026-04-22T10:09:53Z</time></trkpt><trkpt lat="44.1642536" lon="10.3922883"><ele>557.7142857142857</ele><time>2026-04-22T10:09:55Z</time></trkpt><trkpt lat="44.1643186" lon="10.3922885"><ele>559.4285714285714</ele><time>2026-04-22T10:09:57Z</time></trkpt><trkpt lat="44.1643869" lon="10.3922837"><ele>561.1428571428571</ele><time>2026-04-22T10:09:59Z</time></trkpt><trkpt lat="44.164459" lon="10.3922785"><ele>562.8571428571429</ele><time>2026-04-22T10:10:01Z</time></trkpt><trkpt lat="44.1645314" lon="10.3922718"><ele>564.5714285714286</ele><time>2026-04-22T10:10:03Z</time></trkpt><trkpt lat="44.1646004" lon="10.3922642"><ele>566.2857142857142</ele><time>2026-04-22T10:10:05Z</time></trkpt><trkpt lat="44.1646717" lon="10.3922632"><ele>568.0</ele><time>2026-04-22T10:10:07Z</time></trkpt><trkpt lat="44.1647457" lon="10.392257"><ele>568.0</ele><time>2026-04-22T10:10:09Z</time></trkpt><trkpt lat="44.1648169" lon="10.3922541"><ele>568.0</ele><time>2026-04-22T10:10:11Z</time></trkpt><trkpt lat="44.1648874" lon="10.3922454"><ele>568.0</ele><time>2026-04-22T10:10:13Z</time></trkpt><trkpt lat="44.1649582" lon="10.3922409"><ele>568.0</ele><time>2026-04-22T10:10:15Z</time></trkpt><trkpt lat="44.1650287" lon="10.3922374"><ele>568.0</ele><time>2026-04-22T10:10:17Z</time></trkpt><trkpt lat="44.1651022" lon="10.3922374"><ele>568.0</ele><time>2026-04-22T10:10:19Z</time></trkpt><trkpt lat="44.1651716" lon="10.3922477"><ele>568.0</ele><time>2026-04-22T10:10:21Z</time></trkpt><trkpt lat="44.1652427" lon="10.3922783"><ele>569.0</ele><time>2026-04-22T10:10:23Z</time></trkpt><trkpt lat="44.1653091" lon="10.3923315"><ele>570.0</ele><time>2026-04-22T10:10:24.999Z</time></trkpt><trkpt lat="44.1653618" lon="10.3924057"><ele>571.0</ele><time>2026-04-22T10:10:27Z</time></trkpt><trkpt lat="44.165409" lon="10.3924871"><ele>572.0</ele><time>2026-04-22T10:10:29Z</time></trkpt><trkpt lat="44.1654575" lon="10.3925666"><ele>573.0</ele><time>2026-04-22T10:10:31Z</time></trkpt><trkpt lat="44.1655008" lon="10.392649"><ele>574.0</ele><time>2026-04-22T10:10:33Z</time></trkpt><trkpt lat="44.1655516" lon="10.3927277"><ele>574.0</ele><time>2026-04-22T10:10:35Z</time></trkpt><trkpt lat="44.1656148" lon="10.3927827"><ele>574.0</ele><time>2026-04-22T10:10:37Z</time></trkpt><trkpt lat="44.1656911" lon="10.3928197"><ele>574.0</ele><time>2026-04-22T10:10:39Z</time></trkpt><trkpt lat="44.1657663" lon="10.3928206"><ele>574.0</ele><time>2026-04-22T10:10:41Z</time></trkpt><trkpt lat="44.1658441" lon="10.3927975"><ele>574.0</ele><time>2026-04-22T10:10:43Z</time></trkpt><trkpt lat="44.1659233" lon="10.3927624"><ele>574.0</ele><time>2026-04-22T10:10:45Z</time></trkpt><trkpt lat="44.165998" lon="10.3927328"><ele>572.8571428571429</ele><time>2026-04-22T10:10:47Z</time></trkpt><trkpt lat="44.1660686" lon="10.392706"><ele>571.7142857142858</ele><time>2026-04-22T10:10:49Z</time></trkpt><trkpt lat="44.1661397" lon="10.3926716"><ele>570.5714285714286</ele><time>2026-04-22T10:10:51Z</time></trkpt><trkpt lat="44.166211" lon="10.3926393"><ele>569.4285714285714</ele><time>2026-04-22T10:10:53Z</time></trkpt><trkpt lat="44.1662801" lon="10.3926054"><ele>568.2857142857143</ele><time>2026-04-22T10:10:55Z</time></trkpt><trkpt lat="44.166345" lon="10.3925681"><ele>567.1428571428571</ele><time>2026-04-22T10:10:57Z</time></trkpt><trkpt lat="44.1664168" lon="10.3925383"><ele>566.0</ele><time>2026-04-22T10:10:59Z</time></trkpt><trkpt lat="44.166489" lon="10.3925019"><ele>566.1666666666666</ele><time>2026-04-22T10:11:01Z</time></trkpt><trkpt lat="44.166559" lon="10.3924643"><ele>566.3333333333333</ele><time>2026-04-22T10:11:03Z</time></trkpt><trkpt lat="44.1666264" lon="10.3924173"><ele>566.5</ele><time>2026-04-22T10:11:05Z</time></trkpt><trkpt lat="44.1666883" lon="10.3923519"><ele>566.6666666666666</ele><time>2026-04-22T10:11:07Z</time></trkpt><trkpt lat="44.1667405" lon="10.3922693"><ele>566.8333333333334</ele><time>2026-04-22T10:11:09Z</time></trkpt><trkpt lat="44.1667812" lon="10.3921835"><ele>567.0</ele><time>2026-04-22T10:11:11Z</time></trkpt><trkpt lat="44.1668172" lon="10.3920889"><ele>567.0</ele><time>2026-04-22T10:11:13Z</time></trkpt><trkpt lat="44.166853" lon="10.3919951"><ele>567.0</ele><time>2026-04-22T10:11:15Z</time></trkpt><trkpt lat="44.1668914" lon="10.3919001"><ele>567.0</ele><time>2026-04-22T10:11:17Z</time></trkpt><trkpt lat="44.1669271" lon="10.3918116"><ele>567.0</ele><time>2026-04-22T10:11:19Z</time></trkpt><trkpt lat="44.1669646" lon="10.391722"><ele>567.0</ele><time>2026-04-22T10:11:21Z</time></trkpt><trkpt lat="44.1670015" lon="10.3916335"><ele>567.0</ele><time>2026-04-22T10:11:23Z</time></trkpt><trkpt lat="44.1670368" lon="10.3915415"><ele>567.0</ele><time>2026-04-22T10:11:25Z</time></trkpt><trkpt lat="44.1670731" lon="10.3914528"><ele>567.0</ele><time>2026-04-22T10:11:27Z</time></trkpt><trkpt lat="44.1671058" lon="10.3913675"><ele>567.0</ele><time>2026-04-22T10:11:29Z</time></trkpt><trkpt lat="44.1671421" lon="10.3912772"><ele>567.0</ele><time>2026-04-22T10:11:31Z</time></trkpt><trkpt lat="44.1671815" lon="10.3911787"><ele>567.0</ele><time>2026-04-22T10:11:33Z</time></trkpt><trkpt lat="44.1672181" lon="10.391079"><ele>567.0</ele><time>2026-04-22T10:11:35Z</time></trkpt><trkpt lat="44.1672515" lon="10.3909836"><ele>566.0</ele><time>2026-04-22T10:11:36.999Z</time></trkpt><trkpt lat="44.1672852" lon="10.3908904"><ele>565.0</ele><time>2026-04-22T10:11:39Z</time></trkpt><trkpt lat="44.167322" lon="10.3908002"><ele>564.0</ele><time>2026-04-22T10:11:41Z</time></trkpt><trkpt lat="44.1673671" lon="10.3907185"><ele>563.0</ele><time>2026-04-22T10:11:43Z</time></trkpt><trkpt lat="44.1674308" lon="10.3906511"><ele>562.0</ele><time>2026-04-22T10:11:45Z</time></trkpt><trkpt lat="44.1675018" lon="10.3905986"><ele>561.0</ele><time>2026-04-22T10:11:47Z</time></trkpt><trkpt lat="44.1675736" lon="10.390558"><ele>562.1666666666666</ele><time>2026-04-22T10:11:49Z</time></trkpt><trkpt lat="44.1676479" lon="10.3905278"><ele>563.3333333333334</ele><time>2026-04-22T10:11:51Z</time></trkpt><trkpt lat="44.167721" lon="10.3905036"><ele>564.5</ele><time>2026-04-22T10:11:53Z</time></trkpt><trkpt lat="44.167794" lon="10.390475"><ele>565.6666666666667</ele><time>2026-04-22T10:11:55Z</time></trkpt><trkpt lat="44.1678674" lon="10.3904439"><ele>566.8333333333334</ele><time>2026-04-22T10:11:57Z</time></trkpt><trkpt lat="44.167942" lon="10.3904179"><ele>568.0</ele><time>2026-04-22T10:11:59Z</time></trkpt><trkpt lat="44.1680183" lon="10.390388"><ele>568.0</ele><time>2026-04-22T10:12:01Z</time></trkpt><trkpt lat="44.1680934" lon="10.3903608"><ele>568.0</ele><time>2026-04-22T10:12:03Z</time></trkpt><trkpt lat="44.1681637" lon="10.3903468"><ele>568.0</ele><time>2026-04-22T10:12:05Z</time></trkpt><trkpt lat="44.1682305" lon="10.3903239"><ele>568.0</ele><time>2026-04-22T10:12:07Z</time></trkpt><trkpt lat="44.1683002" lon="10.3903042"><ele>568.0</ele><time>2026-04-22T10:12:09Z</time></trkpt><trkpt lat="44.1683719" lon="10.390279"><ele>568.0</ele><time>2026-04-22T10:12:11Z</time></trkpt><trkpt lat="44.1684406" lon="10.3902562"><ele>568.0</ele><time>2026-04-22T10:12:13Z</time></trkpt><trkpt lat="44.1685107" lon="10.3902312"><ele>569.5714285714286</ele><time>2026-04-22T10:12:15Z</time></trkpt><trkpt lat="44.1685801" lon="10.3901982"><ele>571.1428571428571</ele><time>2026-04-22T10:12:17Z</time></trkpt><trkpt lat="44.1686481" lon="10.3901632"><ele>572.7142857142857</ele><time>2026-04-22T10:12:19Z</time></trkpt><trkpt lat="44.1687101" lon="10.3901182"><ele>574.2857142857142</ele><time>2026-04-22T10:12:21Z</time></trkpt><trkpt lat="44.1687698" lon="10.3900689"><ele>575.8571428571429</ele><time>2026-04-22T10:12:23Z</time></trkpt><trkpt lat="44.1688267" lon="10.3900123"><ele>577.4285714285713</ele><time>2026-04-22T10:12:25Z</time></trkpt><trkpt lat="44.1688815" lon="10.3899401"><ele>579.0</ele><time>2026-04-22T10:12:27Z</time></trkpt><trkpt lat="44.1689286" lon="10.3898708"><ele>579.0</ele><time>2026-04-22T10:12:29Z</time></trkpt><trkpt lat="44.1689789" lon="10.3898045"><ele>579.0</ele><time>2026-04-22T10:12:31Z</time></trkpt><trkpt lat="44.1690291" lon="10.3897351"><ele>579.0</ele><time>2026-04-22T10:12:33Z</time></trkpt><trkpt lat="44.1690799" lon="10.389659"><ele>579.0</ele><time>2026-04-22T10:12:35Z</time></trkpt><trkpt lat="44.1691409" lon="10.3895812"><ele>579.0</ele><time>2026-04-22T10:12:37Z</time></trkpt><trkpt lat="44.1692074" lon="10.3895028"><ele>579.0</ele><time>2026-04-22T10:12:39Z</time></trkpt><trkpt lat="44.1692784" lon="10.3894333"><ele>578.6666666666666</ele><time>2026-04-22T10:12:41Z</time></trkpt><trkpt lat="44.1693469" lon="10.3893647"><ele>578.3333333333334</ele><time>2026-04-22T10:12:43Z</time></trkpt><trkpt lat="44.1694142" lon="10.3893013"><ele>578.0</ele><time>2026-04-22T10:12:45Z</time></trkpt><trkpt lat="44.1694852" lon="10.3892498"><ele>577.6666666666667</ele><time>2026-04-22T10:12:47Z</time></trkpt><trkpt lat="44.1695562" lon="10.3892139"><ele>577.3333333333334</ele><time>2026-04-22T10:12:49Z</time></trkpt><trkpt lat="44.1696231" lon="10.3891772"><ele>577.0</ele><time>2026-04-22T10:12:51Z</time></trkpt><trkpt lat="44.1696872" lon="10.3891383"><ele>577.0</ele><time>2026-04-22T10:12:53Z</time></trkpt><trkpt lat="44.1697524" lon="10.3891053"><ele>577.0</ele><time>2026-04-22T10:12:55Z</time></trkpt><trkpt lat="44.1698191" lon="10.3890764"><ele>577.0</ele><time>2026-04-22T10:12:57Z</time></trkpt><trkpt lat="44.1698851" lon="10.3890458"><ele>577.0</ele><time>2026-04-22T10:12:59Z</time></trkpt><trkpt lat="44.1699489" lon="10.3890107"><ele>577.0</ele><time>2026-04-22T10:13:01Z</time></trkpt><trkpt lat="44.1700145" lon="10.3889704"><ele>577.0</ele><time>2026-04-22T10:13:02.999Z</time></trkpt><trkpt lat="44.1700801" lon="10.388938"><ele>577.0</ele><time>2026-04-22T10:13:05Z</time></trkpt><trkpt lat="44.1701469" lon="10.3889055"><ele>576.5714285714286</ele><time>2026-04-22T10:13:07Z</time></trkpt><trkpt lat="44.1702141" lon="10.3888676"><ele>576.1428571428571</ele><time>2026-04-22T10:13:09Z</time></trkpt><trkpt lat="44.1702822" lon="10.3888374"><ele>575.7142857142858</ele><time>2026-04-22T10:13:11Z</time></trkpt><trkpt lat="44.1703528" lon="10.3888096"><ele>575.2857142857142</ele><time>2026-04-22T10:13:13Z</time></trkpt><trkpt lat="44.1704226" lon="10.3887847"><ele>574.8571428571429</ele><time>2026-04-22T10:13:15Z</time></trkpt><trkpt lat="44.1704914" lon="10.3887595"><ele>574.4285714285714</ele><time>2026-04-22T10:13:17Z</time></trkpt><trkpt lat="44.1705611" lon="10.3887452"><ele>574.0</ele><time>2026-04-22T10:13:19Z</time></trkpt><trkpt lat="44.1706315" lon="10.3887291"><ele>575.7142857142857</ele><time>2026-04-22T10:13:21Z</time></trkpt><trkpt lat="44.1706963" lon="10.3887144"><ele>577.4285714285714</ele><time>2026-04-22T10:13:23Z</time></trkpt><trkpt lat="44.1707645" lon="10.3886975"><ele>579.1428571428571</ele><time>2026-04-22T10:13:25Z</time></trkpt><trkpt lat="44.1708362" lon="10.3886787"><ele>580.8571428571429</ele><time>2026-04-22T10:13:27Z</time></trkpt><trkpt lat="44.1709068" lon="10.3886593"><ele>582.5714285714286</ele><time>2026-04-22T10:13:29Z</time></trkpt><trkpt lat="44.1709775" lon="10.3886482"><ele>584.2857142857142</ele><time>2026-04-22T10:13:31Z</time></trkpt><trkpt lat="44.171049" lon="10.3886527"><ele>586.0</ele><time>2026-04-22T10:13:33Z</time></trkpt><trkpt lat="44.1711196" lon="10.3886704"><ele>586.0</ele><time>2026-04-22T10:13:35Z</time></trkpt><trkpt lat="44.171189" lon="10.3887111"><ele>586.0</ele><time>2026-04-22T10:13:37Z</time></trkpt><trkpt lat="44.1712553" lon="10.3887733"><ele>586.0</ele><time>2026-04-22T10:13:39Z</time></trkpt><trkpt lat="44.1713058" lon="10.3888481"><ele>586.0</ele><time>2026-04-22T10:13:41Z</time></trkpt><trkpt lat="44.1713495" lon="10.3889287"><ele>586.0</ele><time>2026-04-22T10:13:43Z</time></trkpt><trkpt lat="44.1713966" lon="10.3890065"><ele>586.0</ele><time>2026-04-22T10:13:45Z</time></trkpt><trkpt lat="44.171449" lon="10.3890822"><ele>588.4285714285713</ele><time>2026-04-22T10:13:47Z</time></trkpt><trkpt lat="44.1715034" lon="10.3891455"><ele>590.8571428571429</ele><time>2026-04-22T10:13:49Z</time></trkpt><trkpt lat="44.1715616" lon="10.3892017"><ele>593.2857142857142</ele><time>2026-04-22T10:13:51Z</time></trkpt><trkpt lat="44.1716201" lon="10.3892476"><ele>595.7142857142857</ele><time>2026-04-22T10:13:53Z</time></trkpt><trkpt lat="44.1716866" lon="10.3892901"><ele>598.1428571428571</ele><time>2026-04-22T10:13:55Z</time></trkpt><trkpt lat="44.1717594" lon="10.3893224"><ele>600.5714285714286</ele><time>2026-04-22T10:13:57Z</time></trkpt><trkpt lat="44.1718331" lon="10.3893388"><ele>603.0</ele><time>2026-04-22T10:13:59Z</time></trkpt><trkpt lat="44.1719043" lon="10.3893576"><ele>603.0</ele><time>2026-04-22T10:14:01Z</time></trkpt><trkpt lat="44.1719731" lon="10.3893773"><ele>603.0</ele><time>2026-04-22T10:14:03Z</time></trkpt><trkpt lat="44.172039" lon="10.389397"><ele>603.0</ele><time>2026-04-22T10:14:05Z</time></trkpt><trkpt lat="44.172109" lon="10.3894049"><ele>603.0</ele><time>2026-04-22T10:14:07Z</time></trkpt><trkpt lat="44.1721788" lon="10.3893981"><ele>603.0</ele><time>2026-04-22T10:14:09Z</time></trkpt><trkpt lat="44.1722466" lon="10.3893814"><ele>603.0</ele><time>2026-04-22T10:14:11Z</time></trkpt><trkpt lat="44.1723091" lon="10.3893499"><ele>603.0</ele><time>2026-04-22T10:14:13Z</time></trkpt><trkpt lat="44.1723723" lon="10.3893258"><ele>603.1666666666666</ele><time>2026-04-22T10:14:15Z</time></trkpt><trkpt lat="44.1724509" lon="10.3892722"><ele>603.3333333333334</ele><time>2026-04-22T10:14:18Z</time></trkpt><trkpt lat="44.1725305" lon="10.3892354"><ele>603.5</ele><time>2026-04-22T10:14:21Z</time></trkpt><trkpt lat="44.1726254" lon="10.3892128"><ele>603.6666666666667</ele><time>2026-04-22T10:14:24Z</time></trkpt><trkpt lat="44.1726904" lon="10.3892071"><ele>603.8333333333334</ele><time>2026-04-22T10:14:26Z</time></trkpt><trkpt lat="44.1727827" lon="10.3892233"><ele>604.0</ele><time>2026-04-22T10:14:29Z</time></trkpt><trkpt lat="44.1728463" lon="10.3892426"><ele>604.0</ele><time>2026-04-22T10:14:31Z</time></trkpt><trkpt lat="44.1729083" lon="10.389273"><ele>604.0</ele><time>2026-04-22T10:14:33Z</time></trkpt><trkpt lat="44.1729661" lon="10.3893125"><ele>604.0</ele><time>2026-04-22T10:14:35Z</time></trkpt><trkpt lat="44.1730497" lon="10.3893682"><ele>604.0</ele><time>2026-04-22T10:14:38Z</time></trkpt><trkpt lat="44.173119" lon="10.3894214"><ele>604.0</ele><time>2026-04-22T10:14:41Z</time></trkpt><trkpt lat="44.1732068" lon="10.3894875"><ele>604.0</ele><time>2026-04-22T10:14:44Z</time></trkpt><trkpt lat="44.1732798" lon="10.3895047"><ele>604.6666666666667</ele><time>2026-04-22T10:14:46Z</time></trkpt><trkpt lat="44.1733469" lon="10.3895019"><ele>605.3333333333334</ele><time>2026-04-22T10:14:48Z</time></trkpt><trkpt lat="44.1734123" lon="10.3894875"><ele>606.0</ele><time>2026-04-22T10:14:50Z</time></trkpt><trkpt lat="44.1735026" lon="10.3894625"><ele>606.6666666666666</ele><time>2026-04-22T10:14:53Z</time></trkpt><trkpt lat="44.173593" lon="10.3894417"><ele>607.3333333333333</ele><time>2026-04-22T10:14:56Z</time></trkpt><trkpt lat="44.1736766" lon="10.3894105"><ele>608.0</ele><time>2026-04-22T10:14:59Z</time></trkpt><trkpt lat="44.1737405" lon="10.3893928"><ele>608.0</ele><time>2026-04-22T10:15:01Z</time></trkpt><trkpt lat="44.1738316" lon="10.389366"><ele>608.0</ele><time>2026-04-22T10:15:04Z</time></trkpt><trkpt lat="44.1739221" lon="10.3893305"><ele>608.0</ele><time>2026-04-22T10:15:07Z</time></trkpt><trkpt lat="44.1740159" lon="10.3892997"><ele>608.0</ele><time>2026-04-22T10:15:10Z</time></trkpt><trkpt lat="44.174079" lon="10.3892844"><ele>608.0</ele><time>2026-04-22T10:15:12Z</time></trkpt><trkpt lat="44.1741707" lon="10.3892603"><ele>608.0</ele><time>2026-04-22T10:15:15Z</time></trkpt><trkpt lat="44.1742607" lon="10.3892297"><ele>609.1666666666666</ele><time>2026-04-22T10:15:18Z</time></trkpt><trkpt lat="44.1743225" lon="10.3892109"><ele>610.3333333333333</ele><time>2026-04-22T10:15:20Z</time></trkpt><trkpt lat="44.1744126" lon="10.3891858"><ele>611.5</ele><time>2026-04-22T10:15:23Z</time></trkpt><trkpt lat="44.1744759" lon="10.3891637"><ele>612.6666666666666</ele><time>2026-04-22T10:15:25Z</time></trkpt><trkpt lat="44.1745372" lon="10.3891386"><ele>613.8333333333334</ele><time>2026-04-22T10:15:27Z</time></trkpt><trkpt lat="44.1746239" lon="10.389103"><ele>615.0</ele><time>2026-04-22T10:15:30Z</time></trkpt><trkpt lat="44.1747133" lon="10.3890709"><ele>615.0</ele><time>2026-04-22T10:15:33Z</time></trkpt><trkpt lat="44.174775" lon="10.3890466"><ele>615.0</ele><time>2026-04-22T10:15:35Z</time></trkpt><trkpt lat="44.1748399" lon="10.3890276"><ele>615.0</ele><time>2026-04-22T10:15:37Z</time></trkpt><trkpt lat="44.174908" lon="10.3890079"><ele>615.0</ele><time>2026-04-22T10:15:39Z</time></trkpt><trkpt lat="44.1749729" lon="10.3889925"><ele>615.0</ele><time>2026-04-22T10:15:41Z</time></trkpt><trkpt lat="44.1750366" lon="10.3889696"><ele>615.0</ele><time>2026-04-22T10:15:43Z</time></trkpt><trkpt lat="44.1750996" lon="10.3889519"><ele>615.0</ele><time>2026-04-22T10:15:45Z</time></trkpt><trkpt lat="44.1751864" lon="10.388924"><ele>613.3333333333334</ele><time>2026-04-22T10:15:48Z</time></trkpt><trkpt lat="44.1752748" lon="10.3889016"><ele>611.6666666666666</ele><time>2026-04-22T10:15:51Z</time></trkpt><trkpt lat="44.1753444" lon="10.3888803"><ele>610.0</ele><time>2026-04-22T10:15:53.02Z</time></trkpt><trkpt lat="44.1754045" lon="10.3888522"><ele>608.3333333333333</ele><time>2026-04-22T10:15:55Z</time></trkpt><trkpt lat="44.1754941" lon="10.3888194"><ele>606.6666666666666</ele><time>2026-04-22T10:15:58Z</time></trkpt><trkpt lat="44.1755813" lon="10.3887921"><ele>605.0</ele><time>2026-04-22T10:16:01Z</time></trkpt><trkpt lat="44.1756473" lon="10.3887688"><ele>606.3333333333333</ele><time>2026-04-22T10:16:03Z</time></trkpt><trkpt lat="44.1757107" lon="10.3887398"><ele>607.6666666666666</ele><time>2026-04-22T10:16:05Z</time></trkpt><trkpt lat="44.1757996" lon="10.3887075"><ele>609.0</ele><time>2026-04-22T10:16:08Z</time></trkpt><trkpt lat="44.1758636" lon="10.3886815"><ele>610.3333333333334</ele><time>2026-04-22T10:16:10Z</time></trkpt><trkpt lat="44.1759514" lon="10.3886398"><ele>611.6666666666667</ele><time>2026-04-22T10:16:13Z</time></trkpt><trkpt lat="44.1760167" lon="10.3886059"><ele>613.0</ele><time>2026-04-22T10:16:15Z</time></trkpt><trkpt lat="44.1760774" lon="10.3885767"><ele>613.0</ele><time>2026-04-22T10:16:17Z</time></trkpt><trkpt lat="44.1761394" lon="10.3885488"><ele>613.0</ele><time>2026-04-22T10:16:19Z</time></trkpt><trkpt lat="44.1762218" lon="10.388514"><ele>613.0</ele><time>2026-04-22T10:16:22Z</time></trkpt><trkpt lat="44.1763036" lon="10.3884702"><ele>613.0</ele><time>2026-04-22T10:16:25Z</time></trkpt><trkpt lat="44.1763869" lon="10.3884297"><ele>613.0</ele><time>2026-04-22T10:16:28Z</time></trkpt><trkpt lat="44.1764708" lon="10.3883923"><ele>613.0</ele><time>2026-04-22T10:16:31Z</time></trkpt><trkpt lat="44.1765566" lon="10.38836"><ele>616.2857142857143</ele><time>2026-04-22T10:16:34Z</time></trkpt><trkpt lat="44.1766427" lon="10.388332"><ele>619.5714285714286</ele><time>2026-04-22T10:16:37Z</time></trkpt><trkpt lat="44.1767283" lon="10.388313"><ele>622.8571428571429</ele><time>2026-04-22T10:16:40Z</time></trkpt><trkpt lat="44.1767948" lon="10.3882945"><ele>626.1428571428571</ele><time>2026-04-22T10:16:42Z</time></trkpt><trkpt lat="44.1768632" lon="10.3882746"><ele>629.4285714285714</ele><time>2026-04-22T10:16:44Z</time></trkpt><trkpt lat="44.1769289" lon="10.3882538"><ele>632.7142857142857</ele><time>2026-04-22T10:16:45.999Z</time></trkpt><trkpt lat="44.1769939" lon="10.3882226"><ele>636.0</ele><time>2026-04-22T10:16:48Z</time></trkpt><trkpt lat="44.1770578" lon="10.388194"><ele>636.0</ele><time>2026-04-22T10:16:50Z</time></trkpt><trkpt lat="44.1771183" lon="10.3881553"><ele>636.0</ele><time>2026-04-22T10:16:52Z</time></trkpt><trkpt lat="44.1771797" lon="10.3881137"><ele>636.0</ele><time>2026-04-22T10:16:54Z</time></trkpt><trkpt lat="44.1772413" lon="10.3880639"><ele>636.0</ele><time>2026-04-22T10:16:56Z</time></trkpt><trkpt lat="44.1772995" lon="10.3880193"><ele>636.0</ele><time>2026-04-22T10:16:58Z</time></trkpt><trkpt lat="44.1773819" lon="10.3879606"><ele>636.0</ele><time>2026-04-22T10:17:01Z</time></trkpt><trkpt lat="44.1774546" lon="10.3879078"><ele>636.0</ele><time>2026-04-22T10:17:04Z</time></trkpt><trkpt lat="44.1775346" lon="10.3878484"><ele>633.8333333333334</ele><time>2026-04-22T10:17:07Z</time></trkpt><trkpt lat="44.17759" lon="10.3878047"><ele>631.6666666666666</ele><time>2026-04-22T10:17:09Z</time></trkpt><trkpt lat="44.1776476" lon="10.3877653"><ele>629.5</ele><time>2026-04-22T10:17:11Z</time></trkpt><trkpt lat="44.1777051" lon="10.3877258"><ele>627.3333333333333</ele><time>2026-04-22T10:17:13Z</time></trkpt><trkpt lat="44.1777872" lon="10.3876713"><ele>625.1666666666666</ele><time>2026-04-22T10:17:16Z</time></trkpt><trkpt lat="44.1778627" lon="10.3876085"><ele>623.0</ele><time>2026-04-22T10:17:19Z</time></trkpt><trkpt lat="44.1779443" lon="10.3875533"><ele>623.0</ele><time>2026-04-22T10:17:22Z</time></trkpt><trkpt lat="44.1780272" lon="10.3875038"><ele>623.0</ele><time>2026-04-22T10:17:25Z</time></trkpt><trkpt lat="44.1780862" lon="10.387466"><ele>623.0</ele><time>2026-04-22T10:17:27Z</time></trkpt><trkpt lat="44.1781646" lon="10.387408"><ele>623.0</ele><time>2026-04-22T10:17:30Z</time></trkpt><trkpt lat="44.1782422" lon="10.3873383"><ele>623.0</ele><time>2026-04-22T10:17:33Z</time></trkpt><trkpt lat="44.1783049" lon="10.3872498"><ele>623.0</ele><time>2026-04-22T10:17:36Z</time></trkpt><trkpt lat="44.1783476" lon="10.3871442"><ele>622.6666666666666</ele><time>2026-04-22T10:17:39Z</time></trkpt><trkpt lat="44.1783581" lon="10.3870513"><ele>622.3333333333333</ele><time>2026-04-22T10:17:41Z</time></trkpt><trkpt lat="44.1783582" lon="10.3869585"><ele>622.0</ele><time>2026-04-22T10:17:43Z</time></trkpt><trkpt lat="44.1783466" lon="10.3868323"><ele>621.6666666666666</ele><time>2026-04-22T10:17:46Z</time></trkpt><trkpt lat="44.1783323" lon="10.3867126"><ele>621.3333333333334</ele><time>2026-04-22T10:17:49Z</time></trkpt><trkpt lat="44.1783226" lon="10.3866021"><ele>621.0</ele><time>2026-04-22T10:17:52Z</time></trkpt><trkpt lat="44.1783106" lon="10.3864933"><ele>621.0</ele><time>2026-04-22T10:17:55Z</time></trkpt><trkpt lat="44.1783061" lon="10.386386"><ele>621.0</ele><time>2026-04-22T10:17:58Z</time></trkpt><trkpt lat="44.1782974" lon="10.3862736"><ele>621.0</ele><time>2026-04-22T10:18:01Z</time></trkpt><trkpt lat="44.178288" lon="10.3861617"><ele>621.0</ele><time>2026-04-22T10:18:04Z</time></trkpt><trkpt lat="44.1782763" lon="10.3860511"><ele>621.0</ele><time>2026-04-22T10:18:07Z</time></trkpt><trkpt lat="44.1782562" lon="10.385946"><ele>621.0</ele><time>2026-04-22T10:18:10Z</time></trkpt><trkpt lat="44.1782186" lon="10.3858494"><ele>621.3333333333334</ele><time>2026-04-22T10:18:13Z</time></trkpt><trkpt lat="44.1781907" lon="10.3857522"><ele>621.6666666666666</ele><time>2026-04-22T10:18:16Z</time></trkpt><trkpt lat="44.178154" lon="10.3856597"><ele>622.0</ele><time>2026-04-22T10:18:19Z</time></trkpt><trkpt lat="44.1781125" lon="10.3855692"><ele>622.3333333333333</ele><time>2026-04-22T10:18:22Z</time></trkpt><trkpt lat="44.1780771" lon="10.3854763"><ele>622.6666666666666</ele><time>2026-04-22T10:18:25Z</time></trkpt><trkpt lat="44.1780415" lon="10.3853836"><ele>623.0</ele><time>2026-04-22T10:18:28Z</time></trkpt><trkpt lat="44.1779971" lon="10.3852895"><ele>626.5</ele><time>2026-04-22T10:18:31Z</time></trkpt><trkpt lat="44.1779548" lon="10.3851965"><ele>630.0</ele><time>2026-04-22T10:18:34Z</time></trkpt><trkpt lat="44.1779163" lon="10.3850961"><ele>633.5</ele><time>2026-04-22T10:18:37Z</time></trkpt><trkpt lat="44.1778709" lon="10.3850021"><ele>637.0</ele><time>2026-04-22T10:18:40Z</time></trkpt><trkpt lat="44.1778178" lon="10.3849225"><ele>640.5</ele><time>2026-04-22T10:18:43Z</time></trkpt><trkpt lat="44.1777599" lon="10.3848515"><ele>644.0</ele><time>2026-04-22T10:18:46Z</time></trkpt><trkpt lat="44.1777029" lon="10.3847865"><ele>644.0</ele><time>2026-04-22T10:18:49Z</time></trkpt><trkpt lat="44.1776431" lon="10.3847202"><ele>644.0</ele><time>2026-04-22T10:18:52Z</time></trkpt><trkpt lat="44.1775829" lon="10.3846466"><ele>644.0</ele><time>2026-04-22T10:18:55Z</time></trkpt><trkpt lat="44.1775267" lon="10.3845768"><ele>644.0</ele><time>2026-04-22T10:18:58Z</time></trkpt><trkpt lat="44.1774653" lon="10.3845071"><ele>644.0</ele><time>2026-04-22T10:19:01Z</time></trkpt><trkpt lat="44.1774041" lon="10.3844333"><ele>644.0</ele><time>2026-04-22T10:19:04Z</time></trkpt><trkpt lat="44.1773404" lon="10.3843595"><ele>646.3333333333333</ele><time>2026-04-22T10:19:07Z</time></trkpt><trkpt lat="44.1772787" lon="10.3842904"><ele>648.6666666666666</ele><time>2026-04-22T10:19:10Z</time></trkpt><trkpt lat="44.177217" lon="10.3842234"><ele>651.0</ele><time>2026-04-22T10:19:12.999Z</time></trkpt><trkpt lat="44.1771537" lon="10.3841558"><ele>653.3333333333334</ele><time>2026-04-22T10:19:16Z</time></trkpt><trkpt lat="44.1770916" lon="10.3840905"><ele>655.6666666666667</ele><time>2026-04-22T10:19:19Z</time></trkpt><trkpt lat="44.1770323" lon="10.3840224"><ele>658.0</ele><time>2026-04-22T10:19:22Z</time></trkpt><trkpt lat="44.1769754" lon="10.3839496"><ele>659.1666666666667</ele><time>2026-04-22T10:19:25Z</time></trkpt><trkpt lat="44.1769559" lon="10.3838466"><ele>660.3333333333334</ele><time>2026-04-22T10:19:28Z</time></trkpt><trkpt lat="44.1769661" lon="10.3837369"><ele>661.5</ele><time>2026-04-22T10:19:31Z</time></trkpt><trkpt lat="44.1769878" lon="10.383637"><ele>662.6666666666666</ele><time>2026-04-22T10:19:34Z</time></trkpt><trkpt lat="44.1770087" lon="10.3835338"><ele>663.8333333333333</ele><time>2026-04-22T10:19:37Z</time></trkpt><trkpt lat="44.1770292" lon="10.3834287"><ele>665.0</ele><time>2026-04-22T10:19:40Z</time></trkpt><trkpt lat="44.1770491" lon="10.3833301"><ele>665.0</ele><time>2026-04-22T10:19:43Z</time></trkpt><trkpt lat="44.1770673" lon="10.383225"><ele>665.0</ele><time>2026-04-22T10:19:46Z</time></trkpt><trkpt lat="44.1770802" lon="10.3831101"><ele>665.0</ele><time>2026-04-22T10:19:49Z</time></trkpt><trkpt lat="44.1770915" lon="10.3829992"><ele>665.0</ele><time>2026-04-22T10:19:52Z</time></trkpt><trkpt lat="44.1770914" lon="10.3828826"><ele>665.0</ele><time>2026-04-22T10:19:55Z</time></trkpt><trkpt lat="44.1770763" lon="10.3827844"><ele>665.0</ele><time>2026-04-22T10:19:58Z</time></trkpt><trkpt lat="44.1770585" lon="10.3826725"><ele>665.8333333333333</ele><time>2026-04-22T10:20:01Z</time></trkpt><trkpt lat="44.1770338" lon="10.3825781"><ele>666.6666666666666</ele><time>2026-04-22T10:20:04Z</time></trkpt><trkpt lat="44.1769812" lon="10.3824973"><ele>667.5</ele><time>2026-04-22T10:20:07Z</time></trkpt><trkpt lat="44.1768992" lon="10.382458"><ele>668.3333333333334</ele><time>2026-04-22T10:20:10Z</time></trkpt><trkpt lat="44.1768202" lon="10.3824159"><ele>669.1666666666667</ele><time>2026-04-22T10:20:13Z</time></trkpt><trkpt lat="44.1767418" lon="10.3823813"><ele>670.0</ele><time>2026-04-22T10:20:16Z</time></trkpt><trkpt lat="44.1766682" lon="10.3823383"><ele>670.0</ele><time>2026-04-22T10:20:19Z</time></trkpt><trkpt lat="44.1766175" lon="10.3822541"><ele>670.0</ele><time>2026-04-22T10:20:22Z</time></trkpt><trkpt lat="44.1765942" lon="10.3821525"><ele>670.0</ele><time>2026-04-22T10:20:25Z</time></trkpt><trkpt lat="44.1766153" lon="10.3820513"><ele>670.0</ele><time>2026-04-22T10:20:28Z</time></trkpt><trkpt lat="44.1766548" lon="10.3819618"><ele>670.0</ele><time>2026-04-22T10:20:31Z</time></trkpt><trkpt lat="44.176704" lon="10.3818771"><ele>670.0</ele><time>2026-04-22T10:20:34Z</time></trkpt><trkpt lat="44.1767481" lon="10.3818032"><ele>670.8571428571428</ele><time>2026-04-22T10:20:38Z</time></trkpt><trkpt lat="44.1768005" lon="10.3817362"><ele>671.7142857142857</ele><time>2026-04-22T10:20:43Z</time></trkpt><trkpt lat="44.1768332" lon="10.3816454"><ele>672.5714285714286</ele><time>2026-04-22T10:20:46Z</time></trkpt><trkpt lat="44.1768661" lon="10.381553"><ele>673.4285714285713</ele><time>2026-04-22T10:20:49Z</time></trkpt><trkpt lat="44.1768947" lon="10.3814605"><ele>674.2857142857142</ele><time>2026-04-22T10:20:52Z</time></trkpt><trkpt lat="44.1769206" lon="10.3813622"><ele>675.1428571428571</ele><time>2026-04-22T10:20:55Z</time></trkpt><trkpt lat="44.1769481" lon="10.3812594"><ele>676.0</ele><time>2026-04-22T10:20:58Z</time></trkpt><trkpt lat="44.176971" lon="10.3811538"><ele>676.0</ele><time>2026-04-22T10:21:01Z</time></trkpt><trkpt lat="44.1769896" lon="10.3810491"><ele>676.0</ele><time>2026-04-22T10:21:04Z</time></trkpt><trkpt lat="44.1770155" lon="10.3809449"><ele>676.0</ele><time>2026-04-22T10:21:07Z</time></trkpt><trkpt lat="44.1770324" lon="10.3808358"><ele>676.0</ele><time>2026-04-22T10:21:10Z</time></trkpt><trkpt lat="44.1770453" lon="10.3807319"><ele>676.0</ele><time>2026-04-22T10:21:13Z</time></trkpt><trkpt lat="44.1770629" lon="10.3806268"><ele>676.0</ele><time>2026-04-22T10:21:16Z</time></trkpt><trkpt lat="44.1770681" lon="10.3805245"><ele>677.0</ele><time>2026-04-22T10:21:19Z</time></trkpt><trkpt lat="44.1770692" lon="10.3804136"><ele>678.0</ele><time>2026-04-22T10:21:22Z</time></trkpt><trkpt lat="44.1770582" lon="10.3803057"><ele>679.0</ele><time>2026-04-22T10:21:25Z</time></trkpt><trkpt lat="44.1770305" lon="10.3802031"><ele>680.0</ele><time>2026-04-22T10:21:28Z</time></trkpt><trkpt lat="44.177004" lon="10.3800972"><ele>681.0</ele><time>2026-04-22T10:21:31Z</time></trkpt><trkpt lat="44.1769733" lon="10.3799949"><ele>682.0</ele><time>2026-04-22T10:21:34Z</time></trkpt><trkpt lat="44.1769526" lon="10.3798903"><ele>682.0</ele><time>2026-04-22T10:21:37Z</time></trkpt><trkpt lat="44.1769351" lon="10.3797913"><ele>682.0</ele><time>2026-04-22T10:21:39.999Z</time></trkpt><trkpt lat="44.1769192" lon="10.3796903"><ele>682.0</ele><time>2026-04-22T10:21:43Z</time></trkpt><trkpt lat="44.176889" lon="10.3795932"><ele>682.0</ele><time>2026-04-22T10:21:46Z</time></trkpt><trkpt lat="44.1768545" lon="10.3794963"><ele>682.0</ele><time>2026-04-22T10:21:49Z</time></trkpt><trkpt lat="44.1768091" lon="10.3794034"><ele>682.0</ele><time>2026-04-22T10:21:52Z</time></trkpt><trkpt lat="44.176759" lon="10.3793235"><ele>681.6666666666667</ele><time>2026-04-22T10:21:55Z</time></trkpt><trkpt lat="44.1767033" lon="10.379246"><ele>681.3333333333334</ele><time>2026-04-22T10:21:58Z</time></trkpt><trkpt lat="44.1766376" lon="10.3791815"><ele>681.0</ele><time>2026-04-22T10:22:01Z</time></trkpt><trkpt lat="44.1765765" lon="10.3791121"><ele>680.6666666666666</ele><time>2026-04-22T10:22:04Z</time></trkpt><trkpt lat="44.176516" lon="10.3790554"><ele>680.3333333333333</ele><time>2026-04-22T10:22:07Z</time></trkpt><trkpt lat="44.1764495" lon="10.3789923"><ele>680.0</ele><time>2026-04-22T10:22:10Z</time></trkpt><trkpt lat="44.1763846" lon="10.378934"><ele>680.0</ele><time>2026-04-22T10:22:13Z</time></trkpt><trkpt lat="44.1763213" lon="10.3788641"><ele>680.0</ele><time>2026-04-22T10:22:16Z</time></trkpt><trkpt lat="44.1762601" lon="10.3787931"><ele>680.0</ele><time>2026-04-22T10:22:19Z</time></trkpt><trkpt lat="44.176209" lon="10.3787085"><ele>680.0</ele><time>2026-04-22T10:22:22Z</time></trkpt><trkpt lat="44.1761671" lon="10.3786185"><ele>680.0</ele><time>2026-04-22T10:22:25Z</time></trkpt><trkpt lat="44.1761283" lon="10.3785215"><ele>680.0</ele><time>2026-04-22T10:22:28Z</time></trkpt><trkpt lat="44.1761029" lon="10.3784216"><ele>682.5714285714286</ele><time>2026-04-22T10:22:31Z</time></trkpt><trkpt lat="44.1760853" lon="10.3783156"><ele>685.1428571428571</ele><time>2026-04-22T10:22:34Z</time></trkpt><trkpt lat="44.1760692" lon="10.3782159"><ele>687.7142857142857</ele><time>2026-04-22T10:22:37Z</time></trkpt><trkpt lat="44.1760597" lon="10.378121"><ele>690.2857142857142</ele><time>2026-04-22T10:22:40Z</time></trkpt><trkpt lat="44.1760515" lon="10.3780238"><ele>692.8571428571429</ele><time>2026-04-22T10:22:43.049Z</time></trkpt><trkpt lat="44.1760428" lon="10.3779299"><ele>695.4285714285713</ele><time>2026-04-22T10:22:45.954Z</time></trkpt><trkpt lat="44.1760268" lon="10.3778311"><ele>698.0</ele><time>2026-04-22T10:22:49Z</time></trkpt><trkpt lat="44.176022" lon="10.3777427"><ele>698.8333333333333</ele><time>2026-04-22T10:22:52.01Z</time></trkpt><trkpt lat="44.1760018" lon="10.3776364"><ele>699.6666666666666</ele><time>2026-04-22T10:22:55.008Z</time></trkpt><trkpt lat="44.1759927" lon="10.3775348"><ele>700.5</ele><time>2026-04-22T10:22:58.009Z</time></trkpt><trkpt lat="44.1759726" lon="10.3774289"><ele>701.3333333333334</ele><time>2026-04-22T10:23:01Z</time></trkpt><trkpt lat="44.1759529" lon="10.3773182"><ele>702.1666666666667</ele><time>2026-04-22T10:23:04.003Z</time></trkpt><trkpt lat="44.175933" lon="10.3772149"><ele>703.0</ele><time>2026-04-22T10:23:07Z</time></trkpt><trkpt lat="44.175938" lon="10.3771036"><ele>703.0</ele><time>2026-04-22T10:23:10Z</time></trkpt><trkpt lat="44.1759746" lon="10.3770047"><ele>703.0</ele><time>2026-04-22T10:23:13.051Z</time></trkpt><trkpt lat="44.1760471" lon="10.3769886"><ele>703.0</ele><time>2026-04-22T10:23:15Z</time></trkpt><trkpt lat="44.1761289" lon="10.3770376"><ele>703.0</ele><time>2026-04-22T10:23:18Z</time></trkpt><trkpt lat="44.1761528" lon="10.3771409"><ele>703.0</ele><time>2026-04-22T10:23:21Z</time></trkpt><trkpt lat="44.1761354" lon="10.3772352"><ele>703.0</ele><time>2026-04-22T10:23:24Z</time></trkpt><trkpt lat="44.1761197" lon="10.3773364"><ele>703.0</ele><time>2026-04-22T10:23:28Z</time></trkpt><trkpt lat="44.1761298" lon="10.3774488"><ele>703.0</ele><time>2026-04-22T10:23:32Z</time></trkpt><trkpt lat="44.176149" lon="10.3775335"><ele>703.0</ele><time>2026-04-22T10:23:34Z</time></trkpt><trkpt lat="44.1761803" lon="10.3776195"><ele>703.0</ele><time>2026-04-22T10:23:37Z</time></trkpt><trkpt lat="44.176217" lon="10.3777098"><ele>703.0</ele><time>2026-04-22T10:23:40Z</time></trkpt><trkpt lat="44.1762532" lon="10.3777874"><ele>703.0</ele><time>2026-04-22T10:23:43Z</time></trkpt><trkpt lat="44.1763029" lon="10.3778732"><ele>703.0</ele><time>2026-04-22T10:23:46Z</time></trkpt><trkpt lat="44.1763555" lon="10.3779477"><ele>703.0</ele><time>2026-04-22T10:23:49Z</time></trkpt><trkpt lat="44.1764082" lon="10.3780077"><ele>703.0</ele><time>2026-04-22T10:23:52Z</time></trkpt><trkpt lat="44.1764657" lon="10.3780541"><ele>703.0</ele><time>2026-04-22T10:23:55Z</time></trkpt><trkpt lat="44.1765265" lon="10.3780932"><ele>703.0</ele><time>2026-04-22T10:23:58Z</time></trkpt><trkpt lat="44.176596" lon="10.378109"><ele>703.0</ele><time>2026-04-22T10:24:01Z</time></trkpt><trkpt lat="44.1766679" lon="10.3781107"><ele>703.0</ele><time>2026-04-22T10:24:04Z</time></trkpt><trkpt lat="44.1767386" lon="10.378098"><ele>703.0</ele><time>2026-04-22T10:24:07Z</time></trkpt><trkpt lat="44.1768142" lon="10.3780756"><ele>705.1428571428571</ele><time>2026-04-22T10:24:10Z</time></trkpt><trkpt lat="44.1768777" lon="10.378059"><ele>707.2857142857143</ele><time>2026-04-22T10:24:13Z</time></trkpt><trkpt lat="44.1769426" lon="10.3780374"><ele>709.4285714285714</ele><time>2026-04-22T10:24:16Z</time></trkpt><trkpt lat="44.1770096" lon="10.3780198"><ele>711.5714285714286</ele><time>2026-04-22T10:24:19Z</time></trkpt><trkpt lat="44.177089" lon="10.377998"><ele>713.7142857142858</ele><time>2026-04-22T10:24:22Z</time></trkpt><trkpt lat="44.1771636" lon="10.3779951"><ele>715.8571428571429</ele><time>2026-04-22T10:24:25Z</time></trkpt><trkpt lat="44.1772358" lon="10.3780321"><ele>718.0</ele><time>2026-04-22T10:24:28Z</time></trkpt><trkpt lat="44.1773027" lon="10.3780837"><ele>720.3333333333334</ele><time>2026-04-22T10:24:31Z</time></trkpt><trkpt lat="44.1773607" lon="10.378152"><ele>722.6666666666667</ele><time>2026-04-22T10:24:34Z</time></trkpt><trkpt lat="44.1774126" lon="10.3782204"><ele>725.0</ele><time>2026-04-22T10:24:37Z</time></trkpt><trkpt lat="44.1774528" lon="10.3783038"><ele>727.3333333333334</ele><time>2026-04-22T10:24:40Z</time></trkpt><trkpt lat="44.177498" lon="10.3783906"><ele>729.6666666666666</ele><time>2026-04-22T10:24:43Z</time></trkpt><trkpt lat="44.1775507" lon="10.378467"><ele>732.0</ele><time>2026-04-22T10:24:46Z</time></trkpt><trkpt lat="44.1775995" lon="10.3785513"><ele>732.0</ele><time>2026-04-22T10:24:49Z</time></trkpt><trkpt lat="44.1776471" lon="10.3786348"><ele>732.0</ele><time>2026-04-22T10:24:52Z</time></trkpt><trkpt lat="44.1776942" lon="10.3787208"><ele>732.0</ele><time>2026-04-22T10:24:55Z</time></trkpt><trkpt lat="44.1777373" lon="10.3788052"><ele>732.0</ele><time>2026-04-22T10:24:58Z</time></trkpt><trkpt lat="44.1777851" lon="10.3788948"><ele>732.0</ele><time>2026-04-22T10:25:01Z</time></trkpt><trkpt lat="44.1778291" lon="10.3789838"><ele>732.0</ele><time>2026-04-22T10:25:04Z</time></trkpt><trkpt lat="44.1778786" lon="10.3790648"><ele>730.1666666666666</ele><time>2026-04-22T10:25:07Z</time></trkpt><trkpt lat="44.1779307" lon="10.3791454"><ele>728.3333333333334</ele><time>2026-04-22T10:25:10Z</time></trkpt><trkpt lat="44.1779854" lon="10.3792231"><ele>726.5</ele><time>2026-04-22T10:25:13Z</time></trkpt><trkpt lat="44.1780453" lon="10.3792824"><ele>724.6666666666667</ele><time>2026-04-22T10:25:16Z</time></trkpt><trkpt lat="44.1781112" lon="10.3793325"><ele>722.8333333333334</ele><time>2026-04-22T10:25:19Z</time></trkpt><trkpt lat="44.1781797" lon="10.3793811"><ele>721.0</ele><time>2026-04-22T10:25:22Z</time></trkpt><trkpt lat="44.1782453" lon="10.3794266"><ele>722.6666666666667</ele><time>2026-04-22T10:25:25Z</time></trkpt><trkpt lat="44.1783066" lon="10.3794786"><ele>724.3333333333334</ele><time>2026-04-22T10:25:28Z</time></trkpt><trkpt lat="44.178385" lon="10.3795326"><ele>726.0</ele><time>2026-04-22T10:25:31Z</time></trkpt><trkpt lat="44.1784498" lon="10.3795735"><ele>727.6666666666666</ele><time>2026-04-22T10:25:34Z</time></trkpt><trkpt lat="44.1785164" lon="10.3796256"><ele>729.3333333333333</ele><time>2026-04-22T10:25:37Z</time></trkpt><trkpt lat="44.1785878" lon="10.3796716"><ele>731.0</ele><time>2026-04-22T10:25:40Z</time></trkpt><trkpt lat="44.178651" lon="10.3797226"><ele>731.0</ele><time>2026-04-22T10:25:43Z</time></trkpt><trkpt lat="44.1787246" lon="10.3797618"><ele>731.0</ele><time>2026-04-22T10:25:46Z</time></trkpt><trkpt lat="44.1787905" lon="10.3797999"><ele>731.0</ele><time>2026-04-22T10:25:49Z</time></trkpt><trkpt lat="44.1788562" lon="10.3798357"><ele>731.0</ele><time>2026-04-22T10:25:52Z</time></trkpt><trkpt lat="44.1789171" lon="10.3798812"><ele>731.0</ele><time>2026-04-22T10:25:55Z</time></trkpt><trkpt lat="44.1789752" lon="10.3799236"><ele>731.0</ele><time>2026-04-22T10:25:58Z</time></trkpt><trkpt lat="44.1790446" lon="10.3799639"><ele>731.0</ele><time>2026-04-22T10:26:00.999Z</time></trkpt><trkpt lat="44.1791131" lon="10.3800061"><ele>733.5714285714286</ele><time>2026-04-22T10:26:04Z</time></trkpt><trkpt lat="44.1791734" lon="10.3800392"><ele>736.1428571428571</ele><time>2026-04-22T10:26:07Z</time></trkpt><trkpt lat="44.1792465" lon="10.3800843"><ele>738.7142857142858</ele><time>2026-04-22T10:26:11.064Z</time></trkpt><trkpt lat="44.1793067" lon="10.3801174"><ele>741.2857142857142</ele><time>2026-04-22T10:26:14.01Z</time></trkpt><trkpt lat="44.1793838" lon="10.3801614"><ele>743.8571428571429</ele><time>2026-04-22T10:26:17Z</time></trkpt><trkpt lat="44.1794592" lon="10.3801988"><ele>746.4285714285714</ele><time>2026-04-22T10:26:20Z</time></trkpt><trkpt lat="44.1795315" lon="10.380226"><ele>749.0</ele><time>2026-04-22T10:26:23Z</time></trkpt><trkpt lat="44.179613" lon="10.3802644"><ele>749.0</ele><time>2026-04-22T10:26:26Z</time></trkpt><trkpt lat="44.1796862" lon="10.3803063"><ele>749.0</ele><time>2026-04-22T10:26:28.835Z</time></trkpt><trkpt lat="44.179746" lon="10.3803894"><ele>749.0</ele><time>2026-04-22T10:26:32Z</time></trkpt><trkpt lat="44.1798037" lon="10.3804716"><ele>749.0</ele><time>2026-04-22T10:26:35Z</time></trkpt><trkpt lat="44.1798507" lon="10.380559"><ele>749.0</ele><time>2026-04-22T10:26:38Z</time></trkpt><trkpt lat="44.1798938" lon="10.3806424"><ele>749.0</ele><time>2026-04-22T10:26:41Z</time></trkpt><trkpt lat="44.1799271" lon="10.3807209"><ele>750.8333333333333</ele><time>2026-04-22T10:26:44Z</time></trkpt><trkpt lat="44.1799686" lon="10.3808042"><ele>752.6666666666666</ele><time>2026-04-22T10:26:47Z</time></trkpt><trkpt lat="44.1800099" lon="10.3808936"><ele>754.5</ele><time>2026-04-22T10:26:50Z</time></trkpt><trkpt lat="44.180048" lon="10.3809955"><ele>756.3333333333334</ele><time>2026-04-22T10:26:53Z</time></trkpt><trkpt lat="44.1800852" lon="10.3810994"><ele>758.1666666666667</ele><time>2026-04-22T10:26:56Z</time></trkpt><trkpt lat="44.1801278" lon="10.3811889"><ele>760.0</ele><time>2026-04-22T10:26:59Z</time></trkpt><trkpt lat="44.1801796" lon="10.38128"><ele>758.6666666666667</ele><time>2026-04-22T10:27:02Z</time></trkpt><trkpt lat="44.1802366" lon="10.3813545"><ele>757.3333333333334</ele><time>2026-04-22T10:27:05Z</time></trkpt><trkpt lat="44.180301" lon="10.381419"><ele>756.0</ele><time>2026-04-22T10:27:08Z</time></trkpt><trkpt lat="44.1803644" lon="10.3814695"><ele>754.6666666666666</ele><time>2026-04-22T10:27:11Z</time></trkpt><trkpt lat="44.1804327" lon="10.3815123"><ele>753.3333333333333</ele><time>2026-04-22T10:27:14Z</time></trkpt><trkpt lat="44.1804991" lon="10.381558"><ele>752.0</ele><time>2026-04-22T10:27:17Z</time></trkpt><trkpt lat="44.1805659" lon="10.381599"><ele>752.0</ele><time>2026-04-22T10:27:20Z</time></trkpt><trkpt lat="44.1806413" lon="10.381633"><ele>752.0</ele><time>2026-04-22T10:27:23Z</time></trkpt><trkpt lat="44.1807175" lon="10.3816639"><ele>752.0</ele><time>2026-04-22T10:27:26Z</time></trkpt><trkpt lat="44.1807903" lon="10.3816919"><ele>752.0</ele><time>2026-04-22T10:27:29Z</time></trkpt><trkpt lat="44.1808648" lon="10.3817207"><ele>752.0</ele><time>2026-04-22T10:27:31.999Z</time></trkpt><trkpt lat="44.1809382" lon="10.3817467"><ele>752.0</ele><time>2026-04-22T10:27:35Z</time></trkpt><trkpt lat="44.1810148" lon="10.3817776"><ele>755.1666666666666</ele><time>2026-04-22T10:27:38Z</time></trkpt><trkpt lat="44.1810928" lon="10.3818077"><ele>758.3333333333333</ele><time>2026-04-22T10:27:41Z</time></trkpt><trkpt lat="44.1811684" lon="10.3818403"><ele>761.5</ele><time>2026-04-22T10:27:44Z</time></trkpt><trkpt lat="44.1812418" lon="10.3818618"><ele>764.6666666666666</ele><time>2026-04-22T10:27:47Z</time></trkpt><trkpt lat="44.18132" lon="10.3818821"><ele>767.8333333333334</ele><time>2026-04-22T10:27:50Z</time></trkpt><trkpt lat="44.1813917" lon="10.3819102"><ele>771.0</ele><time>2026-04-22T10:27:53Z</time></trkpt><trkpt lat="44.1814619" lon="10.381941"><ele>773.2857142857143</ele><time>2026-04-22T10:27:56Z</time></trkpt><trkpt lat="44.1815322" lon="10.3819734"><ele>775.5714285714286</ele><time>2026-04-22T10:27:59Z</time></trkpt><trkpt lat="44.1816117" lon="10.3819943"><ele>777.8571428571429</ele><time>2026-04-22T10:28:02.021Z</time></trkpt><trkpt lat="44.1816883" lon="10.3820157"><ele>780.1428571428571</ele><time>2026-04-22T10:28:05Z</time></trkpt><trkpt lat="44.1817601" lon="10.382033"><ele>782.4285714285713</ele><time>2026-04-22T10:28:08.015Z</time></trkpt><trkpt lat="44.1818315" lon="10.3820388"><ele>784.7142857142857</ele><time>2026-04-22T10:28:11Z</time></trkpt><trkpt lat="44.1819025" lon="10.3820352"><ele>787.0</ele><time>2026-04-22T10:28:14.009Z</time></trkpt><trkpt lat="44.1819847" lon="10.3820315"><ele>786.9999999999999</ele><time>2026-04-22T10:28:18Z</time></trkpt><trkpt lat="44.1820685" lon="10.3820319"><ele>787.0</ele><time>2026-04-22T10:28:22.039Z</time></trkpt><trkpt lat="44.1821517" lon="10.3820308"><ele>787.0</ele><time>2026-04-22T10:28:25Z</time></trkpt><trkpt lat="44.1822091" lon="10.3819688"><ele>787.0</ele><time>2026-04-22T10:28:28Z</time></trkpt><trkpt lat="44.1822111" lon="10.381871"><ele>786.9999999999999</ele><time>2026-04-22T10:28:31Z</time></trkpt><trkpt lat="44.1821539" lon="10.3818009"><ele>787.0</ele><time>2026-04-22T10:28:34Z</time></trkpt><trkpt lat="44.1820803" lon="10.3817712"><ele>786.9999999999999</ele><time>2026-04-22T10:28:37Z</time></trkpt><trkpt lat="44.18201" lon="10.3817364"><ele>787.0</ele><time>2026-04-22T10:28:40Z</time></trkpt><trkpt lat="44.1819385" lon="10.3817172"><ele>787.0</ele><time>2026-04-22T10:28:43Z</time></trkpt><trkpt lat="44.1818681" lon="10.3817112"><ele>787.0</ele><time>2026-04-22T10:28:46Z</time></trkpt><trkpt lat="44.1817926" lon="10.3817123"><ele>786.9999999999999</ele><time>2026-04-22T10:28:49Z</time></trkpt><trkpt lat="44.1817135" lon="10.3817012"><ele>787.0</ele><time>2026-04-22T10:28:52Z</time></trkpt><trkpt lat="44.1816358" lon="10.3816894"><ele>787.0</ele><time>2026-04-22T10:28:54.999Z</time></trkpt><trkpt lat="44.1815609" lon="10.3816655"><ele>787.0</ele><time>2026-04-22T10:28:58Z</time></trkpt><trkpt lat="44.181501" lon="10.3816159"><ele>787.0</ele><time>2026-04-22T10:29:01Z</time></trkpt><trkpt lat="44.1814401" lon="10.3815482"><ele>787.0</ele><time>2026-04-22T10:29:04Z</time></trkpt><trkpt lat="44.1813767" lon="10.3814776"><ele>787.0</ele><time>2026-04-22T10:29:07Z</time></trkpt><trkpt lat="44.1813238" lon="10.3814106"><ele>787.0</ele><time>2026-04-22T10:29:10Z</time></trkpt><trkpt lat="44.1812755" lon="10.3813453"><ele>787.0</ele><time>2026-04-22T10:29:13Z</time></trkpt><trkpt lat="44.1812124" lon="10.3812691"><ele>786.9999999999999</ele><time>2026-04-22T10:29:16Z</time></trkpt><trkpt lat="44.1811646" lon="10.3812107"><ele>787.0</ele><time>2026-04-22T10:29:18Z</time></trkpt><trkpt lat="44.1811076" lon="10.3811272"><ele>787.0</ele><time>2026-04-22T10:29:21Z</time></trkpt><trkpt lat="44.1810526" lon="10.3810306"><ele>787.0</ele><time>2026-04-22T10:29:24Z</time></trkpt><trkpt lat="44.1810084" lon="10.3809295"><ele>786.9999999999999</ele><time>2026-04-22T10:29:27Z</time></trkpt><trkpt lat="44.1809793" lon="10.3808317"><ele>787.0</ele><time>2026-04-22T10:29:30Z</time></trkpt><trkpt lat="44.1809612" lon="10.3807355"><ele>786.9999999999999</ele><time>2026-04-22T10:29:33Z</time></trkpt><trkpt lat="44.1809664" lon="10.380627"><ele>787.0</ele><time>2026-04-22T10:29:36Z</time></trkpt><trkpt lat="44.180976" lon="10.3805175"><ele>787.0</ele><time>2026-04-22T10:29:39Z</time></trkpt><trkpt lat="44.1809836" lon="10.3803996"><ele>787.0</ele><time>2026-04-22T10:29:42Z</time></trkpt><trkpt lat="44.1809804" lon="10.3802814"><ele>786.9999999999999</ele><time>2026-04-22T10:29:45Z</time></trkpt><trkpt lat="44.1809649" lon="10.3801741"><ele>787.0</ele><time>2026-04-22T10:29:48Z</time></trkpt><trkpt lat="44.1809504" lon="10.3800673"><ele>788.4999999999999</ele><time>2026-04-22T10:29:51Z</time></trkpt><trkpt lat="44.1809299" lon="10.3799525"><ele>790.0</ele><time>2026-04-22T10:29:54Z</time></trkpt><trkpt lat="44.1809003" lon="10.3798522"><ele>791.5</ele><time>2026-04-22T10:29:57Z</time></trkpt><trkpt lat="44.1808529" lon="10.3797576"><ele>793.0</ele><time>2026-04-22T10:30:00Z</time></trkpt><trkpt lat="44.1808116" lon="10.3796735"><ele>794.4999999999999</ele><time>2026-04-22T10:30:03Z</time></trkpt><trkpt lat="44.1807703" lon="10.3795869"><ele>796.0</ele><time>2026-04-22T10:30:06Z</time></trkpt><trkpt lat="44.1807251" lon="10.379489"><ele>797.6666666666666</ele><time>2026-04-22T10:30:09Z</time></trkpt><trkpt lat="44.1806962" lon="10.3793833"><ele>799.3333333333333</ele><time>2026-04-22T10:30:12Z</time></trkpt><trkpt lat="44.1806782" lon="10.3792618"><ele>801.0</ele><time>2026-04-22T10:30:15Z</time></trkpt><trkpt lat="44.180686" lon="10.3791461"><ele>802.6666666666667</ele><time>2026-04-22T10:30:18Z</time></trkpt><trkpt lat="44.1807045" lon="10.3790344"><ele>804.3333333333334</ele><time>2026-04-22T10:30:21Z</time></trkpt><trkpt lat="44.1807331" lon="10.3789317"><ele>806.0</ele><time>2026-04-22T10:30:24Z</time></trkpt><trkpt lat="44.1807623" lon="10.3788244"><ele>806.0000000000001</ele><time>2026-04-22T10:30:27Z</time></trkpt><trkpt lat="44.1807908" lon="10.3787157"><ele>806.0</ele><time>2026-04-22T10:30:30Z</time></trkpt><trkpt lat="44.1808189" lon="10.3786105"><ele>806.0</ele><time>2026-04-22T10:30:33Z</time></trkpt><trkpt lat="44.1808431" lon="10.3785027"><ele>806.0</ele><time>2026-04-22T10:30:36Z</time></trkpt><trkpt lat="44.180863" lon="10.3783903"><ele>806.0000000000001</ele><time>2026-04-22T10:30:39Z</time></trkpt><trkpt lat="44.1808791" lon="10.378278"><ele>806.0</ele><time>2026-04-22T10:30:42Z</time></trkpt><trkpt lat="44.1808888" lon="10.3781607"><ele>806.0000000000001</ele><time>2026-04-22T10:30:45Z</time></trkpt><trkpt lat="44.1808866" lon="10.3780443"><ele>806.0</ele><time>2026-04-22T10:30:48Z</time></trkpt><trkpt lat="44.180887" lon="10.3779322"><ele>806.0</ele><time>2026-04-22T10:30:51Z</time></trkpt><trkpt lat="44.1808909" lon="10.37783"><ele>806.0</ele><time>2026-04-22T10:30:54Z</time></trkpt><trkpt lat="44.1808858" lon="10.377733"><ele>806.0000000000001</ele><time>2026-04-22T10:30:57Z</time></trkpt><trkpt lat="44.1808751" lon="10.3776165"><ele>806.0</ele><time>2026-04-22T10:31:00Z</time></trkpt><trkpt lat="44.1808705" lon="10.3775016"><ele>805.8333333333334</ele><time>2026-04-22T10:31:03Z</time></trkpt><trkpt lat="44.1808647" lon="10.3773894"><ele>805.6666666666667</ele><time>2026-04-22T10:31:06Z</time></trkpt><trkpt lat="44.1808566" lon="10.3772797"><ele>805.5</ele><time>2026-04-22T10:31:09Z</time></trkpt><trkpt lat="44.1808531" lon="10.3771755"><ele>805.3333333333333</ele><time>2026-04-22T10:31:12Z</time></trkpt><trkpt lat="44.1808525" lon="10.3770579"><ele>805.1666666666666</ele><time>2026-04-22T10:31:15Z</time></trkpt><trkpt lat="44.1808605" lon="10.3769436"><ele>805.0</ele><time>2026-04-22T10:31:18.019Z</time></trkpt><trkpt lat="44.1808821" lon="10.3768383"><ele>804.1666666666666</ele><time>2026-04-22T10:31:21Z</time></trkpt><trkpt lat="44.1809483" lon="10.3767574"><ele>803.3333333333333</ele><time>2026-04-22T10:31:24.013Z</time></trkpt><trkpt lat="44.1810196" lon="10.3767084"><ele>802.5</ele><time>2026-04-22T10:31:27Z</time></trkpt><trkpt lat="44.1810909" lon="10.376697"><ele>801.6666666666667</ele><time>2026-04-22T10:31:30Z</time></trkpt><trkpt lat="44.1811636" lon="10.3766736"><ele>800.8333333333334</ele><time>2026-04-22T10:31:33Z</time></trkpt><trkpt lat="44.1812424" lon="10.3766677"><ele>800.0</ele><time>2026-04-22T10:31:36Z</time></trkpt><trkpt lat="44.1813206" lon="10.3766521"><ele>800.0000000000001</ele><time>2026-04-22T10:31:39Z</time></trkpt><trkpt lat="44.1813988" lon="10.3766372"><ele>800.0</ele><time>2026-04-22T10:31:42Z</time></trkpt><trkpt lat="44.1814778" lon="10.3766231"><ele>800.0</ele><time>2026-04-22T10:31:45Z</time></trkpt><trkpt lat="44.1815536" lon="10.3766055"><ele>800.0</ele><time>2026-04-22T10:31:48Z</time></trkpt><trkpt lat="44.1816322" lon="10.3765948"><ele>800.0000000000001</ele><time>2026-04-22T10:31:51Z</time></trkpt><trkpt lat="44.1817099" lon="10.3765817"><ele>800.0</ele><time>2026-04-22T10:31:54Z</time></trkpt><trkpt lat="44.181788" lon="10.3765791"><ele>802.1666666666667</ele><time>2026-04-22T10:31:57Z</time></trkpt><trkpt lat="44.1818645" lon="10.3765855"><ele>804.3333333333334</ele><time>2026-04-22T10:32:00Z</time></trkpt><trkpt lat="44.1819408" lon="10.3765952"><ele>806.5</ele><time>2026-04-22T10:32:03Z</time></trkpt><trkpt lat="44.182011" lon="10.3766177"><ele>808.6666666666667</ele><time>2026-04-22T10:32:06Z</time></trkpt><trkpt lat="44.1820839" lon="10.3766341"><ele>810.8333333333334</ele><time>2026-04-22T10:32:09Z</time></trkpt><trkpt lat="44.1821643" lon="10.3766495"><ele>813.0</ele><time>2026-04-22T10:32:12Z</time></trkpt><trkpt lat="44.1822435" lon="10.3766489"><ele>813.0</ele><time>2026-04-22T10:32:15Z</time></trkpt><trkpt lat="44.182321" lon="10.3766536"><ele>813.0</ele><time>2026-04-22T10:32:18Z</time></trkpt><trkpt lat="44.1823976" lon="10.3766632"><ele>813.0</ele><time>2026-04-22T10:32:21Z</time></trkpt><trkpt lat="44.1824772" lon="10.3766709"><ele>813.0</ele><time>2026-04-22T10:32:24Z</time></trkpt><trkpt lat="44.1825535" lon="10.3766915"><ele>813.0</ele><time>2026-04-22T10:32:27Z</time></trkpt><trkpt lat="44.1826296" lon="10.3766989"><ele>813.0</ele><time>2026-04-22T10:32:30Z</time></trkpt><trkpt lat="44.1827071" lon="10.3767152"><ele>814.8333333333334</ele><time>2026-04-22T10:32:33Z</time></trkpt><trkpt lat="44.1827798" lon="10.3767389"><ele>816.6666666666667</ele><time>2026-04-22T10:32:36Z</time></trkpt><trkpt lat="44.1828618" lon="10.376756"><ele>818.5</ele><time>2026-04-22T10:32:39Z</time></trkpt><trkpt lat="44.1829408" lon="10.3767655"><ele>820.3333333333334</ele><time>2026-04-22T10:32:42Z</time></trkpt><trkpt lat="44.1830192" lon="10.3767722"><ele>822.1666666666667</ele><time>2026-04-22T10:32:45Z</time></trkpt><trkpt lat="44.1830957" lon="10.3767892"><ele>824.0</ele><time>2026-04-22T10:32:48Z</time></trkpt><trkpt lat="44.1831669" lon="10.376817"><ele>826.1666666666667</ele><time>2026-04-22T10:32:51Z</time></trkpt><trkpt lat="44.183242" lon="10.3768455"><ele>828.3333333333334</ele><time>2026-04-22T10:32:54Z</time></trkpt><trkpt lat="44.1833142" lon="10.3768726"><ele>830.5</ele><time>2026-04-22T10:32:57Z</time></trkpt><trkpt lat="44.1833926" lon="10.3769007"><ele>832.6666666666667</ele><time>2026-04-22T10:33:01Z</time></trkpt><trkpt lat="44.1834759" lon="10.3769365"><ele>834.8333333333334</ele><time>2026-04-22T10:33:05Z</time></trkpt><trkpt lat="44.1835498" lon="10.3769749"><ele>837.0</ele><time>2026-04-22T10:33:08Z</time></trkpt><trkpt lat="44.1836134" lon="10.3769973"><ele>837.0</ele><time>2026-04-22T10:33:11Z</time></trkpt><trkpt lat="44.1836776" lon="10.3769606"><ele>837.0</ele><time>2026-04-22T10:33:14Z</time></trkpt><trkpt lat="44.1836868" lon="10.3768569"><ele>837.0</ele><time>2026-04-22T10:33:17Z</time></trkpt><trkpt lat="44.1836543" lon="10.376764"><ele>837.0</ele><time>2026-04-22T10:33:20Z</time></trkpt><trkpt lat="44.1836173" lon="10.3766728"><ele>837.0</ele><time>2026-04-22T10:33:23Z</time></trkpt><trkpt lat="44.1835648" lon="10.3765942"><ele>837.0</ele><time>2026-04-22T10:33:27Z</time></trkpt><trkpt lat="44.1835255" lon="10.3765212"><ele>837.0</ele><time>2026-04-22T10:33:30Z</time></trkpt><trkpt lat="44.1834836" lon="10.3764376"><ele>837.0</ele><time>2026-04-22T10:33:33Z</time></trkpt><trkpt lat="44.1834376" lon="10.3763563"><ele>837.0</ele><time>2026-04-22T10:33:36Z</time></trkpt><trkpt lat="44.1833977" lon="10.3762753"><ele>837.0</ele><time>2026-04-22T10:33:39Z</time></trkpt><trkpt lat="44.1833521" lon="10.3761862"><ele>837.0</ele><time>2026-04-22T10:33:42Z</time></trkpt><trkpt lat="44.1833132" lon="10.376096"><ele>837.0</ele><time>2026-04-22T10:33:45Z</time></trkpt><trkpt lat="44.1832724" lon="10.3760068"><ele>837.0</ele><time>2026-04-22T10:33:48Z</time></trkpt><trkpt lat="44.1832385" lon="10.3759063"><ele>837.5</ele><time>2026-04-22T10:33:51Z</time></trkpt><trkpt lat="44.18321" lon="10.3758082"><ele>838.0</ele><time>2026-04-22T10:33:54Z</time></trkpt><trkpt lat="44.1831716" lon="10.3757066"><ele>838.5</ele><time>2026-04-22T10:33:57Z</time></trkpt><trkpt lat="44.1831307" lon="10.3756094"><ele>839.0</ele><time>2026-04-22T10:34:00Z</time></trkpt><trkpt lat="44.183082" lon="10.3755281"><ele>839.5</ele><time>2026-04-22T10:34:03Z</time></trkpt><trkpt lat="44.1830219" lon="10.3754503"><ele>840.0</ele><time>2026-04-22T10:34:06Z</time></trkpt><trkpt lat="44.1829588" lon="10.3753765"><ele>840.0</ele><time>2026-04-22T10:34:09Z</time></trkpt><trkpt lat="44.1828917" lon="10.3753051"><ele>840.0</ele><time>2026-04-22T10:34:12Z</time></trkpt><trkpt lat="44.1828316" lon="10.3752295"><ele>840.0</ele><time>2026-04-22T10:34:15Z</time></trkpt><trkpt lat="44.1827694" lon="10.3751548"><ele>840.0</ele><time>2026-04-22T10:34:18Z</time></trkpt><trkpt lat="44.1827116" lon="10.37507"><ele>840.0</ele><time>2026-04-22T10:34:21Z</time></trkpt><trkpt lat="44.1826603" lon="10.3749827"><ele>840.0</ele><time>2026-04-22T10:34:24Z</time></trkpt><trkpt lat="44.1826229" lon="10.3749014"><ele>840.0</ele><time>2026-04-22T10:34:27Z</time></trkpt><trkpt lat="44.1825685" lon="10.3748314"><ele>840.0</ele><time>2026-04-22T10:34:30Z</time></trkpt><trkpt lat="44.1825199" lon="10.3747599"><ele>840.0</ele><time>2026-04-22T10:34:33Z</time></trkpt><trkpt lat="44.1824722" lon="10.37469"><ele>840.0</ele><time>2026-04-22T10:34:36Z</time></trkpt><trkpt lat="44.1824272" lon="10.3745924"><ele>840.0</ele><time>2026-04-22T10:34:39Z</time></trkpt><trkpt lat="44.1823768" lon="10.3745196"><ele>840.0</ele><time>2026-04-22T10:34:41Z</time></trkpt><trkpt lat="44.1823217" lon="10.3744292"><ele>837.3333333333334</ele><time>2026-04-22T10:34:43Z</time></trkpt><trkpt lat="44.1822364" lon="10.3743459"><ele>834.6666666666667</ele><time>2026-04-22T10:34:45Z</time></trkpt><trkpt lat="44.1821538" lon="10.3742277"><ele>832.0</ele><time>2026-04-22T10:34:47Z</time></trkpt><trkpt lat="44.1821375" lon="10.3741354"><ele>829.3333333333334</ele><time>2026-04-22T10:34:48Z</time></trkpt><trkpt lat="44.1821508" lon="10.374042"><ele>826.6666666666667</ele><time>2026-04-22T10:34:49Z</time></trkpt><trkpt lat="44.1821782" lon="10.3739512"><ele>824.0</ele><time>2026-04-22T10:34:50Z</time></trkpt><trkpt lat="44.1822065" lon="10.3738625"><ele>824.4285714285713</ele><time>2026-04-22T10:34:51Z</time></trkpt><trkpt lat="44.1822462" lon="10.3737709"><ele>824.8571428571429</ele><time>2026-04-22T10:34:52Z</time></trkpt><trkpt lat="44.1822824" lon="10.3736795"><ele>825.2857142857142</ele><time>2026-04-22T10:34:53Z</time></trkpt><trkpt lat="44.1823184" lon="10.3735894"><ele>825.7142857142857</ele><time>2026-04-22T10:34:54Z</time></trkpt><trkpt lat="44.1823496" lon="10.3734905"><ele>826.1428571428571</ele><time>2026-04-22T10:34:55Z</time></trkpt><trkpt lat="44.1823521" lon="10.3733927"><ele>826.5714285714286</ele><time>2026-04-22T10:34:56Z</time></trkpt><trkpt lat="44.182338" lon="10.3732962"><ele>827.0</ele><time>2026-04-22T10:34:57Z</time></trkpt><trkpt lat="44.1823197" lon="10.3732058"><ele>827.0</ele><time>2026-04-22T10:34:58Z</time></trkpt><trkpt lat="44.1822983" lon="10.3731178"><ele>827.0</ele><time>2026-04-22T10:34:59Z</time></trkpt><trkpt lat="44.1822578" lon="10.3729532"><ele>827.0</ele><time>2026-04-22T10:35:01Z</time></trkpt><trkpt lat="44.1822432" lon="10.372786"><ele>827.0</ele><time>2026-04-22T10:35:03Z</time></trkpt><trkpt lat="44.1822505" lon="10.3726172"><ele>827.0</ele><time>2026-04-22T10:35:05Z</time></trkpt><trkpt lat="44.1822359" lon="10.3724464"><ele>828.2</ele><time>2026-04-22T10:35:07Z</time></trkpt><trkpt lat="44.1821856" lon="10.3722866"><ele>829.4000000000001</ele><time>2026-04-22T10:35:09Z</time></trkpt><trkpt lat="44.1821523" lon="10.3722102"><ele>830.5999999999999</ele><time>2026-04-22T10:35:10Z</time></trkpt><trkpt lat="44.182064" lon="10.3720718"><ele>831.8</ele><time>2026-04-22T10:35:12Z</time></trkpt><trkpt lat="44.1820108" lon="10.3720152"><ele>833.0</ele><time>2026-04-22T10:35:13Z</time></trkpt><trkpt lat="44.1819101" lon="10.3719533"><ele>833.5000000000001</ele><time>2026-04-22T10:35:15Z</time></trkpt><trkpt lat="44.1817945" lon="10.3719217"><ele>834.0</ele><time>2026-04-22T10:35:17Z</time></trkpt><trkpt lat="44.181674" lon="10.3718961"><ele>834.5</ele><time>2026-04-22T10:35:19Z</time></trkpt><trkpt lat="44.1816138" lon="10.3718678"><ele>835.0</ele><time>2026-04-22T10:35:20Z</time></trkpt><trkpt lat="44.1815577" lon="10.3718206"><ele>835.5000000000001</ele><time>2026-04-22T10:35:21Z</time></trkpt><trkpt lat="44.1815009" lon="10.3717618"><ele>836.0</ele><time>2026-04-22T10:35:22Z</time></trkpt><trkpt lat="44.1814491" lon="10.3716825"><ele>835.1666666666667</ele><time>2026-04-22T10:35:23Z</time></trkpt><trkpt lat="44.1814083" lon="10.3715934"><ele>834.3333333333334</ele><time>2026-04-22T10:35:24Z</time></trkpt><trkpt lat="44.1813804" lon="10.3715079"><ele>833.5</ele><time>2026-04-22T10:35:25Z</time></trkpt><trkpt lat="44.1813597" lon="10.3714083"><ele>832.6666666666667</ele><time>2026-04-22T10:35:26Z</time></trkpt><trkpt lat="44.1813504" lon="10.3713144"><ele>831.8333333333334</ele><time>2026-04-22T10:35:27Z</time></trkpt><trkpt lat="44.1813441" lon="10.3712214"><ele>831.0</ele><time>2026-04-22T10:35:28Z</time></trkpt><trkpt lat="44.1813025" lon="10.371066"><ele>831.0</ele><time>2026-04-22T10:35:30Z</time></trkpt><trkpt lat="44.1812129" lon="10.3709891"><ele>831.0</ele><time>2026-04-22T10:35:32Z</time></trkpt><trkpt lat="44.1811108" lon="10.3709315"><ele>831.0</ele><time>2026-04-22T10:35:34Z</time></trkpt><trkpt lat="44.1810317" lon="10.3708873"><ele>831.0</ele><time>2026-04-22T10:35:36Z</time></trkpt><trkpt lat="44.1809642" lon="10.3708406"><ele>831.0</ele><time>2026-04-22T10:35:38Z</time></trkpt><trkpt lat="44.1809002" lon="10.3707936"><ele>831.0</ele><time>2026-04-22T10:35:41Z</time></trkpt><trkpt lat="44.1808485" lon="10.3707377"><ele>830.9999999999999</ele><time>2026-04-22T10:35:44Z</time></trkpt><trkpt lat="44.1808092" lon="10.3706622"><ele>831.0</ele><time>2026-04-22T10:35:47Z</time></trkpt><trkpt lat="44.1807706" lon="10.3705713"><ele>831.0</ele><time>2026-04-22T10:35:51Z</time></trkpt><trkpt lat="44.1807363" lon="10.3704858"><ele>831.0</ele><time>2026-04-22T10:35:54Z</time></trkpt><trkpt lat="44.1807017" lon="10.3704039"><ele>831.0</ele><time>2026-04-22T10:35:57Z</time></trkpt><trkpt lat="44.1806521" lon="10.3703301"><ele>830.9999999999999</ele><time>2026-04-22T10:36:01Z</time></trkpt><trkpt lat="44.1805798" lon="10.3702852"><ele>831.0</ele><time>2026-04-22T10:36:05Z</time></trkpt><trkpt lat="44.180519" lon="10.3702547"><ele>833.7142857142857</ele><time>2026-04-22T10:36:09Z</time></trkpt><trkpt lat="44.1804556" lon="10.3702528"><ele>836.4285714285714</ele><time>2026-04-22T10:36:12Z</time></trkpt><trkpt lat="44.1803878" lon="10.3702536"><ele>839.1428571428571</ele><time>2026-04-22T10:36:15Z</time></trkpt><trkpt lat="44.1803137" lon="10.3702518"><ele>841.8571428571429</ele><time>2026-04-22T10:36:19Z</time></trkpt><trkpt lat="44.1802483" lon="10.370242"><ele>844.5714285714286</ele><time>2026-04-22T10:36:22Z</time></trkpt><trkpt lat="44.1801699" lon="10.3702229"><ele>847.2857142857142</ele><time>2026-04-22T10:36:26Z</time></trkpt><trkpt lat="44.1801047" lon="10.3701996"><ele>850.0</ele><time>2026-04-22T10:36:29Z</time></trkpt><trkpt lat="44.1800343" lon="10.3701845"><ele>850.0</ele><time>2026-04-22T10:36:32Z</time></trkpt><trkpt lat="44.1799695" lon="10.3701735"><ele>850.0</ele><time>2026-04-22T10:36:35Z</time></trkpt><trkpt lat="44.1798894" lon="10.3701804"><ele>850.0</ele><time>2026-04-22T10:36:39Z</time></trkpt><trkpt lat="44.1798257" lon="10.3701894"><ele>850.0</ele><time>2026-04-22T10:36:42Z</time></trkpt><trkpt lat="44.1797567" lon="10.3701758"><ele>850.0</ele><time>2026-04-22T10:36:45Z</time></trkpt><trkpt lat="44.1796844" lon="10.370146"><ele>850.0</ele><time>2026-04-22T10:36:49Z</time></trkpt><trkpt lat="44.1796163" lon="10.3701027"><ele>850.0</ele><time>2026-04-22T10:36:53Z</time></trkpt><trkpt lat="44.1795522" lon="10.3700571"><ele>849.7142857142857</ele><time>2026-04-22T10:36:57Z</time></trkpt><trkpt lat="44.1794943" lon="10.37002"><ele>849.4285714285713</ele><time>2026-04-22T10:37:00Z</time></trkpt><trkpt lat="44.1794178" lon="10.3699782"><ele>849.1428571428571</ele><time>2026-04-22T10:37:04Z</time></trkpt><trkpt lat="44.1793455" lon="10.3699645"><ele>848.8571428571429</ele><time>2026-04-22T10:37:08Z</time></trkpt><trkpt lat="44.1792674" lon="10.3699443"><ele>848.5714285714286</ele><time>2026-04-22T10:37:13Z</time></trkpt><trkpt lat="44.1792" lon="10.3699163"><ele>848.2857142857143</ele><time>2026-04-22T10:37:17Z</time></trkpt><trkpt lat="44.1791251" lon="10.3698858"><ele>848.0</ele><time>2026-04-22T10:37:22Z</time></trkpt><trkpt lat="44.1790533" lon="10.3698534"><ele>847.5000000000001</ele><time>2026-04-22T10:37:26Z</time></trkpt><trkpt lat="44.1789833" lon="10.3698217"><ele>847.0</ele><time>2026-04-22T10:37:30Z</time></trkpt><trkpt lat="44.1789348" lon="10.3697653"><ele>846.5</ele><time>2026-04-22T10:37:33Z</time></trkpt><trkpt lat="44.1788703" lon="10.3697008"><ele>846.0</ele><time>2026-04-22T10:37:37Z</time></trkpt><trkpt lat="44.1788147" lon="10.3696213"><ele>845.5000000000001</ele><time>2026-04-22T10:37:41Z</time></trkpt><trkpt lat="44.1787464" lon="10.3695396"><ele>845.0</ele><time>2026-04-22T10:37:43Z</time></trkpt><trkpt lat="44.1786702" lon="10.3694607"><ele>844.6666666666667</ele><time>2026-04-22T10:37:45Z</time></trkpt><trkpt lat="44.1785519" lon="10.3694328"><ele>844.3333333333334</ele><time>2026-04-22T10:37:47Z</time></trkpt><trkpt lat="44.1784843" lon="10.3694417"><ele>844.0</ele><time>2026-04-22T10:37:48Z</time></trkpt><trkpt lat="44.1784093" lon="10.3694382"><ele>843.6666666666667</ele><time>2026-04-22T10:37:49Z</time></trkpt><trkpt lat="44.1783337" lon="10.3694336"><ele>843.3333333333334</ele><time>2026-04-22T10:37:50Z</time></trkpt><trkpt lat="44.1782539" lon="10.3694273"><ele>843.0</ele><time>2026-04-22T10:37:51Z</time></trkpt><trkpt lat="44.1781692" lon="10.3694246"><ele>841.5</ele><time>2026-04-22T10:37:52Z</time></trkpt><trkpt lat="44.1780859" lon="10.3694237"><ele>840.0</ele><time>2026-04-22T10:37:53Z</time></trkpt><trkpt lat="44.1779791" lon="10.3694496"><ele>838.5</ele><time>2026-04-22T10:37:55Z</time></trkpt><trkpt lat="44.1779101" lon="10.3694509"><ele>837.0</ele><time>2026-04-22T10:37:56Z</time></trkpt><trkpt lat="44.1778408" lon="10.3694532"><ele>835.5</ele><time>2026-04-22T10:37:57Z</time></trkpt><trkpt lat="44.1777716" lon="10.369461"><ele>834.0</ele><time>2026-04-22T10:37:58Z</time></trkpt><trkpt lat="44.1776618" lon="10.369439"><ele>834.0</ele><time>2026-04-22T10:38:00Z</time></trkpt><trkpt lat="44.1775589" lon="10.3693704"><ele>834.0</ele><time>2026-04-22T10:38:02Z</time></trkpt><trkpt lat="44.1774627" lon="10.3692985"><ele>834.0</ele><time>2026-04-22T10:38:04Z</time></trkpt><trkpt lat="44.177379" lon="10.3692844"><ele>834.0</ele><time>2026-04-22T10:38:06Z</time></trkpt><trkpt lat="44.1772879" lon="10.3692997"><ele>834.0</ele><time>2026-04-22T10:38:08Z</time></trkpt><trkpt lat="44.1772044" lon="10.3692969"><ele>832.3333333333334</ele><time>2026-04-22T10:38:10Z</time></trkpt><trkpt lat="44.1771045" lon="10.3692888"><ele>830.6666666666667</ele><time>2026-04-22T10:38:12Z</time></trkpt><trkpt lat="44.1770365" lon="10.369269"><ele>829.0</ele><time>2026-04-22T10:38:14Z</time></trkpt><trkpt lat="44.1769689" lon="10.3692005"><ele>827.3333333333334</ele><time>2026-04-22T10:38:16Z</time></trkpt><trkpt lat="44.1769094" lon="10.3691176"><ele>825.6666666666667</ele><time>2026-04-22T10:38:18Z</time></trkpt><trkpt lat="44.1768236" lon="10.3690914"><ele>824.0</ele><time>2026-04-22T10:38:20Z</time></trkpt><trkpt lat="44.1767144" lon="10.3690735"><ele>824.0</ele><time>2026-04-22T10:38:22Z</time></trkpt><trkpt lat="44.1766076" lon="10.3690571"><ele>824.0</ele><time>2026-04-22T10:38:24Z</time></trkpt><trkpt lat="44.1765153" lon="10.3690021"><ele>824.0</ele><time>2026-04-22T10:38:26Z</time></trkpt><trkpt lat="44.1764394" lon="10.3689366"><ele>824.0</ele><time>2026-04-22T10:38:28Z</time></trkpt><trkpt lat="44.1763922" lon="10.3688086"><ele>824.0</ele><time>2026-04-22T10:38:31Z</time></trkpt><trkpt lat="44.1763879" lon="10.3687037"><ele>822.8333333333334</ele><time>2026-04-22T10:38:33Z</time></trkpt><trkpt lat="44.1764046" lon="10.3686075"><ele>821.6666666666667</ele><time>2026-04-22T10:38:35Z</time></trkpt><trkpt lat="44.1764659" lon="10.3685315"><ele>820.5</ele><time>2026-04-22T10:38:37Z</time></trkpt><trkpt lat="44.1765399" lon="10.3684393"><ele>819.3333333333333</ele><time>2026-04-22T10:38:39Z</time></trkpt><trkpt lat="44.1765978" lon="10.3684043"><ele>818.1666666666666</ele><time>2026-04-22T10:38:40Z</time></trkpt><trkpt lat="44.1766739" lon="10.3683726"><ele>817.0</ele><time>2026-04-22T10:38:41Z</time></trkpt><trkpt lat="44.1767587" lon="10.3683431"><ele>816.9999999999999</ele><time>2026-04-22T10:38:42Z</time></trkpt><trkpt lat="44.1768443" lon="10.3683271"><ele>817.0</ele><time>2026-04-22T10:38:43Z</time></trkpt><trkpt lat="44.1769191" lon="10.3683127"><ele>817.0</ele><time>2026-04-22T10:38:44Z</time></trkpt><trkpt lat="44.1769883" lon="10.3683048"><ele>817.0</ele><time>2026-04-22T10:38:45Z</time></trkpt><trkpt lat="44.1770856" lon="10.3682425"><ele>816.9999999999999</ele><time>2026-04-22T10:38:47Z</time></trkpt><trkpt lat="44.1771497" lon="10.368189"><ele>817.0</ele><time>2026-04-22T10:38:49Z</time></trkpt><trkpt lat="44.1771522" lon="10.3680959"><ele>816.9999999999999</ele><time>2026-04-22T10:38:52Z</time></trkpt><trkpt lat="44.1770832" lon="10.3681039"><ele>817.0</ele><time>2026-04-22T10:38:57Z</time></trkpt><trkpt lat="44.1770129" lon="10.3680743"><ele>817.0</ele><time>2026-04-22T10:39:03Z</time></trkpt><trkpt lat="44.1769544" lon="10.3680339"><ele>817.0</ele><time>2026-04-22T10:39:07Z</time></trkpt><trkpt lat="44.1769" lon="10.3679767"><ele>817.0</ele><time>2026-04-22T10:39:11Z</time></trkpt><trkpt lat="44.1768426" lon="10.3679218"><ele>816.9999999999999</ele><time>2026-04-22T10:39:15Z</time></trkpt><trkpt lat="44.1768014" lon="10.3678498"><ele>817.0</ele><time>2026-04-22T10:39:20Z</time></trkpt><trkpt lat="44.1767481" lon="10.3677983"><ele>817.5714285714286</ele><time>2026-04-22T10:39:24Z</time></trkpt><trkpt lat="44.1767043" lon="10.3677263"><ele>818.1428571428571</ele><time>2026-04-22T10:39:29Z</time></trkpt><trkpt lat="44.1766762" lon="10.3676276"><ele>818.7142857142858</ele><time>2026-04-22T10:39:35Z</time></trkpt><trkpt lat="44.1766535" lon="10.3675448"><ele>819.2857142857142</ele><time>2026-04-22T10:39:40Z</time></trkpt><trkpt lat="44.1766321" lon="10.3674416"><ele>819.8571428571429</ele><time>2026-04-22T10:39:45Z</time></trkpt><trkpt lat="44.1766356" lon="10.3673326"><ele>820.4285714285714</ele><time>2026-04-22T10:39:50Z</time></trkpt><trkpt lat="44.1766334" lon="10.3672353"><ele>821.0</ele><time>2026-04-22T10:39:54Z</time></trkpt><trkpt lat="44.1766158" lon="10.3671434"><ele>820.7142857142858</ele><time>2026-04-22T10:39:59Z</time></trkpt><trkpt lat="44.1766041" lon="10.3670349"><ele>820.4285714285714</ele><time>2026-04-22T10:40:03Z</time></trkpt><trkpt lat="44.1765924" lon="10.3669413"><ele>820.1428571428571</ele><time>2026-04-22T10:40:07Z</time></trkpt><trkpt lat="44.1765584" lon="10.3668603"><ele>819.8571428571429</ele><time>2026-04-22T10:40:10Z</time></trkpt><trkpt lat="44.176515" lon="10.3667704"><ele>819.5714285714286</ele><time>2026-04-22T10:40:14Z</time></trkpt><trkpt lat="44.1764734" lon="10.3666797"><ele>819.2857142857143</ele><time>2026-04-22T10:40:18Z</time></trkpt><trkpt lat="44.1764296" lon="10.3665907"><ele>819.0</ele><time>2026-04-22T10:40:23Z</time></trkpt><trkpt lat="44.1763999" lon="10.3665059"><ele>819.0</ele><time>2026-04-22T10:40:28Z</time></trkpt><trkpt lat="44.1763812" lon="10.3663857"><ele>819.0</ele><time>2026-04-22T10:40:32Z</time></trkpt><trkpt lat="44.1763915" lon="10.3662561"><ele>819.0</ele><time>2026-04-22T10:40:34Z</time></trkpt><trkpt lat="44.1764131" lon="10.3661088"><ele>819.0</ele><time>2026-04-22T10:40:36Z</time></trkpt><trkpt lat="44.1764045" lon="10.3659464"><ele>819.0</ele><time>2026-04-22T10:40:38Z</time></trkpt><trkpt lat="44.1764165" lon="10.3658189"><ele>819.0</ele><time>2026-04-22T10:40:40Z</time></trkpt><trkpt lat="44.1764289" lon="10.365715"><ele>819.0</ele><time>2026-04-22T10:40:42Z</time></trkpt><trkpt lat="44.1763998" lon="10.3656156"><ele>819.0</ele><time>2026-04-22T10:40:44Z</time></trkpt><trkpt lat="44.1763315" lon="10.3655641"><ele>819.0</ele><time>2026-04-22T10:40:47Z</time></trkpt><trkpt lat="44.1762573" lon="10.3655898"><ele>819.0</ele><time>2026-04-22T10:40:51Z</time></trkpt><trkpt lat="44.1761945" lon="10.3656028"><ele>819.0</ele><time>2026-04-22T10:40:54Z</time></trkpt><trkpt lat="44.1761092" lon="10.3656046"><ele>819.0</ele><time>2026-04-22T10:40:57Z</time></trkpt><trkpt lat="44.1760317" lon="10.3655985"><ele>819.0</ele><time>2026-04-22T10:41:00Z</time></trkpt><trkpt lat="44.1759567" lon="10.3655766"><ele>819.0</ele><time>2026-04-22T10:41:03Z</time></trkpt><trkpt lat="44.1758464" lon="10.3656072"><ele>819.0</ele><time>2026-04-22T10:41:05Z</time></trkpt><trkpt lat="44.1757616" lon="10.3657132"><ele>819.0</ele><time>2026-04-22T10:41:07Z</time></trkpt><trkpt lat="44.1756445" lon="10.365734"><ele>818.3333333333334</ele><time>2026-04-22T10:41:09Z</time></trkpt><trkpt lat="44.1755737" lon="10.3657242"><ele>817.6666666666667</ele><time>2026-04-22T10:41:10Z</time></trkpt><trkpt lat="44.1754917" lon="10.3656504"><ele>817.0</ele><time>2026-04-22T10:41:11Z</time></trkpt><trkpt lat="44.1754246" lon="10.365613"><ele>816.3333333333334</ele><time>2026-04-22T10:41:12Z</time></trkpt><trkpt lat="44.1753515" lon="10.365565"><ele>815.6666666666667</ele><time>2026-04-22T10:41:13Z</time></trkpt><trkpt lat="44.1752849" lon="10.3655179"><ele>815.0</ele><time>2026-04-22T10:41:14Z</time></trkpt><trkpt lat="44.1752138" lon="10.3654872"><ele>815.0000000000001</ele><time>2026-04-22T10:41:15Z</time></trkpt><trkpt lat="44.1751388" lon="10.3654407"><ele>815.0</ele><time>2026-04-22T10:41:16Z</time></trkpt><trkpt lat="44.1750659" lon="10.3653973"><ele>815.0</ele><time>2026-04-22T10:41:17Z</time></trkpt><trkpt lat="44.1750233" lon="10.3653246"><ele>815.0</ele><time>2026-04-22T10:41:18Z</time></trkpt><trkpt lat="44.1749267" lon="10.365216"><ele>815.0000000000001</ele><time>2026-04-22T10:41:20Z</time></trkpt><trkpt lat="44.1748479" lon="10.3651957"><ele>815.0</ele><time>2026-04-22T10:41:21Z</time></trkpt><trkpt lat="44.174786" lon="10.3651683"><ele>814.2</ele><time>2026-04-22T10:41:22Z</time></trkpt><trkpt lat="44.1746849" lon="10.3650899"><ele>813.4</ele><time>2026-04-22T10:41:24Z</time></trkpt><trkpt lat="44.1746145" lon="10.3649746"><ele>812.5999999999999</ele><time>2026-04-22T10:41:26Z</time></trkpt><trkpt lat="44.1745788" lon="10.3648781"><ele>811.8</ele><time>2026-04-22T10:41:28Z</time></trkpt><trkpt lat="44.174572" lon="10.3647848"><ele>811.0</ele><time>2026-04-22T10:41:30Z</time></trkpt><trkpt lat="44.174521" lon="10.3646844"><ele>807.25</ele><time>2026-04-22T10:41:33Z</time></trkpt><trkpt lat="44.1744152" lon="10.3647137"><ele>803.5</ele><time>2026-04-22T10:41:35Z</time></trkpt><trkpt lat="44.174306" lon="10.3647837"><ele>799.75</ele><time>2026-04-22T10:41:37Z</time></trkpt><trkpt lat="44.1741953" lon="10.3648514"><ele>796.0</ele><time>2026-04-22T10:41:39Z</time></trkpt><trkpt lat="44.1740912" lon="10.3649101"><ele>794.1666666666666</ele><time>2026-04-22T10:41:41Z</time></trkpt><trkpt lat="44.1740017" lon="10.3649487"><ele>792.3333333333333</ele><time>2026-04-22T10:41:43Z</time></trkpt><trkpt lat="44.1739206" lon="10.3649496"><ele>790.5</ele><time>2026-04-22T10:41:45Z</time></trkpt><trkpt lat="44.17383" lon="10.3649123"><ele>788.6666666666667</ele><time>2026-04-22T10:41:48Z</time></trkpt><trkpt lat="44.1737588" lon="10.3648964"><ele>786.8333333333334</ele><time>2026-04-22T10:41:50Z</time></trkpt><trkpt lat="44.1737003" lon="10.3648594"><ele>785.0</ele><time>2026-04-22T10:41:52Z</time></trkpt><trkpt lat="44.1736406" lon="10.3648129"><ele>785.0</ele><time>2026-04-22T10:41:54Z</time></trkpt><trkpt lat="44.1735638" lon="10.3647682"><ele>785.0</ele><time>2026-04-22T10:41:56Z</time></trkpt><trkpt lat="44.1735034" lon="10.3647362"><ele>785.0</ele><time>2026-04-22T10:41:57Z</time></trkpt><trkpt lat="44.1734065" lon="10.3646334"><ele>785.0</ele><time>2026-04-22T10:41:59Z</time></trkpt><trkpt lat="44.1733127" lon="10.3645266"><ele>785.0</ele><time>2026-04-22T10:42:01Z</time></trkpt><trkpt lat="44.1732351" lon="10.3644069"><ele>786.4</ele><time>2026-04-22T10:42:03Z</time></trkpt><trkpt lat="44.1732195" lon="10.3642698"><ele>787.8</ele><time>2026-04-22T10:42:05Z</time></trkpt><trkpt lat="44.1732198" lon="10.3641257"><ele>789.2</ele><time>2026-04-22T10:42:07Z</time></trkpt><trkpt lat="44.1732143" lon="10.363988"><ele>790.6</ele><time>2026-04-22T10:42:09Z</time></trkpt><trkpt lat="44.1732252" lon="10.3638646"><ele>792.0</ele><time>2026-04-22T10:42:11Z</time></trkpt><trkpt lat="44.1732552" lon="10.3637732"><ele>792.0</ele><time>2026-04-22T10:42:13Z</time></trkpt><trkpt lat="44.1733044" lon="10.3637149"><ele>792.0</ele><time>2026-04-22T10:42:16Z</time></trkpt><trkpt lat="44.1733722" lon="10.3636721"><ele>792.0</ele><time>2026-04-22T10:42:22Z</time></trkpt><trkpt lat="44.1734478" lon="10.3636591"><ele>792.0</ele><time>2026-04-22T10:42:26Z</time></trkpt><trkpt lat="44.1735211" lon="10.3636215"><ele>792.0</ele><time>2026-04-22T10:42:30Z</time></trkpt><trkpt lat="44.1735711" lon="10.3635591"><ele>792.0</ele><time>2026-04-22T10:42:33Z</time></trkpt><trkpt lat="44.1736067" lon="10.3634836"><ele>792.0</ele><time>2026-04-22T10:42:36Z</time></trkpt><trkpt lat="44.1736325" lon="10.3633819"><ele>792.0</ele><time>2026-04-22T10:42:40Z</time></trkpt><trkpt lat="44.1736559" lon="10.3632761"><ele>792.0</ele><time>2026-04-22T10:42:44Z</time></trkpt><trkpt lat="44.1736947" lon="10.3631953"><ele>792.0</ele><time>2026-04-22T10:42:47Z</time></trkpt><trkpt lat="44.1737361" lon="10.3631086"><ele>792.0</ele><time>2026-04-22T10:42:50Z</time></trkpt><trkpt lat="44.1737825" lon="10.363021"><ele>792.0</ele><time>2026-04-22T10:42:54Z</time></trkpt><trkpt lat="44.173829" lon="10.3629271"><ele>792.0</ele><time>2026-04-22T10:42:58Z</time></trkpt><trkpt lat="44.1738913" lon="10.3628546"><ele>792.5714285714286</ele><time>2026-04-22T10:43:02Z</time></trkpt><trkpt lat="44.1739535" lon="10.3628276"><ele>793.1428571428571</ele><time>2026-04-22T10:43:06Z</time></trkpt><trkpt lat="44.1740304" lon="10.3628146"><ele>793.7142857142857</ele><time>2026-04-22T10:43:10Z</time></trkpt><trkpt lat="44.1740947" lon="10.3628207"><ele>794.2857142857142</ele><time>2026-04-22T10:43:14Z</time></trkpt><trkpt lat="44.1741526" lon="10.3628554"><ele>794.8571428571429</ele><time>2026-04-22T10:43:16.999Z</time></trkpt><trkpt lat="44.1742144" lon="10.3628955"><ele>795.4285714285713</ele><time>2026-04-22T10:43:21Z</time></trkpt><trkpt lat="44.1742908" lon="10.3628916"><ele>796.0</ele><time>2026-04-22T10:43:25Z</time></trkpt><trkpt lat="44.17434" lon="10.3628359"><ele>795.9999999999999</ele><time>2026-04-22T10:43:28Z</time></trkpt><trkpt lat="44.1743967" lon="10.3627749"><ele>796.0</ele><time>2026-04-22T10:43:31Z</time></trkpt><trkpt lat="44.1744562" lon="10.3627081"><ele>796.0</ele><time>2026-04-22T10:43:35.099Z</time></trkpt><trkpt lat="44.1745351" lon="10.3626868"><ele>796.0</ele><time>2026-04-22T10:43:40Z</time></trkpt><trkpt lat="44.1746083" lon="10.3626765"><ele>795.9999999999999</ele><time>2026-04-22T10:43:44Z</time></trkpt><trkpt lat="44.1746832" lon="10.3626789"><ele>796.0</ele><time>2026-04-22T10:43:47Z</time></trkpt><trkpt lat="44.1747579" lon="10.3626924"><ele>795.9999999999999</ele><time>2026-04-22T10:43:50Z</time></trkpt><trkpt lat="44.1748299" lon="10.3627069"><ele>796.0</ele><time>2026-04-22T10:43:53Z</time></trkpt><trkpt lat="44.1749047" lon="10.3626869"><ele>796.0</ele><time>2026-04-22T10:43:57Z</time></trkpt><trkpt lat="44.1749782" lon="10.3626582"><ele>796.0</ele><time>2026-04-22T10:44:01Z</time></trkpt><trkpt lat="44.175051" lon="10.3626209"><ele>795.9999999999999</ele><time>2026-04-22T10:44:05Z</time></trkpt><trkpt lat="44.1751238" lon="10.3625826"><ele>796.0</ele><time>2026-04-22T10:44:09Z</time></trkpt><trkpt lat="44.1752032" lon="10.3625643"><ele>797.7142857142857</ele><time>2026-04-22T10:44:13Z</time></trkpt><trkpt lat="44.1752628" lon="10.3625353"><ele>799.4285714285714</ele><time>2026-04-22T10:44:17Z</time></trkpt><trkpt lat="44.1753319" lon="10.3624817"><ele>801.1428571428571</ele><time>2026-04-22T10:44:22Z</time></trkpt><trkpt lat="44.1753849" lon="10.3624154"><ele>802.8571428571429</ele><time>2026-04-22T10:44:25Z</time></trkpt><trkpt lat="44.1754344" lon="10.3623583"><ele>804.5714285714286</ele><time>2026-04-22T10:44:29Z</time></trkpt><trkpt lat="44.1755059" lon="10.3623213"><ele>806.2857142857142</ele><time>2026-04-22T10:44:34.1Z</time></trkpt><trkpt lat="44.1755825" lon="10.3622998"><ele>808.0</ele><time>2026-04-22T10:44:38Z</time></trkpt><trkpt lat="44.1756512" lon="10.3622663"><ele>809.5714285714286</ele><time>2026-04-22T10:44:43Z</time></trkpt><trkpt lat="44.175724" lon="10.3622401"><ele>811.1428571428571</ele><time>2026-04-22T10:44:47Z</time></trkpt><trkpt lat="44.1757895" lon="10.3622383"><ele>812.7142857142858</ele><time>2026-04-22T10:44:52Z</time></trkpt><trkpt lat="44.1758638" lon="10.3622285"><ele>814.2857142857142</ele><time>2026-04-22T10:44:57Z</time></trkpt><trkpt lat="44.1759147" lon="10.3621563"><ele>815.8571428571429</ele><time>2026-04-22T10:45:01Z</time></trkpt><trkpt lat="44.1759252" lon="10.3620478"><ele>817.4285714285714</ele><time>2026-04-22T10:45:05Z</time></trkpt><trkpt lat="44.1759323" lon="10.3619566"><ele>819.0</ele><time>2026-04-22T10:45:09Z</time></trkpt><trkpt lat="44.1759241" lon="10.3618546"><ele>819.0</ele><time>2026-04-22T10:45:13Z</time></trkpt><trkpt lat="44.1759139" lon="10.3617677"><ele>819.0</ele><time>2026-04-22T10:45:17Z</time></trkpt><trkpt lat="44.1758829" lon="10.3616671"><ele>819.0</ele><time>2026-04-22T10:45:21Z</time></trkpt><trkpt lat="44.1758383" lon="10.3615534"><ele>819.0</ele><time>2026-04-22T10:45:24Z</time></trkpt><trkpt lat="44.1757951" lon="10.3614524"><ele>819.0</ele><time>2026-04-22T10:45:26Z</time></trkpt><trkpt lat="44.1757568" lon="10.3612819"><ele>819.0</ele><time>2026-04-22T10:45:28Z</time></trkpt><trkpt lat="44.1757072" lon="10.3611802"><ele>817.0</ele><time>2026-04-22T10:45:30Z</time></trkpt><trkpt lat="44.175637" lon="10.361133"><ele>815.0</ele><time>2026-04-22T10:45:32Z</time></trkpt><trkpt lat="44.1755607" lon="10.3611175"><ele>813.0</ele><time>2026-04-22T10:45:35Z</time></trkpt><trkpt lat="44.1754854" lon="10.3610717"><ele>811.0</ele><time>2026-04-22T10:45:39Z</time></trkpt><trkpt lat="44.1754397" lon="10.3610074"><ele>809.0</ele><time>2026-04-22T10:45:42Z</time></trkpt><trkpt lat="44.1753837" lon="10.3609487"><ele>807.0</ele><time>2026-04-22T10:45:45Z</time></trkpt><trkpt lat="44.1753121" lon="10.3608853"><ele>807.0</ele><time>2026-04-22T10:45:48Z</time></trkpt><trkpt lat="44.1752584" lon="10.3608387"><ele>807.0</ele><time>2026-04-22T10:45:50Z</time></trkpt><trkpt lat="44.175184" lon="10.3607632"><ele>807.0</ele><time>2026-04-22T10:45:52Z</time></trkpt><trkpt lat="44.1751115" lon="10.3606356"><ele>807.0</ele><time>2026-04-22T10:45:54Z</time></trkpt><trkpt lat="44.1750276" lon="10.3605701"><ele>807.0</ele><time>2026-04-22T10:45:56Z</time></trkpt><trkpt lat="44.1749248" lon="10.3605536"><ele>806.8</ele><time>2026-04-22T10:45:58Z</time></trkpt><trkpt lat="44.1748292" lon="10.3605088"><ele>806.6</ele><time>2026-04-22T10:46:00Z</time></trkpt><trkpt lat="44.1747226" lon="10.3604865"><ele>806.4</ele><time>2026-04-22T10:46:02Z</time></trkpt><trkpt lat="44.1746316" lon="10.3604695"><ele>806.1999999999999</ele><time>2026-04-22T10:46:04Z</time></trkpt><trkpt lat="44.1745484" lon="10.3604161"><ele>806.0</ele><time>2026-04-22T10:46:07Z</time></trkpt><trkpt lat="44.1745039" lon="10.3603425"><ele>806.0</ele><time>2026-04-22T10:46:12Z</time></trkpt><trkpt lat="44.1744732" lon="10.3602468"><ele>806.0</ele><time>2026-04-22T10:46:17Z</time></trkpt><trkpt lat="44.1744604" lon="10.3601497"><ele>806.0</ele><time>2026-04-22T10:46:21Z</time></trkpt><trkpt lat="44.1744494" lon="10.3600418"><ele>806.0</ele><time>2026-04-22T10:46:26Z</time></trkpt><trkpt lat="44.1744194" lon="10.3599566"><ele>806.0</ele><time>2026-04-22T10:46:29Z</time></trkpt><trkpt lat="44.1743627" lon="10.3598824"><ele>806.0</ele><time>2026-04-22T10:46:32Z</time></trkpt><trkpt lat="44.1743088" lon="10.3598299"><ele>806.0</ele><time>2026-04-22T10:46:35Z</time></trkpt><trkpt lat="44.1742367" lon="10.3598152"><ele>806.0</ele><time>2026-04-22T10:46:40Z</time></trkpt><trkpt lat="44.174168" lon="10.3598465"><ele>806.0</ele><time>2026-04-22T10:46:43Z</time></trkpt><trkpt lat="44.1741074" lon="10.3598888"><ele>806.0</ele><time>2026-04-22T10:46:45Z</time></trkpt><trkpt lat="44.1740241" lon="10.3598978"><ele>806.0</ele><time>2026-04-22T10:46:46Z</time></trkpt><trkpt lat="44.1739512" lon="10.3598386"><ele>806.0</ele><time>2026-04-22T10:46:48Z</time></trkpt><trkpt lat="44.1738951" lon="10.3597892"><ele>806.0</ele><time>2026-04-22T10:46:51Z</time></trkpt><trkpt lat="44.1738493" lon="10.3597219"><ele>806.0</ele><time>2026-04-22T10:46:55Z</time></trkpt><trkpt lat="44.1737917" lon="10.3596663"><ele>804.8333333333334</ele><time>2026-04-22T10:46:59Z</time></trkpt><trkpt lat="44.1737153" lon="10.3596595"><ele>803.6666666666667</ele><time>2026-04-22T10:47:04Z</time></trkpt><trkpt lat="44.1736478" lon="10.35967"><ele>802.5</ele><time>2026-04-22T10:47:07Z</time></trkpt><trkpt lat="44.1735679" lon="10.3597435"><ele>801.3333333333333</ele><time>2026-04-22T10:47:10Z</time></trkpt><trkpt lat="44.1735021" lon="10.3598153"><ele>800.1666666666666</ele><time>2026-04-22T10:47:13Z</time></trkpt><trkpt lat="44.1733845" lon="10.3598602"><ele>799.0</ele><time>2026-04-22T10:47:15Z</time></trkpt><trkpt lat="44.1733217" lon="10.3598724"><ele>798.9999999999999</ele><time>2026-04-22T10:47:16Z</time></trkpt><trkpt lat="44.1732524" lon="10.3598867"><ele>799.0</ele><time>2026-04-22T10:47:17Z</time></trkpt><trkpt lat="44.1731847" lon="10.3598984"><ele>799.0</ele><time>2026-04-22T10:47:18Z</time></trkpt><trkpt lat="44.1731077" lon="10.3599449"><ele>799.0</ele><time>2026-04-22T10:47:20Z</time></trkpt><trkpt lat="44.1730167" lon="10.3599747"><ele>798.9999999999999</ele><time>2026-04-22T10:47:22Z</time></trkpt><trkpt lat="44.1729379" lon="10.3599773"><ele>799.0</ele><time>2026-04-22T10:47:24Z</time></trkpt><trkpt lat="44.1728553" lon="10.3599865"><ele>798.6666666666666</ele><time>2026-04-22T10:47:26Z</time></trkpt><trkpt lat="44.1727906" lon="10.3599955"><ele>798.3333333333333</ele><time>2026-04-22T10:47:28Z</time></trkpt><trkpt lat="44.1727223" lon="10.3599972"><ele>798.0</ele><time>2026-04-22T10:47:29Z</time></trkpt><trkpt lat="44.1726644" lon="10.3599523"><ele>797.6666666666667</ele><time>2026-04-22T10:47:30Z</time></trkpt><trkpt lat="44.1726051" lon="10.359877"><ele>797.3333333333334</ele><time>2026-04-22T10:47:31Z</time></trkpt><trkpt lat="44.1725834" lon="10.3597061"><ele>797.0</ele><time>2026-04-22T10:47:33Z</time></trkpt><trkpt lat="44.1725732" lon="10.3595811"><ele>796.8333333333334</ele><time>2026-04-22T10:47:35Z</time></trkpt><trkpt lat="44.1725264" lon="10.3594777"><ele>796.6666666666667</ele><time>2026-04-22T10:47:37Z</time></trkpt><trkpt lat="44.1724703" lon="10.3594297"><ele>796.5</ele><time>2026-04-22T10:47:41Z</time></trkpt><trkpt lat="44.1724388" lon="10.3593314"><ele>796.3333333333333</ele><time>2026-04-22T10:47:45Z</time></trkpt><trkpt lat="44.1723946" lon="10.3592475"><ele>796.1666666666666</ele><time>2026-04-22T10:47:49Z</time></trkpt><trkpt lat="44.1723612" lon="10.3591539"><ele>796.0</ele><time>2026-04-22T10:47:53Z</time></trkpt><trkpt lat="44.1722942" lon="10.3591181"><ele>797.5714285714286</ele><time>2026-04-22T10:47:57Z</time></trkpt><trkpt lat="44.1722243" lon="10.359085"><ele>799.1428571428571</ele><time>2026-04-22T10:48:01Z</time></trkpt><trkpt lat="44.1721666" lon="10.3591341"><ele>800.7142857142858</ele><time>2026-04-22T10:48:07Z</time></trkpt><trkpt lat="44.1721233" lon="10.3592222"><ele>802.2857142857142</ele><time>2026-04-22T10:48:13Z</time></trkpt><trkpt lat="44.1720789" lon="10.359296"><ele>803.8571428571429</ele><time>2026-04-22T10:48:18Z</time></trkpt><trkpt lat="44.1720086" lon="10.3592709"><ele>805.4285714285714</ele><time>2026-04-22T10:48:23Z</time></trkpt><trkpt lat="44.1719383" lon="10.3592598"><ele>807.0</ele><time>2026-04-22T10:48:27Z</time></trkpt><trkpt lat="44.1718725" lon="10.3592744"><ele>807.0000000000001</ele><time>2026-04-22T10:48:31Z</time></trkpt><trkpt lat="44.1718124" lon="10.3592315"><ele>807.0</ele><time>2026-04-22T10:48:35Z</time></trkpt><trkpt lat="44.1717481" lon="10.359205"><ele>807.0</ele><time>2026-04-22T10:48:39Z</time></trkpt><trkpt lat="44.1716832" lon="10.3592044"><ele>807.0</ele><time>2026-04-22T10:48:43Z</time></trkpt><trkpt lat="44.1716147" lon="10.3591817"><ele>807.0</ele><time>2026-04-22T10:48:47Z</time></trkpt><trkpt lat="44.1715482" lon="10.3591785"><ele>807.0000000000001</ele><time>2026-04-22T10:48:51Z</time></trkpt><trkpt lat="44.1714869" lon="10.3592241"><ele>807.0</ele><time>2026-04-22T10:48:55Z</time></trkpt><trkpt lat="44.1714034" lon="10.3592646"><ele>805.1666666666666</ele><time>2026-04-22T10:48:58Z</time></trkpt><trkpt lat="44.1713584" lon="10.3593755"><ele>803.3333333333333</ele><time>2026-04-22T10:49:01Z</time></trkpt><trkpt lat="44.1713152" lon="10.3594594"><ele>801.5</ele><time>2026-04-22T10:49:03Z</time></trkpt><trkpt lat="44.1712735" lon="10.3595393"><ele>799.6666666666666</ele><time>2026-04-22T10:49:05Z</time></trkpt><trkpt lat="44.1712245" lon="10.359605"><ele>797.8333333333333</ele><time>2026-04-22T10:49:07Z</time></trkpt><trkpt lat="44.1711742" lon="10.3596644"><ele>796.0</ele><time>2026-04-22T10:49:09Z</time></trkpt><trkpt lat="44.1710948" lon="10.3597033"><ele>795.4</ele><time>2026-04-22T10:49:12Z</time></trkpt><trkpt lat="44.1709965" lon="10.3597617"><ele>794.8</ele><time>2026-04-22T10:49:14Z</time></trkpt><trkpt lat="44.1709211" lon="10.359836"><ele>794.1999999999999</ele><time>2026-04-22T10:49:16Z</time></trkpt><trkpt lat="44.170854" lon="10.3599456"><ele>793.5999999999999</ele><time>2026-04-22T10:49:18Z</time></trkpt><trkpt lat="44.1707787" lon="10.3600478"><ele>793.0</ele><time>2026-04-22T10:49:20Z</time></trkpt><trkpt lat="44.1707236" lon="10.3600972"><ele>792.3333333333333</ele><time>2026-04-22T10:49:21Z</time></trkpt><trkpt lat="44.170658" lon="10.3601764"><ele>791.6666666666666</ele><time>2026-04-22T10:49:22Z</time></trkpt><trkpt lat="44.1705636" lon="10.3602968"><ele>791.0</ele><time>2026-04-22T10:49:24Z</time></trkpt><trkpt lat="44.1704943" lon="10.3603481"><ele>790.3333333333333</ele><time>2026-04-22T10:49:27Z</time></trkpt><trkpt lat="44.1704146" lon="10.3603723"><ele>789.6666666666666</ele><time>2026-04-22T10:49:33Z</time></trkpt><trkpt lat="44.1703503" lon="10.3603656"><ele>789.0</ele><time>2026-04-22T10:49:37Z</time></trkpt><trkpt lat="44.1702809" lon="10.3603824"><ele>788.9999999999999</ele><time>2026-04-22T10:49:41Z</time></trkpt><trkpt lat="44.1702073" lon="10.3604115"><ele>789.0</ele><time>2026-04-22T10:49:45Z</time></trkpt><trkpt lat="44.1701353" lon="10.3604405"><ele>789.0</ele><time>2026-04-22T10:49:49Z</time></trkpt><trkpt lat="44.1700655" lon="10.3604417"><ele>789.0</ele><time>2026-04-22T10:49:53Z</time></trkpt><trkpt lat="44.1700027" lon="10.3604138"><ele>789.0</ele><time>2026-04-22T10:49:57Z</time></trkpt><trkpt lat="44.1699474" lon="10.3603533"><ele>788.9999999999999</ele><time>2026-04-22T10:50:00Z</time></trkpt><trkpt lat="44.169892" lon="10.3603005"><ele>789.0</ele><time>2026-04-22T10:50:04Z</time></trkpt><trkpt lat="44.1698268" lon="10.3602397"><ele>787.5</ele><time>2026-04-22T10:50:08Z</time></trkpt><trkpt lat="44.1697719" lon="10.3601665"><ele>786.0</ele><time>2026-04-22T10:50:12Z</time></trkpt><trkpt lat="44.1696929" lon="10.360184"><ele>784.5</ele><time>2026-04-22T10:50:15Z</time></trkpt><trkpt lat="44.1696144" lon="10.3602231"><ele>783.0</ele><time>2026-04-22T10:50:18Z</time></trkpt><trkpt lat="44.1695423" lon="10.3601814"><ele>781.5</ele><time>2026-04-22T10:50:21Z</time></trkpt><trkpt lat="44.1694529" lon="10.3601769"><ele>780.0</ele><time>2026-04-22T10:50:24Z</time></trkpt><trkpt lat="44.1693846" lon="10.3601473"><ele>780.0</ele><time>2026-04-22T10:50:26Z</time></trkpt><trkpt lat="44.1692905" lon="10.3601501"><ele>780.0</ele><time>2026-04-22T10:50:29Z</time></trkpt><trkpt lat="44.1692326" lon="10.3602191"><ele>780.0</ele><time>2026-04-22T10:50:31Z</time></trkpt><trkpt lat="44.1691728" lon="10.360296"><ele>780.0</ele><time>2026-04-22T10:50:34Z</time></trkpt><trkpt lat="44.1691031" lon="10.3603039"><ele>780.0</ele><time>2026-04-22T10:50:36Z</time></trkpt><trkpt lat="44.1690099" lon="10.360308"><ele>780.0</ele><time>2026-04-22T10:50:39Z</time></trkpt><trkpt lat="44.1689461" lon="10.3603622"><ele>776.3333333333334</ele><time>2026-04-22T10:50:42Z</time></trkpt><trkpt lat="44.1688462" lon="10.3603427"><ele>772.6666666666666</ele><time>2026-04-22T10:50:43Z</time></trkpt><trkpt lat="44.1687561" lon="10.3603764"><ele>769.0</ele><time>2026-04-22T10:50:45Z</time></trkpt><trkpt lat="44.1686825" lon="10.3604352"><ele>765.3333333333333</ele><time>2026-04-22T10:50:47Z</time></trkpt><trkpt lat="44.1686121" lon="10.3604557"><ele>761.6666666666666</ele><time>2026-04-22T10:50:49Z</time></trkpt><trkpt lat="44.1685413" lon="10.3604672"><ele>758.0</ele><time>2026-04-22T10:50:50Z</time></trkpt><trkpt lat="44.1684118" lon="10.3604075"><ele>758.0</ele><time>2026-04-22T10:50:52Z</time></trkpt><trkpt lat="44.1683384" lon="10.3603929"><ele>758.0</ele><time>2026-04-22T10:50:53Z</time></trkpt><trkpt lat="44.1682315" lon="10.360429"><ele>758.0</ele><time>2026-04-22T10:50:55Z</time></trkpt><trkpt lat="44.1681297" lon="10.3604634"><ele>758.0</ele><time>2026-04-22T10:50:57Z</time></trkpt><trkpt lat="44.168008" lon="10.3604336"><ele>758.0</ele><time>2026-04-22T10:50:59Z</time></trkpt><trkpt lat="44.1679183" lon="10.3604204"><ele>756.1428571428572</ele><time>2026-04-22T10:51:01Z</time></trkpt><trkpt lat="44.1678531" lon="10.3604522"><ele>754.2857142857143</ele><time>2026-04-22T10:51:03Z</time></trkpt><trkpt lat="44.1677999" lon="10.3605181"><ele>752.4285714285714</ele><time>2026-04-22T10:51:06Z</time></trkpt><trkpt lat="44.167762" lon="10.3606208"><ele>750.5714285714287</ele><time>2026-04-22T10:51:09Z</time></trkpt><trkpt lat="44.1677046" lon="10.3606762"><ele>748.7142857142857</ele><time>2026-04-22T10:51:11Z</time></trkpt><trkpt lat="44.1676224" lon="10.36071"><ele>746.8571428571429</ele><time>2026-04-22T10:51:13Z</time></trkpt><trkpt lat="44.1675717" lon="10.3607655"><ele>745.0</ele><time>2026-04-22T10:51:14Z</time></trkpt><trkpt lat="44.167485" lon="10.3608208"><ele>745.0</ele><time>2026-04-22T10:51:16Z</time></trkpt><trkpt lat="44.1674047" lon="10.3608759"><ele>745.0</ele><time>2026-04-22T10:51:18Z</time></trkpt><trkpt lat="44.1673258" lon="10.3609065"><ele>745.0</ele><time>2026-04-22T10:51:20Z</time></trkpt><trkpt lat="44.1672391" lon="10.3609322"><ele>745.0</ele><time>2026-04-22T10:51:23Z</time></trkpt><trkpt lat="44.1671639" lon="10.3610061"><ele>745.0</ele><time>2026-04-22T10:51:26Z</time></trkpt><trkpt lat="44.1671243" lon="10.3610843"><ele>745.0</ele><time>2026-04-22T10:51:27Z</time></trkpt><trkpt lat="44.1671057" lon="10.36122"><ele>741.2857142857142</ele><time>2026-04-22T10:51:29Z</time></trkpt><trkpt lat="44.1671252" lon="10.36134"><ele>737.5714285714286</ele><time>2026-04-22T10:51:31Z</time></trkpt><trkpt lat="44.1671677" lon="10.3614322"><ele>733.8571428571429</ele><time>2026-04-22T10:51:33Z</time></trkpt><trkpt lat="44.1671923" lon="10.3615193"><ele>730.1428571428571</ele><time>2026-04-22T10:51:37Z</time></trkpt><trkpt lat="44.1672037" lon="10.3616134"><ele>726.4285714285714</ele><time>2026-04-22T10:51:40Z</time></trkpt><trkpt lat="44.167228" lon="10.3616985"><ele>722.7142857142857</ele><time>2026-04-22T10:51:42Z</time></trkpt><trkpt lat="44.1672661" lon="10.3617753"><ele>719.0</ele><time>2026-04-22T10:51:44Z</time></trkpt><trkpt lat="44.1673426" lon="10.3618677"><ele>719.0</ele><time>2026-04-22T10:51:47Z</time></trkpt><trkpt lat="44.1673292" lon="10.3619661"><ele>719.0</ele><time>2026-04-22T10:51:50Z</time></trkpt><trkpt lat="44.1673139" lon="10.3620516"><ele>719.0</ele><time>2026-04-22T10:51:53Z</time></trkpt><trkpt lat="44.167256" lon="10.3621573"><ele>719.0</ele><time>2026-04-22T10:51:55Z</time></trkpt><trkpt lat="44.1672345" lon="10.3622447"><ele>719.0</ele><time>2026-04-22T10:51:57Z</time></trkpt><trkpt lat="44.1672139" lon="10.3623513"><ele>719.0</ele><time>2026-04-22T10:52:02Z</time></trkpt><trkpt lat="44.1671463" lon="10.3624495"><ele>718.8333333333333</ele><time>2026-04-22T10:52:05Z</time></trkpt><trkpt lat="44.1671013" lon="10.3625197"><ele>718.6666666666666</ele><time>2026-04-22T10:52:07Z</time></trkpt><trkpt lat="44.1670262" lon="10.362558"><ele>718.5</ele><time>2026-04-22T10:52:10Z</time></trkpt><trkpt lat="44.1669928" lon="10.3626589"><ele>718.3333333333334</ele><time>2026-04-22T10:52:14Z</time></trkpt><trkpt lat="44.1669309" lon="10.3627462"><ele>718.1666666666667</ele><time>2026-04-22T10:52:17Z</time></trkpt><trkpt lat="44.1668557" lon="10.3628046"><ele>718.0</ele><time>2026-04-22T10:52:19Z</time></trkpt><trkpt lat="44.166796" lon="10.36287"><ele>718.0</ele><time>2026-04-22T10:52:21Z</time></trkpt><trkpt lat="44.166724" lon="10.3628956"><ele>718.0</ele><time>2026-04-22T10:52:25Z</time></trkpt><trkpt lat="44.1666525" lon="10.3629457"><ele>718.0</ele><time>2026-04-22T10:52:28Z</time></trkpt><trkpt lat="44.1666018" lon="10.3630315"><ele>718.0</ele><time>2026-04-22T10:52:31Z</time></trkpt><trkpt lat="44.1665449" lon="10.3630877"><ele>718.0</ele><time>2026-04-22T10:52:33Z</time></trkpt><trkpt lat="44.1664896" lon="10.3631326"><ele>718.0</ele><time>2026-04-22T10:52:36Z</time></trkpt><trkpt lat="44.1664324" lon="10.3632105"><ele>718.0</ele><time>2026-04-22T10:52:39Z</time></trkpt><trkpt lat="44.1663797" lon="10.3632953"><ele>715.1666666666667</ele><time>2026-04-22T10:52:42Z</time></trkpt><trkpt lat="44.1663166" lon="10.3633625"><ele>712.3333333333334</ele><time>2026-04-22T10:52:46Z</time></trkpt><trkpt lat="44.166255" lon="10.3633829"><ele>709.5</ele><time>2026-04-22T10:52:48Z</time></trkpt><trkpt lat="44.1661886" lon="10.3633816"><ele>706.6666666666666</ele><time>2026-04-22T10:52:51Z</time></trkpt><trkpt lat="44.1661237" lon="10.3634774"><ele>703.8333333333333</ele><time>2026-04-22T10:52:54Z</time></trkpt><trkpt lat="44.1661442" lon="10.3635782"><ele>701.0</ele><time>2026-04-22T10:52:56Z</time></trkpt><trkpt lat="44.1661724" lon="10.3637007"><ele>701.0</ele><time>2026-04-22T10:52:58Z</time></trkpt><trkpt lat="44.166159" lon="10.3638088"><ele>701.0</ele><time>2026-04-22T10:52:59Z</time></trkpt><trkpt lat="44.1661511" lon="10.3638968"><ele>701.0</ele><time>2026-04-22T10:53:00Z</time></trkpt><trkpt lat="44.1661489" lon="10.3640333"><ele>701.0</ele><time>2026-04-22T10:53:02Z</time></trkpt><trkpt lat="44.1661317" lon="10.3641501"><ele>701.0</ele><time>2026-04-22T10:53:05Z</time></trkpt><trkpt lat="44.1661127" lon="10.3642766"><ele>701.0</ele><time>2026-04-22T10:53:08Z</time></trkpt><trkpt lat="44.1661152" lon="10.3643698"><ele>700.6666666666666</ele><time>2026-04-22T10:53:11Z</time></trkpt><trkpt lat="44.1661239" lon="10.364466"><ele>700.3333333333333</ele><time>2026-04-22T10:53:13Z</time></trkpt><trkpt lat="44.1661503" lon="10.364557"><ele>700.0</ele><time>2026-04-22T10:53:15Z</time></trkpt><trkpt lat="44.1661844" lon="10.3646631"><ele>699.6666666666666</ele><time>2026-04-22T10:53:18Z</time></trkpt><trkpt lat="44.1661619" lon="10.3647863"><ele>699.3333333333334</ele><time>2026-04-22T10:53:21Z</time></trkpt><trkpt lat="44.1661439" lon="10.3648846"><ele>699.0</ele><time>2026-04-22T10:53:23Z</time></trkpt><trkpt lat="44.1661391" lon="10.364978"><ele>698.5</ele><time>2026-04-22T10:53:25Z</time></trkpt><trkpt lat="44.1661563" lon="10.3650715"><ele>698.0</ele><time>2026-04-22T10:53:27Z</time></trkpt><trkpt lat="44.1661743" lon="10.3651995"><ele>697.5</ele><time>2026-04-22T10:53:30Z</time></trkpt><trkpt lat="44.1661405" lon="10.3652799"><ele>697.0</ele><time>2026-04-22T10:53:32Z</time></trkpt><trkpt lat="44.1661196" lon="10.3653761"><ele>696.5</ele><time>2026-04-22T10:53:35Z</time></trkpt><trkpt lat="44.1660738" lon="10.365475"><ele>696.0</ele><time>2026-04-22T10:53:36Z</time></trkpt><trkpt lat="44.166041" lon="10.365637"><ele>695.7142857142857</ele><time>2026-04-22T10:53:38Z</time></trkpt><trkpt lat="44.1660166" lon="10.3657288"><ele>695.4285714285714</ele><time>2026-04-22T10:53:39Z</time></trkpt><trkpt lat="44.1659886" lon="10.3658151"><ele>695.1428571428571</ele><time>2026-04-22T10:53:40Z</time></trkpt><trkpt lat="44.1659689" lon="10.365939"><ele>694.8571428571429</ele><time>2026-04-22T10:53:42Z</time></trkpt><trkpt lat="44.1659689" lon="10.3660462"><ele>694.5714285714286</ele><time>2026-04-22T10:53:45Z</time></trkpt><trkpt lat="44.1659333" lon="10.3661243"><ele>694.2857142857143</ele><time>2026-04-22T10:53:48Z</time></trkpt><trkpt lat="44.1658622" lon="10.3661565"><ele>694.0</ele><time>2026-04-22T10:53:51Z</time></trkpt><trkpt lat="44.1658064" lon="10.3661062"><ele>694.0</ele><time>2026-04-22T10:53:55Z</time></trkpt><trkpt lat="44.1658183" lon="10.3659636"><ele>694.0</ele><time>2026-04-22T10:53:58Z</time></trkpt><trkpt lat="44.1658248" lon="10.3658517"><ele>694.0</ele><time>2026-04-22T10:54:00Z</time></trkpt><trkpt lat="44.1658179" lon="10.365687"><ele>694.0</ele><time>2026-04-22T10:54:02Z</time></trkpt><trkpt lat="44.1657979" lon="10.365542"><ele>694.0</ele><time>2026-04-22T10:54:04Z</time></trkpt><trkpt lat="44.1657712" lon="10.3654318"><ele>694.2857142857143</ele><time>2026-04-22T10:54:06Z</time></trkpt><trkpt lat="44.165728" lon="10.3653624"><ele>694.5714285714286</ele><time>2026-04-22T10:54:07Z</time></trkpt><trkpt lat="44.1656875" lon="10.3652898"><ele>694.8571428571429</ele><time>2026-04-22T10:54:08Z</time></trkpt><trkpt lat="44.1656016" lon="10.3651931"><ele>695.1428571428571</ele><time>2026-04-22T10:54:10Z</time></trkpt><trkpt lat="44.165557" lon="10.3651293"><ele>695.4285714285714</ele><time>2026-04-22T10:54:11Z</time></trkpt><trkpt lat="44.1655055" lon="10.3650715"><ele>695.7142857142857</ele><time>2026-04-22T10:54:12Z</time></trkpt><trkpt lat="44.1654434" lon="10.36503"><ele>696.0</ele><time>2026-04-22T10:54:13Z</time></trkpt><trkpt lat="44.1653747" lon="10.3650117"><ele>691.25</ele><time>2026-04-22T10:54:14Z</time></trkpt><trkpt lat="44.1652429" lon="10.3650134"><ele>686.5</ele><time>2026-04-22T10:54:16Z</time></trkpt><trkpt lat="44.1651195" lon="10.3650176"><ele>681.75</ele><time>2026-04-22T10:54:18Z</time></trkpt><trkpt lat="44.1650097" lon="10.3650348"><ele>677.0</ele><time>2026-04-22T10:54:20Z</time></trkpt><trkpt lat="44.1649331" lon="10.3649614"><ele>677.0</ele><time>2026-04-22T10:54:22Z</time></trkpt><trkpt lat="44.1649056" lon="10.364868"><ele>677.0</ele><time>2026-04-22T10:54:24Z</time></trkpt><trkpt lat="44.1649235" lon="10.364762"><ele>677.0</ele><time>2026-04-22T10:54:26Z</time></trkpt><trkpt lat="44.1649645" lon="10.3646053"><ele>677.0</ele><time>2026-04-22T10:54:28Z</time></trkpt><trkpt lat="44.1650104" lon="10.3644402"><ele>677.0</ele><time>2026-04-22T10:54:30Z</time></trkpt><trkpt lat="44.1650387" lon="10.3643499"><ele>677.0</ele><time>2026-04-22T10:54:31Z</time></trkpt><trkpt lat="44.1650461" lon="10.3642559"><ele>677.0</ele><time>2026-04-22T10:54:32Z</time></trkpt><trkpt lat="44.1650476" lon="10.3641585"><ele>677.0</ele><time>2026-04-22T10:54:33Z</time></trkpt><trkpt lat="44.1650413" lon="10.3640453"><ele>677.0</ele><time>2026-04-22T10:54:34Z</time></trkpt><trkpt lat="44.1650348" lon="10.3639364"><ele>677.0</ele><time>2026-04-22T10:54:35Z</time></trkpt><trkpt lat="44.1650171" lon="10.363832"><ele>677.0</ele><time>2026-04-22T10:54:36Z</time></trkpt><trkpt lat="44.1649943" lon="10.3637064"><ele>676.5</ele><time>2026-04-22T10:54:37Z</time></trkpt><trkpt lat="44.1649796" lon="10.3636066"><ele>676.0</ele><time>2026-04-22T10:54:38Z</time></trkpt><trkpt lat="44.1649851" lon="10.3634321"><ele>675.5</ele><time>2026-04-22T10:54:40Z</time></trkpt><trkpt lat="44.164996" lon="10.3633311"><ele>675.0</ele><time>2026-04-22T10:54:41Z</time></trkpt><trkpt lat="44.1650257" lon="10.3632256"><ele>674.5</ele><time>2026-04-22T10:54:42Z</time></trkpt><trkpt lat="44.1650577" lon="10.3631344"><ele>674.0</ele><time>2026-04-22T10:54:43Z</time></trkpt><trkpt lat="44.1650917" lon="10.3630381"><ele>673.2</ele><time>2026-04-22T10:54:44Z</time></trkpt><trkpt lat="44.1651248" lon="10.3629444"><ele>672.4000000000001</ele><time>2026-04-22T10:54:45Z</time></trkpt><trkpt lat="44.1651705" lon="10.3628492"><ele>671.6</ele><time>2026-04-22T10:54:46Z</time></trkpt><trkpt lat="44.1652086" lon="10.362759"><ele>670.8</ele><time>2026-04-22T10:54:47Z</time></trkpt><trkpt lat="44.1652496" lon="10.3625958"><ele>670.0</ele><time>2026-04-22T10:54:49Z</time></trkpt><trkpt lat="44.1652051" lon="10.3624521"><ele>670.0</ele><time>2026-04-22T10:54:51Z</time></trkpt><trkpt lat="44.1651096" lon="10.362405"><ele>670.0</ele><time>2026-04-22T10:54:53Z</time></trkpt><trkpt lat="44.1650341" lon="10.3623873"><ele>670.0</ele><time>2026-04-22T10:54:55Z</time></trkpt><trkpt lat="44.1649814" lon="10.3623241"><ele>670.0</ele><time>2026-04-22T10:54:56Z</time></trkpt><trkpt lat="44.1649309" lon="10.3622596"><ele>670.0</ele><time>2026-04-22T10:54:57Z</time></trkpt><trkpt lat="44.1648909" lon="10.3621054"><ele>670.0</ele><time>2026-04-22T10:54:59Z</time></trkpt><trkpt lat="44.1648732" lon="10.3619996"><ele>669.3333333333334</ele><time>2026-04-22T10:55:00Z</time></trkpt><trkpt lat="44.1648655" lon="10.3619083"><ele>668.6666666666667</ele><time>2026-04-22T10:55:01Z</time></trkpt><trkpt lat="44.164854" lon="10.3618"><ele>668.0</ele><time>2026-04-22T10:55:02Z</time></trkpt><trkpt lat="44.1648781" lon="10.3617011"><ele>667.3333333333334</ele><time>2026-04-22T10:55:03Z</time></trkpt><trkpt lat="44.164893" lon="10.3616069"><ele>666.6666666666666</ele><time>2026-04-22T10:55:04Z</time></trkpt><trkpt lat="44.1649141" lon="10.3614969"><ele>666.0</ele><time>2026-04-22T10:55:05Z</time></trkpt><trkpt lat="44.1649219" lon="10.3613682"><ele>662.8333333333334</ele><time>2026-04-22T10:55:06Z</time></trkpt><trkpt lat="44.1649329" lon="10.3612761"><ele>659.6666666666666</ele><time>2026-04-22T10:55:07Z</time></trkpt><trkpt lat="44.164966" lon="10.3611839"><ele>656.5</ele><time>2026-04-22T10:55:08Z</time></trkpt><trkpt lat="44.1650175" lon="10.3611294"><ele>653.3333333333333</ele><time>2026-04-22T10:55:09Z</time></trkpt><trkpt lat="44.1650584" lon="10.3610621"><ele>650.1666666666666</ele><time>2026-04-22T10:55:10Z</time></trkpt><trkpt lat="44.1651049" lon="10.3609073"><ele>647.0</ele><time>2026-04-22T10:55:12Z</time></trkpt><trkpt lat="44.1651001" lon="10.3608048"><ele>647.0</ele><time>2026-04-22T10:55:13Z</time></trkpt><trkpt lat="44.1651075" lon="10.3607145"><ele>647.0</ele><time>2026-04-22T10:55:14Z</time></trkpt><trkpt lat="44.1651721" lon="10.3605865"><ele>647.0</ele><time>2026-04-22T10:55:16Z</time></trkpt><trkpt lat="44.1652285" lon="10.3605472"><ele>647.0</ele><time>2026-04-22T10:55:17Z</time></trkpt><trkpt lat="44.1652859" lon="10.3604856"><ele>647.0</ele><time>2026-04-22T10:55:18Z</time></trkpt><trkpt lat="44.1653786" lon="10.3603454"><ele>644.1666666666666</ele><time>2026-04-22T10:55:20Z</time></trkpt><trkpt lat="44.1654134" lon="10.3602308"><ele>641.3333333333333</ele><time>2026-04-22T10:55:21Z</time></trkpt><trkpt lat="44.1654262" lon="10.3601164"><ele>638.5</ele><time>2026-04-22T10:55:22Z</time></trkpt><trkpt lat="44.1654359" lon="10.3599952"><ele>635.6666666666666</ele><time>2026-04-22T10:55:23Z</time></trkpt><trkpt lat="44.1654374" lon="10.3598619"><ele>632.8333333333334</ele><time>2026-04-22T10:55:24Z</time></trkpt><trkpt lat="44.1654426" lon="10.3597593"><ele>630.0</ele><time>2026-04-22T10:55:25Z</time></trkpt><trkpt lat="44.1654441" lon="10.3596652"><ele>630.0</ele><time>2026-04-22T10:55:26Z</time></trkpt><trkpt lat="44.1654355" lon="10.3595267"><ele>630.0</ele><time>2026-04-22T10:55:28Z</time></trkpt><trkpt lat="44.1653898" lon="10.3594656"><ele>630.0</ele><time>2026-04-22T10:55:30Z</time></trkpt><trkpt lat="44.1653321" lon="10.3595319"><ele>630.0</ele><time>2026-04-22T10:55:32Z</time></trkpt><trkpt lat="44.1653035" lon="10.3596324"><ele>630.0</ele><time>2026-04-22T10:55:34Z</time></trkpt><trkpt lat="44.1653005" lon="10.3597242"><ele>630.0</ele><time>2026-04-22T10:55:35Z</time></trkpt><trkpt lat="44.1652333" lon="10.3599435"><ele>630.0</ele><time>2026-04-22T10:55:38Z</time></trkpt><trkpt lat="44.1651696" lon="10.3600939"><ele>630.0</ele><time>2026-04-22T10:55:40Z</time></trkpt><trkpt lat="44.1650884" lon="10.360226"><ele>630.0</ele><time>2026-04-22T10:55:42Z</time></trkpt><trkpt lat="44.1650132" lon="10.3603487"><ele>630.0</ele><time>2026-04-22T10:55:44Z</time></trkpt><trkpt lat="44.1649475" lon="10.3604596"><ele>632.8333333333334</ele><time>2026-04-22T10:55:46Z</time></trkpt><trkpt lat="44.1648875" lon="10.3605471"><ele>635.6666666666666</ele><time>2026-04-22T10:55:48Z</time></trkpt><trkpt lat="44.1648403" lon="10.3606112"><ele>638.5</ele><time>2026-04-22T10:55:59Z</time></trkpt><trkpt lat="44.1647964" lon="10.3607052"><ele>641.3333333333333</ele><time>2026-04-22T10:56:03Z</time></trkpt><trkpt lat="44.164764" lon="10.3607893"><ele>644.1666666666666</ele><time>2026-04-22T10:56:05Z</time></trkpt><trkpt lat="44.1647076" lon="10.3609044"><ele>647.0</ele><time>2026-04-22T10:56:07Z</time></trkpt><trkpt lat="44.1646364" lon="10.3609921"><ele>640.2</ele><time>2026-04-22T10:56:09Z</time></trkpt><trkpt lat="44.1645426" lon="10.3610668"><ele>633.4000000000001</ele><time>2026-04-22T10:56:11Z</time></trkpt><trkpt lat="44.164435" lon="10.3611486"><ele>626.5999999999999</ele><time>2026-04-22T10:56:13Z</time></trkpt><trkpt lat="44.1643215" lon="10.3612226"><ele>619.8</ele><time>2026-04-22T10:56:15Z</time></trkpt><trkpt lat="44.1642508" lon="10.3612595"><ele>613.0</ele><time>2026-04-22T10:56:16Z</time></trkpt><trkpt lat="44.1641907" lon="10.3613033"><ele>611.1999999999999</ele><time>2026-04-22T10:56:17Z</time></trkpt><trkpt lat="44.1640823" lon="10.361369"><ele>609.4</ele><time>2026-04-22T10:56:19Z</time></trkpt><trkpt lat="44.1639943" lon="10.3614782"><ele>607.5999999999999</ele><time>2026-04-22T10:56:21Z</time></trkpt><trkpt lat="44.1639374" lon="10.3616339"><ele>605.8</ele><time>2026-04-22T10:56:23Z</time></trkpt><trkpt lat="44.1639254" lon="10.3617308"><ele>604.0</ele><time>2026-04-22T10:56:24Z</time></trkpt><trkpt lat="44.1639228" lon="10.3618423"><ele>604.0</ele><time>2026-04-22T10:56:25Z</time></trkpt><trkpt lat="44.163917" lon="10.3619542"><ele>604.0</ele><time>2026-04-22T10:56:26Z</time></trkpt><trkpt lat="44.1639039" lon="10.3620585"><ele>604.0</ele><time>2026-04-22T10:56:27Z</time></trkpt><trkpt lat="44.1638881" lon="10.3621616"><ele>604.0</ele><time>2026-04-22T10:56:28Z</time></trkpt><trkpt lat="44.1638742" lon="10.3622498"><ele>604.0</ele><time>2026-04-22T10:56:29Z</time></trkpt><trkpt lat="44.1638221" lon="10.3623752"><ele>604.0</ele><time>2026-04-22T10:56:31Z</time></trkpt><trkpt lat="44.1637478" lon="10.362397"><ele>604.0</ele><time>2026-04-22T10:56:33Z</time></trkpt><trkpt lat="44.1636974" lon="10.3623038"><ele>604.0</ele><time>2026-04-22T10:56:35Z</time></trkpt><trkpt lat="44.1636645" lon="10.3621719"><ele>604.0</ele><time>2026-04-22T10:56:37Z</time></trkpt><trkpt lat="44.163625" lon="10.3620972"><ele>604.0</ele><time>2026-04-22T10:56:38Z</time></trkpt><trkpt lat="44.1635381" lon="10.3619882"><ele>604.0</ele><time>2026-04-22T10:56:40Z</time></trkpt><trkpt lat="44.1634955" lon="10.3618752"><ele>604.0</ele><time>2026-04-22T10:56:42Z</time></trkpt><trkpt lat="44.163493" lon="10.3617433"><ele>604.0</ele><time>2026-04-22T10:56:44Z</time></trkpt><trkpt lat="44.1634954" lon="10.3616203"><ele>604.0</ele><time>2026-04-22T10:56:46Z</time></trkpt><trkpt lat="44.1634317" lon="10.3615409"><ele>604.0</ele><time>2026-04-22T10:56:48Z</time></trkpt><trkpt lat="44.1633606" lon="10.361618"><ele>604.0</ele><time>2026-04-22T10:56:50Z</time></trkpt><trkpt lat="44.1633442" lon="10.3617541"><ele>604.0</ele><time>2026-04-22T10:56:52Z</time></trkpt><trkpt lat="44.1633236" lon="10.3618675"><ele>604.0</ele><time>2026-04-22T10:56:54Z</time></trkpt><trkpt lat="44.1632375" lon="10.3618617"><ele>604.0</ele><time>2026-04-22T10:56:57Z</time></trkpt><trkpt lat="44.1632083" lon="10.3617482"><ele>604.0</ele><time>2026-04-22T10:56:59Z</time></trkpt><trkpt lat="44.163203" lon="10.3616026"><ele>604.0</ele><time>2026-04-22T10:57:01Z</time></trkpt><trkpt lat="44.1631628" lon="10.3615222"><ele>604.0</ele><time>2026-04-22T10:57:02Z</time></trkpt><trkpt lat="44.1631068" lon="10.3613905"><ele>600.0</ele><time>2026-04-22T10:57:04Z</time></trkpt><trkpt lat="44.1630921" lon="10.3613043"><ele>596.0</ele><time>2026-04-22T10:57:05Z</time></trkpt><trkpt lat="44.1631174" lon="10.3611641"><ele>592.0</ele><time>2026-04-22T10:57:07Z</time></trkpt><trkpt lat="44.1631834" lon="10.3610208"><ele>588.0</ele><time>2026-04-22T10:57:09Z</time></trkpt><trkpt lat="44.1632351" lon="10.3609587"><ele>584.0</ele><time>2026-04-22T10:57:10Z</time></trkpt><trkpt lat="44.1633474" lon="10.3608742"><ele>584.0</ele><time>2026-04-22T10:57:12Z</time></trkpt><trkpt lat="44.1634135" lon="10.3608424"><ele>584.0</ele><time>2026-04-22T10:57:13Z</time></trkpt><trkpt lat="44.1634792" lon="10.3607961"><ele>584.0</ele><time>2026-04-22T10:57:14Z</time></trkpt><trkpt lat="44.1635444" lon="10.3607543"><ele>584.0</ele><time>2026-04-22T10:57:15Z</time></trkpt><trkpt lat="44.1636092" lon="10.3606776"><ele>584.0</ele><time>2026-04-22T10:57:16Z</time></trkpt><trkpt lat="44.1636675" lon="10.360585"><ele>584.0</ele><time>2026-04-22T10:57:17Z</time></trkpt><trkpt lat="44.1637323" lon="10.3604851"><ele>580.5</ele><time>2026-04-22T10:57:18Z</time></trkpt><trkpt lat="44.1637981" lon="10.3603773"><ele>577.0</ele><time>2026-04-22T10:57:19Z</time></trkpt><trkpt lat="44.1638535" lon="10.3602778"><ele>573.5</ele><time>2026-04-22T10:57:20Z</time></trkpt><trkpt lat="44.1638965" lon="10.3601893"><ele>570.0</ele><time>2026-04-22T10:57:21Z</time></trkpt><trkpt lat="44.1639214" lon="10.3600925"><ele>566.5</ele><time>2026-04-22T10:57:22Z</time></trkpt><trkpt lat="44.163929" lon="10.3599928"><ele>563.0</ele><time>2026-04-22T10:57:23Z</time></trkpt><trkpt lat="44.1639333" lon="10.3599043"><ele>563.0</ele><time>2026-04-22T10:57:24Z</time></trkpt><trkpt lat="44.1639088" lon="10.3598104"><ele>563.0</ele><time>2026-04-22T10:57:25Z</time></trkpt><trkpt lat="44.1638969" lon="10.3597231"><ele>563.0</ele><time>2026-04-22T10:57:26Z</time></trkpt><trkpt lat="44.1639037" lon="10.3596245"><ele>563.0</ele><time>2026-04-22T10:57:27Z</time></trkpt><trkpt lat="44.1639207" lon="10.3595165"><ele>563.0</ele><time>2026-04-22T10:57:28Z</time></trkpt><trkpt lat="44.1639458" lon="10.3593987"><ele>563.0</ele><time>2026-04-22T10:57:29Z</time></trkpt><trkpt lat="44.1639614" lon="10.3592832"><ele>564.0</ele><time>2026-04-22T10:57:30Z</time></trkpt><trkpt lat="44.1639763" lon="10.3591536"><ele>565.0</ele><time>2026-04-22T10:57:31Z</time></trkpt><trkpt lat="44.164005" lon="10.35902"><ele>566.0</ele><time>2026-04-22T10:57:32Z</time></trkpt><trkpt lat="44.164027" lon="10.3588837"><ele>567.0</ele><time>2026-04-22T10:57:33Z</time></trkpt><trkpt lat="44.1640619" lon="10.3587644"><ele>568.0</ele><time>2026-04-22T10:57:34Z</time></trkpt><trkpt lat="44.1640869" lon="10.3586458"><ele>568.0</ele><time>2026-04-22T10:57:35Z</time></trkpt><trkpt lat="44.1641149" lon="10.3585354"><ele>568.0</ele><time>2026-04-22T10:57:36Z</time></trkpt><trkpt lat="44.1641404" lon="10.3584336"><ele>568.0</ele><time>2026-04-22T10:57:37Z</time></trkpt><trkpt lat="44.1641425" lon="10.3583235"><ele>568.0</ele><time>2026-04-22T10:57:38Z</time></trkpt><trkpt lat="44.1641523" lon="10.3582131"><ele>568.0</ele><time>2026-04-22T10:57:39Z</time></trkpt><trkpt lat="44.1641586" lon="10.3580832"><ele>568.0</ele><time>2026-04-22T10:57:40Z</time></trkpt><trkpt lat="44.1641699" lon="10.3579516"><ele>566.8333333333334</ele><time>2026-04-22T10:57:40.999Z</time></trkpt><trkpt lat="44.1641881" lon="10.3578285"><ele>565.6666666666667</ele><time>2026-04-22T10:57:42Z</time></trkpt><trkpt lat="44.1642019" lon="10.3577013"><ele>564.5</ele><time>2026-04-22T10:57:43Z</time></trkpt><trkpt lat="44.1642161" lon="10.3576004"><ele>563.3333333333334</ele><time>2026-04-22T10:57:44Z</time></trkpt><trkpt lat="44.164219" lon="10.3575031"><ele>562.1666666666666</ele><time>2026-04-22T10:57:45Z</time></trkpt><trkpt lat="44.164209" lon="10.3574068"><ele>561.0</ele><time>2026-04-22T10:57:46Z</time></trkpt><trkpt lat="44.1641496" lon="10.3572681"><ele>558.6666666666666</ele><time>2026-04-22T10:57:48Z</time></trkpt><trkpt lat="44.1640977" lon="10.3571968"><ele>556.3333333333334</ele><time>2026-04-22T10:57:49Z</time></trkpt><trkpt lat="44.1640441" lon="10.35714"><ele>554.0</ele><time>2026-04-22T10:57:50Z</time></trkpt><trkpt lat="44.1639789" lon="10.3570189"><ele>551.6666666666667</ele><time>2026-04-22T10:57:52Z</time></trkpt><trkpt lat="44.1639941" lon="10.3568991"><ele>549.3333333333334</ele><time>2026-04-22T10:57:54Z</time></trkpt><trkpt lat="44.1640724" lon="10.3568106"><ele>547.0</ele><time>2026-04-22T10:57:56Z</time></trkpt><trkpt lat="44.1641836" lon="10.3567239"><ele>547.0</ele><time>2026-04-22T10:57:58Z</time></trkpt><trkpt lat="44.1642375" lon="10.3566687"><ele>547.0</ele><time>2026-04-22T10:57:59Z</time></trkpt><trkpt lat="44.1643007" lon="10.3566087"><ele>547.0</ele><time>2026-04-22T10:58:00Z</time></trkpt><trkpt lat="44.164369" lon="10.3565533"><ele>547.0</ele><time>2026-04-22T10:58:01Z</time></trkpt><trkpt lat="44.1644378" lon="10.3564908"><ele>547.0</ele><time>2026-04-22T10:58:02Z</time></trkpt><trkpt lat="44.164513" lon="10.3564258"><ele>547.0</ele><time>2026-04-22T10:58:03Z</time></trkpt><trkpt lat="44.1645846" lon="10.3563579"><ele>544.0</ele><time>2026-04-22T10:58:04Z</time></trkpt><trkpt lat="44.164659" lon="10.3562987"><ele>541.0</ele><time>2026-04-22T10:58:05Z</time></trkpt><trkpt lat="44.16472" lon="10.3562415"><ele>538.0</ele><time>2026-04-22T10:58:06Z</time></trkpt><trkpt lat="44.1647721" lon="10.3561817"><ele>535.0</ele><time>2026-04-22T10:58:07Z</time></trkpt><trkpt lat="44.1647814" lon="10.3560485"><ele>532.0</ele><time>2026-04-22T10:58:09Z</time></trkpt><trkpt lat="44.1647129" lon="10.3560057"><ele>529.0</ele><time>2026-04-22T10:58:11Z</time></trkpt><trkpt lat="44.1646104" lon="10.3560702"><ele>529.0</ele><time>2026-04-22T10:58:13Z</time></trkpt><trkpt lat="44.1645454" lon="10.3561231"><ele>529.0</ele><time>2026-04-22T10:58:14Z</time></trkpt><trkpt lat="44.1644786" lon="10.3561636"><ele>529.0</ele><time>2026-04-22T10:58:15Z</time></trkpt><trkpt lat="44.1644033" lon="10.3562076"><ele>529.0</ele><time>2026-04-22T10:58:16Z</time></trkpt><trkpt lat="44.1643217" lon="10.3562465"><ele>529.0</ele><time>2026-04-22T10:58:16.999Z</time></trkpt><trkpt lat="44.1642265" lon="10.356275"><ele>529.0</ele><time>2026-04-22T10:58:18Z</time></trkpt><trkpt lat="44.1641405" lon="10.3562902"><ele>529.0</ele><time>2026-04-22T10:58:19Z</time></trkpt><trkpt lat="44.1640623" lon="10.3562831"><ele>529.0</ele><time>2026-04-22T10:58:20Z</time></trkpt><trkpt lat="44.1640003" lon="10.3562562"><ele>529.0</ele><time>2026-04-22T10:58:21Z</time></trkpt><trkpt lat="44.1639475" lon="10.3562066"><ele>529.0</ele><time>2026-04-22T10:58:22Z</time></trkpt><trkpt lat="44.1639083" lon="10.3561362"><ele>529.0</ele><time>2026-04-22T10:58:23Z</time></trkpt><trkpt lat="44.1638796" lon="10.3560333"><ele>529.0</ele><time>2026-04-22T10:58:24Z</time></trkpt><trkpt lat="44.1638592" lon="10.3559293"><ele>529.0</ele><time>2026-04-22T10:58:25Z</time></trkpt><trkpt lat="44.1638563" lon="10.355825"><ele>529.0</ele><time>2026-04-22T10:58:26Z</time></trkpt><trkpt lat="44.1638781" lon="10.3557409"><ele>529.0</ele><time>2026-04-22T10:58:27Z</time></trkpt><trkpt lat="44.1639257" lon="10.3556726"><ele>529.0</ele><time>2026-04-22T10:58:28Z</time></trkpt><trkpt lat="44.1639892" lon="10.3556113"><ele>529.0</ele><time>2026-04-22T10:58:29Z</time></trkpt><trkpt lat="44.1640588" lon="10.3555591"><ele>529.0</ele><time>2026-04-22T10:58:30Z</time></trkpt><trkpt lat="44.164121" lon="10.3554841"><ele>529.0</ele><time>2026-04-22T10:58:31Z</time></trkpt><trkpt lat="44.1641825" lon="10.3553799"><ele>526.3333333333334</ele><time>2026-04-22T10:58:32Z</time></trkpt><trkpt lat="44.1642217" lon="10.3552735"><ele>523.6666666666667</ele><time>2026-04-22T10:58:33Z</time></trkpt><trkpt lat="44.1642472" lon="10.3551622"><ele>521.0</ele><time>2026-04-22T10:58:34Z</time></trkpt><trkpt lat="44.1642695" lon="10.3550484"><ele>518.3333333333334</ele><time>2026-04-22T10:58:35Z</time></trkpt><trkpt lat="44.1643001" lon="10.3549306"><ele>515.6666666666666</ele><time>2026-04-22T10:58:36Z</time></trkpt><trkpt lat="44.1643387" lon="10.3548123"><ele>513.0</ele><time>2026-04-22T10:58:37Z</time></trkpt><trkpt lat="44.1643759" lon="10.3547078"><ele>510.3333333333333</ele><time>2026-04-22T10:58:38Z</time></trkpt><trkpt lat="44.164419" lon="10.3546339"><ele>507.66666666666663</ele><time>2026-04-22T10:58:39Z</time></trkpt><trkpt lat="44.1644798" lon="10.354589"><ele>505.0</ele><time>2026-04-22T10:58:40Z</time></trkpt><trkpt lat="44.1645534" lon="10.3545698"><ele>502.3333333333333</ele><time>2026-04-22T10:58:41Z</time></trkpt><trkpt lat="44.1646324" lon="10.3545606"><ele>499.66666666666663</ele><time>2026-04-22T10:58:42Z</time></trkpt><trkpt lat="44.1647105" lon="10.3545376"><ele>497.0</ele><time>2026-04-22T10:58:43Z</time></trkpt><trkpt lat="44.1647785" lon="10.3544672"><ele>497.0</ele><time>2026-04-22T10:58:44Z</time></trkpt><trkpt lat="44.1648271" lon="10.3543845"><ele>497.00000000000006</ele><time>2026-04-22T10:58:45Z</time></trkpt><trkpt lat="44.1648609" lon="10.3543018"><ele>497.00000000000006</ele><time>2026-04-22T10:58:46Z</time></trkpt><trkpt lat="44.1648821" lon="10.3542172"><ele>497.0</ele><time>2026-04-22T10:58:47Z</time></trkpt><trkpt lat="44.1648489" lon="10.3540661"><ele>497.0</ele><time>2026-04-22T10:58:49Z</time></trkpt><trkpt lat="44.1647399" lon="10.3539651"><ele>496.99999999999994</ele><time>2026-04-22T10:58:51Z</time></trkpt><trkpt lat="44.1646783" lon="10.3539296"><ele>497.0</ele><time>2026-04-22T10:58:52Z</time></trkpt><trkpt lat="44.1645868" lon="10.3538548"><ele>497.0</ele><time>2026-04-22T10:58:54Z</time></trkpt><trkpt lat="44.1645301" lon="10.3537976"><ele>497.0</ele><time>2026-04-22T10:58:57Z</time></trkpt><trkpt lat="44.1644639" lon="10.3538239"><ele>496.99999999999994</ele><time>2026-04-22T10:59:00Z</time></trkpt><trkpt lat="44.164401" lon="10.353887"><ele>497.0</ele><time>2026-04-22T10:59:03Z</time></trkpt><trkpt lat="44.1643329" lon="10.353965"><ele>497.0</ele><time>2026-04-22T10:59:06Z</time></trkpt><trkpt lat="44.1642875" lon="10.3540313"><ele>497.0</ele><time>2026-04-22T10:59:08Z</time></trkpt><trkpt lat="44.1642425" lon="10.3540976"><ele>497.0</ele><time>2026-04-22T10:59:10Z</time></trkpt><trkpt lat="44.1641854" lon="10.3541488"><ele>497.0</ele><time>2026-04-22T10:59:12Z</time></trkpt><trkpt lat="44.1641206" lon="10.3542023"><ele>497.0</ele><time>2026-04-22T10:59:14Z</time></trkpt><trkpt lat="44.1640512" lon="10.3542414"><ele>497.0</ele><time>2026-04-22T10:59:16Z</time></trkpt><trkpt lat="44.1639794" lon="10.3542701"><ele>497.0</ele><time>2026-04-22T10:59:18Z</time></trkpt><trkpt lat="44.1639091" lon="10.3542833"><ele>496.8571428571429</ele><time>2026-04-22T10:59:20Z</time></trkpt><trkpt lat="44.1638437" lon="10.3542847"><ele>496.7142857142857</ele><time>2026-04-22T10:59:22Z</time></trkpt><trkpt lat="44.1637798" lon="10.3543037"><ele>496.57142857142856</ele><time>2026-04-22T10:59:24Z</time></trkpt><trkpt lat="44.1637184" lon="10.3543283"><ele>496.42857142857144</ele><time>2026-04-22T10:59:26Z</time></trkpt><trkpt lat="44.1636358" lon="10.3543412"><ele>496.28571428571433</ele><time>2026-04-22T10:59:29Z</time></trkpt><trkpt lat="44.1635662" lon="10.3543504"><ele>496.14285714285717</ele><time>2026-04-22T10:59:32Z</time></trkpt><trkpt lat="44.1634857" lon="10.3543662"><ele>496.0</ele><time>2026-04-22T10:59:35Z</time></trkpt><trkpt lat="44.163394" lon="10.3543782"><ele>496.00000000000006</ele><time>2026-04-22T10:59:38Z</time></trkpt><trkpt lat="44.1633052" lon="10.3543917"><ele>496.0</ele><time>2026-04-22T10:59:41Z</time></trkpt><trkpt lat="44.16322" lon="10.3544036"><ele>496.0</ele><time>2026-04-22T10:59:44Z</time></trkpt><trkpt lat="44.1631263" lon="10.3544136"><ele>496.0</ele><time>2026-04-22T10:59:47Z</time></trkpt><trkpt lat="44.1630631" lon="10.3544279"><ele>496.00000000000006</ele><time>2026-04-22T10:59:49Z</time></trkpt><trkpt lat="44.1629988" lon="10.3544409"><ele>496.0</ele><time>2026-04-22T10:59:51Z</time></trkpt><trkpt lat="44.162935" lon="10.3544535"><ele>495.83333333333337</ele><time>2026-04-22T10:59:53Z</time></trkpt><trkpt lat="44.1628443" lon="10.3544693"><ele>495.6666666666667</ele><time>2026-04-22T10:59:56Z</time></trkpt><trkpt lat="44.1627537" lon="10.3544694"><ele>495.5</ele><time>2026-04-22T10:59:59Z</time></trkpt><trkpt lat="44.1626715" lon="10.354471"><ele>495.33333333333337</ele><time>2026-04-22T11:00:12Z</time></trkpt><trkpt lat="44.1626043" lon="10.3544846"><ele>495.1666666666667</ele><time>2026-04-22T11:00:15Z</time></trkpt><trkpt lat="44.1625304" lon="10.3545047"><ele>495.0</ele><time>2026-04-22T11:00:18Z</time></trkpt><trkpt lat="44.1624446" lon="10.3545079"><ele>496.3333333333333</ele><time>2026-04-22T11:00:21Z</time></trkpt><trkpt lat="44.1623545" lon="10.3545006"><ele>497.66666666666663</ele><time>2026-04-22T11:00:24Z</time></trkpt><trkpt lat="44.1622927" lon="10.3544775"><ele>499.0</ele><time>2026-04-22T11:00:26Z</time></trkpt><trkpt lat="44.1622066" lon="10.3544265"><ele>500.3333333333333</ele><time>2026-04-22T11:00:28.999Z</time></trkpt><trkpt lat="44.1621447" lon="10.3543758"><ele>501.66666666666663</ele><time>2026-04-22T11:00:31Z</time></trkpt><trkpt lat="44.1620776" lon="10.3543251"><ele>503.0</ele><time>2026-04-22T11:00:33Z</time></trkpt><trkpt lat="44.162016" lon="10.3542613"><ele>502.99999999999994</ele><time>2026-04-22T11:00:35Z</time></trkpt><trkpt lat="44.1619523" lon="10.3542019"><ele>503.0</ele><time>2026-04-22T11:00:37Z</time></trkpt><trkpt lat="44.1618863" lon="10.3541319"><ele>503.0</ele><time>2026-04-22T11:00:39Z</time></trkpt><trkpt lat="44.1618168" lon="10.3540611"><ele>503.0</ele><time>2026-04-22T11:00:41Z</time></trkpt><trkpt lat="44.1617438" lon="10.353987"><ele>502.99999999999994</ele><time>2026-04-22T11:00:43Z</time></trkpt><trkpt lat="44.1616777" lon="10.3539045"><ele>503.0</ele><time>2026-04-22T11:00:45Z</time></trkpt><trkpt lat="44.1616122" lon="10.3538306"><ele>500.49999999999994</ele><time>2026-04-22T11:00:47Z</time></trkpt><trkpt lat="44.1615425" lon="10.3537665"><ele>498.0</ele><time>2026-04-22T11:00:49Z</time></trkpt><trkpt lat="44.1614723" lon="10.3537037"><ele>495.5</ele><time>2026-04-22T11:00:51Z</time></trkpt><trkpt lat="44.1614059" lon="10.3536257"><ele>493.0</ele><time>2026-04-22T11:00:53Z</time></trkpt><trkpt lat="44.1613273" lon="10.3535708"><ele>490.49999999999994</ele><time>2026-04-22T11:00:55Z</time></trkpt><trkpt lat="44.1612421" lon="10.3535508"><ele>488.0</ele><time>2026-04-22T11:00:57Z</time></trkpt><trkpt lat="44.1611549" lon="10.3535338"><ele>488.0</ele><time>2026-04-22T11:00:59Z</time></trkpt><trkpt lat="44.1610714" lon="10.3535548"><ele>487.99999999999994</ele><time>2026-04-22T11:01:01Z</time></trkpt><trkpt lat="44.1610011" lon="10.3536293"><ele>487.99999999999994</ele><time>2026-04-22T11:01:03Z</time></trkpt><trkpt lat="44.1609372" lon="10.3537098"><ele>488.0</ele><time>2026-04-22T11:01:05Z</time></trkpt><trkpt lat="44.1608798" lon="10.3538122"><ele>488.0</ele><time>2026-04-22T11:01:07Z</time></trkpt><trkpt lat="44.1608177" lon="10.3539298"><ele>486.8333333333333</ele><time>2026-04-22T11:01:09Z</time></trkpt><trkpt lat="44.1607504" lon="10.3540567"><ele>485.66666666666663</ele><time>2026-04-22T11:01:11Z</time></trkpt><trkpt lat="44.1606796" lon="10.3542049"><ele>484.5</ele><time>2026-04-22T11:01:13Z</time></trkpt><trkpt lat="44.1606455" lon="10.3542857"><ele>483.33333333333337</ele><time>2026-04-22T11:01:14Z</time></trkpt><trkpt lat="44.1606193" lon="10.3543773"><ele>482.1666666666667</ele><time>2026-04-22T11:01:15Z</time></trkpt><trkpt lat="44.1606025" lon="10.3544687"><ele>481.0</ele><time>2026-04-22T11:01:16Z</time></trkpt><trkpt lat="44.1606116" lon="10.3545823"><ele>481.00000000000006</ele><time>2026-04-22T11:01:17Z</time></trkpt><trkpt lat="44.1606334" lon="10.3546883"><ele>481.0</ele><time>2026-04-22T11:01:18Z</time></trkpt><trkpt lat="44.1606717" lon="10.3547846"><ele>481.0</ele><time>2026-04-22T11:01:19Z</time></trkpt><trkpt lat="44.1607249" lon="10.354873"><ele>481.0</ele><time>2026-04-22T11:01:20Z</time></trkpt><trkpt lat="44.1607855" lon="10.3549469"><ele>481.00000000000006</ele><time>2026-04-22T11:01:21Z</time></trkpt><trkpt lat="44.1608491" lon="10.3550211"><ele>481.0</ele><time>2026-04-22T11:01:22Z</time></trkpt><trkpt lat="44.1609087" lon="10.355086"><ele>482.83333333333337</ele><time>2026-04-22T11:01:23Z</time></trkpt><trkpt lat="44.160968" lon="10.3551589"><ele>484.6666666666667</ele><time>2026-04-22T11:01:24Z</time></trkpt><trkpt lat="44.1610218" lon="10.3552313"><ele>486.5</ele><time>2026-04-22T11:01:25Z</time></trkpt><trkpt lat="44.1610742" lon="10.3553064"><ele>488.33333333333337</ele><time>2026-04-22T11:01:26Z</time></trkpt><trkpt lat="44.1611349" lon="10.3553759"><ele>490.1666666666667</ele><time>2026-04-22T11:01:27Z</time></trkpt><trkpt lat="44.1611948" lon="10.3554531"><ele>492.0</ele><time>2026-04-22T11:01:28Z</time></trkpt><trkpt lat="44.1612531" lon="10.3555318"><ele>490.5</ele><time>2026-04-22T11:01:29Z</time></trkpt><trkpt lat="44.1613149" lon="10.3556076"><ele>489.0</ele><time>2026-04-22T11:01:30Z</time></trkpt><trkpt lat="44.1613687" lon="10.3556877"><ele>487.5</ele><time>2026-04-22T11:01:31Z</time></trkpt><trkpt lat="44.161418" lon="10.3557757"><ele>486.0</ele><time>2026-04-22T11:01:32Z</time></trkpt><trkpt lat="44.1614441" lon="10.3558819"><ele>484.5</ele><time>2026-04-22T11:01:33Z</time></trkpt><trkpt lat="44.1614486" lon="10.355998"><ele>483.0</ele><time>2026-04-22T11:01:34Z</time></trkpt><trkpt lat="44.1614272" lon="10.3561085"><ele>483.0</ele><time>2026-04-22T11:01:35Z</time></trkpt><trkpt lat="44.1613973" lon="10.3562189"><ele>483.0</ele><time>2026-04-22T11:01:36Z</time></trkpt><trkpt lat="44.1613679" lon="10.3563264"><ele>483.0</ele><time>2026-04-22T11:01:37Z</time></trkpt><trkpt lat="44.1613339" lon="10.3564279"><ele>483.0</ele><time>2026-04-22T11:01:38Z</time></trkpt><trkpt lat="44.1613012" lon="10.3565344"><ele>483.0</ele><time>2026-04-22T11:01:39Z</time></trkpt><trkpt lat="44.1612689" lon="10.3566384"><ele>483.0</ele><time>2026-04-22T11:01:40Z</time></trkpt><trkpt lat="44.161237" lon="10.3567472"><ele>483.0</ele><time>2026-04-22T11:01:41Z</time></trkpt><trkpt lat="44.1612051" lon="10.356858"><ele>483.0</ele><time>2026-04-22T11:01:42Z</time></trkpt><trkpt lat="44.1611739" lon="10.3569655"><ele>483.0</ele><time>2026-04-22T11:01:43Z</time></trkpt><trkpt lat="44.1611385" lon="10.357072"><ele>483.0</ele><time>2026-04-22T11:01:43.999Z</time></trkpt><trkpt lat="44.1611039" lon="10.3571766"><ele>483.0</ele><time>2026-04-22T11:01:45Z</time></trkpt><trkpt lat="44.1610744" lon="10.3572817"><ele>483.0</ele><time>2026-04-22T11:01:46Z</time></trkpt><trkpt lat="44.1610435" lon="10.3573886"><ele>483.0</ele><time>2026-04-22T11:01:47Z</time></trkpt><trkpt lat="44.1610103" lon="10.357494"><ele>483.0</ele><time>2026-04-22T11:01:48Z</time></trkpt><trkpt lat="44.1609728" lon="10.3576055"><ele>483.0</ele><time>2026-04-22T11:01:49Z</time></trkpt><trkpt lat="44.1609329" lon="10.3577153"><ele>483.0</ele><time>2026-04-22T11:01:50Z</time></trkpt><trkpt lat="44.1608872" lon="10.3578267"><ele>483.0</ele><time>2026-04-22T11:01:51Z</time></trkpt><trkpt lat="44.1608368" lon="10.3579364"><ele>483.0</ele><time>2026-04-22T11:01:52Z</time></trkpt><trkpt lat="44.1607835" lon="10.3580357"><ele>483.1666666666667</ele><time>2026-04-22T11:01:53Z</time></trkpt><trkpt lat="44.1607349" lon="10.3581243"><ele>483.33333333333337</ele><time>2026-04-22T11:01:54Z</time></trkpt><trkpt lat="44.1606902" lon="10.3581985"><ele>483.5</ele><time>2026-04-22T11:01:55Z</time></trkpt><trkpt lat="44.1606125" lon="10.3582935"><ele>483.6666666666667</ele><time>2026-04-22T11:01:57Z</time></trkpt><trkpt lat="44.160497" lon="10.3583565"><ele>483.83333333333337</ele><time>2026-04-22T11:01:59Z</time></trkpt><trkpt lat="44.160437" lon="10.3584014"><ele>484.0</ele><time>2026-04-22T11:02:00Z</time></trkpt><trkpt lat="44.1603815" lon="10.358469"><ele>482.6666666666667</ele><time>2026-04-22T11:02:01Z</time></trkpt><trkpt lat="44.1603236" lon="10.3585315"><ele>481.33333333333337</ele><time>2026-04-22T11:02:02Z</time></trkpt><trkpt lat="44.1602857" lon="10.35862"><ele>480.0</ele><time>2026-04-22T11:02:03Z</time></trkpt><trkpt lat="44.1602425" lon="10.3587007"><ele>478.66666666666663</ele><time>2026-04-22T11:02:04Z</time></trkpt><trkpt lat="44.1601892" lon="10.3587733"><ele>477.3333333333333</ele><time>2026-04-22T11:02:05Z</time></trkpt><trkpt lat="44.1601271" lon="10.3588444"><ele>476.0</ele><time>2026-04-22T11:02:06Z</time></trkpt><trkpt lat="44.1600559" lon="10.3589044"><ele>475.99999999999994</ele><time>2026-04-22T11:02:07Z</time></trkpt><trkpt lat="44.1599786" lon="10.3589597"><ele>476.0</ele><time>2026-04-22T11:02:08Z</time></trkpt><trkpt lat="44.159903" lon="10.3590072"><ele>476.0</ele><time>2026-04-22T11:02:08.999Z</time></trkpt><trkpt lat="44.1598393" lon="10.3590435"><ele>476.0</ele><time>2026-04-22T11:02:10Z</time></trkpt><trkpt lat="44.1597691" lon="10.3590703"><ele>475.99999999999994</ele><time>2026-04-22T11:02:11Z</time></trkpt><trkpt lat="44.1596593" lon="10.3591036"><ele>476.0</ele><time>2026-04-22T11:02:13Z</time></trkpt><trkpt lat="44.1595506" lon="10.3591377"><ele>472.8</ele><time>2026-04-22T11:02:15Z</time></trkpt><trkpt lat="44.1594916" lon="10.3591707"><ele>469.6</ele><time>2026-04-22T11:02:16Z</time></trkpt><trkpt lat="44.1594053" lon="10.3592668"><ele>466.4</ele><time>2026-04-22T11:02:18Z</time></trkpt><trkpt lat="44.1593274" lon="10.3593153"><ele>463.2</ele><time>2026-04-22T11:02:20Z</time></trkpt><trkpt lat="44.1592441" lon="10.3593132"><ele>460.0</ele><time>2026-04-22T11:02:22Z</time></trkpt><trkpt lat="44.1591337" lon="10.3593078"><ele>457.6</ele><time>2026-04-22T11:02:24Z</time></trkpt><trkpt lat="44.159034" lon="10.3593073"><ele>455.2</ele><time>2026-04-22T11:02:26Z</time></trkpt><trkpt lat="44.1589313" lon="10.3592987"><ele>452.79999999999995</ele><time>2026-04-22T11:02:28Z</time></trkpt><trkpt lat="44.158849" lon="10.3593078"><ele>450.4</ele><time>2026-04-22T11:02:30Z</time></trkpt><trkpt lat="44.1587582" lon="10.3593643"><ele>448.0</ele><time>2026-04-22T11:02:33Z</time></trkpt><trkpt lat="44.1586849" lon="10.3594627"><ele>448.0</ele><time>2026-04-22T11:02:35Z</time></trkpt><trkpt lat="44.1586073" lon="10.3595649"><ele>447.99999999999994</ele><time>2026-04-22T11:02:37Z</time></trkpt><trkpt lat="44.1585096" lon="10.3596414"><ele>447.99999999999994</ele><time>2026-04-22T11:02:39Z</time></trkpt><trkpt lat="44.1584077" lon="10.3596794"><ele>448.0</ele><time>2026-04-22T11:02:41Z</time></trkpt><trkpt lat="44.158323" lon="10.3597078"><ele>448.0</ele><time>2026-04-22T11:02:43Z</time></trkpt><trkpt lat="44.1582726" lon="10.3597956"><ele>446.79999999999995</ele><time>2026-04-22T11:02:46Z</time></trkpt><trkpt lat="44.1582158" lon="10.3598721"><ele>445.59999999999997</ele><time>2026-04-22T11:02:50Z</time></trkpt><trkpt lat="44.1580654" lon="10.3599174"><ele>444.40000000000003</ele><time>2026-04-22T11:02:53Z</time></trkpt><trkpt lat="44.1579644" lon="10.3599046"><ele>443.20000000000005</ele><time>2026-04-22T11:02:54Z</time></trkpt><trkpt lat="44.1578857" lon="10.3599043"><ele>442.0</ele><time>2026-04-22T11:02:55Z</time></trkpt><trkpt lat="44.1578166" lon="10.3599018"><ele>442.00000000000006</ele><time>2026-04-22T11:02:56Z</time></trkpt><trkpt lat="44.1577507" lon="10.3599002"><ele>442.0</ele><time>2026-04-22T11:02:57Z</time></trkpt><trkpt lat="44.1576181" lon="10.3598928"><ele>442.0</ele><time>2026-04-22T11:02:59Z</time></trkpt><trkpt lat="44.1575371" lon="10.3598851"><ele>442.0</ele><time>2026-04-22T11:03:00Z</time></trkpt><trkpt lat="44.157457" lon="10.3598779"><ele>442.00000000000006</ele><time>2026-04-22T11:03:01Z</time></trkpt><trkpt lat="44.1573892" lon="10.3598677"><ele>442.0</ele><time>2026-04-22T11:03:02Z</time></trkpt><trkpt lat="44.1572843" lon="10.3598898"><ele>440.1666666666667</ele><time>2026-04-22T11:03:04Z</time></trkpt><trkpt lat="44.1572075" lon="10.3599169"><ele>438.33333333333337</ele><time>2026-04-22T11:03:07Z</time></trkpt><trkpt lat="44.1571601" lon="10.3598285"><ele>436.5</ele><time>2026-04-22T11:03:09Z</time></trkpt><trkpt lat="44.1571253" lon="10.3597103"><ele>434.66666666666663</ele><time>2026-04-22T11:03:11Z</time></trkpt><trkpt lat="44.1570823" lon="10.3596406"><ele>432.8333333333333</ele><time>2026-04-22T11:03:14Z</time></trkpt><trkpt lat="44.1570194" lon="10.3597024"><ele>431.0</ele><time>2026-04-22T11:03:17Z</time></trkpt><trkpt lat="44.1569299" lon="10.3597787"><ele>430.99999999999994</ele><time>2026-04-22T11:03:20Z</time></trkpt><trkpt lat="44.1568409" lon="10.3598277"><ele>431.0</ele><time>2026-04-22T11:03:22Z</time></trkpt><trkpt lat="44.1567645" lon="10.3598642"><ele>431.0</ele><time>2026-04-22T11:03:24Z</time></trkpt><trkpt lat="44.1567038" lon="10.3599006"><ele>431.0</ele><time>2026-04-22T11:03:26Z</time></trkpt><trkpt lat="44.1566404" lon="10.3599059"><ele>430.99999999999994</ele><time>2026-04-22T11:03:28Z</time></trkpt><trkpt lat="44.1565532" lon="10.3598878"><ele>431.0</ele><time>2026-04-22T11:03:30Z</time></trkpt><trkpt lat="44.1564702" lon="10.3598933"><ele>427.4</ele><time>2026-04-22T11:03:32Z</time></trkpt><trkpt lat="44.1563897" lon="10.3598751"><ele>423.8</ele><time>2026-04-22T11:03:34Z</time></trkpt><trkpt lat="44.1563058" lon="10.3598743"><ele>420.2</ele><time>2026-04-22T11:03:36Z</time></trkpt><trkpt lat="44.1562074" lon="10.3599526"><ele>416.59999999999997</ele><time>2026-04-22T11:03:37.999Z</time></trkpt><trkpt lat="44.1561144" lon="10.3600498"><ele>413.0</ele><time>2026-04-22T11:03:40Z</time></trkpt><trkpt lat="44.1560314" lon="10.3601323"><ele>412.99999999999994</ele><time>2026-04-22T11:03:42Z</time></trkpt><trkpt lat="44.1559409" lon="10.3602017"><ele>413.0</ele><time>2026-04-22T11:03:44Z</time></trkpt><trkpt lat="44.155866" lon="10.3602299"><ele>413.0</ele><time>2026-04-22T11:03:46Z</time></trkpt><trkpt lat="44.1557908" lon="10.3602305"><ele>413.0</ele><time>2026-04-22T11:03:48Z</time></trkpt><trkpt lat="44.1556976" lon="10.360178"><ele>412.99999999999994</ele><time>2026-04-22T11:03:50Z</time></trkpt><trkpt lat="44.155619" lon="10.3601543"><ele>413.0</ele><time>2026-04-22T11:03:52Z</time></trkpt><trkpt lat="44.1555298" lon="10.3601688"><ele>409.99999999999994</ele><time>2026-04-22T11:03:54Z</time></trkpt><trkpt lat="44.1554404" lon="10.3602053"><ele>407.0</ele><time>2026-04-22T11:03:56Z</time></trkpt><trkpt lat="44.1553778" lon="10.3602626"><ele>404.0</ele><time>2026-04-22T11:03:58Z</time></trkpt><trkpt lat="44.1553185" lon="10.3603188"><ele>401.0</ele><time>2026-04-22T11:04:00Z</time></trkpt><trkpt lat="44.1552576" lon="10.3603664"><ele>397.99999999999994</ele><time>2026-04-22T11:04:02Z</time></trkpt><trkpt lat="44.1551846" lon="10.3604015"><ele>395.0</ele><time>2026-04-22T11:04:05Z</time></trkpt><trkpt lat="44.1551128" lon="10.3604253"><ele>394.99999999999994</ele><time>2026-04-22T11:04:09Z</time></trkpt><trkpt lat="44.1550419" lon="10.3604727"><ele>395.0</ele><time>2026-04-22T11:04:12Z</time></trkpt><trkpt lat="44.1549929" lon="10.360413"><ele>395.0</ele><time>2026-04-22T11:04:15Z</time></trkpt><trkpt lat="44.1549274" lon="10.3603382"><ele>395.0</ele><time>2026-04-22T11:04:18Z</time></trkpt><trkpt lat="44.1548848" lon="10.3604223"><ele>394.99999999999994</ele><time>2026-04-22T11:04:21Z</time></trkpt><trkpt lat="44.1548545" lon="10.3605454"><ele>395.0</ele><time>2026-04-22T11:04:24Z</time></trkpt><trkpt lat="44.1548229" lon="10.3606754"><ele>394.3333333333333</ele><time>2026-04-22T11:04:26Z</time></trkpt><trkpt lat="44.1548067" lon="10.3607949"><ele>393.66666666666663</ele><time>2026-04-22T11:04:28Z</time></trkpt><trkpt lat="44.1547652" lon="10.3608878"><ele>393.0</ele><time>2026-04-22T11:04:31Z</time></trkpt><trkpt lat="44.1547266" lon="10.3609976"><ele>392.33333333333337</ele><time>2026-04-22T11:04:34Z</time></trkpt><trkpt lat="44.1546699" lon="10.3610785"><ele>391.6666666666667</ele><time>2026-04-22T11:04:36Z</time></trkpt><trkpt lat="44.154591" lon="10.3611225"><ele>391.0</ele><time>2026-04-22T11:04:38Z</time></trkpt><trkpt lat="44.1545199" lon="10.3611534"><ele>391.00000000000006</ele><time>2026-04-22T11:04:40Z</time></trkpt><trkpt lat="44.1544406" lon="10.3611718"><ele>391.0</ele><time>2026-04-22T11:04:42Z</time></trkpt><trkpt lat="44.1543528" lon="10.3611871"><ele>391.0</ele><time>2026-04-22T11:04:44Z</time></trkpt><trkpt lat="44.1542604" lon="10.3612114"><ele>391.0</ele><time>2026-04-22T11:04:46Z</time></trkpt><trkpt lat="44.1541682" lon="10.3612385"><ele>391.00000000000006</ele><time>2026-04-22T11:04:48Z</time></trkpt><trkpt lat="44.1540874" lon="10.3612771"><ele>391.0</ele><time>2026-04-22T11:04:50Z</time></trkpt><trkpt lat="44.1540264" lon="10.3613035"><ele>390.85714285714283</ele><time>2026-04-22T11:04:52Z</time></trkpt><trkpt lat="44.1539686" lon="10.3612232"><ele>390.7142857142857</ele><time>2026-04-22T11:04:56Z</time></trkpt><trkpt lat="44.1538911" lon="10.3611963"><ele>390.57142857142856</ele><time>2026-04-22T11:05:00Z</time></trkpt><trkpt lat="44.1538233" lon="10.3611972"><ele>390.42857142857144</ele><time>2026-04-22T11:05:03Z</time></trkpt><trkpt lat="44.1537635" lon="10.3612498"><ele>390.2857142857143</ele><time>2026-04-22T11:05:07Z</time></trkpt><trkpt lat="44.1537508" lon="10.3613367"><ele>390.1428571428571</ele><time>2026-04-22T11:05:10Z</time></trkpt><trkpt lat="44.153738" lon="10.3614346"><ele>390.0</ele><time>2026-04-22T11:05:14Z</time></trkpt><trkpt lat="44.1537373" lon="10.3615247"><ele>389.25</ele><time>2026-04-22T11:05:16Z</time></trkpt><trkpt lat="44.1536998" lon="10.3616806"><ele>388.5</ele><time>2026-04-22T11:05:18Z</time></trkpt><trkpt lat="44.1536739" lon="10.361817"><ele>387.75</ele><time>2026-04-22T11:05:20Z</time></trkpt><trkpt lat="44.1536416" lon="10.3619658"><ele>387.0</ele><time>2026-04-22T11:05:22Z</time></trkpt><trkpt lat="44.1535622" lon="10.3620973"><ele>386.0</ele><time>2026-04-22T11:05:24Z</time></trkpt><trkpt lat="44.153488" lon="10.3622275"><ele>385.0</ele><time>2026-04-22T11:05:26Z</time></trkpt><trkpt lat="44.1534882" lon="10.3623937"><ele>384.0</ele><time>2026-04-22T11:05:28Z</time></trkpt><trkpt lat="44.1535194" lon="10.3625543"><ele>383.0</ele><time>2026-04-22T11:05:30Z</time></trkpt><trkpt lat="44.1535536" lon="10.3627152"><ele>383.0</ele><time>2026-04-22T11:05:32Z</time></trkpt><trkpt lat="44.1535827" lon="10.3628658"><ele>383.0</ele><time>2026-04-22T11:05:33.999Z</time></trkpt><trkpt lat="44.1536159" lon="10.3629974"><ele>383.0</ele><time>2026-04-22T11:05:36Z</time></trkpt><trkpt lat="44.1536273" lon="10.3631228"><ele>383.0</ele><time>2026-04-22T11:05:38Z</time></trkpt><trkpt lat="44.153648" lon="10.3632398"><ele>383.0</ele><time>2026-04-22T11:05:40Z</time></trkpt><trkpt lat="44.1536428" lon="10.3633669"><ele>383.2</ele><time>2026-04-22T11:05:42Z</time></trkpt><trkpt lat="44.1536023" lon="10.3634936"><ele>383.4</ele><time>2026-04-22T11:05:44Z</time></trkpt><trkpt lat="44.1535376" lon="10.3635948"><ele>383.59999999999997</ele><time>2026-04-22T11:05:46Z</time></trkpt><trkpt lat="44.1534658" lon="10.3636811"><ele>383.79999999999995</ele><time>2026-04-22T11:05:48Z</time></trkpt><trkpt lat="44.1533981" lon="10.3637615"><ele>384.0</ele><time>2026-04-22T11:05:50Z</time></trkpt><trkpt lat="44.1533489" lon="10.3638545"><ele>384.1428571428571</ele><time>2026-04-22T11:05:52Z</time></trkpt><trkpt lat="44.1532957" lon="10.3639257"><ele>384.2857142857143</ele><time>2026-04-22T11:05:54Z</time></trkpt><trkpt lat="44.1532312" lon="10.3639004"><ele>384.42857142857144</ele><time>2026-04-22T11:05:56Z</time></trkpt><trkpt lat="44.1531633" lon="10.3638779"><ele>384.57142857142856</ele><time>2026-04-22T11:05:59Z</time></trkpt><trkpt lat="44.1531003" lon="10.3638146"><ele>384.7142857142857</ele><time>2026-04-22T11:06:02Z</time></trkpt><trkpt lat="44.1530401" lon="10.3637462"><ele>384.85714285714283</ele><time>2026-04-22T11:06:05Z</time></trkpt><trkpt lat="44.1529677" lon="10.3636895"><ele>385.0</ele><time>2026-04-22T11:06:08Z</time></trkpt><trkpt lat="44.1528993" lon="10.3637056"><ele>385.00000000000006</ele><time>2026-04-22T11:06:12Z</time></trkpt><trkpt lat="44.1528389" lon="10.3638174"><ele>385.0</ele><time>2026-04-22T11:06:16Z</time></trkpt><trkpt lat="44.1528035" lon="10.3638917"><ele>385.0</ele><time>2026-04-22T11:06:19Z</time></trkpt><trkpt lat="44.1527569" lon="10.3639775"><ele>385.0</ele><time>2026-04-22T11:06:22Z</time></trkpt><trkpt lat="44.1527206" lon="10.3640605"><ele>385.00000000000006</ele><time>2026-04-22T11:06:26Z</time></trkpt><trkpt lat="44.1526617" lon="10.3640102"><ele>385.0</ele><time>2026-04-22T11:06:31Z</time></trkpt><trkpt lat="44.15259" lon="10.3639254"><ele>385.0</ele><time>2026-04-22T11:06:33Z</time></trkpt><trkpt lat="44.1525211" lon="10.3638725"><ele>385.0</ele><time>2026-04-22T11:06:35Z</time></trkpt><trkpt lat="44.1524511" lon="10.363867"><ele>385.0</ele><time>2026-04-22T11:06:39Z</time></trkpt><trkpt lat="44.1523813" lon="10.3638629"><ele>385.0</ele><time>2026-04-22T11:06:43Z</time></trkpt><trkpt lat="44.1523297" lon="10.3638106"><ele>385.0</ele><time>2026-04-22T11:06:47.999Z</time></trkpt><trkpt lat="44.152311" lon="10.3637157"><ele>385.0</ele><time>2026-04-22T11:06:53Z</time></trkpt><trkpt lat="44.1522993" lon="10.3636195"><ele>385.0</ele><time>2026-04-22T11:06:57Z</time></trkpt><trkpt lat="44.1522624" lon="10.3635217"><ele>383.2</ele><time>2026-04-22T11:06:59Z</time></trkpt><trkpt lat="44.1521924" lon="10.3634164"><ele>381.4</ele><time>2026-04-22T11:07:01Z</time></trkpt><trkpt lat="44.1521231" lon="10.3633204"><ele>379.6</ele><time>2026-04-22T11:07:03Z</time></trkpt><trkpt lat="44.1520572" lon="10.3632084"><ele>377.8</ele><time>2026-04-22T11:07:05Z</time></trkpt><trkpt lat="44.1519782" lon="10.3631094"><ele>376.0</ele><time>2026-04-22T11:07:07Z</time></trkpt><trkpt lat="44.1519" lon="10.3630206"><ele>374.16666666666663</ele><time>2026-04-22T11:07:09Z</time></trkpt><trkpt lat="44.1518286" lon="10.3629802"><ele>372.3333333333333</ele><time>2026-04-22T11:07:12Z</time></trkpt><trkpt lat="44.151759" lon="10.3629671"><ele>370.5</ele><time>2026-04-22T11:07:15Z</time></trkpt><trkpt lat="44.1516612" lon="10.3629392"><ele>368.6666666666667</ele><time>2026-04-22T11:07:18Z</time></trkpt><trkpt lat="44.1515928" lon="10.362922"><ele>366.83333333333337</ele><time>2026-04-22T11:07:20Z</time></trkpt><trkpt lat="44.1515274" lon="10.3628705"><ele>365.0</ele><time>2026-04-22T11:07:22Z</time></trkpt><trkpt lat="44.1514542" lon="10.3628309"><ele>362.6666666666667</ele><time>2026-04-22T11:07:24Z</time></trkpt><trkpt lat="44.1513487" lon="10.3628021"><ele>360.33333333333337</ele><time>2026-04-22T11:07:26Z</time></trkpt><trkpt lat="44.1512476" lon="10.3628093"><ele>358.0</ele><time>2026-04-22T11:07:28Z</time></trkpt><trkpt lat="44.1511723" lon="10.3628199"><ele>355.6666666666667</ele><time>2026-04-22T11:07:30Z</time></trkpt><trkpt lat="44.1510932" lon="10.3628364"><ele>353.3333333333333</ele><time>2026-04-22T11:07:33Z</time></trkpt><trkpt lat="44.1510373" lon="10.3628975"><ele>351.0</ele><time>2026-04-22T11:07:36Z</time></trkpt><trkpt lat="44.1509535" lon="10.3629538"><ele>351.0</ele><time>2026-04-22T11:07:40Z</time></trkpt><trkpt lat="44.1508842" lon="10.3629403"><ele>351.0</ele><time>2026-04-22T11:07:42Z</time></trkpt><trkpt lat="44.1508018" lon="10.362879"><ele>351.0</ele><time>2026-04-22T11:07:44Z</time></trkpt><trkpt lat="44.1507366" lon="10.3628427"><ele>351.0</ele><time>2026-04-22T11:07:46Z</time></trkpt><trkpt lat="44.1506683" lon="10.3628295"><ele>351.0</ele><time>2026-04-22T11:07:48Z</time></trkpt><trkpt lat="44.1505853" lon="10.3628048"><ele>351.0</ele><time>2026-04-22T11:07:50Z</time></trkpt><trkpt lat="44.1505213" lon="10.362775"><ele>350.8</ele><time>2026-04-22T11:07:51Z</time></trkpt><trkpt lat="44.1504209" lon="10.3627502"><ele>350.6</ele><time>2026-04-22T11:07:53Z</time></trkpt><trkpt lat="44.1503354" lon="10.362745"><ele>350.4</ele><time>2026-04-22T11:07:54Z</time></trkpt><trkpt lat="44.150218" lon="10.3627507"><ele>350.2</ele><time>2026-04-22T11:07:56Z</time></trkpt><trkpt lat="44.150155" lon="10.3627494"><ele>350.0</ele><time>2026-04-22T11:07:57Z</time></trkpt><trkpt lat="44.1500422" lon="10.3627406"><ele>350.0</ele><time>2026-04-22T11:07:59Z</time></trkpt><trkpt lat="44.1499418" lon="10.3627117"><ele>350.0</ele><time>2026-04-22T11:08:01Z</time></trkpt><trkpt lat="44.1498537" lon="10.3626732"><ele>350.0</ele><time>2026-04-22T11:08:03Z</time></trkpt><trkpt lat="44.1497933" lon="10.3626195"><ele>350.0</ele><time>2026-04-22T11:08:07Z</time></trkpt><trkpt lat="44.1497242" lon="10.3625628"><ele>350.0</ele><time>2026-04-22T11:08:11Z</time></trkpt><trkpt lat="44.1496568" lon="10.3625438"><ele>350.0</ele><time>2026-04-22T11:08:13Z</time></trkpt><trkpt lat="44.1495916" lon="10.3625533"><ele>350.42857142857144</ele><time>2026-04-22T11:08:16Z</time></trkpt><trkpt lat="44.1495124" lon="10.3625625"><ele>350.8571428571429</ele><time>2026-04-22T11:08:20Z</time></trkpt><trkpt lat="44.1494463" lon="10.3625705"><ele>351.2857142857143</ele><time>2026-04-22T11:08:24Z</time></trkpt><trkpt lat="44.1493832" lon="10.3625609"><ele>351.7142857142857</ele><time>2026-04-22T11:08:27Z</time></trkpt><trkpt lat="44.1493195" lon="10.3625497"><ele>352.14285714285717</ele><time>2026-04-22T11:08:30Z</time></trkpt><trkpt lat="44.1492537" lon="10.3625385"><ele>352.57142857142856</ele><time>2026-04-22T11:08:33Z</time></trkpt><trkpt lat="44.1491744" lon="10.3625128"><ele>353.0</ele><time>2026-04-22T11:08:37Z</time></trkpt><trkpt lat="44.1490999" lon="10.3625016"><ele>353.1428571428571</ele><time>2026-04-22T11:08:41Z</time></trkpt><trkpt lat="44.149039" lon="10.362528"><ele>353.28571428571433</ele><time>2026-04-22T11:08:45Z</time></trkpt><trkpt lat="44.148974" lon="10.3625649"><ele>353.42857142857144</ele><time>2026-04-22T11:08:49Z</time></trkpt><trkpt lat="44.1488996" lon="10.3625718"><ele>353.57142857142856</ele><time>2026-04-22T11:08:53Z</time></trkpt><trkpt lat="44.1488331" lon="10.3625794"><ele>353.71428571428567</ele><time>2026-04-22T11:08:56Z</time></trkpt><trkpt lat="44.1487516" lon="10.3625893"><ele>353.8571428571429</ele><time>2026-04-22T11:09:00Z</time></trkpt><trkpt lat="44.1486684" lon="10.3625963"><ele>354.0</ele><time>2026-04-22T11:09:04Z</time></trkpt><trkpt lat="44.1486027" lon="10.3625999"><ele>354.0</ele><time>2026-04-22T11:09:07Z</time></trkpt><trkpt lat="44.1485316" lon="10.3626043"><ele>354.0</ele><time>2026-04-22T11:09:10Z</time></trkpt><trkpt lat="44.1484477" lon="10.3626252"><ele>354.0</ele><time>2026-04-22T11:09:14Z</time></trkpt><trkpt lat="44.148365" lon="10.3626358"><ele>354.0</ele><time>2026-04-22T11:09:18Z</time></trkpt><trkpt lat="44.1482848" lon="10.3626354"><ele>354.0</ele><time>2026-04-22T11:09:22Z</time></trkpt><trkpt lat="44.1482109" lon="10.362641"><ele>354.0</ele><time>2026-04-22T11:09:26Z</time></trkpt><trkpt lat="44.1481263" lon="10.3626503"><ele>353.7142857142857</ele><time>2026-04-22T11:09:30Z</time></trkpt><trkpt lat="44.1480494" lon="10.3626613"><ele>353.4285714285714</ele><time>2026-04-22T11:09:35.029Z</time></trkpt><trkpt lat="44.1479865" lon="10.3627095"><ele>353.1428571428571</ele><time>2026-04-22T11:09:39Z</time></trkpt><trkpt lat="44.1479393" lon="10.3627773"><ele>352.8571428571429</ele><time>2026-04-22T11:09:44Z</time></trkpt><trkpt lat="44.1478871" lon="10.3628286"><ele>352.57142857142856</ele><time>2026-04-22T11:09:48.033Z</time></trkpt><trkpt lat="44.1478348" lon="10.3628942"><ele>352.2857142857143</ele><time>2026-04-22T11:09:51.968Z</time></trkpt><trkpt lat="44.1477961" lon="10.3629681"><ele>352.0</ele><time>2026-04-22T11:09:56.062Z</time></trkpt><trkpt lat="44.1477558" lon="10.3630418"><ele>353.0</ele><time>2026-04-22T11:10:00.019Z</time></trkpt><trkpt lat="44.1477212" lon="10.3631607"><ele>354.0</ele><time>2026-04-22T11:10:04Z</time></trkpt><trkpt lat="44.1477291" lon="10.3632748"><ele>355.0</ele><time>2026-04-22T11:10:08Z</time></trkpt><trkpt lat="44.1477581" lon="10.3633812"><ele>356.0</ele><time>2026-04-22T11:10:12Z</time></trkpt><trkpt lat="44.147784" lon="10.3634768"><ele>357.0</ele><time>2026-04-22T11:10:16Z</time></trkpt><trkpt lat="44.1477908" lon="10.3635653"><ele>358.0</ele><time>2026-04-22T11:10:20Z</time></trkpt><trkpt lat="44.1477725" lon="10.3636594"><ele>358.00000000000006</ele><time>2026-04-22T11:10:25Z</time></trkpt><trkpt lat="44.1477402" lon="10.3637468"><ele>358.0</ele><time>2026-04-22T11:10:30Z</time></trkpt><trkpt lat="44.1477103" lon="10.3638413"><ele>358.0</ele><time>2026-04-22T11:10:34Z</time></trkpt><trkpt lat="44.1476818" lon="10.3639211"><ele>358.0</ele><time>2026-04-22T11:10:38Z</time></trkpt><trkpt lat="44.1476693" lon="10.364009"><ele>358.0</ele><time>2026-04-22T11:10:42Z</time></trkpt><trkpt lat="44.1476636" lon="10.3640984"><ele>358.00000000000006</ele><time>2026-04-22T11:10:46Z</time></trkpt><trkpt lat="44.1476564" lon="10.3642093"><ele>358.0</ele><time>2026-04-22T11:10:50Z</time></trkpt><trkpt lat="44.1476423" lon="10.3643132"><ele>359.00000000000006</ele><time>2026-04-22T11:10:54Z</time></trkpt><trkpt lat="44.1476229" lon="10.3644051"><ele>360.0</ele><time>2026-04-22T11:10:59Z</time></trkpt><trkpt lat="44.1476176" lon="10.3644957"><ele>361.0</ele><time>2026-04-22T11:11:02Z</time></trkpt><trkpt lat="44.1476326" lon="10.3645828"><ele>362.0</ele><time>2026-04-22T11:11:05.105Z</time></trkpt><trkpt lat="44.1476612" lon="10.3646773"><ele>363.0</ele><time>2026-04-22T11:11:09Z</time></trkpt><trkpt lat="44.1477007" lon="10.3647693"><ele>364.00000000000006</ele><time>2026-04-22T11:11:13Z</time></trkpt><trkpt lat="44.1477367" lon="10.36486"><ele>365.0</ele><time>2026-04-22T11:11:17Z</time></trkpt><trkpt lat="44.1477648" lon="10.3649395"><ele>366.00000000000006</ele><time>2026-04-22T11:11:21Z</time></trkpt><trkpt lat="44.1478103" lon="10.3650274"><ele>367.0</ele><time>2026-04-22T11:11:26Z</time></trkpt><trkpt lat="44.1478521" lon="10.3651109"><ele>368.0</ele><time>2026-04-22T11:11:30Z</time></trkpt><trkpt lat="44.1478276" lon="10.3651983"><ele>369.0</ele><time>2026-04-22T11:11:34Z</time></trkpt><trkpt lat="44.1477765" lon="10.3652648"><ele>370.0</ele><time>2026-04-22T11:11:38Z</time></trkpt><trkpt lat="44.147732" lon="10.3653436"><ele>371.00000000000006</ele><time>2026-04-22T11:11:42Z</time></trkpt><trkpt lat="44.1476954" lon="10.3654309"><ele>372.0</ele><time>2026-04-22T11:11:46Z</time></trkpt><trkpt lat="44.1476712" lon="10.3655249"><ele>371.5</ele><time>2026-04-22T11:11:50Z</time></trkpt><trkpt lat="44.1476502" lon="10.3656107"><ele>371.0</ele><time>2026-04-22T11:11:54Z</time></trkpt><trkpt lat="44.147623" lon="10.3656919"><ele>370.5</ele><time>2026-04-22T11:11:58Z</time></trkpt><trkpt lat="44.1475673" lon="10.3657619"><ele>370.0</ele><time>2026-04-22T11:12:04Z</time></trkpt><trkpt lat="44.1475081" lon="10.3658116"><ele>369.5</ele><time>2026-04-22T11:12:06Z</time></trkpt><trkpt lat="44.1474198" lon="10.365881"><ele>369.0</ele><time>2026-04-22T11:12:08Z</time></trkpt><trkpt lat="44.1473271" lon="10.3659791"><ele>369.0</ele><time>2026-04-22T11:12:10Z</time></trkpt><trkpt lat="44.1472701" lon="10.3660305"><ele>369.0</ele><time>2026-04-22T11:12:11Z</time></trkpt><trkpt lat="44.1472021" lon="10.3660822"><ele>369.0</ele><time>2026-04-22T11:12:12Z</time></trkpt><trkpt lat="44.1471273" lon="10.3661232"><ele>369.0</ele><time>2026-04-22T11:12:13Z</time></trkpt><trkpt lat="44.1470493" lon="10.3661579"><ele>369.0</ele><time>2026-04-22T11:12:14Z</time></trkpt><trkpt lat="44.146962" lon="10.3661641"><ele>369.0</ele><time>2026-04-22T11:12:15Z</time></trkpt><trkpt lat="44.1468871" lon="10.3661697"><ele>369.0</ele><time>2026-04-22T11:12:16Z</time></trkpt><trkpt lat="44.1468109" lon="10.3661811"><ele>369.0</ele><time>2026-04-22T11:12:17Z</time></trkpt><trkpt lat="44.1467381" lon="10.3661718"><ele>369.0</ele><time>2026-04-22T11:12:18Z</time></trkpt><trkpt lat="44.1466642" lon="10.3661529"><ele>369.0</ele><time>2026-04-22T11:12:19Z</time></trkpt><trkpt lat="44.1465819" lon="10.3661297"><ele>369.0</ele><time>2026-04-22T11:12:20Z</time></trkpt><trkpt lat="44.1464869" lon="10.3661166"><ele>369.0</ele><time>2026-04-22T11:12:21Z</time></trkpt><trkpt lat="44.1464032" lon="10.3660931"><ele>367.79999999999995</ele><time>2026-04-22T11:12:22Z</time></trkpt><trkpt lat="44.1463287" lon="10.3660792"><ele>366.59999999999997</ele><time>2026-04-22T11:12:23Z</time></trkpt><trkpt lat="44.1462187" lon="10.366117"><ele>365.4</ele><time>2026-04-22T11:12:25Z</time></trkpt><trkpt lat="44.1461375" lon="10.3662087"><ele>364.2</ele><time>2026-04-22T11:12:27Z</time></trkpt><trkpt lat="44.1460775" lon="10.3663362"><ele>363.0</ele><time>2026-04-22T11:12:29Z</time></trkpt><trkpt lat="44.1460168" lon="10.3664447"><ele>363.0</ele><time>2026-04-22T11:12:31Z</time></trkpt><trkpt lat="44.1459352" lon="10.3665772"><ele>363.0</ele><time>2026-04-22T11:12:33Z</time></trkpt><trkpt lat="44.1458656" lon="10.3666644"><ele>363.0</ele><time>2026-04-22T11:12:35Z</time></trkpt><trkpt lat="44.1458123" lon="10.3667136"><ele>363.0</ele><time>2026-04-22T11:12:37Z</time></trkpt><trkpt lat="44.145744" lon="10.3667674"><ele>363.0</ele><time>2026-04-22T11:12:39Z</time></trkpt><trkpt lat="44.1456837" lon="10.3668407"><ele>363.0</ele><time>2026-04-22T11:12:41Z</time></trkpt><trkpt lat="44.1456183" lon="10.3668923"><ele>360.71428571428567</ele><time>2026-04-22T11:12:43Z</time></trkpt><trkpt lat="44.1455421" lon="10.3669434"><ele>358.42857142857144</ele><time>2026-04-22T11:12:45Z</time></trkpt><trkpt lat="44.1454683" lon="10.3669668"><ele>356.1428571428571</ele><time>2026-04-22T11:12:47Z</time></trkpt><trkpt lat="44.1454002" lon="10.3669928"><ele>353.85714285714283</ele><time>2026-04-22T11:12:50Z</time></trkpt><trkpt lat="44.1453364" lon="10.3669905"><ele>351.57142857142856</ele><time>2026-04-22T11:12:53Z</time></trkpt><trkpt lat="44.1452584" lon="10.36697"><ele>349.2857142857143</ele><time>2026-04-22T11:12:55Z</time></trkpt><trkpt lat="44.1451939" lon="10.366958"><ele>347.0</ele><time>2026-04-22T11:12:56Z</time></trkpt><trkpt lat="44.1450974" lon="10.3669689"><ele>347.0</ele><time>2026-04-22T11:12:58Z</time></trkpt><trkpt lat="44.1450633" lon="10.367081"><ele>347.0</ele><time>2026-04-22T11:13:00Z</time></trkpt><trkpt lat="44.1450148" lon="10.3671603"><ele>347.0</ele><time>2026-04-22T11:13:02Z</time></trkpt><trkpt lat="44.1449672" lon="10.3672354"><ele>347.0</ele><time>2026-04-22T11:13:04Z</time></trkpt><trkpt lat="44.1449041" lon="10.3673182"><ele>347.0</ele><time>2026-04-22T11:13:07Z</time></trkpt><trkpt lat="44.1448402" lon="10.3673864"><ele>347.0</ele><time>2026-04-22T11:13:11Z</time></trkpt><trkpt lat="44.1447825" lon="10.3674245"><ele>346.42857142857144</ele><time>2026-04-22T11:13:14Z</time></trkpt><trkpt lat="44.1447329" lon="10.3674809"><ele>345.85714285714283</ele><time>2026-04-22T11:13:17Z</time></trkpt><trkpt lat="44.1446883" lon="10.3675449"><ele>345.2857142857143</ele><time>2026-04-22T11:13:20Z</time></trkpt><trkpt lat="44.1446371" lon="10.367611"><ele>344.7142857142857</ele><time>2026-04-22T11:13:24Z</time></trkpt><trkpt lat="44.144586" lon="10.3676699"><ele>344.1428571428571</ele><time>2026-04-22T11:13:27Z</time></trkpt><trkpt lat="44.1445133" lon="10.3677526"><ele>343.57142857142856</ele><time>2026-04-22T11:13:30Z</time></trkpt><trkpt lat="44.1444387" lon="10.3678147"><ele>343.0</ele><time>2026-04-22T11:13:32Z</time></trkpt><trkpt lat="44.1443611" lon="10.3678768"><ele>343.0</ele><time>2026-04-22T11:13:34Z</time></trkpt><trkpt lat="44.1442926" lon="10.3679441"><ele>343.0</ele><time>2026-04-22T11:13:36Z</time></trkpt><trkpt lat="44.1442192" lon="10.3680066"><ele>343.0</ele><time>2026-04-22T11:13:38Z</time></trkpt><trkpt lat="44.1441605" lon="10.3680478"><ele>343.0</ele><time>2026-04-22T11:13:39Z</time></trkpt><trkpt lat="44.1440634" lon="10.3680893"><ele>343.0</ele><time>2026-04-22T11:13:41Z</time></trkpt><trkpt lat="44.1439968" lon="10.3681727"><ele>343.0</ele><time>2026-04-22T11:13:43Z</time></trkpt><trkpt lat="44.143943" lon="10.3682829"><ele>344.16666666666663</ele><time>2026-04-22T11:13:45Z</time></trkpt><trkpt lat="44.1438668" lon="10.3683554"><ele>345.3333333333333</ele><time>2026-04-22T11:13:47Z</time></trkpt><trkpt lat="44.1437933" lon="10.3683705"><ele>346.5</ele><time>2026-04-22T11:13:49Z</time></trkpt><trkpt lat="44.1437145" lon="10.3683683"><ele>347.6666666666667</ele><time>2026-04-22T11:13:52Z</time></trkpt><trkpt lat="44.14365" lon="10.3683204"><ele>348.83333333333337</ele><time>2026-04-22T11:13:56Z</time></trkpt><trkpt lat="44.1435781" lon="10.3683002"><ele>350.0</ele><time>2026-04-22T11:14:00Z</time></trkpt><trkpt lat="44.143509" lon="10.3682575"><ele>350.0</ele><time>2026-04-22T11:14:05Z</time></trkpt><trkpt lat="44.1434476" lon="10.3682164"><ele>350.0</ele><time>2026-04-22T11:14:09Z</time></trkpt><trkpt lat="44.1433798" lon="10.3682347"><ele>350.0</ele><time>2026-04-22T11:14:13Z</time></trkpt><trkpt lat="44.1433316" lon="10.3683081"><ele>350.0</ele><time>2026-04-22T11:14:17Z</time></trkpt><trkpt lat="44.1432835" lon="10.3683782"><ele>350.0</ele><time>2026-04-22T11:14:21Z</time></trkpt><trkpt lat="44.1432366" lon="10.368462"><ele>350.0</ele><time>2026-04-22T11:14:25Z</time></trkpt><trkpt lat="44.1431947" lon="10.3685364"><ele>350.0</ele><time>2026-04-22T11:14:29Z</time></trkpt><trkpt lat="44.1431542" lon="10.3686079"><ele>350.0</ele><time>2026-04-22T11:14:33Z</time></trkpt><trkpt lat="44.1431084" lon="10.3686767"><ele>350.0</ele><time>2026-04-22T11:14:37Z</time></trkpt><trkpt lat="44.14306" lon="10.3687357"><ele>350.0</ele><time>2026-04-22T11:14:41Z</time></trkpt><trkpt lat="44.1430014" lon="10.3687889"><ele>350.0</ele><time>2026-04-22T11:14:45Z</time></trkpt><trkpt lat="44.142939" lon="10.368849"><ele>350.0</ele><time>2026-04-22T11:14:49Z</time></trkpt><trkpt lat="44.1428827" lon="10.3688924"><ele>350.0</ele><time>2026-04-22T11:14:52Z</time></trkpt><trkpt lat="44.1428067" lon="10.3689422"><ele>350.0</ele><time>2026-04-22T11:14:55Z</time></trkpt><trkpt lat="44.1427528" lon="10.3689913"><ele>350.0</ele><time>2026-04-22T11:14:57Z</time></trkpt><trkpt lat="44.1426997" lon="10.3690395"><ele>350.0</ele><time>2026-04-22T11:14:59Z</time></trkpt><trkpt lat="44.142646" lon="10.3690921"><ele>350.0</ele><time>2026-04-22T11:15:01Z</time></trkpt><trkpt lat="44.1425762" lon="10.3691638"><ele>350.0</ele><time>2026-04-22T11:15:04Z</time></trkpt><trkpt lat="44.1425189" lon="10.3692285"><ele>350.0</ele><time>2026-04-22T11:15:07Z</time></trkpt><trkpt lat="44.1424669" lon="10.3693141"><ele>350.0</ele><time>2026-04-22T11:15:11Z</time></trkpt><trkpt lat="44.1424164" lon="10.3693847"><ele>350.0</ele><time>2026-04-22T11:15:16Z</time></trkpt><trkpt lat="44.1423633" lon="10.369442"><ele>349.7142857142857</ele><time>2026-04-22T11:15:20Z</time></trkpt><trkpt lat="44.1423145" lon="10.3694978"><ele>349.42857142857144</ele><time>2026-04-22T11:15:24Z</time></trkpt><trkpt lat="44.1422653" lon="10.3695559"><ele>349.1428571428571</ele><time>2026-04-22T11:15:28Z</time></trkpt><trkpt lat="44.1422031" lon="10.3695823"><ele>348.8571428571429</ele><time>2026-04-22T11:15:32Z</time></trkpt><trkpt lat="44.1421267" lon="10.3696189"><ele>348.57142857142856</ele><time>2026-04-22T11:15:36Z</time></trkpt><trkpt lat="44.142055" lon="10.369649"><ele>348.2857142857143</ele><time>2026-04-22T11:15:39.999Z</time></trkpt><trkpt lat="44.1419972" lon="10.3697147"><ele>348.0</ele><time>2026-04-22T11:15:44Z</time></trkpt><trkpt lat="44.1419547" lon="10.3698251"><ele>348.0</ele><time>2026-04-22T11:15:47Z</time></trkpt><trkpt lat="44.141927" lon="10.3699385"><ele>348.0</ele><time>2026-04-22T11:15:49Z</time></trkpt><trkpt lat="44.1419106" lon="10.3700458"><ele>348.0</ele><time>2026-04-22T11:15:51Z</time></trkpt><trkpt lat="44.1419027" lon="10.370145"><ele>348.0</ele><time>2026-04-22T11:15:54Z</time></trkpt><trkpt lat="44.1418686" lon="10.3702351"><ele>348.0</ele><time>2026-04-22T11:15:58Z</time></trkpt><trkpt lat="44.1418234" lon="10.3703236"><ele>348.0</ele><time>2026-04-22T11:16:02Z</time></trkpt><trkpt lat="44.1417934" lon="10.370415"><ele>348.0</ele><time>2026-04-22T11:16:05Z</time></trkpt><trkpt lat="44.141757" lon="10.3705097"><ele>348.0</ele><time>2026-04-22T11:16:08Z</time></trkpt><trkpt lat="44.1417316" lon="10.3705957"><ele>348.0</ele><time>2026-04-22T11:16:11Z</time></trkpt><trkpt lat="44.141712" lon="10.3706986"><ele>348.0</ele><time>2026-04-22T11:16:15Z</time></trkpt><trkpt lat="44.141687" lon="10.3707847"><ele>348.0</ele><time>2026-04-22T11:16:18.046Z</time></trkpt><trkpt lat="44.1416627" lon="10.3708852"><ele>348.0</ele><time>2026-04-22T11:16:23.022Z</time></trkpt><trkpt lat="44.141649" lon="10.3709818"><ele>348.0</ele><time>2026-04-22T11:16:25.999Z</time></trkpt><trkpt lat="44.1416397" lon="10.3710756"><ele>350.0</ele><time>2026-04-22T11:16:29Z</time></trkpt><trkpt lat="44.1416234" lon="10.3711915"><ele>352.0</ele><time>2026-04-22T11:16:33Z</time></trkpt><trkpt lat="44.1416094" lon="10.3712816"><ele>354.0</ele><time>2026-04-22T11:16:36Z</time></trkpt><trkpt lat="44.1415965" lon="10.3713857"><ele>356.0</ele><time>2026-04-22T11:16:40Z</time></trkpt><trkpt lat="44.1415853" lon="10.3715038"><ele>358.0</ele><time>2026-04-22T11:16:43Z</time></trkpt><trkpt lat="44.1415686" lon="10.371601"><ele>360.0</ele><time>2026-04-22T11:16:45Z</time></trkpt><trkpt lat="44.1415563" lon="10.3716961"><ele>359.4</ele><time>2026-04-22T11:16:47Z</time></trkpt><trkpt lat="44.1415257" lon="10.3718141"><ele>358.8</ele><time>2026-04-22T11:16:50Z</time></trkpt><trkpt lat="44.141498" lon="10.371918"><ele>358.20000000000005</ele><time>2026-04-22T11:16:53Z</time></trkpt><trkpt lat="44.1414546" lon="10.3720467"><ele>357.6</ele><time>2026-04-22T11:16:56Z</time></trkpt><trkpt lat="44.1413744" lon="10.3721571"><ele>357.0</ele><time>2026-04-22T11:16:58Z</time></trkpt><trkpt lat="44.1412739" lon="10.3722593"><ele>357.0</ele><time>2026-04-22T11:17:00Z</time></trkpt><trkpt lat="44.141214" lon="10.3723081"><ele>357.0</ele><time>2026-04-22T11:17:01Z</time></trkpt><trkpt lat="44.1411469" lon="10.3723579"><ele>357.0</ele><time>2026-04-22T11:17:02Z</time></trkpt><trkpt lat="44.14107" lon="10.3723982"><ele>357.0</ele><time>2026-04-22T11:17:03Z</time></trkpt><trkpt lat="44.1409888" lon="10.3724377"><ele>357.0</ele><time>2026-04-22T11:17:04Z</time></trkpt><trkpt lat="44.1409041" lon="10.3724691"><ele>357.0</ele><time>2026-04-22T11:17:05Z</time></trkpt><trkpt lat="44.140821" lon="10.3725022"><ele>357.0</ele><time>2026-04-22T11:17:06Z</time></trkpt><trkpt lat="44.1407462" lon="10.3725449"><ele>357.0</ele><time>2026-04-22T11:17:07Z</time></trkpt><trkpt lat="44.1406852" lon="10.3725978"><ele>357.0</ele><time>2026-04-22T11:17:08Z</time></trkpt><trkpt lat="44.1406312" lon="10.3726671"><ele>357.0</ele><time>2026-04-22T11:17:09Z</time></trkpt><trkpt lat="44.1405796" lon="10.3727373"><ele>357.0</ele><time>2026-04-22T11:17:10Z</time></trkpt><trkpt lat="44.1405253" lon="10.3727905"><ele>357.0</ele><time>2026-04-22T11:17:11Z</time></trkpt><trkpt lat="44.1404722" lon="10.372838"><ele>357.0</ele><time>2026-04-22T11:17:12Z</time></trkpt><trkpt lat="44.1403782" lon="10.372907"><ele>356.5</ele><time>2026-04-22T11:17:14Z</time></trkpt><trkpt lat="44.1402989" lon="10.3729637"><ele>356.0</ele><time>2026-04-22T11:17:16Z</time></trkpt><trkpt lat="44.1402272" lon="10.373007"><ele>355.5</ele><time>2026-04-22T11:17:18Z</time></trkpt><trkpt lat="44.1401701" lon="10.3730617"><ele>355.0</ele><time>2026-04-22T11:17:21Z</time></trkpt><trkpt lat="44.140116" lon="10.3731092"><ele>354.5</ele><time>2026-04-22T11:17:24Z</time></trkpt><trkpt lat="44.1400541" lon="10.3731619"><ele>354.0</ele><time>2026-04-22T11:17:26Z</time></trkpt><trkpt lat="44.139976" lon="10.3732423"><ele>354.0</ele><time>2026-04-22T11:17:28Z</time></trkpt><trkpt lat="44.1399078" lon="10.3733435"><ele>354.0</ele><time>2026-04-22T11:17:30Z</time></trkpt><trkpt lat="44.1398447" lon="10.373458"><ele>354.0</ele><time>2026-04-22T11:17:32Z</time></trkpt><trkpt lat="44.1397736" lon="10.3735667"><ele>354.0</ele><time>2026-04-22T11:17:34Z</time></trkpt><trkpt lat="44.1396689" lon="10.3736074"><ele>354.0</ele><time>2026-04-22T11:17:36Z</time></trkpt><trkpt lat="44.1395622" lon="10.3736108"><ele>353.4</ele><time>2026-04-22T11:17:38Z</time></trkpt><trkpt lat="44.1394585" lon="10.3736516"><ele>352.79999999999995</ele><time>2026-04-22T11:17:40Z</time></trkpt><trkpt lat="44.1393683" lon="10.3737166"><ele>352.20000000000005</ele><time>2026-04-22T11:17:42Z</time></trkpt><trkpt lat="44.139294" lon="10.3737968"><ele>351.6</ele><time>2026-04-22T11:17:44Z</time></trkpt><trkpt lat="44.1392345" lon="10.3739006"><ele>351.0</ele><time>2026-04-22T11:17:46Z</time></trkpt><trkpt lat="44.1391938" lon="10.373969"><ele>351.0</ele><time>2026-04-22T11:17:47Z</time></trkpt><trkpt lat="44.13914" lon="10.3741083"><ele>351.0</ele><time>2026-04-22T11:17:49Z</time></trkpt><trkpt lat="44.1391139" lon="10.3742083"><ele>351.0</ele><time>2026-04-22T11:17:51Z</time></trkpt><trkpt lat="44.1390978" lon="10.3743144"><ele>351.0</ele><time>2026-04-22T11:17:53Z</time></trkpt><trkpt lat="44.1390912" lon="10.3744062"><ele>351.0</ele><time>2026-04-22T11:17:55Z</time></trkpt><trkpt lat="44.1390947" lon="10.3745012"><ele>351.0</ele><time>2026-04-22T11:17:58Z</time></trkpt><trkpt lat="44.1390751" lon="10.3745983"><ele>349.8571428571429</ele><time>2026-04-22T11:18:01Z</time></trkpt><trkpt lat="44.1390423" lon="10.3746857"><ele>348.7142857142857</ele><time>2026-04-22T11:18:04Z</time></trkpt><trkpt lat="44.1390256" lon="10.374784"><ele>347.57142857142856</ele><time>2026-04-22T11:18:07Z</time></trkpt><trkpt lat="44.1390115" lon="10.3748743"><ele>346.42857142857144</ele><time>2026-04-22T11:18:09Z</time></trkpt><trkpt lat="44.1389897" lon="10.3749675"><ele>345.2857142857143</ele><time>2026-04-22T11:18:11Z</time></trkpt><trkpt lat="44.1389617" lon="10.3750653"><ele>344.14285714285717</ele><time>2026-04-22T11:18:13Z</time></trkpt><trkpt lat="44.1389285" lon="10.3751559"><ele>343.0</ele><time>2026-04-22T11:18:15Z</time></trkpt><trkpt lat="44.1388862" lon="10.3752447"><ele>343.0</ele><time>2026-04-22T11:18:17Z</time></trkpt><trkpt lat="44.1388485" lon="10.3753297"><ele>343.0</ele><time>2026-04-22T11:18:19Z</time></trkpt><trkpt lat="44.1387974" lon="10.3754579"><ele>343.0</ele><time>2026-04-22T11:18:21Z</time></trkpt><trkpt lat="44.1387417" lon="10.3755913"><ele>343.0</ele><time>2026-04-22T11:18:23Z</time></trkpt><trkpt lat="44.1386919" lon="10.3757116"><ele>343.0</ele><time>2026-04-22T11:18:25Z</time></trkpt><trkpt lat="44.1386367" lon="10.3758026"><ele>344.14285714285717</ele><time>2026-04-22T11:18:27Z</time></trkpt><trkpt lat="44.1385969" lon="10.3758823"><ele>345.2857142857143</ele><time>2026-04-22T11:18:29Z</time></trkpt><trkpt lat="44.1385496" lon="10.3759646"><ele>346.42857142857144</ele><time>2026-04-22T11:18:32Z</time></trkpt><trkpt lat="44.138497" lon="10.3760233"><ele>347.57142857142856</ele><time>2026-04-22T11:18:35Z</time></trkpt><trkpt lat="44.138453" lon="10.3760878"><ele>348.7142857142857</ele><time>2026-04-22T11:18:39Z</time></trkpt><trkpt lat="44.1384101" lon="10.3761593"><ele>349.8571428571429</ele><time>2026-04-22T11:18:42Z</time></trkpt><trkpt lat="44.1383662" lon="10.3762488"><ele>351.0</ele><time>2026-04-22T11:18:44Z</time></trkpt><trkpt lat="44.1383212" lon="10.3763147"><ele>349.0</ele><time>2026-04-22T11:18:45Z</time></trkpt><trkpt lat="44.1382117" lon="10.3763908"><ele>347.0</ele><time>2026-04-22T11:18:47Z</time></trkpt><trkpt lat="44.1381496" lon="10.3764317"><ele>345.0</ele><time>2026-04-22T11:18:48Z</time></trkpt><trkpt lat="44.1380799" lon="10.3764771"><ele>343.0</ele><time>2026-04-22T11:18:49Z</time></trkpt><trkpt lat="44.1380051" lon="10.3765154"><ele>341.0</ele><time>2026-04-22T11:18:50Z</time></trkpt><trkpt lat="44.1379257" lon="10.3765486"><ele>339.0</ele><time>2026-04-22T11:18:51Z</time></trkpt><trkpt lat="44.1378523" lon="10.3765848"><ele>339.0</ele><time>2026-04-22T11:18:52Z</time></trkpt><trkpt lat="44.1377818" lon="10.3766218"><ele>339.0</ele><time>2026-04-22T11:18:53Z</time></trkpt><trkpt lat="44.1376824" lon="10.3766796"><ele>339.0</ele><time>2026-04-22T11:18:55Z</time></trkpt><trkpt lat="44.1376366" lon="10.3767606"><ele>339.0</ele><time>2026-04-22T11:18:57Z</time></trkpt><trkpt lat="44.137645" lon="10.3768839"><ele>339.0</ele><time>2026-04-22T11:18:59Z</time></trkpt><trkpt lat="44.1376788" lon="10.3770324"><ele>339.0</ele><time>2026-04-22T11:19:01Z</time></trkpt><trkpt lat="44.1376918" lon="10.377182"><ele>339.0</ele><time>2026-04-22T11:19:03Z</time></trkpt><trkpt lat="44.1376803" lon="10.3773014"><ele>339.0</ele><time>2026-04-22T11:19:05Z</time></trkpt><trkpt lat="44.1376428" lon="10.3774275"><ele>339.0</ele><time>2026-04-22T11:19:07Z</time></trkpt><trkpt lat="44.1375842" lon="10.3775673"><ele>339.0</ele><time>2026-04-22T11:19:09Z</time></trkpt><trkpt lat="44.1375388" lon="10.3776417"><ele>339.0</ele><time>2026-04-22T11:19:10Z</time></trkpt><trkpt lat="44.1374815" lon="10.3777171"><ele>339.0</ele><time>2026-04-22T11:19:11Z</time></trkpt><trkpt lat="44.1374168" lon="10.3777835"><ele>339.0</ele><time>2026-04-22T11:19:12Z</time></trkpt><trkpt lat="44.1373522" lon="10.3778464"><ele>339.0</ele><time>2026-04-22T11:19:13Z</time></trkpt><trkpt lat="44.137289" lon="10.3778997"><ele>339.0</ele><time>2026-04-22T11:19:14Z</time></trkpt><trkpt lat="44.137234" lon="10.3779531"><ele>339.0</ele><time>2026-04-22T11:19:15Z</time></trkpt><trkpt lat="44.1371754" lon="10.3780066"><ele>339.0</ele><time>2026-04-22T11:19:16Z</time></trkpt><trkpt lat="44.1371101" lon="10.3780475"><ele>338.1666666666667</ele><time>2026-04-22T11:19:17Z</time></trkpt><trkpt lat="44.1370394" lon="10.3780506"><ele>337.3333333333333</ele><time>2026-04-22T11:19:18Z</time></trkpt><trkpt lat="44.1369621" lon="10.3780337"><ele>336.5</ele><time>2026-04-22T11:19:19Z</time></trkpt><trkpt lat="44.1368885" lon="10.3779862"><ele>335.66666666666663</ele><time>2026-04-22T11:19:20Z</time></trkpt><trkpt lat="44.1368227" lon="10.3779228"><ele>334.8333333333333</ele><time>2026-04-22T11:19:21Z</time></trkpt><trkpt lat="44.1367531" lon="10.3778428"><ele>334.0</ele><time>2026-04-22T11:19:22Z</time></trkpt><trkpt lat="44.1366811" lon="10.3777647"><ele>333.16666666666663</ele><time>2026-04-22T11:19:23Z</time></trkpt><trkpt lat="44.1366064" lon="10.3777122"><ele>332.3333333333333</ele><time>2026-04-22T11:19:24Z</time></trkpt><trkpt lat="44.1365328" lon="10.3776834"><ele>331.5</ele><time>2026-04-22T11:19:25Z</time></trkpt><trkpt lat="44.1364558" lon="10.3776823"><ele>330.6666666666667</ele><time>2026-04-22T11:19:26Z</time></trkpt><trkpt lat="44.1363806" lon="10.3776935"><ele>329.83333333333337</ele><time>2026-04-22T11:19:27Z</time></trkpt><trkpt lat="44.1363118" lon="10.3777594"><ele>329.0</ele><time>2026-04-22T11:19:28Z</time></trkpt><trkpt lat="44.1362216" lon="10.3778224"><ele>328.83333333333337</ele><time>2026-04-22T11:19:29Z</time></trkpt><trkpt lat="44.1361398" lon="10.3778743"><ele>328.6666666666667</ele><time>2026-04-22T11:19:30Z</time></trkpt><trkpt lat="44.1360787" lon="10.3779076"><ele>328.5</ele><time>2026-04-22T11:19:31Z</time></trkpt><trkpt lat="44.1360171" lon="10.3779542"><ele>328.3333333333333</ele><time>2026-04-22T11:19:32Z</time></trkpt><trkpt lat="44.1359599" lon="10.3780302"><ele>328.16666666666663</ele><time>2026-04-22T11:19:33Z</time></trkpt><trkpt lat="44.1359133" lon="10.3781211"><ele>328.0</ele><time>2026-04-22T11:19:34Z</time></trkpt><trkpt lat="44.1358804" lon="10.3782104"><ele>328.0</ele><time>2026-04-22T11:19:35Z</time></trkpt><trkpt lat="44.1358237" lon="10.3782752"><ele>328.0</ele><time>2026-04-22T11:19:37Z</time></trkpt><trkpt lat="44.1357454" lon="10.3782381"><ele>328.0</ele><time>2026-04-22T11:19:39Z</time></trkpt><trkpt lat="44.1356363" lon="10.3781704"><ele>328.0</ele><time>2026-04-22T11:19:41Z</time></trkpt><trkpt lat="44.1355737" lon="10.3781283"><ele>328.0</ele><time>2026-04-22T11:19:42Z</time></trkpt><trkpt lat="44.1355102" lon="10.378096"><ele>328.0</ele><time>2026-04-22T11:19:43Z</time></trkpt><trkpt lat="44.1354536" lon="10.3780504"><ele>326.71428571428567</ele><time>2026-04-22T11:19:44Z</time></trkpt><trkpt lat="44.1353923" lon="10.3779985"><ele>325.42857142857144</ele><time>2026-04-22T11:19:45Z</time></trkpt><trkpt lat="44.135332" lon="10.377945"><ele>324.1428571428571</ele><time>2026-04-22T11:19:46Z</time></trkpt><trkpt lat="44.1352681" lon="10.3778932"><ele>322.85714285714283</ele><time>2026-04-22T11:19:47Z</time></trkpt><trkpt lat="44.1352066" lon="10.3778432"><ele>321.57142857142856</ele><time>2026-04-22T11:19:48Z</time></trkpt><trkpt lat="44.135144" lon="10.3777882"><ele>320.2857142857143</ele><time>2026-04-22T11:19:49Z</time></trkpt><trkpt lat="44.1350689" lon="10.3777454"><ele>319.0</ele><time>2026-04-22T11:19:50Z</time></trkpt><trkpt lat="44.1349916" lon="10.3776859"><ele>319.0</ele><time>2026-04-22T11:19:51Z</time></trkpt><trkpt lat="44.1349221" lon="10.3776281"><ele>319.0</ele><time>2026-04-22T11:19:52Z</time></trkpt><trkpt lat="44.1348623" lon="10.3775822"><ele>319.0</ele><time>2026-04-22T11:19:53Z</time></trkpt><trkpt lat="44.1347861" lon="10.3775692"><ele>319.0</ele><time>2026-04-22T11:19:54Z</time></trkpt><trkpt lat="44.1347137" lon="10.3775821"><ele>319.0</ele><time>2026-04-22T11:19:55Z</time></trkpt><trkpt lat="44.1346287" lon="10.3776073"><ele>319.0</ele><time>2026-04-22T11:19:56Z</time></trkpt><trkpt lat="44.1345417" lon="10.3776339"><ele>318.8333333333333</ele><time>2026-04-22T11:19:57Z</time></trkpt><trkpt lat="44.1344572" lon="10.3776741"><ele>318.66666666666663</ele><time>2026-04-22T11:19:58Z</time></trkpt><trkpt lat="44.134375" lon="10.377726"><ele>318.5</ele><time>2026-04-22T11:19:59Z</time></trkpt><trkpt lat="44.134303" lon="10.3777803"><ele>318.3333333333333</ele><time>2026-04-22T11:20:00Z</time></trkpt><trkpt lat="44.1342449" lon="10.3778514"><ele>318.1666666666667</ele><time>2026-04-22T11:20:01Z</time></trkpt><trkpt lat="44.1342231" lon="10.3779729"><ele>318.0</ele><time>2026-04-22T11:20:02Z</time></trkpt><trkpt lat="44.1341914" lon="10.3780592"><ele>318.0</ele><time>2026-04-22T11:20:03Z</time></trkpt><trkpt lat="44.1341648" lon="10.3781477"><ele>318.0</ele><time>2026-04-22T11:20:04Z</time></trkpt><trkpt lat="44.1341352" lon="10.3782277"><ele>318.0</ele><time>2026-04-22T11:20:05Z</time></trkpt><trkpt lat="44.134094" lon="10.37838"><ele>318.0</ele><time>2026-04-22T11:20:07Z</time></trkpt><trkpt lat="44.134065" lon="10.3785301"><ele>318.0</ele><time>2026-04-22T11:20:09Z</time></trkpt><trkpt lat="44.1340504" lon="10.378685"><ele>317.2</ele><time>2026-04-22T11:20:11Z</time></trkpt><trkpt lat="44.1340436" lon="10.3788264"><ele>316.4</ele><time>2026-04-22T11:20:13Z</time></trkpt><trkpt lat="44.1340302" lon="10.3789607"><ele>315.59999999999997</ele><time>2026-04-22T11:20:15Z</time></trkpt><trkpt lat="44.1340148" lon="10.3790908"><ele>314.8</ele><time>2026-04-22T11:20:17Z</time></trkpt><trkpt lat="44.1339964" lon="10.3792277"><ele>314.0</ele><time>2026-04-22T11:20:19Z</time></trkpt><trkpt lat="44.1339935" lon="10.3793554"><ele>314.0</ele><time>2026-04-22T11:20:21Z</time></trkpt><trkpt lat="44.1340213" lon="10.3794678"><ele>314.0</ele><time>2026-04-22T11:20:23Z</time></trkpt><trkpt lat="44.1340403" lon="10.3795812"><ele>314.0</ele><time>2026-04-22T11:20:25Z</time></trkpt><trkpt lat="44.1340531" lon="10.3796958"><ele>314.0</ele><time>2026-04-22T11:20:27Z</time></trkpt><trkpt lat="44.1340643" lon="10.3798034"><ele>314.0</ele><time>2026-04-22T11:20:29Z</time></trkpt><trkpt lat="44.1340715" lon="10.3799183"><ele>314.0</ele><time>2026-04-22T11:20:31Z</time></trkpt><trkpt lat="44.1340923" lon="10.3800182"><ele>314.2857142857143</ele><time>2026-04-22T11:20:33Z</time></trkpt><trkpt lat="44.1341025" lon="10.3801309"><ele>314.57142857142856</ele><time>2026-04-22T11:20:35Z</time></trkpt><trkpt lat="44.1341026" lon="10.3802457"><ele>314.8571428571429</ele><time>2026-04-22T11:20:37Z</time></trkpt><trkpt lat="44.1340895" lon="10.3803516"><ele>315.1428571428571</ele><time>2026-04-22T11:20:39Z</time></trkpt><trkpt lat="44.1340744" lon="10.3804421"><ele>315.42857142857144</ele><time>2026-04-22T11:20:41Z</time></trkpt><trkpt lat="44.1340749" lon="10.3805329"><ele>315.7142857142857</ele><time>2026-04-22T11:20:43Z</time></trkpt><trkpt lat="44.1340836" lon="10.3806374"><ele>316.0</ele><time>2026-04-22T11:20:45Z</time></trkpt><trkpt lat="44.1340931" lon="10.38074"><ele>316.00000000000006</ele><time>2026-04-22T11:20:47Z</time></trkpt><trkpt lat="44.1340989" lon="10.3808429"><ele>316.0</ele><time>2026-04-22T11:20:49Z</time></trkpt><trkpt lat="44.1341068" lon="10.380931"><ele>316.0</ele><time>2026-04-22T11:20:51Z</time></trkpt><trkpt lat="44.1341177" lon="10.3810279"><ele>316.0</ele><time>2026-04-22T11:20:53Z</time></trkpt><trkpt lat="44.1341675" lon="10.3811082"><ele>316.0</ele><time>2026-04-22T11:20:55Z</time></trkpt><trkpt lat="44.1342339" lon="10.3811303"><ele>316.00000000000006</ele><time>2026-04-22T11:20:57Z</time></trkpt><trkpt lat="44.1343016" lon="10.3812202"><ele>316.0</ele><time>2026-04-22T11:21:00Z</time></trkpt><trkpt lat="44.1343408" lon="10.3813454"><ele>316.0</ele><time>2026-04-22T11:21:03Z</time></trkpt><trkpt lat="44.1343563" lon="10.381445"><ele>316.0</ele><time>2026-04-22T11:21:05Z</time></trkpt><trkpt lat="44.1343801" lon="10.3815521"><ele>316.0</ele><time>2026-04-22T11:21:07Z</time></trkpt><trkpt lat="44.1343953" lon="10.3816478"><ele>316.0</ele><time>2026-04-22T11:21:09Z</time></trkpt><trkpt lat="44.1343864" lon="10.3817445"><ele>316.0</ele><time>2026-04-22T11:21:11Z</time></trkpt><trkpt lat="44.1343872" lon="10.381866"><ele>316.0</ele><time>2026-04-22T11:21:14Z</time></trkpt><trkpt lat="44.1343904" lon="10.3819612"><ele>316.0</ele><time>2026-04-22T11:21:16Z</time></trkpt><trkpt lat="44.1343707" lon="10.382046"><ele>316.0</ele><time>2026-04-22T11:21:18Z</time></trkpt><trkpt lat="44.1343446" lon="10.3821297"><ele>316.0</ele><time>2026-04-22T11:21:20Z</time></trkpt><trkpt lat="44.1343087" lon="10.3822403"><ele>316.0</ele><time>2026-04-22T11:21:23Z</time></trkpt><trkpt lat="44.1342862" lon="10.3823538"><ele>316.0</ele><time>2026-04-22T11:21:26Z</time></trkpt><trkpt lat="44.134269" lon="10.3824654"><ele>316.0</ele><time>2026-04-22T11:21:28Z</time></trkpt><trkpt lat="44.1342305" lon="10.3825862"><ele>316.14285714285717</ele><time>2026-04-22T11:21:30Z</time></trkpt><trkpt lat="44.134177" lon="10.3826646"><ele>316.2857142857143</ele><time>2026-04-22T11:21:32Z</time></trkpt><trkpt lat="44.1341284" lon="10.3827269"><ele>316.42857142857144</ele><time>2026-04-22T11:21:34Z</time></trkpt><trkpt lat="44.1340881" lon="10.382799"><ele>316.57142857142856</ele><time>2026-04-22T11:21:36Z</time></trkpt><trkpt lat="44.1340577" lon="10.3828784"><ele>316.7142857142857</ele><time>2026-04-22T11:21:38Z</time></trkpt><trkpt lat="44.1340161" lon="10.3829612"><ele>316.8571428571429</ele><time>2026-04-22T11:21:40Z</time></trkpt><trkpt lat="44.1339503" lon="10.3830125"><ele>317.0</ele><time>2026-04-22T11:21:42Z</time></trkpt><trkpt lat="44.1338832" lon="10.3830428"><ele>316.1666666666667</ele><time>2026-04-22T11:21:44Z</time></trkpt><trkpt lat="44.1338256" lon="10.3831194"><ele>315.33333333333337</ele><time>2026-04-22T11:21:47Z</time></trkpt><trkpt lat="44.1337706" lon="10.3831947"><ele>314.5</ele><time>2026-04-22T11:21:50Z</time></trkpt><trkpt lat="44.1337392" lon="10.3832791"><ele>313.6666666666667</ele><time>2026-04-22T11:21:52Z</time></trkpt><trkpt lat="44.1336947" lon="10.3833513"><ele>312.8333333333333</ele><time>2026-04-22T11:21:53Z</time></trkpt><trkpt lat="44.1336046" lon="10.3834587"><ele>312.0</ele><time>2026-04-22T11:21:55Z</time></trkpt><trkpt lat="44.1335156" lon="10.3835595"><ele>312.0</ele><time>2026-04-22T11:21:57Z</time></trkpt><trkpt lat="44.1334401" lon="10.3836358"><ele>312.0</ele><time>2026-04-22T11:21:59Z</time></trkpt><trkpt lat="44.1333811" lon="10.3837181"><ele>312.0</ele><time>2026-04-22T11:22:01Z</time></trkpt><trkpt lat="44.1333263" lon="10.3837919"><ele>312.0</ele><time>2026-04-22T11:22:03Z</time></trkpt><trkpt lat="44.1332905" lon="10.3838754"><ele>312.0</ele><time>2026-04-22T11:22:05Z</time></trkpt><trkpt lat="44.1332605" lon="10.3839561"><ele>312.0</ele><time>2026-04-22T11:22:08Z</time></trkpt><trkpt lat="44.1331979" lon="10.383925"><ele>312.5</ele><time>2026-04-22T11:22:12Z</time></trkpt><trkpt lat="44.1331098" lon="10.3838822"><ele>313.0</ele><time>2026-04-22T11:22:15Z</time></trkpt><trkpt lat="44.1330391" lon="10.3838927"><ele>313.5</ele><time>2026-04-22T11:22:17Z</time></trkpt><trkpt lat="44.1329696" lon="10.3839335"><ele>314.0</ele><time>2026-04-22T11:22:19Z</time></trkpt><trkpt lat="44.1329062" lon="10.3839867"><ele>314.5</ele><time>2026-04-22T11:22:21Z</time></trkpt><trkpt lat="44.1328506" lon="10.3840291"><ele>315.0</ele><time>2026-04-22T11:22:23Z</time></trkpt><trkpt lat="44.1327607" lon="10.3840373"><ele>315.0</ele><time>2026-04-22T11:22:26Z</time></trkpt><trkpt lat="44.1326783" lon="10.3840115"><ele>315.0</ele><time>2026-04-22T11:22:29Z</time></trkpt><trkpt lat="44.132592" lon="10.3840061"><ele>315.0</ele><time>2026-04-22T11:22:32Z</time></trkpt><trkpt lat="44.1325121" lon="10.3840408"><ele>315.0</ele><time>2026-04-22T11:22:35Z</time></trkpt><trkpt lat="44.1324591" lon="10.3841062"><ele>315.0</ele><time>2026-04-22T11:22:38Z</time></trkpt><trkpt lat="44.1324014" lon="10.384201"><ele>315.0</ele><time>2026-04-22T11:22:42Z</time></trkpt><trkpt lat="44.1323956" lon="10.3842922"><ele>315.0</ele><time>2026-04-22T11:22:44Z</time></trkpt><trkpt lat="44.1323903" lon="10.3843864"><ele>315.0</ele><time>2026-04-22T11:22:46Z</time></trkpt><trkpt lat="44.1323825" lon="10.3844783"><ele>315.0</ele><time>2026-04-22T11:22:47.999Z</time></trkpt><trkpt lat="44.1323777" lon="10.3845682"><ele>315.0</ele><time>2026-04-22T11:22:50Z</time></trkpt><trkpt lat="44.1323733" lon="10.3846565"><ele>315.0</ele><time>2026-04-22T11:22:52Z</time></trkpt><trkpt lat="44.132369" lon="10.3847814"><ele>315.0</ele><time>2026-04-22T11:22:55Z</time></trkpt><trkpt lat="44.132363" lon="10.3848702"><ele>315.0</ele><time>2026-04-22T11:22:57Z</time></trkpt><trkpt lat="44.1323597" lon="10.3849589"><ele>314.85714285714283</ele><time>2026-04-22T11:22:59Z</time></trkpt><trkpt lat="44.1323552" lon="10.3850482"><ele>314.7142857142857</ele><time>2026-04-22T11:23:01Z</time></trkpt><trkpt lat="44.1323504" lon="10.3851399"><ele>314.57142857142856</ele><time>2026-04-22T11:23:03Z</time></trkpt><trkpt lat="44.1323496" lon="10.3852283"><ele>314.42857142857144</ele><time>2026-04-22T11:23:05Z</time></trkpt><trkpt lat="44.1323604" lon="10.3853558"><ele>314.2857142857143</ele><time>2026-04-22T11:23:08Z</time></trkpt><trkpt lat="44.1324007" lon="10.385463"><ele>314.1428571428571</ele><time>2026-04-22T11:23:11Z</time></trkpt><trkpt lat="44.1323978" lon="10.3855668"><ele>314.0</ele><time>2026-04-22T11:23:14Z</time></trkpt><trkpt lat="44.1323704" lon="10.3856796"><ele>313.33333333333337</ele><time>2026-04-22T11:23:17Z</time></trkpt><trkpt lat="44.1323418" lon="10.3857969"><ele>312.6666666666667</ele><time>2026-04-22T11:23:20Z</time></trkpt><trkpt lat="44.1323172" lon="10.3859193"><ele>312.0</ele><time>2026-04-22T11:23:23Z</time></trkpt><trkpt lat="44.1322953" lon="10.3860328"><ele>311.3333333333333</ele><time>2026-04-22T11:23:26Z</time></trkpt><trkpt lat="44.1322751" lon="10.3861208"><ele>310.66666666666663</ele><time>2026-04-22T11:23:29Z</time></trkpt><trkpt lat="44.1322351" lon="10.3861994"><ele>310.0</ele><time>2026-04-22T11:23:34Z</time></trkpt><trkpt lat="44.1322633" lon="10.386091"><ele>310.0</ele><time>2026-04-22T11:23:45Z</time></trkpt><trkpt lat="44.1322934" lon="10.3859801"><ele>310.0</ele><time>2026-04-22T11:23:48Z</time></trkpt><trkpt lat="44.1323233" lon="10.3858551"><ele>310.0</ele><time>2026-04-22T11:23:51Z</time></trkpt><trkpt lat="44.1323542" lon="10.3857439"><ele>310.0</ele><time>2026-04-22T11:23:54Z</time></trkpt><trkpt lat="44.1323764" lon="10.3856438"><ele>310.0</ele><time>2026-04-22T11:23:57Z</time></trkpt><trkpt lat="44.1323989" lon="10.3855552"><ele>310.0</ele><time>2026-04-22T11:24:00Z</time></trkpt><trkpt lat="44.1324077" lon="10.385451"><ele>310.0</ele><time>2026-04-22T11:24:04Z</time></trkpt><trkpt lat="44.1323368" lon="10.3854598"><ele>310.0</ele><time>2026-04-22T11:24:07Z</time></trkpt><trkpt lat="44.1322946" lon="10.3855481"><ele>310.0</ele><time>2026-04-22T11:24:10Z</time></trkpt><trkpt lat="44.1322594" lon="10.3856649"><ele>310.0</ele><time>2026-04-22T11:24:13Z</time></trkpt><trkpt lat="44.1322336" lon="10.3857458"><ele>310.0</ele><time>2026-04-22T11:24:15Z</time></trkpt><trkpt lat="44.1322074" lon="10.385827"><ele>310.0</ele><time>2026-04-22T11:24:17Z</time></trkpt><trkpt lat="44.1321762" lon="10.3859054"><ele>310.0</ele><time>2026-04-22T11:24:19Z</time></trkpt><trkpt lat="44.1321447" lon="10.3859834"><ele>310.0</ele><time>2026-04-22T11:24:21Z</time></trkpt><trkpt lat="44.1321035" lon="10.3860993"><ele>310.0</ele><time>2026-04-22T11:24:24Z</time></trkpt><trkpt lat="44.132064" lon="10.3862185"><ele>310.0</ele><time>2026-04-22T11:24:27Z</time></trkpt><trkpt lat="44.1320355" lon="10.3863016"><ele>310.0</ele><time>2026-04-22T11:24:29Z</time></trkpt><trkpt lat="44.1320012" lon="10.3863786"><ele>310.0</ele><time>2026-04-22T11:24:31Z</time></trkpt><trkpt lat="44.1319646" lon="10.3864536"><ele>310.0</ele><time>2026-04-22T11:24:33Z</time></trkpt><trkpt lat="44.1319271" lon="10.3865282"><ele>310.0</ele><time>2026-04-22T11:24:35Z</time></trkpt><trkpt lat="44.1318816" lon="10.3865992"><ele>310.2857142857143</ele><time>2026-04-22T11:24:37Z</time></trkpt><trkpt lat="44.1318403" lon="10.3866654"><ele>310.57142857142856</ele><time>2026-04-22T11:24:39Z</time></trkpt><trkpt lat="44.1317993" lon="10.3867374"><ele>310.8571428571429</ele><time>2026-04-22T11:24:41Z</time></trkpt><trkpt lat="44.1317512" lon="10.3868123"><ele>311.1428571428571</ele><time>2026-04-22T11:24:43Z</time></trkpt><trkpt lat="44.1317102" lon="10.3868841"><ele>311.4285714285714</ele><time>2026-04-22T11:24:45Z</time></trkpt><trkpt lat="44.1316573" lon="10.3869757"><ele>311.7142857142857</ele><time>2026-04-22T11:24:48Z</time></trkpt><trkpt lat="44.1316321" lon="10.3870842"><ele>312.0</ele><time>2026-04-22T11:24:51Z</time></trkpt><trkpt lat="44.1316841" lon="10.3871903"><ele>312.3333333333333</ele><time>2026-04-22T11:24:54Z</time></trkpt><trkpt lat="44.1317375" lon="10.387254"><ele>312.6666666666667</ele><time>2026-04-22T11:24:55.999Z</time></trkpt><trkpt lat="44.1317901" lon="10.3873261"><ele>313.0</ele><time>2026-04-22T11:24:58Z</time></trkpt><trkpt lat="44.1318517" lon="10.3874294"><ele>313.33333333333337</ele><time>2026-04-22T11:25:00Z</time></trkpt><trkpt lat="44.1318959" lon="10.387538"><ele>313.6666666666667</ele><time>2026-04-22T11:25:02Z</time></trkpt><trkpt lat="44.1319118" lon="10.3876383"><ele>314.0</ele><time>2026-04-22T11:25:05Z</time></trkpt><trkpt lat="44.1319045" lon="10.3877666"><ele>313.99999999999994</ele><time>2026-04-22T11:25:09Z</time></trkpt><trkpt lat="44.1318858" lon="10.3878641"><ele>314.0</ele><time>2026-04-22T11:25:11Z</time></trkpt><trkpt lat="44.1318601" lon="10.3879503"><ele>314.0</ele><time>2026-04-22T11:25:15Z</time></trkpt><trkpt lat="44.1318353" lon="10.3880329"><ele>314.0</ele><time>2026-04-22T11:25:17Z</time></trkpt><trkpt lat="44.1318163" lon="10.3881191"><ele>314.0</ele><time>2026-04-22T11:25:18Z</time></trkpt><trkpt lat="44.1317889" lon="10.3882163"><ele>313.99999999999994</ele><time>2026-04-22T11:25:19Z</time></trkpt><trkpt lat="44.1317541" lon="10.388307"><ele>314.0</ele><time>2026-04-22T11:25:20Z</time></trkpt><trkpt lat="44.1317116" lon="10.3883771"><ele>314.33333333333337</ele><time>2026-04-22T11:25:21Z</time></trkpt><trkpt lat="44.1316121" lon="10.3884451"><ele>314.6666666666667</ele><time>2026-04-22T11:25:23Z</time></trkpt><trkpt lat="44.1315695" lon="10.3885208"><ele>315.0</ele><time>2026-04-22T11:25:25Z</time></trkpt><trkpt lat="44.131608" lon="10.3886053"><ele>315.3333333333333</ele><time>2026-04-22T11:25:30Z</time></trkpt><trkpt lat="44.1316749" lon="10.3886568"><ele>315.66666666666663</ele><time>2026-04-22T11:25:35Z</time></trkpt><trkpt lat="44.131719" lon="10.3887271"><ele>316.0</ele><time>2026-04-22T11:25:40Z</time></trkpt><trkpt lat="44.1317445" lon="10.388813"><ele>317.00000000000006</ele><time>2026-04-22T11:25:45Z</time></trkpt><trkpt lat="44.1317159" lon="10.3888927"><ele>318.0</ele><time>2026-04-22T11:25:50Z</time></trkpt><trkpt lat="44.1316587" lon="10.3889592"><ele>319.0</ele><time>2026-04-22T11:25:57Z</time></trkpt><trkpt lat="44.1316009" lon="10.388996"><ele>320.0</ele><time>2026-04-22T11:26:02Z</time></trkpt><trkpt lat="44.1315476" lon="10.3890452"><ele>321.0</ele><time>2026-04-22T11:26:07Z</time></trkpt><trkpt lat="44.1314839" lon="10.3891011"><ele>322.00000000000006</ele><time>2026-04-22T11:26:12Z</time></trkpt><trkpt lat="44.1314169" lon="10.3891525"><ele>323.0</ele><time>2026-04-22T11:26:17Z</time></trkpt><trkpt lat="44.1313547" lon="10.3892035"><ele>323.00000000000006</ele><time>2026-04-22T11:26:21Z</time></trkpt><trkpt lat="44.1312941" lon="10.3892684"><ele>323.0</ele><time>2026-04-22T11:26:25Z</time></trkpt><trkpt lat="44.1312272" lon="10.389325"><ele>323.0</ele><time>2026-04-22T11:26:29Z</time></trkpt><trkpt lat="44.1311592" lon="10.3893939"><ele>323.0</ele><time>2026-04-22T11:26:33Z</time></trkpt><trkpt lat="44.1311099" lon="10.3894485"><ele>323.0</ele><time>2026-04-22T11:26:36Z</time></trkpt><trkpt lat="44.1310476" lon="10.3895179"><ele>323.00000000000006</ele><time>2026-04-22T11:26:40Z</time></trkpt><trkpt lat="44.1309941" lon="10.3895712"><ele>323.0</ele><time>2026-04-22T11:26:43Z</time></trkpt><trkpt lat="44.1309309" lon="10.3896264"><ele>322.7142857142857</ele><time>2026-04-22T11:26:46Z</time></trkpt><trkpt lat="44.13088" lon="10.3896829"><ele>322.42857142857144</ele><time>2026-04-22T11:26:49Z</time></trkpt><trkpt lat="44.130828" lon="10.3897529"><ele>322.1428571428571</ele><time>2026-04-22T11:26:52Z</time></trkpt><trkpt lat="44.1307796" lon="10.3898196"><ele>321.8571428571429</ele><time>2026-04-22T11:26:55Z</time></trkpt><trkpt lat="44.1307306" lon="10.3898934"><ele>321.57142857142856</ele><time>2026-04-22T11:26:58Z</time></trkpt><trkpt lat="44.1306935" lon="10.3899771"><ele>321.2857142857143</ele><time>2026-04-22T11:27:01Z</time></trkpt><trkpt lat="44.130657" lon="10.390064"><ele>321.0</ele><time>2026-04-22T11:27:04Z</time></trkpt><trkpt lat="44.1306408" lon="10.3901569"><ele>320.99999999999994</ele><time>2026-04-22T11:27:07Z</time></trkpt><trkpt lat="44.1306404" lon="10.3902555"><ele>321.0</ele><time>2026-04-22T11:27:10Z</time></trkpt><trkpt lat="44.130635" lon="10.3903603"><ele>321.0</ele><time>2026-04-22T11:27:13Z</time></trkpt><trkpt lat="44.1306345" lon="10.3904642"><ele>321.0</ele><time>2026-04-22T11:27:15.999Z</time></trkpt><trkpt lat="44.130641" lon="10.390565"><ele>321.0</ele><time>2026-04-22T11:27:19Z</time></trkpt><trkpt lat="44.1306449" lon="10.3906613"><ele>320.99999999999994</ele><time>2026-04-22T11:27:22Z</time></trkpt><trkpt lat="44.1306698" lon="10.3907578"><ele>321.0</ele><time>2026-04-22T11:27:25Z</time></trkpt><trkpt lat="44.1307053" lon="10.3908496"><ele>323.5</ele><time>2026-04-22T11:27:28Z</time></trkpt><trkpt lat="44.1307442" lon="10.3909342"><ele>326.0</ele><time>2026-04-22T11:27:31Z</time></trkpt><trkpt lat="44.130781" lon="10.3910125"><ele>328.5</ele><time>2026-04-22T11:27:34Z</time></trkpt><trkpt lat="44.1308242" lon="10.391091"><ele>331.0</ele><time>2026-04-22T11:27:37Z</time></trkpt><trkpt lat="44.130865" lon="10.3911828"><ele>333.5</ele><time>2026-04-22T11:27:40Z</time></trkpt><trkpt lat="44.1309002" lon="10.3912882"><ele>336.0</ele><time>2026-04-22T11:27:43Z</time></trkpt><trkpt lat="44.1309276" lon="10.3914007"><ele>337.0</ele><time>2026-04-22T11:27:46Z</time></trkpt><trkpt lat="44.1309429" lon="10.3915212"><ele>338.0</ele><time>2026-04-22T11:27:49Z</time></trkpt><trkpt lat="44.1309463" lon="10.3916409"><ele>339.0</ele><time>2026-04-22T11:27:52Z</time></trkpt><trkpt lat="44.1309339" lon="10.3917526"><ele>340.0</ele><time>2026-04-22T11:27:55Z</time></trkpt><trkpt lat="44.1309096" lon="10.3918537"><ele>341.0</ele><time>2026-04-22T11:27:58Z</time></trkpt><trkpt lat="44.1308712" lon="10.3919338"><ele>342.0</ele><time>2026-04-22T11:28:01Z</time></trkpt><trkpt lat="44.1307936" lon="10.3919431"><ele>341.20000000000005</ele><time>2026-04-22T11:28:04Z</time></trkpt><trkpt lat="44.1306952" lon="10.3919379"><ele>340.4</ele><time>2026-04-22T11:28:07Z</time></trkpt><trkpt lat="44.1306067" lon="10.3919505"><ele>339.6</ele><time>2026-04-22T11:28:09Z</time></trkpt><trkpt lat="44.130508" lon="10.3919713"><ele>338.79999999999995</ele><time>2026-04-22T11:28:11Z</time></trkpt><trkpt lat="44.1304019" lon="10.3919981"><ele>338.0</ele><time>2026-04-22T11:28:13Z</time></trkpt><trkpt lat="44.1302835" lon="10.3920159"><ele>338.0</ele><time>2026-04-22T11:28:15Z</time></trkpt><trkpt lat="44.1301579" lon="10.3920431"><ele>338.0</ele><time>2026-04-22T11:28:17Z</time></trkpt><trkpt lat="44.1300936" lon="10.3920584"><ele>338.0</ele><time>2026-04-22T11:28:18Z</time></trkpt><trkpt lat="44.1300276" lon="10.3920748"><ele>338.0</ele><time>2026-04-22T11:28:19Z</time></trkpt><trkpt lat="44.129955" lon="10.3920948"><ele>338.0</ele><time>2026-04-22T11:28:20Z</time></trkpt><trkpt lat="44.1298876" lon="10.3921198"><ele>338.0</ele><time>2026-04-22T11:28:21Z</time></trkpt><trkpt lat="44.1298216" lon="10.392149"><ele>337.5</ele><time>2026-04-22T11:28:22Z</time></trkpt><trkpt lat="44.1297573" lon="10.3921862"><ele>337.0</ele><time>2026-04-22T11:28:23Z</time></trkpt><trkpt lat="44.1296945" lon="10.3922386"><ele>336.5</ele><time>2026-04-22T11:28:24Z</time></trkpt><trkpt lat="44.1296329" lon="10.3923"><ele>336.0</ele><time>2026-04-22T11:28:25Z</time></trkpt><trkpt lat="44.1295744" lon="10.3923686"><ele>335.5</ele><time>2026-04-22T11:28:26Z</time></trkpt><trkpt lat="44.1295193" lon="10.3924489"><ele>335.0</ele><time>2026-04-22T11:28:27Z</time></trkpt><trkpt lat="44.1294685" lon="10.3925317"><ele>335.0</ele><time>2026-04-22T11:28:28Z</time></trkpt><trkpt lat="44.1294224" lon="10.3926156"><ele>335.0</ele><time>2026-04-22T11:28:29Z</time></trkpt><trkpt lat="44.1293762" lon="10.3927036"><ele>335.0</ele><time>2026-04-22T11:28:30Z</time></trkpt><trkpt lat="44.1293256" lon="10.3927867"><ele>335.0</ele><time>2026-04-22T11:28:31Z</time></trkpt><trkpt lat="44.1292749" lon="10.3928702"><ele>335.0</ele><time>2026-04-22T11:28:32Z</time></trkpt><trkpt lat="44.1292211" lon="10.3929509"><ele>335.0</ele><time>2026-04-22T11:28:33Z</time></trkpt><trkpt lat="44.1291646" lon="10.3930289"><ele>334.6666666666667</ele><time>2026-04-22T11:28:34Z</time></trkpt><trkpt lat="44.1291016" lon="10.3931032"><ele>334.33333333333337</ele><time>2026-04-22T11:28:35Z</time></trkpt><trkpt lat="44.1290371" lon="10.393167"><ele>334.0</ele><time>2026-04-22T11:28:36Z</time></trkpt><trkpt lat="44.128974" lon="10.3932293"><ele>333.6666666666667</ele><time>2026-04-22T11:28:37Z</time></trkpt><trkpt lat="44.1289051" lon="10.3932895"><ele>333.3333333333333</ele><time>2026-04-22T11:28:38Z</time></trkpt><trkpt lat="44.1288349" lon="10.3933424"><ele>333.0</ele><time>2026-04-22T11:28:39Z</time></trkpt><trkpt lat="44.1287613" lon="10.3933926"><ele>333.0</ele><time>2026-04-22T11:28:40Z</time></trkpt><trkpt lat="44.1286854" lon="10.3934366"><ele>333.0</ele><time>2026-04-22T11:28:41Z</time></trkpt><trkpt lat="44.1286054" lon="10.3934688"><ele>333.0</ele><time>2026-04-22T11:28:42Z</time></trkpt><trkpt lat="44.1285263" lon="10.3934972"><ele>333.0</ele><time>2026-04-22T11:28:43Z</time></trkpt><trkpt lat="44.1284438" lon="10.3935253"><ele>333.0</ele><time>2026-04-22T11:28:44Z</time></trkpt><trkpt lat="44.1283641" lon="10.3935558"><ele>333.0</ele><time>2026-04-22T11:28:45Z</time></trkpt><trkpt lat="44.1282816" lon="10.3935887"><ele>331.3333333333333</ele><time>2026-04-22T11:28:46Z</time></trkpt><trkpt lat="44.128198" lon="10.3936198"><ele>329.6666666666667</ele><time>2026-04-22T11:28:47Z</time></trkpt><trkpt lat="44.1281199" lon="10.3936547"><ele>328.0</ele><time>2026-04-22T11:28:48Z</time></trkpt><trkpt lat="44.1280401" lon="10.3936884"><ele>326.33333333333337</ele><time>2026-04-22T11:28:49Z</time></trkpt><trkpt lat="44.1279613" lon="10.3937184"><ele>324.6666666666667</ele><time>2026-04-22T11:28:50Z</time></trkpt><trkpt lat="44.1278849" lon="10.3937682"><ele>323.0</ele><time>2026-04-22T11:28:51Z</time></trkpt><trkpt lat="44.1278158" lon="10.3938383"><ele>323.1666666666667</ele><time>2026-04-22T11:28:52Z</time></trkpt><trkpt lat="44.1277561" lon="10.3939218"><ele>323.33333333333337</ele><time>2026-04-22T11:28:53Z</time></trkpt><trkpt lat="44.1277163" lon="10.394019"><ele>323.5</ele><time>2026-04-22T11:28:54Z</time></trkpt><trkpt lat="44.1276904" lon="10.3941289"><ele>323.6666666666667</ele><time>2026-04-22T11:28:55Z</time></trkpt><trkpt lat="44.1276732" lon="10.3942459"><ele>323.8333333333333</ele><time>2026-04-22T11:28:56Z</time></trkpt><trkpt lat="44.1276602" lon="10.3943636"><ele>324.0</ele><time>2026-04-22T11:28:57Z</time></trkpt><trkpt lat="44.127644" lon="10.3944845"><ele>324.0</ele><time>2026-04-22T11:28:58Z</time></trkpt><trkpt lat="44.1276294" lon="10.3946075"><ele>324.0</ele><time>2026-04-22T11:28:59Z</time></trkpt><trkpt lat="44.1276138" lon="10.3947313"><ele>324.0</ele><time>2026-04-22T11:29:00Z</time></trkpt><trkpt lat="44.1275982" lon="10.3948538"><ele>324.0</ele><time>2026-04-22T11:29:01Z</time></trkpt><trkpt lat="44.1275845" lon="10.3949789"><ele>324.0</ele><time>2026-04-22T11:29:02Z</time></trkpt><trkpt lat="44.1275719" lon="10.3951022"><ele>324.0</ele><time>2026-04-22T11:29:03Z</time></trkpt><trkpt lat="44.1275592" lon="10.3952244"><ele>324.1666666666667</ele><time>2026-04-22T11:29:04Z</time></trkpt><trkpt lat="44.1275464" lon="10.3953472"><ele>324.3333333333333</ele><time>2026-04-22T11:29:05Z</time></trkpt><trkpt lat="44.1275351" lon="10.3954665"><ele>324.5</ele><time>2026-04-22T11:29:06Z</time></trkpt><trkpt lat="44.1275238" lon="10.395582"><ele>324.66666666666663</ele><time>2026-04-22T11:29:07Z</time></trkpt><trkpt lat="44.1275023" lon="10.3956956"><ele>324.8333333333333</ele><time>2026-04-22T11:29:08Z</time></trkpt><trkpt lat="44.1274726" lon="10.3958025"><ele>325.0</ele><time>2026-04-22T11:29:09Z</time></trkpt><trkpt lat="44.127435" lon="10.3959038"><ele>325.8333333333333</ele><time>2026-04-22T11:29:10Z</time></trkpt><trkpt lat="44.1273946" lon="10.3959961"><ele>326.66666666666663</ele><time>2026-04-22T11:29:11Z</time></trkpt><trkpt lat="44.1273512" lon="10.3960896"><ele>327.5</ele><time>2026-04-22T11:29:12Z</time></trkpt><trkpt lat="44.1273035" lon="10.3961755"><ele>328.3333333333333</ele><time>2026-04-22T11:29:13Z</time></trkpt><trkpt lat="44.1272579" lon="10.3962624"><ele>329.1666666666667</ele><time>2026-04-22T11:29:14Z</time></trkpt><trkpt lat="44.12721" lon="10.39635"><ele>330.0</ele><time>2026-04-22T11:29:15Z</time></trkpt><trkpt lat="44.127167" lon="10.3964355"><ele>328.0</ele><time>2026-04-22T11:29:16Z</time></trkpt><trkpt lat="44.1271188" lon="10.3965244"><ele>326.0</ele><time>2026-04-22T11:29:17Z</time></trkpt><trkpt lat="44.1270725" lon="10.3966148"><ele>324.0</ele><time>2026-04-22T11:29:18Z</time></trkpt><trkpt lat="44.1270263" lon="10.3967029"><ele>322.0</ele><time>2026-04-22T11:29:19Z</time></trkpt><trkpt lat="44.1269792" lon="10.3967923"><ele>320.0</ele><time>2026-04-22T11:29:20Z</time></trkpt><trkpt lat="44.1269365" lon="10.3968879"><ele>318.0</ele><time>2026-04-22T11:29:21Z</time></trkpt><trkpt lat="44.1268934" lon="10.3969811"><ele>318.0</ele><time>2026-04-22T11:29:22Z</time></trkpt><trkpt lat="44.1268438" lon="10.3970699"><ele>318.0</ele><time>2026-04-22T11:29:23Z</time></trkpt><trkpt lat="44.1267948" lon="10.3971618"><ele>318.0</ele><time>2026-04-22T11:29:24Z</time></trkpt><trkpt lat="44.1267491" lon="10.3972537"><ele>318.0</ele><time>2026-04-22T11:29:25Z</time></trkpt><trkpt lat="44.1266977" lon="10.3973419"><ele>318.0</ele><time>2026-04-22T11:29:26Z</time></trkpt><trkpt lat="44.1266429" lon="10.3974271"><ele>318.0</ele><time>2026-04-22T11:29:27Z</time></trkpt><trkpt lat="44.1265874" lon="10.3975128"><ele>318.6666666666667</ele><time>2026-04-22T11:29:28Z</time></trkpt><trkpt lat="44.1265383" lon="10.3975992"><ele>319.3333333333333</ele><time>2026-04-22T11:29:29Z</time></trkpt><trkpt lat="44.1264995" lon="10.3977006"><ele>320.0</ele><time>2026-04-22T11:29:30Z</time></trkpt><trkpt lat="44.1264929" lon="10.3977982"><ele>320.66666666666663</ele><time>2026-04-22T11:29:31Z</time></trkpt><trkpt lat="44.1265087" lon="10.3978977"><ele>321.3333333333333</ele><time>2026-04-22T11:29:32Z</time></trkpt><trkpt lat="44.1265434" lon="10.3979912"><ele>322.0</ele><time>2026-04-22T11:29:33Z</time></trkpt><trkpt lat="44.126586" lon="10.3980797"><ele>322.0</ele><time>2026-04-22T11:29:34Z</time></trkpt><trkpt lat="44.1266255" lon="10.3981664"><ele>322.0</ele><time>2026-04-22T11:29:35Z</time></trkpt><trkpt lat="44.126663" lon="10.3982545"><ele>322.0</ele><time>2026-04-22T11:29:36Z</time></trkpt><trkpt lat="44.1267016" lon="10.3983406"><ele>322.0</ele><time>2026-04-22T11:29:37Z</time></trkpt><trkpt lat="44.1267394" lon="10.3984268"><ele>322.0</ele><time>2026-04-22T11:29:38Z</time></trkpt><trkpt lat="44.1267786" lon="10.3985163"><ele>322.0</ele><time>2026-04-22T11:29:39Z</time></trkpt><trkpt lat="44.1268107" lon="10.3986064"><ele>322.0</ele><time>2026-04-22T11:29:40Z</time></trkpt><trkpt lat="44.1268451" lon="10.3986978"><ele>322.0</ele><time>2026-04-22T11:29:41Z</time></trkpt><trkpt lat="44.1268844" lon="10.3987878"><ele>322.0</ele><time>2026-04-22T11:29:42Z</time></trkpt><trkpt lat="44.126921" lon="10.3988841"><ele>322.0</ele><time>2026-04-22T11:29:43Z</time></trkpt><trkpt lat="44.1269649" lon="10.3989789"><ele>322.0</ele><time>2026-04-22T11:29:44Z</time></trkpt><trkpt lat="44.1270111" lon="10.399073"><ele>322.0</ele><time>2026-04-22T11:29:45Z</time></trkpt><trkpt lat="44.1270378" lon="10.3991811"><ele>322.0</ele><time>2026-04-22T11:29:46Z</time></trkpt><trkpt lat="44.1270555" lon="10.3992901"><ele>320.66666666666663</ele><time>2026-04-22T11:29:47Z</time></trkpt><trkpt lat="44.12701" lon="10.3994032"><ele>319.3333333333333</ele><time>2026-04-22T11:29:48Z</time></trkpt><trkpt lat="44.1269562" lon="10.3994737"><ele>318.0</ele><time>2026-04-22T11:29:49Z</time></trkpt><trkpt lat="44.1268934" lon="10.3995162"><ele>316.6666666666667</ele><time>2026-04-22T11:29:50Z</time></trkpt><trkpt lat="44.1268295" lon="10.399547"><ele>315.33333333333337</ele><time>2026-04-22T11:29:51Z</time></trkpt><trkpt lat="44.126769" lon="10.3995718"><ele>314.0</ele><time>2026-04-22T11:29:52Z</time></trkpt><trkpt lat="44.1266593" lon="10.3996243"><ele>314.0</ele><time>2026-04-22T11:29:54Z</time></trkpt><trkpt lat="44.1265715" lon="10.3996486"><ele>314.0</ele><time>2026-04-22T11:29:56Z</time></trkpt><trkpt lat="44.1265021" lon="10.3996836"><ele>314.0</ele><time>2026-04-22T11:29:58Z</time></trkpt><trkpt lat="44.1264323" lon="10.3997102"><ele>314.0</ele><time>2026-04-22T11:30:00Z</time></trkpt><trkpt lat="44.1263428" lon="10.3997464"><ele>314.0</ele><time>2026-04-22T11:30:03Z</time></trkpt><trkpt lat="44.1262528" lon="10.399786"><ele>314.0</ele><time>2026-04-22T11:30:06Z</time></trkpt><trkpt lat="44.126166" lon="10.3998254"><ele>314.85714285714283</ele><time>2026-04-22T11:30:09Z</time></trkpt><trkpt lat="44.126103" lon="10.3998543"><ele>315.7142857142857</ele><time>2026-04-22T11:30:11Z</time></trkpt><trkpt lat="44.1260423" lon="10.3998837"><ele>316.57142857142856</ele><time>2026-04-22T11:30:13Z</time></trkpt><trkpt lat="44.1259897" lon="10.3999326"><ele>317.42857142857144</ele><time>2026-04-22T11:30:15Z</time></trkpt><trkpt lat="44.1259146" lon="10.4000098"><ele>318.2857142857143</ele><time>2026-04-22T11:30:18Z</time></trkpt><trkpt lat="44.1258742" lon="10.4000779"><ele>319.1428571428571</ele><time>2026-04-22T11:30:20Z</time></trkpt><trkpt lat="44.1258616" lon="10.4001644"><ele>320.0</ele><time>2026-04-22T11:30:22Z</time></trkpt><trkpt lat="44.1258859" lon="10.4002498"><ele>320.0</ele><time>2026-04-22T11:30:24Z</time></trkpt><trkpt lat="44.1259296" lon="10.4003398"><ele>320.0</ele><time>2026-04-22T11:30:27Z</time></trkpt><trkpt lat="44.1258988" lon="10.40043"><ele>320.0</ele><time>2026-04-22T11:30:31Z</time></trkpt><trkpt lat="44.1258309" lon="10.4004266"><ele>320.0</ele><time>2026-04-22T11:30:35Z</time></trkpt><trkpt lat="44.1258031" lon="10.4003277"><ele>320.0</ele><time>2026-04-22T11:30:38Z</time></trkpt><trkpt lat="44.1257886" lon="10.4002202"><ele>320.0</ele><time>2026-04-22T11:30:41Z</time></trkpt><trkpt lat="44.1257808" lon="10.4001204"><ele>320.0</ele><time>2026-04-22T11:30:44Z</time></trkpt><trkpt lat="44.1257688" lon="10.4000243"><ele>320.0</ele><time>2026-04-22T11:30:47Z</time></trkpt><trkpt lat="44.1257604" lon="10.4001244"><ele>320.0</ele><time>2026-04-22T11:30:53Z</time></trkpt><trkpt lat="44.1257764" lon="10.4002197"><ele>320.0</ele><time>2026-04-22T11:30:56Z</time></trkpt><trkpt lat="44.1257785" lon="10.4003148"><ele>320.0</ele><time>2026-04-22T11:31:00Z</time></trkpt><trkpt lat="44.1257102" lon="10.400342"><ele>320.0</ele><time>2026-04-22T11:31:04Z</time></trkpt><trkpt lat="44.1256435" lon="10.40037"><ele>320.0</ele><time>2026-04-22T11:31:08Z</time></trkpt><trkpt lat="44.1256558" lon="10.4004614"><ele>320.0</ele><time>2026-04-22T11:31:11Z</time></trkpt><trkpt lat="44.1256523" lon="10.4005766"><ele>320.0</ele><time>2026-04-22T11:31:14Z</time></trkpt><trkpt lat="44.125591" lon="10.4006411"><ele>320.0</ele><time>2026-04-22T11:31:16Z</time></trkpt><trkpt lat="44.1255276" lon="10.4007328"><ele>320.0</ele><time>2026-04-22T11:31:18Z</time></trkpt><trkpt lat="44.1254574" lon="10.4008496"><ele>320.0</ele><time>2026-04-22T11:31:20Z</time></trkpt><trkpt lat="44.1254147" lon="10.4009416"><ele>320.0</ele><time>2026-04-22T11:31:22Z</time></trkpt><trkpt lat="44.1253383" lon="10.4009836"><ele>320.0</ele><time>2026-04-22T11:31:26Z</time></trkpt><trkpt lat="44.1252747" lon="10.4010449"><ele>320.0</ele><time>2026-04-22T11:31:29Z</time></trkpt><trkpt lat="44.1252122" lon="10.4011358"><ele>320.0</ele><time>2026-04-22T11:31:32Z</time></trkpt><trkpt lat="44.125169" lon="10.4012"><ele>320.0</ele><time>2026-04-22T11:31:34Z</time></trkpt><trkpt lat="44.1251276" lon="10.4012685"><ele>320.0</ele><time>2026-04-22T11:31:36Z</time></trkpt><trkpt lat="44.125089" lon="10.4013401"><ele>320.0</ele><time>2026-04-22T11:31:38Z</time></trkpt><trkpt lat="44.1250463" lon="10.4014073"><ele>320.0</ele><time>2026-04-22T11:31:40Z</time></trkpt><trkpt lat="44.1249997" lon="10.4014727"><ele>320.0</ele><time>2026-04-22T11:31:42Z</time></trkpt><trkpt lat="44.1249567" lon="10.4015414"><ele>319.85714285714283</ele><time>2026-04-22T11:31:44Z</time></trkpt><trkpt lat="44.1249205" lon="10.4016143"><ele>319.7142857142857</ele><time>2026-04-22T11:31:46Z</time></trkpt><trkpt lat="44.1248802" lon="10.4016894"><ele>319.57142857142856</ele><time>2026-04-22T11:31:48Z</time></trkpt><trkpt lat="44.1248372" lon="10.4017635"><ele>319.42857142857144</ele><time>2026-04-22T11:31:50Z</time></trkpt><trkpt lat="44.1247919" lon="10.4018358"><ele>319.2857142857143</ele><time>2026-04-22T11:31:52Z</time></trkpt><trkpt lat="44.1247494" lon="10.4019117"><ele>319.14285714285717</ele><time>2026-04-22T11:31:54Z</time></trkpt><trkpt lat="44.1247012" lon="10.401985"><ele>319.0</ele><time>2026-04-22T11:31:56Z</time></trkpt><trkpt lat="44.1246541" lon="10.4020631"><ele>319.0</ele><time>2026-04-22T11:31:58Z</time></trkpt><trkpt lat="44.1246051" lon="10.4021362"><ele>319.0</ele><time>2026-04-22T11:32:00Z</time></trkpt><trkpt lat="44.1245611" lon="10.4022143"><ele>319.0</ele><time>2026-04-22T11:32:02Z</time></trkpt><trkpt lat="44.124515" lon="10.4022918"><ele>319.0</ele><time>2026-04-22T11:32:04Z</time></trkpt><trkpt lat="44.12447" lon="10.4023662"><ele>319.0</ele><time>2026-04-22T11:32:06Z</time></trkpt><trkpt lat="44.1244282" lon="10.4024443"><ele>319.0</ele><time>2026-04-22T11:32:08Z</time></trkpt><trkpt lat="44.1243805" lon="10.4025266"><ele>319.0</ele><time>2026-04-22T11:32:10Z</time></trkpt><trkpt lat="44.1243301" lon="10.402605"><ele>319.3333333333333</ele><time>2026-04-22T11:32:12Z</time></trkpt><trkpt lat="44.124275" lon="10.4026789"><ele>319.66666666666663</ele><time>2026-04-22T11:32:14Z</time></trkpt><trkpt lat="44.1242188" lon="10.4027523"><ele>320.0</ele><time>2026-04-22T11:32:16Z</time></trkpt><trkpt lat="44.1241726" lon="10.4028309"><ele>320.3333333333333</ele><time>2026-04-22T11:32:18Z</time></trkpt><trkpt lat="44.1241232" lon="10.4029062"><ele>320.6666666666667</ele><time>2026-04-22T11:32:20Z</time></trkpt><trkpt lat="44.1240709" lon="10.402985"><ele>321.0</ele><time>2026-04-22T11:32:22Z</time></trkpt><trkpt lat="44.1240227" lon="10.4030694"><ele>321.0</ele><time>2026-04-22T11:32:24Z</time></trkpt><trkpt lat="44.1239731" lon="10.4031528"><ele>321.0</ele><time>2026-04-22T11:32:26Z</time></trkpt><trkpt lat="44.1239212" lon="10.4032328"><ele>321.0</ele><time>2026-04-22T11:32:28Z</time></trkpt><trkpt lat="44.12387" lon="10.4033154"><ele>321.0</ele><time>2026-04-22T11:32:30Z</time></trkpt><trkpt lat="44.1238199" lon="10.403396"><ele>321.0</ele><time>2026-04-22T11:32:32Z</time></trkpt><trkpt lat="44.1237735" lon="10.403483"><ele>321.0</ele><time>2026-04-22T11:32:34Z</time></trkpt><trkpt lat="44.1237232" lon="10.4035659"><ele>320.99999999999994</ele><time>2026-04-22T11:32:36Z</time></trkpt><trkpt lat="44.1236701" lon="10.4036446"><ele>321.0</ele><time>2026-04-22T11:32:38Z</time></trkpt><trkpt lat="44.1236195" lon="10.4037227"><ele>321.0</ele><time>2026-04-22T11:32:40Z</time></trkpt><trkpt lat="44.1235742" lon="10.4038035"><ele>321.0</ele><time>2026-04-22T11:32:42Z</time></trkpt><trkpt lat="44.1235253" lon="10.4038735"><ele>321.0</ele><time>2026-04-22T11:32:44Z</time></trkpt><trkpt lat="44.1234773" lon="10.403954"><ele>320.99999999999994</ele><time>2026-04-22T11:32:46Z</time></trkpt><trkpt lat="44.1234304" lon="10.4040345"><ele>321.0</ele><time>2026-04-22T11:32:48Z</time></trkpt><trkpt lat="44.1233835" lon="10.4041106"><ele>320.99999999999994</ele><time>2026-04-22T11:32:50Z</time></trkpt><trkpt lat="44.1233362" lon="10.4041852"><ele>321.0</ele><time>2026-04-22T11:32:52Z</time></trkpt><trkpt lat="44.1232889" lon="10.4042605"><ele>321.0</ele><time>2026-04-22T11:32:54Z</time></trkpt><trkpt lat="44.1232393" lon="10.4043377"><ele>321.0</ele><time>2026-04-22T11:32:56Z</time></trkpt><trkpt lat="44.1231928" lon="10.404416"><ele>321.0</ele><time>2026-04-22T11:32:58Z</time></trkpt><trkpt lat="44.1231481" lon="10.4044991"><ele>320.99999999999994</ele><time>2026-04-22T11:33:00Z</time></trkpt><trkpt lat="44.123101" lon="10.4045815"><ele>321.0</ele><time>2026-04-22T11:33:02Z</time></trkpt><trkpt lat="44.1230551" lon="10.4046627"><ele>321.3333333333333</ele><time>2026-04-22T11:33:04Z</time></trkpt><trkpt lat="44.1230102" lon="10.404747"><ele>321.6666666666667</ele><time>2026-04-22T11:33:06Z</time></trkpt><trkpt lat="44.1229621" lon="10.4048302"><ele>322.0</ele><time>2026-04-22T11:33:08Z</time></trkpt><trkpt lat="44.1229141" lon="10.4049095"><ele>322.33333333333337</ele><time>2026-04-22T11:33:10Z</time></trkpt><trkpt lat="44.1228622" lon="10.4049898"><ele>322.6666666666667</ele><time>2026-04-22T11:33:12Z</time></trkpt><trkpt lat="44.1228107" lon="10.4050697"><ele>323.0</ele><time>2026-04-22T11:33:14Z</time></trkpt><trkpt lat="44.1227635" lon="10.4051525"><ele>323.0</ele><time>2026-04-22T11:33:16Z</time></trkpt><trkpt lat="44.1227116" lon="10.4052279"><ele>323.0</ele><time>2026-04-22T11:33:18Z</time></trkpt><trkpt lat="44.1226599" lon="10.4053094"><ele>323.0</ele><time>2026-04-22T11:33:20Z</time></trkpt><trkpt lat="44.1226082" lon="10.4053962"><ele>323.0</ele><time>2026-04-22T11:33:22Z</time></trkpt><trkpt lat="44.1225627" lon="10.4054785"><ele>323.0</ele><time>2026-04-22T11:33:24Z</time></trkpt><trkpt lat="44.1225132" lon="10.4055615"><ele>323.0</ele><time>2026-04-22T11:33:26Z</time></trkpt><trkpt lat="44.1224654" lon="10.4056415"><ele>323.1666666666667</ele><time>2026-04-22T11:33:28Z</time></trkpt><trkpt lat="44.1224148" lon="10.4057222"><ele>323.33333333333337</ele><time>2026-04-22T11:33:30Z</time></trkpt><trkpt lat="44.122366" lon="10.4058045"><ele>323.5</ele><time>2026-04-22T11:33:32Z</time></trkpt><trkpt lat="44.1223144" lon="10.4058843"><ele>323.6666666666667</ele><time>2026-04-22T11:33:34Z</time></trkpt><trkpt lat="44.1222628" lon="10.4059663"><ele>323.8333333333333</ele><time>2026-04-22T11:33:36Z</time></trkpt><trkpt lat="44.1222157" lon="10.4060535"><ele>324.0</ele><time>2026-04-22T11:33:38Z</time></trkpt><trkpt lat="44.1221641" lon="10.4061438"><ele>323.5</ele><time>2026-04-22T11:33:40Z</time></trkpt><trkpt lat="44.1221048" lon="10.4062286"><ele>323.0</ele><time>2026-04-22T11:33:42Z</time></trkpt><trkpt lat="44.1220497" lon="10.4063166"><ele>322.5</ele><time>2026-04-22T11:33:44Z</time></trkpt><trkpt lat="44.1219959" lon="10.4064073"><ele>322.0</ele><time>2026-04-22T11:33:46Z</time></trkpt><trkpt lat="44.1219397" lon="10.4064958"><ele>321.5</ele><time>2026-04-22T11:33:48Z</time></trkpt><trkpt lat="44.1218845" lon="10.406585"><ele>321.0</ele><time>2026-04-22T11:33:50Z</time></trkpt><trkpt lat="44.1218344" lon="10.4066813"><ele>321.0</ele><time>2026-04-22T11:33:52Z</time></trkpt><trkpt lat="44.1217798" lon="10.4067717"><ele>321.0</ele><time>2026-04-22T11:33:54Z</time></trkpt><trkpt lat="44.1217186" lon="10.40686"><ele>321.0</ele><time>2026-04-22T11:33:56Z</time></trkpt><trkpt lat="44.1216648" lon="10.4069561"><ele>321.0</ele><time>2026-04-22T11:33:58Z</time></trkpt><trkpt lat="44.1216089" lon="10.4070495"><ele>321.0</ele><time>2026-04-22T11:34:00Z</time></trkpt><trkpt lat="44.1215512" lon="10.4071414"><ele>321.0</ele><time>2026-04-22T11:34:02Z</time></trkpt><trkpt lat="44.1214912" lon="10.407236"><ele>320.1666666666667</ele><time>2026-04-22T11:34:04Z</time></trkpt><trkpt lat="44.1214344" lon="10.407333"><ele>319.3333333333333</ele><time>2026-04-22T11:34:06Z</time></trkpt><trkpt lat="44.1213778" lon="10.407429"><ele>318.5</ele><time>2026-04-22T11:34:07.999Z</time></trkpt><trkpt lat="44.1213206" lon="10.4075181"><ele>317.66666666666663</ele><time>2026-04-22T11:34:10Z</time></trkpt><trkpt lat="44.1212638" lon="10.4076001"><ele>316.8333333333333</ele><time>2026-04-22T11:34:12Z</time></trkpt><trkpt lat="44.1212119" lon="10.4076889"><ele>316.0</ele><time>2026-04-22T11:34:14Z</time></trkpt><trkpt lat="44.1211599" lon="10.4077811"><ele>316.0</ele><time>2026-04-22T11:34:16Z</time></trkpt><trkpt lat="44.1211013" lon="10.4078619"><ele>316.0</ele><time>2026-04-22T11:34:18Z</time></trkpt><trkpt lat="44.1210443" lon="10.4079468"><ele>316.0</ele><time>2026-04-22T11:34:20Z</time></trkpt><trkpt lat="44.1209901" lon="10.4080388"><ele>316.0</ele><time>2026-04-22T11:34:22Z</time></trkpt><trkpt lat="44.1209365" lon="10.4081279"><ele>316.0</ele><time>2026-04-22T11:34:24Z</time></trkpt><trkpt lat="44.1208838" lon="10.4082207"><ele>316.0</ele><time>2026-04-22T11:34:26Z</time></trkpt><trkpt lat="44.1208304" lon="10.4083154"><ele>316.3333333333333</ele><time>2026-04-22T11:34:28Z</time></trkpt><trkpt lat="44.1207797" lon="10.4084069"><ele>316.66666666666663</ele><time>2026-04-22T11:34:30Z</time></trkpt><trkpt lat="44.1207281" lon="10.4084967"><ele>317.0</ele><time>2026-04-22T11:34:32Z</time></trkpt><trkpt lat="44.1206752" lon="10.4085851"><ele>317.3333333333333</ele><time>2026-04-22T11:34:34Z</time></trkpt><trkpt lat="44.1206232" lon="10.4086772"><ele>317.6666666666667</ele><time>2026-04-22T11:34:36Z</time></trkpt><trkpt lat="44.1205668" lon="10.4087572"><ele>318.0</ele><time>2026-04-22T11:34:38Z</time></trkpt><trkpt lat="44.1205188" lon="10.4088392"><ele>318.0</ele><time>2026-04-22T11:34:40Z</time></trkpt><trkpt lat="44.1205143" lon="10.4089585"><ele>318.0</ele><time>2026-04-22T11:34:43Z</time></trkpt><trkpt lat="44.1205738" lon="10.4090163"><ele>318.0</ele><time>2026-04-22T11:34:45Z</time></trkpt><trkpt lat="44.1206557" lon="10.4090338"><ele>318.0</ele><time>2026-04-22T11:34:47Z</time></trkpt><trkpt lat="44.1207441" lon="10.409034"><ele>318.0</ele><time>2026-04-22T11:34:49Z</time></trkpt><trkpt lat="44.1208243" lon="10.4090397"><ele>318.0</ele><time>2026-04-22T11:34:51Z</time></trkpt><trkpt lat="44.1209074" lon="10.4090514"><ele>319.5</ele><time>2026-04-22T11:34:53Z</time></trkpt><trkpt lat="44.120991" lon="10.4090628"><ele>321.0</ele><time>2026-04-22T11:34:55Z</time></trkpt><trkpt lat="44.1210732" lon="10.4090736"><ele>322.5</ele><time>2026-04-22T11:34:57Z</time></trkpt><trkpt lat="44.1211543" lon="10.4090907"><ele>324.0</ele><time>2026-04-22T11:34:59Z</time></trkpt><trkpt lat="44.121235" lon="10.4091063"><ele>325.5</ele><time>2026-04-22T11:35:01Z</time></trkpt><trkpt lat="44.1213167" lon="10.4091173"><ele>327.0</ele><time>2026-04-22T11:35:03Z</time></trkpt><trkpt lat="44.1213995" lon="10.4091289"><ele>327.0</ele><time>2026-04-22T11:35:05Z</time></trkpt><trkpt lat="44.1214869" lon="10.4091426"><ele>327.0</ele><time>2026-04-22T11:35:07Z</time></trkpt><trkpt lat="44.1215764" lon="10.4091497"><ele>327.0</ele><time>2026-04-22T11:35:09Z</time></trkpt><trkpt lat="44.1216654" lon="10.4091604"><ele>327.0</ele><time>2026-04-22T11:35:11Z</time></trkpt><trkpt lat="44.1217528" lon="10.4091708"><ele>327.0</ele><time>2026-04-22T11:35:13Z</time></trkpt><trkpt lat="44.1218332" lon="10.4091845"><ele>327.0</ele><time>2026-04-22T11:35:15Z</time></trkpt><trkpt lat="44.1219167" lon="10.409203"><ele>327.5</ele><time>2026-04-22T11:35:17Z</time></trkpt><trkpt lat="44.1220031" lon="10.4092141"><ele>328.0</ele><time>2026-04-22T11:35:19Z</time></trkpt><trkpt lat="44.1220896" lon="10.4092293"><ele>328.5</ele><time>2026-04-22T11:35:21Z</time></trkpt><trkpt lat="44.1221739" lon="10.4092419"><ele>329.0</ele><time>2026-04-22T11:35:23Z</time></trkpt><trkpt lat="44.1222596" lon="10.4092531"><ele>329.5</ele><time>2026-04-22T11:35:25Z</time></trkpt><trkpt lat="44.1223456" lon="10.4092697"><ele>330.0</ele><time>2026-04-22T11:35:27Z</time></trkpt><trkpt lat="44.1224332" lon="10.4092839"><ele>330.5</ele><time>2026-04-22T11:35:29Z</time></trkpt><trkpt lat="44.1225199" lon="10.4092978"><ele>331.0</ele><time>2026-04-22T11:35:31Z</time></trkpt><trkpt lat="44.1226055" lon="10.4093161"><ele>331.5</ele><time>2026-04-22T11:35:33Z</time></trkpt><trkpt lat="44.122691" lon="10.4093331"><ele>332.0</ele><time>2026-04-22T11:35:35Z</time></trkpt><trkpt lat="44.1227765" lon="10.4093494"><ele>332.5</ele><time>2026-04-22T11:35:37Z</time></trkpt><trkpt lat="44.1228638" lon="10.4093589"><ele>333.0</ele><time>2026-04-22T11:35:39Z</time></trkpt><trkpt lat="44.1229505" lon="10.4093726"><ele>333.0</ele><time>2026-04-22T11:35:41Z</time></trkpt><trkpt lat="44.1230379" lon="10.4094166"><ele>333.0</ele><time>2026-04-22T11:35:43Z</time></trkpt><trkpt lat="44.1231163" lon="10.4094447"><ele>333.0</ele><time>2026-04-22T11:35:45Z</time></trkpt><trkpt lat="44.1231989" lon="10.4094807"><ele>333.0</ele><time>2026-04-22T11:35:47Z</time></trkpt><trkpt lat="44.123289" lon="10.4095081"><ele>333.0</ele><time>2026-04-22T11:35:49Z</time></trkpt><trkpt lat="44.1233783" lon="10.4095388"><ele>333.0</ele><time>2026-04-22T11:35:51Z</time></trkpt><trkpt lat="44.1234657" lon="10.4095721"><ele>333.3333333333333</ele><time>2026-04-22T11:35:53Z</time></trkpt><trkpt lat="44.1235523" lon="10.4095992"><ele>333.6666666666667</ele><time>2026-04-22T11:35:55Z</time></trkpt><trkpt lat="44.123642" lon="10.4096242"><ele>334.0</ele><time>2026-04-22T11:35:57Z</time></trkpt><trkpt lat="44.1237328" lon="10.4096469"><ele>334.33333333333337</ele><time>2026-04-22T11:35:59Z</time></trkpt><trkpt lat="44.1238213" lon="10.4096729"><ele>334.6666666666667</ele><time>2026-04-22T11:36:01Z</time></trkpt><trkpt lat="44.1239054" lon="10.4097001"><ele>335.0</ele><time>2026-04-22T11:36:03Z</time></trkpt><trkpt lat="44.1239961" lon="10.4097226"><ele>335.83333333333337</ele><time>2026-04-22T11:36:05Z</time></trkpt><trkpt lat="44.1240788" lon="10.4097496"><ele>336.6666666666667</ele><time>2026-04-22T11:36:07Z</time></trkpt><trkpt lat="44.1241577" lon="10.4097938"><ele>337.5</ele><time>2026-04-22T11:36:09Z</time></trkpt><trkpt lat="44.1242367" lon="10.4098413"><ele>338.3333333333333</ele><time>2026-04-22T11:36:11Z</time></trkpt><trkpt lat="44.124318" lon="10.409883"><ele>339.16666666666663</ele><time>2026-04-22T11:36:13Z</time></trkpt><trkpt lat="44.1244004" lon="10.4099261"><ele>340.0</ele><time>2026-04-22T11:36:15Z</time></trkpt><trkpt lat="44.1244799" lon="10.4099754"><ele>340.0</ele><time>2026-04-22T11:36:17Z</time></trkpt><trkpt lat="44.1245592" lon="10.4100128"><ele>340.0</ele><time>2026-04-22T11:36:19Z</time></trkpt><trkpt lat="44.1246321" lon="10.4100805"><ele>340.0</ele><time>2026-04-22T11:36:21Z</time></trkpt><trkpt lat="44.1246896" lon="10.4101768"><ele>340.0</ele><time>2026-04-22T11:36:23Z</time></trkpt><trkpt lat="44.1247407" lon="10.4102774"><ele>340.0</ele><time>2026-04-22T11:36:25Z</time></trkpt><trkpt lat="44.1248052" lon="10.4103593"><ele>340.0</ele><time>2026-04-22T11:36:27Z</time></trkpt><trkpt lat="44.1248843" lon="10.4104078"><ele>340.66666666666663</ele><time>2026-04-22T11:36:29Z</time></trkpt><trkpt lat="44.1249706" lon="10.4104119"><ele>341.3333333333333</ele><time>2026-04-22T11:36:31Z</time></trkpt><trkpt lat="44.1250602" lon="10.4103916"><ele>342.0</ele><time>2026-04-22T11:36:33Z</time></trkpt><trkpt lat="44.1251498" lon="10.4103715"><ele>342.6666666666667</ele><time>2026-04-22T11:36:35Z</time></trkpt><trkpt lat="44.1252393" lon="10.410363"><ele>343.33333333333337</ele><time>2026-04-22T11:36:37Z</time></trkpt><trkpt lat="44.1253247" lon="10.410384"><ele>344.0</ele><time>2026-04-22T11:36:39Z</time></trkpt><trkpt lat="44.1254081" lon="10.4104278"><ele>344.0</ele><time>2026-04-22T11:36:41Z</time></trkpt><trkpt lat="44.125494" lon="10.4104642"><ele>344.0</ele><time>2026-04-22T11:36:43Z</time></trkpt><trkpt lat="44.1255749" lon="10.4104993"><ele>344.0</ele><time>2026-04-22T11:36:45Z</time></trkpt><trkpt lat="44.1256604" lon="10.410537"><ele>344.0</ele><time>2026-04-22T11:36:47Z</time></trkpt><trkpt lat="44.1257419" lon="10.4105836"><ele>344.0</ele><time>2026-04-22T11:36:49Z</time></trkpt><trkpt lat="44.125823" lon="10.4106198"><ele>344.0</ele><time>2026-04-22T11:36:51Z</time></trkpt><trkpt lat="44.1259085" lon="10.4106492"><ele>344.6666666666667</ele><time>2026-04-22T11:36:53Z</time></trkpt><trkpt lat="44.1259943" lon="10.4106743"><ele>345.33333333333337</ele><time>2026-04-22T11:36:55Z</time></trkpt><trkpt lat="44.1260764" lon="10.410697"><ele>346.0</ele><time>2026-04-22T11:36:57Z</time></trkpt><trkpt lat="44.1261609" lon="10.410719"><ele>346.6666666666667</ele><time>2026-04-22T11:36:59Z</time></trkpt><trkpt lat="44.1262478" lon="10.4107431"><ele>347.3333333333333</ele><time>2026-04-22T11:37:01Z</time></trkpt><trkpt lat="44.1263364" lon="10.4107688"><ele>348.0</ele><time>2026-04-22T11:37:03Z</time></trkpt><trkpt lat="44.1264236" lon="10.4107946"><ele>348.0</ele><time>2026-04-22T11:37:05Z</time></trkpt><trkpt lat="44.126509" lon="10.4108191"><ele>348.0</ele><time>2026-04-22T11:37:07Z</time></trkpt><trkpt lat="44.1265939" lon="10.4108441"><ele>348.0</ele><time>2026-04-22T11:37:09Z</time></trkpt><trkpt lat="44.1266805" lon="10.4108659"><ele>348.0</ele><time>2026-04-22T11:37:11Z</time></trkpt><trkpt lat="44.1267614" lon="10.4108841"><ele>348.0</ele><time>2026-04-22T11:37:13Z</time></trkpt><trkpt lat="44.1268498" lon="10.4109074"><ele>348.0</ele><time>2026-04-22T11:37:15Z</time></trkpt><trkpt lat="44.1269362" lon="10.4109395"><ele>348.1666666666667</ele><time>2026-04-22T11:37:17Z</time></trkpt><trkpt lat="44.1270209" lon="10.410967"><ele>348.3333333333333</ele><time>2026-04-22T11:37:19Z</time></trkpt><trkpt lat="44.127104" lon="10.4109917"><ele>348.5</ele><time>2026-04-22T11:37:21Z</time></trkpt><trkpt lat="44.1271858" lon="10.4110141"><ele>348.66666666666663</ele><time>2026-04-22T11:37:23Z</time></trkpt><trkpt lat="44.1272659" lon="10.4110359"><ele>348.8333333333333</ele><time>2026-04-22T11:37:25Z</time></trkpt><trkpt lat="44.1273454" lon="10.4110642"><ele>349.0</ele><time>2026-04-22T11:37:27Z</time></trkpt><trkpt lat="44.1274249" lon="10.4110954"><ele>349.16666666666663</ele><time>2026-04-22T11:37:28.999Z</time></trkpt><trkpt lat="44.1275054" lon="10.4111261"><ele>349.3333333333333</ele><time>2026-04-22T11:37:31Z</time></trkpt><trkpt lat="44.1275839" lon="10.411155"><ele>349.5</ele><time>2026-04-22T11:37:33Z</time></trkpt><trkpt lat="44.1276651" lon="10.4111814"><ele>349.6666666666667</ele><time>2026-04-22T11:37:34.999Z</time></trkpt><trkpt lat="44.1277515" lon="10.4112041"><ele>349.83333333333337</ele><time>2026-04-22T11:37:37Z</time></trkpt><trkpt lat="44.1278318" lon="10.4112318"><ele>350.0</ele><time>2026-04-22T11:37:39Z</time></trkpt><trkpt lat="44.1279108" lon="10.4112564"><ele>350.0</ele><time>2026-04-22T11:37:41Z</time></trkpt><trkpt lat="44.1279937" lon="10.4112815"><ele>350.0</ele><time>2026-04-22T11:37:43Z</time></trkpt><trkpt lat="44.128077" lon="10.411304"><ele>350.0</ele><time>2026-04-22T11:37:45Z</time></trkpt><trkpt lat="44.128163" lon="10.4113332"><ele>350.0</ele><time>2026-04-22T11:37:47Z</time></trkpt><trkpt lat="44.1282458" lon="10.4113575"><ele>350.0</ele><time>2026-04-22T11:37:49Z</time></trkpt><trkpt lat="44.1283292" lon="10.411378"><ele>350.0</ele><time>2026-04-22T11:37:51Z</time></trkpt><trkpt lat="44.1284101" lon="10.4114041"><ele>350.5</ele><time>2026-04-22T11:37:53Z</time></trkpt><trkpt lat="44.1284931" lon="10.4114159"><ele>351.0</ele><time>2026-04-22T11:37:55Z</time></trkpt><trkpt lat="44.1285762" lon="10.4114181"><ele>351.5</ele><time>2026-04-22T11:37:57Z</time></trkpt><trkpt lat="44.1286581" lon="10.4114233"><ele>352.0</ele><time>2026-04-22T11:37:59Z</time></trkpt><trkpt lat="44.1287353" lon="10.4114365"><ele>352.5</ele><time>2026-04-22T11:38:01Z</time></trkpt><trkpt lat="44.128809" lon="10.4114756"><ele>353.0</ele><time>2026-04-22T11:38:03Z</time></trkpt><trkpt lat="44.1288792" lon="10.411546"><ele>353.0</ele><time>2026-04-22T11:38:05Z</time></trkpt><trkpt lat="44.1289586" lon="10.411604"><ele>353.0</ele><time>2026-04-22T11:38:07Z</time></trkpt><trkpt lat="44.129043" lon="10.4116421"><ele>353.0</ele><time>2026-04-22T11:38:09Z</time></trkpt><trkpt lat="44.1291284" lon="10.4116718"><ele>353.0</ele><time>2026-04-22T11:38:11Z</time></trkpt><trkpt lat="44.1292101" lon="10.4116992"><ele>353.0</ele><time>2026-04-22T11:38:13Z</time></trkpt><trkpt lat="44.1292919" lon="10.4117287"><ele>353.0</ele><time>2026-04-22T11:38:15Z</time></trkpt><trkpt lat="44.1293711" lon="10.411755"><ele>353.33333333333337</ele><time>2026-04-22T11:38:17Z</time></trkpt><trkpt lat="44.1294538" lon="10.4117815"><ele>353.6666666666667</ele><time>2026-04-22T11:38:19Z</time></trkpt><trkpt lat="44.1295367" lon="10.4118082"><ele>354.0</ele><time>2026-04-22T11:38:21Z</time></trkpt><trkpt lat="44.1296226" lon="10.4118381"><ele>354.3333333333333</ele><time>2026-04-22T11:38:23Z</time></trkpt><trkpt lat="44.1297068" lon="10.4118765"><ele>354.66666666666663</ele><time>2026-04-22T11:38:25Z</time></trkpt><trkpt lat="44.129792" lon="10.4119247"><ele>355.0</ele><time>2026-04-22T11:38:27Z</time></trkpt><trkpt lat="44.1298783" lon="10.4119744"><ele>356.2</ele><time>2026-04-22T11:38:29Z</time></trkpt><trkpt lat="44.1299566" lon="10.4120304"><ele>357.4</ele><time>2026-04-22T11:38:31Z</time></trkpt><trkpt lat="44.1300401" lon="10.4120785"><ele>358.6</ele><time>2026-04-22T11:38:33Z</time></trkpt><trkpt lat="44.1301323" lon="10.4121312"><ele>359.8</ele><time>2026-04-22T11:38:35Z</time></trkpt><trkpt lat="44.1302109" lon="10.4121747"><ele>361.0</ele><time>2026-04-22T11:38:37Z</time></trkpt><trkpt lat="44.1302907" lon="10.4122354"><ele>361.3333333333333</ele><time>2026-04-22T11:38:39Z</time></trkpt><trkpt lat="44.1303707" lon="10.4122932"><ele>361.66666666666663</ele><time>2026-04-22T11:38:41Z</time></trkpt><trkpt lat="44.1304509" lon="10.412346"><ele>362.0</ele><time>2026-04-22T11:38:43Z</time></trkpt><trkpt lat="44.1305318" lon="10.4124061"><ele>362.3333333333333</ele><time>2026-04-22T11:38:45Z</time></trkpt><trkpt lat="44.1306107" lon="10.4124611"><ele>362.6666666666667</ele><time>2026-04-22T11:38:47Z</time></trkpt><trkpt lat="44.1306859" lon="10.4125174"><ele>363.0</ele><time>2026-04-22T11:38:49Z</time></trkpt><trkpt lat="44.1307651" lon="10.4125773"><ele>363.1666666666667</ele><time>2026-04-22T11:38:51Z</time></trkpt><trkpt lat="44.1308427" lon="10.4126253"><ele>363.3333333333333</ele><time>2026-04-22T11:38:53Z</time></trkpt><trkpt lat="44.1309207" lon="10.4126815"><ele>363.5</ele><time>2026-04-22T11:38:55Z</time></trkpt><trkpt lat="44.1309986" lon="10.4127356"><ele>363.66666666666663</ele><time>2026-04-22T11:38:57Z</time></trkpt><trkpt lat="44.1310759" lon="10.4127935"><ele>363.8333333333333</ele><time>2026-04-22T11:38:59Z</time></trkpt><trkpt lat="44.1311357" lon="10.4128399"><ele>364.0</ele><time>2026-04-22T11:39:01Z</time></trkpt><trkpt lat="44.1312042" lon="10.4128884"><ele>364.0</ele><time>2026-04-22T11:39:03Z</time></trkpt><trkpt lat="44.1312766" lon="10.4129316"><ele>364.0</ele><time>2026-04-22T11:39:05Z</time></trkpt><trkpt lat="44.131382" lon="10.4129973"><ele>364.0</ele><time>2026-04-22T11:39:08Z</time></trkpt><trkpt lat="44.1314473" lon="10.4130401"><ele>364.0</ele><time>2026-04-22T11:39:10.102Z</time></trkpt><trkpt lat="44.1315136" lon="10.4130849"><ele>364.0</ele><time>2026-04-22T11:39:12Z</time></trkpt><trkpt lat="44.1315813" lon="10.4131352"><ele>364.0</ele><time>2026-04-22T11:39:13.999Z</time></trkpt><trkpt lat="44.1316501" lon="10.4131798"><ele>364.66666666666663</ele><time>2026-04-22T11:39:16Z</time></trkpt><trkpt lat="44.1317212" lon="10.4132128"><ele>365.3333333333333</ele><time>2026-04-22T11:39:18Z</time></trkpt><trkpt lat="44.1317918" lon="10.4132486"><ele>366.0</ele><time>2026-04-22T11:39:20Z</time></trkpt><trkpt lat="44.1318654" lon="10.4132804"><ele>366.6666666666667</ele><time>2026-04-22T11:39:22Z</time></trkpt><trkpt lat="44.1319392" lon="10.4133054"><ele>367.33333333333337</ele><time>2026-04-22T11:39:24Z</time></trkpt><trkpt lat="44.1320109" lon="10.4133397"><ele>368.0</ele><time>2026-04-22T11:39:26Z</time></trkpt><trkpt lat="44.1320806" lon="10.4133701"><ele>368.0</ele><time>2026-04-22T11:39:28Z</time></trkpt><trkpt lat="44.1321524" lon="10.4134007"><ele>368.0</ele><time>2026-04-22T11:39:30Z</time></trkpt><trkpt lat="44.132226" lon="10.4134349"><ele>368.0</ele><time>2026-04-22T11:39:32Z</time></trkpt><trkpt lat="44.1322992" lon="10.4134695"><ele>368.0</ele><time>2026-04-22T11:39:34Z</time></trkpt><trkpt lat="44.1323721" lon="10.4134968"><ele>368.0</ele><time>2026-04-22T11:39:36Z</time></trkpt><trkpt lat="44.1324471" lon="10.4135215"><ele>368.0</ele><time>2026-04-22T11:39:38Z</time></trkpt><trkpt lat="44.1325203" lon="10.4135563"><ele>368.83333333333337</ele><time>2026-04-22T11:39:40Z</time></trkpt><trkpt lat="44.1325942" lon="10.4135878"><ele>369.6666666666667</ele><time>2026-04-22T11:39:42Z</time></trkpt><trkpt lat="44.1326681" lon="10.4136183"><ele>370.5</ele><time>2026-04-22T11:39:44Z</time></trkpt><trkpt lat="44.1327418" lon="10.4136547"><ele>371.3333333333333</ele><time>2026-04-22T11:39:46Z</time></trkpt><trkpt lat="44.1328152" lon="10.4136874"><ele>372.16666666666663</ele><time>2026-04-22T11:39:48Z</time></trkpt><trkpt lat="44.1328908" lon="10.4137163"><ele>373.0</ele><time>2026-04-22T11:39:50Z</time></trkpt><trkpt lat="44.1329656" lon="10.4137419"><ele>373.0</ele><time>2026-04-22T11:39:52Z</time></trkpt><trkpt lat="44.133038" lon="10.4137699"><ele>373.0</ele><time>2026-04-22T11:39:54Z</time></trkpt><trkpt lat="44.1331081" lon="10.4137971"><ele>373.0</ele><time>2026-04-22T11:39:56Z</time></trkpt><trkpt lat="44.1331802" lon="10.4138306"><ele>373.0</ele><time>2026-04-22T11:39:58Z</time></trkpt><trkpt lat="44.1332524" lon="10.4138607"><ele>373.0</ele><time>2026-04-22T11:40:00Z</time></trkpt><trkpt lat="44.1333233" lon="10.4138938"><ele>373.0</ele><time>2026-04-22T11:40:02Z</time></trkpt><trkpt lat="44.1333942" lon="10.4139386"><ele>373.8333333333333</ele><time>2026-04-22T11:40:04Z</time></trkpt><trkpt lat="44.1334622" lon="10.4139892"><ele>374.66666666666663</ele><time>2026-04-22T11:40:06Z</time></trkpt><trkpt lat="44.1335298" lon="10.4140424"><ele>375.5</ele><time>2026-04-22T11:40:08Z</time></trkpt><trkpt lat="44.1336016" lon="10.4141076"><ele>376.3333333333333</ele><time>2026-04-22T11:40:10Z</time></trkpt><trkpt lat="44.1336694" lon="10.414177"><ele>377.1666666666667</ele><time>2026-04-22T11:40:12Z</time></trkpt><trkpt lat="44.133738" lon="10.4142458"><ele>378.0</ele><time>2026-04-22T11:40:14Z</time></trkpt><trkpt lat="44.1338048" lon="10.4143147"><ele>378.0</ele><time>2026-04-22T11:40:16Z</time></trkpt><trkpt lat="44.1338692" lon="10.4143876"><ele>378.0</ele><time>2026-04-22T11:40:18Z</time></trkpt><trkpt lat="44.1339305" lon="10.41446"><ele>378.0</ele><time>2026-04-22T11:40:20Z</time></trkpt><trkpt lat="44.1339955" lon="10.4145354"><ele>378.0</ele><time>2026-04-22T11:40:22Z</time></trkpt><trkpt lat="44.1340608" lon="10.4146074"><ele>378.0</ele><time>2026-04-22T11:40:24Z</time></trkpt><trkpt lat="44.134124" lon="10.414684"><ele>378.0</ele><time>2026-04-22T11:40:26Z</time></trkpt><trkpt lat="44.1341878" lon="10.4147579"><ele>378.6666666666667</ele><time>2026-04-22T11:40:28Z</time></trkpt><trkpt lat="44.1342556" lon="10.4148346"><ele>379.3333333333333</ele><time>2026-04-22T11:40:30Z</time></trkpt><trkpt lat="44.1343222" lon="10.4149107"><ele>380.0</ele><time>2026-04-22T11:40:32Z</time></trkpt><trkpt lat="44.1343823" lon="10.4149897"><ele>380.66666666666663</ele><time>2026-04-22T11:40:34Z</time></trkpt><trkpt lat="44.1344469" lon="10.4150596"><ele>381.3333333333333</ele><time>2026-04-22T11:40:36.104Z</time></trkpt><trkpt lat="44.1345129" lon="10.4151281"><ele>382.0</ele><time>2026-04-22T11:40:38Z</time></trkpt><trkpt lat="44.1345779" lon="10.4151996"><ele>382.0</ele><time>2026-04-22T11:40:40Z</time></trkpt><trkpt lat="44.1346461" lon="10.4152723"><ele>382.0</ele><time>2026-04-22T11:40:42Z</time></trkpt><trkpt lat="44.1347137" lon="10.4153453"><ele>382.0</ele><time>2026-04-22T11:40:44Z</time></trkpt><trkpt lat="44.1348103" lon="10.415458"><ele>382.0</ele><time>2026-04-22T11:40:47Z</time></trkpt><trkpt lat="44.1348844" lon="10.4155076"><ele>382.0</ele><time>2026-04-22T11:40:49Z</time></trkpt><trkpt lat="44.134957" lon="10.4155532"><ele>382.3333333333333</ele><time>2026-04-22T11:40:51Z</time></trkpt><trkpt lat="44.135034" lon="10.4155958"><ele>382.66666666666663</ele><time>2026-04-22T11:40:53Z</time></trkpt><trkpt lat="44.1351082" lon="10.4156372"><ele>383.0</ele><time>2026-04-22T11:40:55Z</time></trkpt><trkpt lat="44.1351877" lon="10.415675"><ele>383.3333333333333</ele><time>2026-04-22T11:40:57Z</time></trkpt><trkpt lat="44.1352675" lon="10.4157128"><ele>383.6666666666667</ele><time>2026-04-22T11:40:59Z</time></trkpt><trkpt lat="44.1353476" lon="10.4157513"><ele>384.0</ele><time>2026-04-22T11:41:01Z</time></trkpt><trkpt lat="44.135428" lon="10.4157832"><ele>384.0</ele><time>2026-04-22T11:41:03Z</time></trkpt><trkpt lat="44.1355093" lon="10.4158227"><ele>384.0</ele><time>2026-04-22T11:41:05Z</time></trkpt><trkpt lat="44.1355945" lon="10.4158594"><ele>384.0</ele><time>2026-04-22T11:41:07Z</time></trkpt><trkpt lat="44.1356778" lon="10.4158966"><ele>384.0</ele><time>2026-04-22T11:41:09Z</time></trkpt><trkpt lat="44.1357626" lon="10.4159333"><ele>384.0</ele><time>2026-04-22T11:41:11Z</time></trkpt><trkpt lat="44.1358414" lon="10.4159708"><ele>384.0</ele><time>2026-04-22T11:41:13Z</time></trkpt><trkpt lat="44.135924" lon="10.4160042"><ele>384.79999999999995</ele><time>2026-04-22T11:41:15Z</time></trkpt><trkpt lat="44.1360094" lon="10.4160422"><ele>385.59999999999997</ele><time>2026-04-22T11:41:17Z</time></trkpt><trkpt lat="44.1360944" lon="10.4160841"><ele>386.4</ele><time>2026-04-22T11:41:19Z</time></trkpt><trkpt lat="44.1361745" lon="10.4161325"><ele>387.2</ele><time>2026-04-22T11:41:21Z</time></trkpt><trkpt lat="44.136253" lon="10.4161899"><ele>388.0</ele><time>2026-04-22T11:41:23Z</time></trkpt><trkpt lat="44.1363364" lon="10.4162544"><ele>388.0</ele><time>2026-04-22T11:41:25Z</time></trkpt><trkpt lat="44.1364161" lon="10.4163203"><ele>388.0</ele><time>2026-04-22T11:41:27Z</time></trkpt><trkpt lat="44.1364941" lon="10.4163921"><ele>388.0</ele><time>2026-04-22T11:41:29Z</time></trkpt><trkpt lat="44.1365681" lon="10.4164613"><ele>388.0</ele><time>2026-04-22T11:41:31Z</time></trkpt><trkpt lat="44.1366515" lon="10.416536"><ele>388.0</ele><time>2026-04-22T11:41:33Z</time></trkpt><trkpt lat="44.1367254" lon="10.416605"><ele>389.2</ele><time>2026-04-22T11:41:35Z</time></trkpt><trkpt lat="44.1368031" lon="10.4166804"><ele>390.4</ele><time>2026-04-22T11:41:37Z</time></trkpt><trkpt lat="44.1368747" lon="10.4167574"><ele>391.59999999999997</ele><time>2026-04-22T11:41:39Z</time></trkpt><trkpt lat="44.1369525" lon="10.4168379"><ele>392.79999999999995</ele><time>2026-04-22T11:41:41Z</time></trkpt><trkpt lat="44.1370288" lon="10.416924"><ele>394.0</ele><time>2026-04-22T11:41:43Z</time></trkpt><trkpt lat="44.1371054" lon="10.4170068"><ele>394.0</ele><time>2026-04-22T11:41:45Z</time></trkpt><trkpt lat="44.1371782" lon="10.4170945"><ele>394.0</ele><time>2026-04-22T11:41:47Z</time></trkpt><trkpt lat="44.1372614" lon="10.4171758"><ele>394.0</ele><time>2026-04-22T11:41:49Z</time></trkpt><trkpt lat="44.1373343" lon="10.4172589"><ele>394.0</ele><time>2026-04-22T11:41:51Z</time></trkpt><trkpt lat="44.1374086" lon="10.417332"><ele>394.0</ele><time>2026-04-22T11:41:53Z</time></trkpt><trkpt lat="44.1374884" lon="10.4174103"><ele>395.5</ele><time>2026-04-22T11:41:55Z</time></trkpt><trkpt lat="44.1375732" lon="10.4174939"><ele>397.0</ele><time>2026-04-22T11:41:57Z</time></trkpt><trkpt lat="44.1376565" lon="10.4175875"><ele>398.5</ele><time>2026-04-22T11:41:59Z</time></trkpt><trkpt lat="44.1377372" lon="10.4176721"><ele>400.0</ele><time>2026-04-22T11:42:01Z</time></trkpt><trkpt lat="44.1378548" lon="10.4177989"><ele>400.0</ele><time>2026-04-22T11:42:04Z</time></trkpt><trkpt lat="44.1379327" lon="10.4178893"><ele>400.0</ele><time>2026-04-22T11:42:06Z</time></trkpt><trkpt lat="44.1380175" lon="10.4179714"><ele>400.0</ele><time>2026-04-22T11:42:08Z</time></trkpt><trkpt lat="44.1380971" lon="10.4180493"><ele>400.0</ele><time>2026-04-22T11:42:10Z</time></trkpt><trkpt lat="44.1381965" lon="10.4181131"><ele>400.0</ele><time>2026-04-22T11:42:12Z</time></trkpt><trkpt lat="44.1382989" lon="10.418161"><ele>400.75</ele><time>2026-04-22T11:42:14Z</time></trkpt><trkpt lat="44.138407" lon="10.4182094"><ele>401.5</ele><time>2026-04-22T11:42:16Z</time></trkpt><trkpt lat="44.1385202" lon="10.4182401"><ele>402.25</ele><time>2026-04-22T11:42:18Z</time></trkpt><trkpt lat="44.13863" lon="10.4182416"><ele>403.0</ele><time>2026-04-22T11:42:20Z</time></trkpt><trkpt lat="44.138742" lon="10.4182286"><ele>403.00000000000006</ele><time>2026-04-22T11:42:22Z</time></trkpt><trkpt lat="44.1388056" lon="10.4182177"><ele>403.0</ele><time>2026-04-22T11:42:23Z</time></trkpt><trkpt lat="44.1389335" lon="10.4182031"><ele>403.0</ele><time>2026-04-22T11:42:25Z</time></trkpt><trkpt lat="44.139005" lon="10.4181989"><ele>403.0</ele><time>2026-04-22T11:42:26Z</time></trkpt><trkpt lat="44.1390709" lon="10.4182001"><ele>403.00000000000006</ele><time>2026-04-22T11:42:27Z</time></trkpt><trkpt lat="44.1391369" lon="10.418213"><ele>403.0</ele><time>2026-04-22T11:42:28Z</time></trkpt><trkpt lat="44.1392035" lon="10.4182287"><ele>401.83333333333337</ele><time>2026-04-22T11:42:29Z</time></trkpt><trkpt lat="44.1392705" lon="10.4182405"><ele>400.6666666666667</ele><time>2026-04-22T11:42:30Z</time></trkpt><trkpt lat="44.1393385" lon="10.4182468"><ele>399.5</ele><time>2026-04-22T11:42:31Z</time></trkpt><trkpt lat="44.1394061" lon="10.4182482"><ele>398.33333333333337</ele><time>2026-04-22T11:42:32Z</time></trkpt><trkpt lat="44.1394693" lon="10.4182465"><ele>397.1666666666667</ele><time>2026-04-22T11:42:33Z</time></trkpt><trkpt lat="44.1395929" lon="10.418233"><ele>396.0</ele><time>2026-04-22T11:42:35Z</time></trkpt><trkpt lat="44.1397136" lon="10.4182143"><ele>396.0</ele><time>2026-04-22T11:42:37Z</time></trkpt><trkpt lat="44.1398401" lon="10.4181961"><ele>396.0</ele><time>2026-04-22T11:42:39Z</time></trkpt><trkpt lat="44.1399035" lon="10.4181837"><ele>396.0</ele><time>2026-04-22T11:42:40Z</time></trkpt><trkpt lat="44.1400219" lon="10.4181665"><ele>396.0</ele><time>2026-04-22T11:42:41.999Z</time></trkpt><trkpt lat="44.1401383" lon="10.4181369"><ele>396.0</ele><time>2026-04-22T11:42:44Z</time></trkpt><trkpt lat="44.1402519" lon="10.4180695"><ele>396.0</ele><time>2026-04-22T11:42:46Z</time></trkpt><trkpt lat="44.140304" lon="10.4180174"><ele>396.0</ele><time>2026-04-22T11:42:47Z</time></trkpt><trkpt lat="44.1403512" lon="10.4179529"><ele>396.0</ele><time>2026-04-22T11:42:48Z</time></trkpt><trkpt lat="44.1403854" lon="10.4178707"><ele>396.0</ele><time>2026-04-22T11:42:49Z</time></trkpt><trkpt lat="44.1404176" lon="10.4177824"><ele>396.0</ele><time>2026-04-22T11:42:50Z</time></trkpt><trkpt lat="44.1404404" lon="10.4176945"><ele>396.0</ele><time>2026-04-22T11:42:51Z</time></trkpt><trkpt lat="44.1404496" lon="10.417603"><ele>396.0</ele><time>2026-04-22T11:42:52Z</time></trkpt><trkpt lat="44.1404599" lon="10.417507"><ele>393.8333333333333</ele><time>2026-04-22T11:42:53Z</time></trkpt><trkpt lat="44.1404719" lon="10.4174202"><ele>391.6666666666667</ele><time>2026-04-22T11:42:54Z</time></trkpt><trkpt lat="44.1404835" lon="10.4173298"><ele>389.5</ele><time>2026-04-22T11:42:55Z</time></trkpt><trkpt lat="44.1404973" lon="10.4172399"><ele>387.33333333333337</ele><time>2026-04-22T11:42:56Z</time></trkpt><trkpt lat="44.1405236" lon="10.4170755"><ele>385.1666666666667</ele><time>2026-04-22T11:42:58Z</time></trkpt><trkpt lat="44.140545" lon="10.4169228"><ele>383.0</ele><time>2026-04-22T11:43:00.1Z</time></trkpt><trkpt lat="44.1405674" lon="10.4167696"><ele>382.0</ele><time>2026-04-22T11:43:02Z</time></trkpt><trkpt lat="44.140581" lon="10.4166284"><ele>381.0</ele><time>2026-04-22T11:43:04Z</time></trkpt><trkpt lat="44.1406016" lon="10.4164634"><ele>380.0</ele><time>2026-04-22T11:43:06Z</time></trkpt><trkpt lat="44.1406213" lon="10.4163137"><ele>379.0</ele><time>2026-04-22T11:43:08Z</time></trkpt><trkpt lat="44.1406462" lon="10.4161726"><ele>378.0</ele><time>2026-04-22T11:43:10Z</time></trkpt><trkpt lat="44.1406719" lon="10.4160291"><ele>377.79999999999995</ele><time>2026-04-22T11:43:12Z</time></trkpt><trkpt lat="44.1406914" lon="10.4158942"><ele>377.6</ele><time>2026-04-22T11:43:14Z</time></trkpt><trkpt lat="44.1407192" lon="10.4157645"><ele>377.4</ele><time>2026-04-22T11:43:16Z</time></trkpt><trkpt lat="44.1407366" lon="10.4156308"><ele>377.20000000000005</ele><time>2026-04-22T11:43:18Z</time></trkpt><trkpt lat="44.1407449" lon="10.4154948"><ele>377.0</ele><time>2026-04-22T11:43:20Z</time></trkpt><trkpt lat="44.1407432" lon="10.4153644"><ele>377.1666666666667</ele><time>2026-04-22T11:43:22Z</time></trkpt><trkpt lat="44.140736" lon="10.4152334"><ele>377.33333333333337</ele><time>2026-04-22T11:43:24Z</time></trkpt><trkpt lat="44.1407278" lon="10.4151091"><ele>377.5</ele><time>2026-04-22T11:43:26Z</time></trkpt><trkpt lat="44.1407231" lon="10.4150005"><ele>377.6666666666667</ele><time>2026-04-22T11:43:28Z</time></trkpt><trkpt lat="44.140715" lon="10.4149039"><ele>377.8333333333333</ele><time>2026-04-22T11:43:30Z</time></trkpt><trkpt lat="44.1407091" lon="10.4148042"><ele>378.0</ele><time>2026-04-22T11:43:32Z</time></trkpt><trkpt lat="44.1407002" lon="10.4147105"><ele>378.42857142857144</ele><time>2026-04-22T11:43:34Z</time></trkpt><trkpt lat="44.1406973" lon="10.4146196"><ele>378.8571428571429</ele><time>2026-04-22T11:43:36Z</time></trkpt><trkpt lat="44.1406917" lon="10.4145257"><ele>379.2857142857143</ele><time>2026-04-22T11:43:38Z</time></trkpt><trkpt lat="44.14069" lon="10.4144327"><ele>379.7142857142857</ele><time>2026-04-22T11:43:40.108Z</time></trkpt><trkpt lat="44.1407058" lon="10.4143443"><ele>380.14285714285717</ele><time>2026-04-22T11:43:42Z</time></trkpt><trkpt lat="44.1407422" lon="10.4142659"><ele>380.57142857142856</ele><time>2026-04-22T11:43:44Z</time></trkpt><trkpt lat="44.1407966" lon="10.4142056"><ele>381.0</ele><time>2026-04-22T11:43:46Z</time></trkpt><trkpt lat="44.1408608" lon="10.4141715"><ele>381.85714285714283</ele><time>2026-04-22T11:43:48Z</time></trkpt><trkpt lat="44.1409275" lon="10.4141804"><ele>382.7142857142857</ele><time>2026-04-22T11:43:50Z</time></trkpt><trkpt lat="44.1409875" lon="10.4142239"><ele>383.57142857142856</ele><time>2026-04-22T11:43:52Z</time></trkpt><trkpt lat="44.141032" lon="10.4142905"><ele>384.42857142857144</ele><time>2026-04-22T11:43:54Z</time></trkpt><trkpt lat="44.1410581" lon="10.4143807"><ele>385.28571428571433</ele><time>2026-04-22T11:43:55.999Z</time></trkpt><trkpt lat="44.1410723" lon="10.4144749"><ele>386.14285714285717</ele><time>2026-04-22T11:43:58Z</time></trkpt><trkpt lat="44.1410801" lon="10.4145665"><ele>387.0</ele><time>2026-04-22T11:44:00Z</time></trkpt><trkpt lat="44.1410918" lon="10.4146588"><ele>387.0</ele><time>2026-04-22T11:44:02Z</time></trkpt><trkpt lat="44.1411158" lon="10.4147507"><ele>387.0</ele><time>2026-04-22T11:44:04Z</time></trkpt><trkpt lat="44.1411542" lon="10.4148262"><ele>387.0</ele><time>2026-04-22T11:44:06Z</time></trkpt><trkpt lat="44.1412043" lon="10.4148827"><ele>387.0</ele><time>2026-04-22T11:44:08Z</time></trkpt><trkpt lat="44.1412644" lon="10.4149177"><ele>387.0</ele><time>2026-04-22T11:44:10Z</time></trkpt><trkpt lat="44.1413302" lon="10.4149356"><ele>387.0</ele><time>2026-04-22T11:44:12Z</time></trkpt><trkpt lat="44.1413997" lon="10.4149369"><ele>387.0</ele><time>2026-04-22T11:44:14Z</time></trkpt><trkpt lat="44.1414658" lon="10.4149217"><ele>388.42857142857144</ele><time>2026-04-22T11:44:16Z</time></trkpt><trkpt lat="44.1415574" lon="10.414894"><ele>389.8571428571429</ele><time>2026-04-22T11:44:19Z</time></trkpt><trkpt lat="44.1416194" lon="10.4148768"><ele>391.2857142857143</ele><time>2026-04-22T11:44:21Z</time></trkpt><trkpt lat="44.1416822" lon="10.4148624"><ele>392.7142857142857</ele><time>2026-04-22T11:44:23Z</time></trkpt><trkpt lat="44.1417483" lon="10.4148524"><ele>394.1428571428571</ele><time>2026-04-22T11:44:25Z</time></trkpt><trkpt lat="44.1418132" lon="10.4148479"><ele>395.57142857142856</ele><time>2026-04-22T11:44:27Z</time></trkpt><trkpt lat="44.141878" lon="10.4148414"><ele>397.0</ele><time>2026-04-22T11:44:29Z</time></trkpt><trkpt lat="44.1419463" lon="10.4148357"><ele>397.00000000000006</ele><time>2026-04-22T11:44:31Z</time></trkpt><trkpt lat="44.1420106" lon="10.4148396"><ele>397.0</ele><time>2026-04-22T11:44:33Z</time></trkpt><trkpt lat="44.1421033" lon="10.4148556"><ele>397.0</ele><time>2026-04-22T11:44:36Z</time></trkpt><trkpt lat="44.1421671" lon="10.4148716"><ele>397.0</ele><time>2026-04-22T11:44:38Z</time></trkpt><trkpt lat="44.1422304" lon="10.4148779"><ele>397.00000000000006</ele><time>2026-04-22T11:44:40Z</time></trkpt><trkpt lat="44.1423177" lon="10.4148972"><ele>397.0</ele><time>2026-04-22T11:44:43Z</time></trkpt><trkpt lat="44.1424022" lon="10.4149178"><ele>397.85714285714283</ele><time>2026-04-22T11:44:46Z</time></trkpt><trkpt lat="44.1424796" lon="10.414935"><ele>398.71428571428567</ele><time>2026-04-22T11:44:49Z</time></trkpt><trkpt lat="44.1425661" lon="10.4149442"><ele>399.57142857142856</ele><time>2026-04-22T11:44:52Z</time></trkpt><trkpt lat="44.1426349" lon="10.4149517"><ele>400.42857142857144</ele><time>2026-04-22T11:44:54Z</time></trkpt><trkpt lat="44.1427033" lon="10.4149464"><ele>401.2857142857143</ele><time>2026-04-22T11:44:56Z</time></trkpt><trkpt lat="44.1427725" lon="10.4149394"><ele>402.14285714285717</ele><time>2026-04-22T11:44:58Z</time></trkpt><trkpt lat="44.1428431" lon="10.4149307"><ele>403.0</ele><time>2026-04-22T11:45:00Z</time></trkpt><trkpt lat="44.1429106" lon="10.4149181"><ele>403.0</ele><time>2026-04-22T11:45:02Z</time></trkpt><trkpt lat="44.1429807" lon="10.4148997"><ele>403.0</ele><time>2026-04-22T11:45:04Z</time></trkpt><trkpt lat="44.1430488" lon="10.4148861"><ele>403.0</ele><time>2026-04-22T11:45:06Z</time></trkpt><trkpt lat="44.1431145" lon="10.4148709"><ele>403.0</ele><time>2026-04-22T11:45:08Z</time></trkpt><trkpt lat="44.1431821" lon="10.4148675"><ele>403.0</ele><time>2026-04-22T11:45:10Z</time></trkpt><trkpt lat="44.1432456" lon="10.41487"><ele>403.0</ele><time>2026-04-22T11:45:12Z</time></trkpt><trkpt lat="44.1433091" lon="10.4148864"><ele>403.0</ele><time>2026-04-22T11:45:14Z</time></trkpt><trkpt lat="44.1433725" lon="10.4149089"><ele>405.00000000000006</ele><time>2026-04-22T11:45:16Z</time></trkpt><trkpt lat="44.1434653" lon="10.4149333"><ele>407.0</ele><time>2026-04-22T11:45:19Z</time></trkpt><trkpt lat="44.1435258" lon="10.4149576"><ele>409.0</ele><time>2026-04-22T11:45:21Z</time></trkpt><trkpt lat="44.1436148" lon="10.4149891"><ele>411.0</ele><time>2026-04-22T11:45:24Z</time></trkpt><trkpt lat="44.1437042" lon="10.4150069"><ele>413.00000000000006</ele><time>2026-04-22T11:45:27Z</time></trkpt><trkpt lat="44.1437972" lon="10.4150377"><ele>415.0</ele><time>2026-04-22T11:45:30Z</time></trkpt><trkpt lat="44.1438857" lon="10.415075"><ele>415.00000000000006</ele><time>2026-04-22T11:45:33Z</time></trkpt><trkpt lat="44.143972" lon="10.4151132"><ele>415.0</ele><time>2026-04-22T11:45:36Z</time></trkpt><trkpt lat="44.1440606" lon="10.4151241"><ele>415.0</ele><time>2026-04-22T11:45:39Z</time></trkpt><trkpt lat="44.1441155" lon="10.4150751"><ele>415.0</ele><time>2026-04-22T11:45:41Z</time></trkpt><trkpt lat="44.1441457" lon="10.4149941"><ele>415.00000000000006</ele><time>2026-04-22T11:45:43Z</time></trkpt><trkpt lat="44.1441299" lon="10.4148685"><ele>415.0</ele><time>2026-04-22T11:45:46Z</time></trkpt><trkpt lat="44.1440641" lon="10.4147828"><ele>415.0</ele><time>2026-04-22T11:45:49Z</time></trkpt><trkpt lat="44.143984" lon="10.4147335"><ele>415.0</ele><time>2026-04-22T11:45:52Z</time></trkpt><trkpt lat="44.1438973" lon="10.4146972"><ele>415.0</ele><time>2026-04-22T11:45:55Z</time></trkpt><trkpt lat="44.1438061" lon="10.414676"><ele>415.0</ele><time>2026-04-22T11:45:58Z</time></trkpt><trkpt lat="44.1437173" lon="10.4146583"><ele>415.0</ele><time>2026-04-22T11:46:01Z</time></trkpt><trkpt lat="44.1436266" lon="10.4146399"><ele>417.0</ele><time>2026-04-22T11:46:04Z</time></trkpt><trkpt lat="44.1435412" lon="10.4146022"><ele>419.0</ele><time>2026-04-22T11:46:07.101Z</time></trkpt><trkpt lat="44.143471" lon="10.4145255"><ele>421.0</ele><time>2026-04-22T11:46:10Z</time></trkpt><trkpt lat="44.1434365" lon="10.414409"><ele>423.0</ele><time>2026-04-22T11:46:13Z</time></trkpt><trkpt lat="44.1434274" lon="10.4142794"><ele>425.0</ele><time>2026-04-22T11:46:16Z</time></trkpt><trkpt lat="44.1434361" lon="10.4141496"><ele>424.99999999999994</ele><time>2026-04-22T11:46:19Z</time></trkpt><trkpt lat="44.1434403" lon="10.4140606"><ele>425.0</ele><time>2026-04-22T11:46:21Z</time></trkpt><trkpt lat="44.1434453" lon="10.4139717"><ele>425.0</ele><time>2026-04-22T11:46:23Z</time></trkpt><trkpt lat="44.14344" lon="10.4138367"><ele>425.0</ele><time>2026-04-22T11:46:26Z</time></trkpt><trkpt lat="44.143431" lon="10.4137079"><ele>424.99999999999994</ele><time>2026-04-22T11:46:29Z</time></trkpt><trkpt lat="44.1434041" lon="10.4135819"><ele>425.0</ele><time>2026-04-22T11:46:31.999Z</time></trkpt><trkpt lat="44.1433805" lon="10.4134954"><ele>425.57142857142856</ele><time>2026-04-22T11:46:34Z</time></trkpt><trkpt lat="44.1433605" lon="10.4134073"><ele>426.1428571428571</ele><time>2026-04-22T11:46:36Z</time></trkpt><trkpt lat="44.1433397" lon="10.4133222"><ele>426.7142857142857</ele><time>2026-04-22T11:46:38Z</time></trkpt><trkpt lat="44.1433182" lon="10.4132288"><ele>427.2857142857143</ele><time>2026-04-22T11:46:40Z</time></trkpt><trkpt lat="44.1433029" lon="10.4131415"><ele>427.8571428571429</ele><time>2026-04-22T11:46:42Z</time></trkpt><trkpt lat="44.1432825" lon="10.4130548"><ele>428.42857142857144</ele><time>2026-04-22T11:46:44Z</time></trkpt><trkpt lat="44.1432566" lon="10.4129738"><ele>429.0</ele><time>2026-04-22T11:46:46Z</time></trkpt><trkpt lat="44.1431921" lon="10.4128827"><ele>429.0</ele><time>2026-04-22T11:46:49Z</time></trkpt><trkpt lat="44.143134" lon="10.4128477"><ele>429.0</ele><time>2026-04-22T11:46:51Z</time></trkpt><trkpt lat="44.1430707" lon="10.4128375"><ele>429.0</ele><time>2026-04-22T11:46:53Z</time></trkpt><trkpt lat="44.143005" lon="10.4128285"><ele>429.0</ele><time>2026-04-22T11:46:55Z</time></trkpt><trkpt lat="44.1429386" lon="10.412817"><ele>429.0</ele><time>2026-04-22T11:46:57Z</time></trkpt><trkpt lat="44.1428742" lon="10.4128011"><ele>429.0</ele><time>2026-04-22T11:46:59Z</time></trkpt><trkpt lat="44.1428126" lon="10.4127711"><ele>429.0</ele><time>2026-04-22T11:47:01Z</time></trkpt><trkpt lat="44.1427668" lon="10.4127108"><ele>429.0</ele><time>2026-04-22T11:47:03Z</time></trkpt><trkpt lat="44.1427438" lon="10.4126228"><ele>429.0</ele><time>2026-04-22T11:47:05Z</time></trkpt><trkpt lat="44.1427486" lon="10.4125272"><ele>429.0</ele><time>2026-04-22T11:47:07Z</time></trkpt><trkpt lat="44.1427756" lon="10.4124415"><ele>429.0</ele><time>2026-04-22T11:47:09Z</time></trkpt><trkpt lat="44.1428243" lon="10.4123795"><ele>429.0</ele><time>2026-04-22T11:47:11Z</time></trkpt><trkpt lat="44.1428817" lon="10.4123425"><ele>429.0</ele><time>2026-04-22T11:47:13Z</time></trkpt><trkpt lat="44.1429418" lon="10.4123155"><ele>429.0</ele><time>2026-04-22T11:47:15Z</time></trkpt><trkpt lat="44.1430018" lon="10.4122847"><ele>429.0</ele><time>2026-04-22T11:47:17Z</time></trkpt><trkpt lat="44.143089" lon="10.4122447"><ele>429.0</ele><time>2026-04-22T11:47:20Z</time></trkpt><trkpt lat="44.1431477" lon="10.4122113"><ele>429.0</ele><time>2026-04-22T11:47:22Z</time></trkpt><trkpt lat="44.1432369" lon="10.4121778"><ele>429.0</ele><time>2026-04-22T11:47:25Z</time></trkpt><trkpt lat="44.1433267" lon="10.4121385"><ele>429.0</ele><time>2026-04-22T11:47:28Z</time></trkpt><trkpt lat="44.1434151" lon="10.4121103"><ele>429.0</ele><time>2026-04-22T11:47:31Z</time></trkpt><trkpt lat="44.1435051" lon="10.4120961"><ele>430.57142857142856</ele><time>2026-04-22T11:47:34Z</time></trkpt><trkpt lat="44.1435958" lon="10.4120742"><ele>432.14285714285717</ele><time>2026-04-22T11:47:37Z</time></trkpt><trkpt lat="44.1436837" lon="10.4120518"><ele>433.71428571428567</ele><time>2026-04-22T11:47:40Z</time></trkpt><trkpt lat="44.1437376" lon="10.4120052"><ele>435.2857142857143</ele><time>2026-04-22T11:47:42Z</time></trkpt><trkpt lat="44.1437932" lon="10.4119543"><ele>436.85714285714283</ele><time>2026-04-22T11:47:44Z</time></trkpt><trkpt lat="44.1438429" lon="10.4118991"><ele>438.4285714285714</ele><time>2026-04-22T11:47:46Z</time></trkpt><trkpt lat="44.1438881" lon="10.4118366"><ele>440.0</ele><time>2026-04-22T11:47:48Z</time></trkpt><trkpt lat="44.1439321" lon="10.4117726"><ele>439.99999999999994</ele><time>2026-04-22T11:47:50Z</time></trkpt><trkpt lat="44.1439877" lon="10.4116679"><ele>440.0</ele><time>2026-04-22T11:47:53Z</time></trkpt><trkpt lat="44.1440258" lon="10.4115479"><ele>440.0</ele><time>2026-04-22T11:47:56Z</time></trkpt><trkpt lat="44.1440372" lon="10.4114267"><ele>440.0</ele><time>2026-04-22T11:47:59Z</time></trkpt><trkpt lat="44.1440256" lon="10.4113027"><ele>439.99999999999994</ele><time>2026-04-22T11:48:02Z</time></trkpt><trkpt lat="44.1439964" lon="10.4112239"><ele>440.0</ele><time>2026-04-22T11:48:04Z</time></trkpt><trkpt lat="44.1439642" lon="10.4111449"><ele>441.16666666666663</ele><time>2026-04-22T11:48:06Z</time></trkpt><trkpt lat="44.1439007" lon="10.4110502"><ele>442.3333333333333</ele><time>2026-04-22T11:48:09Z</time></trkpt><trkpt lat="44.1438217" lon="10.4109805"><ele>443.5</ele><time>2026-04-22T11:48:12Z</time></trkpt><trkpt lat="44.143749" lon="10.4109073"><ele>444.66666666666663</ele><time>2026-04-22T11:48:15Z</time></trkpt><trkpt lat="44.1436778" lon="10.4108311"><ele>445.8333333333333</ele><time>2026-04-22T11:48:18Z</time></trkpt><trkpt lat="44.1436195" lon="10.4107703"><ele>447.0</ele><time>2026-04-22T11:48:20.003Z</time></trkpt><trkpt lat="44.1435641" lon="10.4107273"><ele>446.99999999999994</ele><time>2026-04-22T11:48:22.039Z</time></trkpt><trkpt lat="44.1434948" lon="10.4106587"><ele>447.0</ele><time>2026-04-22T11:48:25Z</time></trkpt><trkpt lat="44.1434386" lon="10.4106084"><ele>447.0</ele><time>2026-04-22T11:48:27.015Z</time></trkpt><trkpt lat="44.1434014" lon="10.4105332"><ele>447.0</ele><time>2026-04-22T11:48:29.05Z</time></trkpt><trkpt lat="44.1434295" lon="10.4104297"><ele>447.0</ele><time>2026-04-22T11:48:31.103Z</time></trkpt><trkpt lat="44.1434637" lon="10.4103545"><ele>446.99999999999994</ele><time>2026-04-22T11:48:33Z</time></trkpt><trkpt lat="44.1435303" lon="10.4102944"><ele>447.0</ele><time>2026-04-22T11:48:36Z</time></trkpt><trkpt lat="44.1436004" lon="10.4102515"><ele>447.5</ele><time>2026-04-22T11:48:39Z</time></trkpt><trkpt lat="44.1436769" lon="10.4102148"><ele>448.0</ele><time>2026-04-22T11:48:42Z</time></trkpt><trkpt lat="44.1437559" lon="10.4101746"><ele>448.5</ele><time>2026-04-22T11:48:45Z</time></trkpt><trkpt lat="44.1438371" lon="10.4101359"><ele>449.0</ele><time>2026-04-22T11:48:48Z</time></trkpt><trkpt lat="44.1439156" lon="10.4100974"><ele>449.5</ele><time>2026-04-22T11:48:51Z</time></trkpt><trkpt lat="44.1440009" lon="10.4100763"><ele>450.0</ele><time>2026-04-22T11:48:54Z</time></trkpt><trkpt lat="44.1440824" lon="10.4100756"><ele>452.3333333333333</ele><time>2026-04-22T11:48:57Z</time></trkpt><trkpt lat="44.1441635" lon="10.4101024"><ele>454.66666666666663</ele><time>2026-04-22T11:49:00Z</time></trkpt><trkpt lat="44.1442457" lon="10.4101351"><ele>457.0</ele><time>2026-04-22T11:49:03Z</time></trkpt><trkpt lat="44.1443296" lon="10.4101606"><ele>459.3333333333333</ele><time>2026-04-22T11:49:06Z</time></trkpt><trkpt lat="44.1444077" lon="10.41019"><ele>461.66666666666663</ele><time>2026-04-22T11:49:09Z</time></trkpt><trkpt lat="44.1444893" lon="10.4102163"><ele>464.0</ele><time>2026-04-22T11:49:12Z</time></trkpt><trkpt lat="44.1445701" lon="10.4102427"><ele>463.99999999999994</ele><time>2026-04-22T11:49:15Z</time></trkpt><trkpt lat="44.1446506" lon="10.4102724"><ele>464.0</ele><time>2026-04-22T11:49:18Z</time></trkpt><trkpt lat="44.1447291" lon="10.4102935"><ele>464.0</ele><time>2026-04-22T11:49:21Z</time></trkpt><trkpt lat="44.144815" lon="10.4103282"><ele>464.0</ele><time>2026-04-22T11:49:24Z</time></trkpt><trkpt lat="44.1449005" lon="10.4103576"><ele>463.99999999999994</ele><time>2026-04-22T11:49:27Z</time></trkpt><trkpt lat="44.1449882" lon="10.410388"><ele>464.0</ele><time>2026-04-22T11:49:30Z</time></trkpt><trkpt lat="44.1450775" lon="10.4104149"><ele>465.16666666666663</ele><time>2026-04-22T11:49:33Z</time></trkpt><trkpt lat="44.1451606" lon="10.4104516"><ele>466.3333333333333</ele><time>2026-04-22T11:49:36Z</time></trkpt><trkpt lat="44.1452411" lon="10.4104812"><ele>467.5</ele><time>2026-04-22T11:49:39Z</time></trkpt><trkpt lat="44.1453187" lon="10.410512"><ele>468.66666666666663</ele><time>2026-04-22T11:49:42Z</time></trkpt><trkpt lat="44.1454027" lon="10.4105392"><ele>469.8333333333333</ele><time>2026-04-22T11:49:45Z</time></trkpt><trkpt lat="44.1454837" lon="10.4105661"><ele>471.0</ele><time>2026-04-22T11:49:48Z</time></trkpt><trkpt lat="44.1455724" lon="10.4105977"><ele>471.4</ele><time>2026-04-22T11:49:51Z</time></trkpt><trkpt lat="44.1456575" lon="10.4106307"><ele>471.8</ele><time>2026-04-22T11:49:54Z</time></trkpt><trkpt lat="44.1457438" lon="10.4106635"><ele>472.19999999999993</ele><time>2026-04-22T11:49:57Z</time></trkpt><trkpt lat="44.1458328" lon="10.4106953"><ele>472.59999999999997</ele><time>2026-04-22T11:50:00Z</time></trkpt><trkpt lat="44.1459231" lon="10.410724"><ele>473.0</ele><time>2026-04-22T11:50:03Z</time></trkpt><trkpt lat="44.1460098" lon="10.4107533"><ele>473.3333333333333</ele><time>2026-04-22T11:50:06Z</time></trkpt><trkpt lat="44.1460979" lon="10.4107844"><ele>473.66666666666663</ele><time>2026-04-22T11:50:09Z</time></trkpt><trkpt lat="44.1461846" lon="10.4108109"><ele>474.0</ele><time>2026-04-22T11:50:12Z</time></trkpt><trkpt lat="44.1462704" lon="10.410844"><ele>474.33333333333337</ele><time>2026-04-22T11:50:15Z</time></trkpt><trkpt lat="44.1463333" lon="10.4108601"><ele>474.6666666666667</ele><time>2026-04-22T11:50:17Z</time></trkpt><trkpt lat="44.1464199" lon="10.4108956"><ele>475.0</ele><time>2026-04-22T11:50:20Z</time></trkpt><trkpt lat="44.1465036" lon="10.4109398"><ele>475.83333333333337</ele><time>2026-04-22T11:50:23Z</time></trkpt><trkpt lat="44.1465852" lon="10.4109986"><ele>476.6666666666667</ele><time>2026-04-22T11:50:26Z</time></trkpt><trkpt lat="44.1466591" lon="10.411081"><ele>477.5</ele><time>2026-04-22T11:50:29Z</time></trkpt><trkpt lat="44.1467278" lon="10.4111693"><ele>478.33333333333337</ele><time>2026-04-22T11:50:32Z</time></trkpt><trkpt lat="44.146772" lon="10.4112358"><ele>479.1666666666667</ele><time>2026-04-22T11:50:34Z</time></trkpt><trkpt lat="44.1468165" lon="10.4112999"><ele>480.0</ele><time>2026-04-22T11:50:36Z</time></trkpt><trkpt lat="44.1468602" lon="10.4113638"><ele>481.1666666666667</ele><time>2026-04-22T11:50:38Z</time></trkpt><trkpt lat="44.1469047" lon="10.4114268"><ele>482.33333333333337</ele><time>2026-04-22T11:50:40Z</time></trkpt><trkpt lat="44.1469714" lon="10.4115106"><ele>483.5</ele><time>2026-04-22T11:50:43Z</time></trkpt><trkpt lat="44.14703" lon="10.4116008"><ele>484.6666666666667</ele><time>2026-04-22T11:50:46Z</time></trkpt><trkpt lat="44.1470935" lon="10.4116867"><ele>485.83333333333337</ele><time>2026-04-22T11:50:49Z</time></trkpt><trkpt lat="44.1471576" lon="10.4117717"><ele>487.0</ele><time>2026-04-22T11:50:52Z</time></trkpt><trkpt lat="44.147217" lon="10.4118651"><ele>487.00000000000006</ele><time>2026-04-22T11:50:55Z</time></trkpt><trkpt lat="44.1472792" lon="10.4119569"><ele>487.0</ele><time>2026-04-22T11:50:58Z</time></trkpt><trkpt lat="44.1473359" lon="10.4120523"><ele>487.0</ele><time>2026-04-22T11:51:01Z</time></trkpt><trkpt lat="44.1474008" lon="10.4121374"><ele>487.0</ele><time>2026-04-22T11:51:04Z</time></trkpt><trkpt lat="44.147465" lon="10.4122255"><ele>487.00000000000006</ele><time>2026-04-22T11:51:07Z</time></trkpt><trkpt lat="44.1475237" lon="10.4123186"><ele>487.0</ele><time>2026-04-22T11:51:10Z</time></trkpt><trkpt lat="44.1475861" lon="10.4124112"><ele>487.6666666666667</ele><time>2026-04-22T11:51:13Z</time></trkpt><trkpt lat="44.147651" lon="10.4124988"><ele>488.33333333333337</ele><time>2026-04-22T11:51:16Z</time></trkpt><trkpt lat="44.1477142" lon="10.4125852"><ele>489.0</ele><time>2026-04-22T11:51:19Z</time></trkpt><trkpt lat="44.1477748" lon="10.4126767"><ele>489.66666666666663</ele><time>2026-04-22T11:51:22Z</time></trkpt><trkpt lat="44.1478371" lon="10.4127676"><ele>490.3333333333333</ele><time>2026-04-22T11:51:25Z</time></trkpt><trkpt lat="44.1479021" lon="10.4128543"><ele>491.0</ele><time>2026-04-22T11:51:28Z</time></trkpt><trkpt lat="44.1479631" lon="10.4129402"><ele>490.99999999999994</ele><time>2026-04-22T11:51:31Z</time></trkpt><trkpt lat="44.148023" lon="10.4130284"><ele>491.0</ele><time>2026-04-22T11:51:34Z</time></trkpt><trkpt lat="44.1480862" lon="10.4131116"><ele>491.0</ele><time>2026-04-22T11:51:37Z</time></trkpt><trkpt lat="44.148173" lon="10.4131279"><ele>491.0</ele><time>2026-04-22T11:51:40Z</time></trkpt><trkpt lat="44.1482242" lon="10.4130217"><ele>490.99999999999994</ele><time>2026-04-22T11:51:43Z</time></trkpt><trkpt lat="44.1482231" lon="10.4129306"><ele>491.0</ele><time>2026-04-22T11:51:45Z</time></trkpt><trkpt lat="44.1482073" lon="10.4128434"><ele>491.0</ele><time>2026-04-22T11:51:47Z</time></trkpt><trkpt lat="44.1481913" lon="10.4127552"><ele>490.99999999999994</ele><time>2026-04-22T11:51:49Z</time></trkpt><trkpt lat="44.148178" lon="10.4126635"><ele>491.0</ele><time>2026-04-22T11:51:51Z</time></trkpt><trkpt lat="44.1481595" lon="10.4125747"><ele>491.0</ele><time>2026-04-22T11:51:53Z</time></trkpt><trkpt lat="44.1481467" lon="10.4124832"><ele>490.99999999999994</ele><time>2026-04-22T11:51:55Z</time></trkpt><trkpt lat="44.1481281" lon="10.4123908"><ele>491.0</ele><time>2026-04-22T11:51:57Z</time></trkpt><trkpt lat="44.1481047" lon="10.4122673"><ele>491.0</ele><time>2026-04-22T11:52:00Z</time></trkpt><trkpt lat="44.1480894" lon="10.4121798"><ele>490.85714285714283</ele><time>2026-04-22T11:52:02Z</time></trkpt><trkpt lat="44.1480691" lon="10.4120862"><ele>490.71428571428567</ele><time>2026-04-22T11:52:04Z</time></trkpt><trkpt lat="44.14806" lon="10.4119911"><ele>490.57142857142856</ele><time>2026-04-22T11:52:06Z</time></trkpt><trkpt lat="44.1480417" lon="10.4118915"><ele>490.42857142857144</ele><time>2026-04-22T11:52:08Z</time></trkpt><trkpt lat="44.148018" lon="10.4117949"><ele>490.2857142857143</ele><time>2026-04-22T11:52:10Z</time></trkpt><trkpt lat="44.148" lon="10.4116963"><ele>490.1428571428571</ele><time>2026-04-22T11:52:12Z</time></trkpt><trkpt lat="44.1479868" lon="10.4116015"><ele>490.0</ele><time>2026-04-22T11:52:14Z</time></trkpt><trkpt lat="44.1479676" lon="10.411506"><ele>490.0</ele><time>2026-04-22T11:52:16Z</time></trkpt><trkpt lat="44.1479483" lon="10.4114071"><ele>490.0</ele><time>2026-04-22T11:52:18Z</time></trkpt><trkpt lat="44.1479315" lon="10.4113043"><ele>490.0</ele><time>2026-04-22T11:52:20Z</time></trkpt><trkpt lat="44.1479116" lon="10.4112068"><ele>490.0</ele><time>2026-04-22T11:52:22Z</time></trkpt><trkpt lat="44.1478974" lon="10.411111"><ele>490.0</ele><time>2026-04-22T11:52:24Z</time></trkpt><trkpt lat="44.1478853" lon="10.4110147"><ele>490.0</ele><time>2026-04-22T11:52:26Z</time></trkpt><trkpt lat="44.147867" lon="10.41092"><ele>490.0</ele><time>2026-04-22T11:52:28Z</time></trkpt><trkpt lat="44.1478447" lon="10.4108257"><ele>490.57142857142856</ele><time>2026-04-22T11:52:30Z</time></trkpt><trkpt lat="44.1478286" lon="10.4107308"><ele>491.1428571428571</ele><time>2026-04-22T11:52:32Z</time></trkpt><trkpt lat="44.1478163" lon="10.4106303"><ele>491.7142857142857</ele><time>2026-04-22T11:52:34Z</time></trkpt><trkpt lat="44.1477987" lon="10.4105302"><ele>492.2857142857143</ele><time>2026-04-22T11:52:36Z</time></trkpt><trkpt lat="44.1477834" lon="10.4104303"><ele>492.85714285714283</ele><time>2026-04-22T11:52:38Z</time></trkpt><trkpt lat="44.1477737" lon="10.4103302"><ele>493.42857142857144</ele><time>2026-04-22T11:52:40Z</time></trkpt><trkpt lat="44.1477587" lon="10.4102361"><ele>494.0</ele><time>2026-04-22T11:52:42Z</time></trkpt><trkpt lat="44.1477422" lon="10.4101371"><ele>494.7142857142857</ele><time>2026-04-22T11:52:44Z</time></trkpt><trkpt lat="44.1477252" lon="10.4100388"><ele>495.42857142857144</ele><time>2026-04-22T11:52:46Z</time></trkpt><trkpt lat="44.1477069" lon="10.4099379"><ele>496.14285714285717</ele><time>2026-04-22T11:52:48Z</time></trkpt><trkpt lat="44.1476912" lon="10.4098386"><ele>496.8571428571429</ele><time>2026-04-22T11:52:50Z</time></trkpt><trkpt lat="44.1476838" lon="10.4097346"><ele>497.57142857142856</ele><time>2026-04-22T11:52:52Z</time></trkpt><trkpt lat="44.1476679" lon="10.4096349"><ele>498.28571428571433</ele><time>2026-04-22T11:52:54Z</time></trkpt><trkpt lat="44.1476495" lon="10.4095335"><ele>499.00000000000006</ele><time>2026-04-22T11:52:56.102Z</time></trkpt><trkpt lat="44.147633" lon="10.4094305"><ele>500.4285714285715</ele><time>2026-04-22T11:52:58Z</time></trkpt><trkpt lat="44.1476186" lon="10.4093313"><ele>501.8571428571429</ele><time>2026-04-22T11:53:00Z</time></trkpt><trkpt lat="44.1476084" lon="10.4092349"><ele>503.2857142857143</ele><time>2026-04-22T11:53:02Z</time></trkpt><trkpt lat="44.1476004" lon="10.4091434"><ele>504.7142857142857</ele><time>2026-04-22T11:53:04Z</time></trkpt><trkpt lat="44.1475884" lon="10.4090496"><ele>506.1428571428571</ele><time>2026-04-22T11:53:06Z</time></trkpt><trkpt lat="44.1475729" lon="10.4089523"><ele>507.5714285714285</ele><time>2026-04-22T11:53:08Z</time></trkpt><trkpt lat="44.1475585" lon="10.4088576"><ele>508.99999999999994</ele><time>2026-04-22T11:53:10Z</time></trkpt><trkpt lat="44.1475491" lon="10.4087684"><ele>509.99999999999994</ele><time>2026-04-22T11:53:12Z</time></trkpt><trkpt lat="44.1475319" lon="10.4086806"><ele>511.0</ele><time>2026-04-22T11:53:14Z</time></trkpt><trkpt lat="44.1475144" lon="10.4085939"><ele>511.99999999999994</ele><time>2026-04-22T11:53:16Z</time></trkpt><trkpt lat="44.1474965" lon="10.4085024"><ele>513.0</ele><time>2026-04-22T11:53:18Z</time></trkpt><trkpt lat="44.1474795" lon="10.4084145"><ele>514.0</ele><time>2026-04-22T11:53:20Z</time></trkpt><trkpt lat="44.1474492" lon="10.4083346"><ele>514.9999999999999</ele><time>2026-04-22T11:53:22Z</time></trkpt><trkpt lat="44.1474061" lon="10.4082651"><ele>516.0</ele><time>2026-04-22T11:53:24Z</time></trkpt><trkpt lat="44.1473643" lon="10.4081941"><ele>514.6666666666666</ele><time>2026-04-22T11:53:25.999Z</time></trkpt><trkpt lat="44.1473062" lon="10.4080941"><ele>513.3333333333334</ele><time>2026-04-22T11:53:28.999Z</time></trkpt><trkpt lat="44.1472475" lon="10.4080015"><ele>512.0</ele><time>2026-04-22T11:53:32Z</time></trkpt><trkpt lat="44.1472436" lon="10.4078926"><ele>510.6666666666667</ele><time>2026-04-22T11:53:35Z</time></trkpt><trkpt lat="44.1473184" lon="10.4078128"><ele>509.33333333333337</ele><time>2026-04-22T11:53:38Z</time></trkpt><trkpt lat="44.1473757" lon="10.4077719"><ele>508.0</ele><time>2026-04-22T11:53:40Z</time></trkpt><trkpt lat="44.1474372" lon="10.4077476"><ele>508.0</ele><time>2026-04-22T11:53:42Z</time></trkpt><trkpt lat="44.147501" lon="10.4077424"><ele>508.0</ele><time>2026-04-22T11:53:44Z</time></trkpt><trkpt lat="44.147564" lon="10.4077506"><ele>508.0</ele><time>2026-04-22T11:53:46Z</time></trkpt><trkpt lat="44.1476299" lon="10.4077685"><ele>508.0</ele><time>2026-04-22T11:53:48Z</time></trkpt><trkpt lat="44.1476933" lon="10.4077822"><ele>508.0</ele><time>2026-04-22T11:53:50Z</time></trkpt><trkpt lat="44.1477568" lon="10.4078011"><ele>508.0</ele><time>2026-04-22T11:53:52Z</time></trkpt><trkpt lat="44.147818" lon="10.4078229"><ele>508.0</ele><time>2026-04-22T11:53:54Z</time></trkpt><trkpt lat="44.1479009" lon="10.4078771"><ele>508.0</ele><time>2026-04-22T11:53:57Z</time></trkpt><trkpt lat="44.1479448" lon="10.4079467"><ele>508.0</ele><time>2026-04-22T11:53:59Z</time></trkpt><trkpt lat="44.1479747" lon="10.4080356"><ele>508.0</ele><time>2026-04-22T11:54:01Z</time></trkpt><trkpt lat="44.1479829" lon="10.4081328"><ele>508.0</ele><time>2026-04-22T11:54:03Z</time></trkpt><trkpt lat="44.1479874" lon="10.408232"><ele>508.0</ele><time>2026-04-22T11:54:05Z</time></trkpt><trkpt lat="44.1479973" lon="10.4083303"><ele>508.0</ele><time>2026-04-22T11:54:07Z</time></trkpt><trkpt lat="44.1480083" lon="10.4084265"><ele>508.0</ele><time>2026-04-22T11:54:09Z</time></trkpt><trkpt lat="44.1480203" lon="10.4085223"><ele>508.14285714285717</ele><time>2026-04-22T11:54:11Z</time></trkpt><trkpt lat="44.1480294" lon="10.4086157"><ele>508.2857142857142</ele><time>2026-04-22T11:54:13Z</time></trkpt><trkpt lat="44.1480368" lon="10.4087088"><ele>508.4285714285714</ele><time>2026-04-22T11:54:15Z</time></trkpt><trkpt lat="44.1480477" lon="10.408802"><ele>508.57142857142856</ele><time>2026-04-22T11:54:17Z</time></trkpt><trkpt lat="44.1480568" lon="10.4088919"><ele>508.71428571428567</ele><time>2026-04-22T11:54:19Z</time></trkpt><trkpt lat="44.1480666" lon="10.4089803"><ele>508.8571428571428</ele><time>2026-04-22T11:54:21Z</time></trkpt><trkpt lat="44.1480759" lon="10.4090726"><ele>508.99999999999994</ele><time>2026-04-22T11:54:23Z</time></trkpt><trkpt lat="44.148086" lon="10.4091664"><ele>508.99999999999994</ele><time>2026-04-22T11:54:25Z</time></trkpt><trkpt lat="44.1480963" lon="10.4092596"><ele>509.0</ele><time>2026-04-22T11:54:27Z</time></trkpt><trkpt lat="44.1481027" lon="10.4093544"><ele>508.99999999999994</ele><time>2026-04-22T11:54:29Z</time></trkpt><trkpt lat="44.1481149" lon="10.409451"><ele>508.99999999999994</ele><time>2026-04-22T11:54:31Z</time></trkpt><trkpt lat="44.148129" lon="10.4095458"><ele>509.0</ele><time>2026-04-22T11:54:33Z</time></trkpt><trkpt lat="44.1481438" lon="10.4096373"><ele>508.99999999999994</ele><time>2026-04-22T11:54:35.102Z</time></trkpt><trkpt lat="44.1481614" lon="10.4097285"><ele>508.99999999999994</ele><time>2026-04-22T11:54:37Z</time></trkpt><trkpt lat="44.1481748" lon="10.4098178"><ele>507.5714285714285</ele><time>2026-04-22T11:54:39Z</time></trkpt><trkpt lat="44.1481902" lon="10.4099096"><ele>506.1428571428571</ele><time>2026-04-22T11:54:41Z</time></trkpt><trkpt lat="44.1482125" lon="10.4099991"><ele>504.7142857142857</ele><time>2026-04-22T11:54:43Z</time></trkpt><trkpt lat="44.1482438" lon="10.4100825"><ele>503.2857142857143</ele><time>2026-04-22T11:54:45Z</time></trkpt><trkpt lat="44.1482656" lon="10.4101725"><ele>501.8571428571429</ele><time>2026-04-22T11:54:47Z</time></trkpt><trkpt lat="44.1482906" lon="10.4102614"><ele>500.4285714285715</ele><time>2026-04-22T11:54:48.999Z</time></trkpt><trkpt lat="44.1483077" lon="10.4103541"><ele>499.00000000000006</ele><time>2026-04-22T11:54:51Z</time></trkpt><trkpt lat="44.1483167" lon="10.4104464"><ele>502.7142857142858</ele><time>2026-04-22T11:54:53Z</time></trkpt><trkpt lat="44.1483532" lon="10.410565"><ele>506.42857142857144</ele><time>2026-04-22T11:54:56Z</time></trkpt><trkpt lat="44.1483752" lon="10.4106505"><ele>510.14285714285717</ele><time>2026-04-22T11:54:58Z</time></trkpt><trkpt lat="44.1484074" lon="10.4107362"><ele>513.8571428571429</ele><time>2026-04-22T11:55:00Z</time></trkpt><trkpt lat="44.1484411" lon="10.4108238"><ele>517.5714285714286</ele><time>2026-04-22T11:55:02Z</time></trkpt><trkpt lat="44.1484686" lon="10.4109139"><ele>521.2857142857143</ele><time>2026-04-22T11:55:04Z</time></trkpt><trkpt lat="44.1485051" lon="10.4110122"><ele>525.0</ele><time>2026-04-22T11:55:07Z</time></trkpt><trkpt lat="44.1485579" lon="10.4111283"><ele>525.0</ele><time>2026-04-22T11:55:10Z</time></trkpt><trkpt lat="44.148603" lon="10.411198"><ele>525.0</ele><time>2026-04-22T11:55:12Z</time></trkpt><trkpt lat="44.1486381" lon="10.4112755"><ele>525.0</ele><time>2026-04-22T11:55:14Z</time></trkpt><trkpt lat="44.1486786" lon="10.4113427"><ele>525.0</ele><time>2026-04-22T11:55:16Z</time></trkpt><trkpt lat="44.148736" lon="10.4113801"><ele>525.0</ele><time>2026-04-22T11:55:18Z</time></trkpt><trkpt lat="44.148803" lon="10.4114068"><ele>525.0</ele><time>2026-04-22T11:55:20Z</time></trkpt><trkpt lat="44.148873" lon="10.4113961"><ele>525.0</ele><time>2026-04-22T11:55:22Z</time></trkpt><trkpt lat="44.1489363" lon="10.4113515"><ele>525.0</ele><time>2026-04-22T11:55:24Z</time></trkpt><trkpt lat="44.1489932" lon="10.411291"><ele>525.0</ele><time>2026-04-22T11:55:26Z</time></trkpt><trkpt lat="44.1490516" lon="10.4112236"><ele>525.0</ele><time>2026-04-22T11:55:28Z</time></trkpt><trkpt lat="44.1491184" lon="10.4111621"><ele>525.0</ele><time>2026-04-22T11:55:30Z</time></trkpt><trkpt lat="44.1491867" lon="10.4111255"><ele>525.0</ele><time>2026-04-22T11:55:32Z</time></trkpt><trkpt lat="44.1492722" lon="10.4111289"><ele>525.0</ele><time>2026-04-22T11:55:34Z</time></trkpt><trkpt lat="44.1493479" lon="10.4111719"><ele>524.8571428571429</ele><time>2026-04-22T11:55:36Z</time></trkpt><trkpt lat="44.1494161" lon="10.4112168"><ele>524.7142857142858</ele><time>2026-04-22T11:55:38Z</time></trkpt><trkpt lat="44.1494854" lon="10.4112533"><ele>524.5714285714286</ele><time>2026-04-22T11:55:40Z</time></trkpt><trkpt lat="44.149552" lon="10.4112876"><ele>524.4285714285714</ele><time>2026-04-22T11:55:42Z</time></trkpt><trkpt lat="44.1496192" lon="10.4113324"><ele>524.2857142857143</ele><time>2026-04-22T11:55:44Z</time></trkpt><trkpt lat="44.149695" lon="10.4113718"><ele>524.1428571428571</ele><time>2026-04-22T11:55:46Z</time></trkpt><trkpt lat="44.14976" lon="10.4114126"><ele>524.0</ele><time>2026-04-22T11:55:47.999Z</time></trkpt><trkpt lat="44.1498343" lon="10.4114533"><ele>525.0</ele><time>2026-04-22T11:55:50Z</time></trkpt><trkpt lat="44.1499035" lon="10.4114952"><ele>526.0</ele><time>2026-04-22T11:55:52Z</time></trkpt><trkpt lat="44.149977" lon="10.4115302"><ele>527.0</ele><time>2026-04-22T11:55:54Z</time></trkpt><trkpt lat="44.1500788" lon="10.411584"><ele>528.0</ele><time>2026-04-22T11:55:57Z</time></trkpt><trkpt lat="44.1501492" lon="10.4116175"><ele>529.0</ele><time>2026-04-22T11:55:59Z</time></trkpt><trkpt lat="44.1502168" lon="10.4116457"><ele>530.0</ele><time>2026-04-22T11:56:01Z</time></trkpt><trkpt lat="44.1502834" lon="10.4116872"><ele>529.9999999999999</ele><time>2026-04-22T11:56:03Z</time></trkpt><trkpt lat="44.1503461" lon="10.4117238"><ele>530.0</ele><time>2026-04-22T11:56:05Z</time></trkpt><trkpt lat="44.1504086" lon="10.4117494"><ele>530.0</ele><time>2026-04-22T11:56:07Z</time></trkpt><trkpt lat="44.1504704" lon="10.4117706"><ele>530.0</ele><time>2026-04-22T11:56:09Z</time></trkpt><trkpt lat="44.1505507" lon="10.4118049"><ele>530.0</ele><time>2026-04-22T11:56:12Z</time></trkpt><trkpt lat="44.1506224" lon="10.4118212"><ele>529.9999999999999</ele><time>2026-04-22T11:56:15Z</time></trkpt><trkpt lat="44.1506952" lon="10.4118088"><ele>530.0</ele><time>2026-04-22T11:56:18Z</time></trkpt><trkpt lat="44.1507698" lon="10.4117922"><ele>530.1666666666666</ele><time>2026-04-22T11:56:21Z</time></trkpt><trkpt lat="44.1508445" lon="10.4118036"><ele>530.3333333333333</ele><time>2026-04-22T11:56:24Z</time></trkpt><trkpt lat="44.150919" lon="10.4118399"><ele>530.5</ele><time>2026-04-22T11:56:27Z</time></trkpt><trkpt lat="44.1509891" lon="10.4118887"><ele>530.6666666666666</ele><time>2026-04-22T11:56:30Z</time></trkpt><trkpt lat="44.1510648" lon="10.4119514"><ele>530.8333333333334</ele><time>2026-04-22T11:56:33Z</time></trkpt><trkpt lat="44.1510814" lon="10.4120389"><ele>531.0</ele><time>2026-04-22T11:56:36Z</time></trkpt><trkpt lat="44.1510115" lon="10.4120719"><ele>531.0</ele><time>2026-04-22T11:56:40Z</time></trkpt><trkpt lat="44.1509452" lon="10.4120755"><ele>531.0</ele><time>2026-04-22T11:56:43Z</time></trkpt><trkpt lat="44.1508757" lon="10.4120885"><ele>531.0</ele><time>2026-04-22T11:56:46Z</time></trkpt><trkpt lat="44.1508286" lon="10.4121616"><ele>546.0</ele><time>2026-04-22T11:56:50Z</time></trkpt><trkpt lat="44.1508054" lon="10.4122598"><ele>546.0</ele><time>2026-04-22T11:56:55Z</time></trkpt><trkpt lat="44.1507948" lon="10.4123556"><ele>546.0</ele><time>2026-04-22T11:56:59Z</time></trkpt><trkpt lat="44.1507729" lon="10.4124558"><ele>546.0</ele><time>2026-04-22T11:57:02.999Z</time></trkpt></trkseg></trk></gpx>